<?xml version="1.0" encoding="UTF-8" standalone="no" ?>
<gpx xmlns="http://www.topografix.com/GPX/1/1" xmlns:xsi="http://www.w3.org/2001/XMLSchema-instance" xsi:schemaLocation="http://www.topografix.com/GPX/1/1 http://www.topografix.com/GPX/1/1/gpx.xsd" version="1.1" creator="VisuGPX - https://www.visugpx.com">
  <metadata>
    <name>Prospection chemins praticables 1</name>
  </metadata>
  <trk>
    <name><![CDATA[La Croix au Loup]]></name>
    <extensions>
      <line xmlns="http://www.topografix.com/GPX/gpx_style/0/2">
        <color>0000FF</color>
        <width>4</width>
      </line>
    </extensions>
    <trkseg>
      <trkpt lat="47.70692" lon="5.1119">
        <ele>396.07</ele>
        <time>2021-01-20T13:39:40Z</time>
      </trkpt>
      <trkpt lat="47.70692" lon="5.1119">
        <ele>396.07</ele>
        <time>2021-01-20T13:39:40Z</time>
      </trkpt>
      <trkpt lat="47.70689" lon="5.11189">
        <ele>395.84</ele>
        <time>2021-01-20T13:39:49Z</time>
      </trkpt>
      <trkpt lat="47.70686" lon="5.11188">
        <ele>395.62</ele>
        <time>2021-01-20T13:39:52Z</time>
      </trkpt>
      <trkpt lat="47.70682" lon="5.11186">
        <ele>395.4</ele>
        <time>2021-01-20T13:39:55Z</time>
      </trkpt>
      <trkpt lat="47.7068" lon="5.11185">
        <ele>395.3</ele>
        <time>2021-01-20T13:39:58Z</time>
      </trkpt>
      <trkpt lat="47.70677" lon="5.11184">
        <ele>395.1</ele>
        <time>2021-01-20T13:40:01Z</time>
      </trkpt>
      <trkpt lat="47.70674" lon="5.11183">
        <ele>394.92</ele>
        <time>2021-01-20T13:40:10Z</time>
      </trkpt>
      <trkpt lat="47.7067" lon="5.11184">
        <ele>394.44</ele>
        <time>2021-01-20T13:40:14Z</time>
      </trkpt>
      <trkpt lat="47.70668" lon="5.11184">
        <ele>394.25</ele>
        <time>2021-01-20T13:40:21Z</time>
      </trkpt>
      <trkpt lat="47.70665" lon="5.11184">
        <ele>393.99</ele>
        <time>2021-01-20T13:40:25Z</time>
      </trkpt>
      <trkpt lat="47.70662" lon="5.11183">
        <ele>393.83</ele>
        <time>2021-01-20T13:40:28Z</time>
      </trkpt>
      <trkpt lat="47.70659" lon="5.1118">
        <ele>393.86</ele>
        <time>2021-01-20T13:40:32Z</time>
      </trkpt>
      <trkpt lat="47.70656" lon="5.11179">
        <ele>393.69</ele>
        <time>2021-01-20T13:40:35Z</time>
      </trkpt>
      <trkpt lat="47.70653" lon="5.11177">
        <ele>393.59</ele>
        <time>2021-01-20T13:40:38Z</time>
      </trkpt>
      <trkpt lat="47.7065" lon="5.11175">
        <ele>393.48</ele>
        <time>2021-01-20T13:40:41Z</time>
      </trkpt>
      <trkpt lat="47.70647" lon="5.11173">
        <ele>393.35</ele>
        <time>2021-01-20T13:40:44Z</time>
      </trkpt>
      <trkpt lat="47.70645" lon="5.11171">
        <ele>393.31</ele>
        <time>2021-01-20T13:40:47Z</time>
      </trkpt>
      <trkpt lat="47.70642" lon="5.11169">
        <ele>393.16</ele>
        <time>2021-01-20T13:40:50Z</time>
      </trkpt>
      <trkpt lat="47.70638" lon="5.11167">
        <ele>392.82</ele>
        <time>2021-01-20T13:40:53Z</time>
      </trkpt>
      <trkpt lat="47.70635" lon="5.11165">
        <ele>392.52</ele>
        <time>2021-01-20T13:40:56Z</time>
      </trkpt>
      <trkpt lat="47.70631" lon="5.11164">
        <ele>391.91</ele>
        <time>2021-01-20T13:40:59Z</time>
      </trkpt>
      <trkpt lat="47.70628" lon="5.11164">
        <ele>391.35</ele>
        <time>2021-01-20T13:41:01Z</time>
      </trkpt>
      <trkpt lat="47.70625" lon="5.11163">
        <ele>390.9</ele>
        <time>2021-01-20T13:41:04Z</time>
      </trkpt>
      <trkpt lat="47.70622" lon="5.11162">
        <ele>390.43</ele>
        <time>2021-01-20T13:41:07Z</time>
      </trkpt>
      <trkpt lat="47.7062" lon="5.1116">
        <ele>390.23</ele>
        <time>2021-01-20T13:41:10Z</time>
      </trkpt>
      <trkpt lat="47.70617" lon="5.11159">
        <ele>389.73</ele>
        <time>2021-01-20T13:41:13Z</time>
      </trkpt>
      <trkpt lat="47.70614" lon="5.11156">
        <ele>389.37</ele>
        <time>2021-01-20T13:41:16Z</time>
      </trkpt>
      <trkpt lat="47.7061" lon="5.11154">
        <ele>388.85</ele>
        <time>2021-01-20T13:41:19Z</time>
      </trkpt>
      <trkpt lat="47.70607" lon="5.11152">
        <ele>388.84</ele>
        <time>2021-01-20T13:41:22Z</time>
      </trkpt>
      <trkpt lat="47.70604" lon="5.1115">
        <ele>388.84</ele>
        <time>2021-01-20T13:41:25Z</time>
      </trkpt>
      <trkpt lat="47.70601" lon="5.11148">
        <ele>388.86</ele>
        <time>2021-01-20T13:41:28Z</time>
      </trkpt>
      <trkpt lat="47.70598" lon="5.11146">
        <ele>388.9</ele>
        <time>2021-01-20T13:41:31Z</time>
      </trkpt>
      <trkpt lat="47.70594" lon="5.11144">
        <ele>388.9</ele>
        <time>2021-01-20T13:41:34Z</time>
      </trkpt>
      <trkpt lat="47.70591" lon="5.11141">
        <ele>389.07</ele>
        <time>2021-01-20T13:41:37Z</time>
      </trkpt>
      <trkpt lat="47.70589" lon="5.1114">
        <ele>389.09</ele>
        <time>2021-01-20T13:41:40Z</time>
      </trkpt>
      <trkpt lat="47.70586" lon="5.11138">
        <ele>389.14</ele>
        <time>2021-01-20T13:41:47Z</time>
      </trkpt>
      <trkpt lat="47.70583" lon="5.11136">
        <ele>389.11</ele>
        <time>2021-01-20T13:41:50Z</time>
      </trkpt>
      <trkpt lat="47.70579" lon="5.11134">
        <ele>389.3</ele>
        <time>2021-01-20T13:41:53Z</time>
      </trkpt>
      <trkpt lat="47.70575" lon="5.11133">
        <ele>389.45</ele>
        <time>2021-01-20T13:41:56Z</time>
      </trkpt>
      <trkpt lat="47.70572" lon="5.11132">
        <ele>389.55</ele>
        <time>2021-01-20T13:41:59Z</time>
      </trkpt>
      <trkpt lat="47.70568" lon="5.1113">
        <ele>389.7</ele>
        <time>2021-01-20T13:42:02Z</time>
      </trkpt>
      <trkpt lat="47.70565" lon="5.11129">
        <ele>389.78</ele>
        <time>2021-01-20T13:42:05Z</time>
      </trkpt>
      <trkpt lat="47.70561" lon="5.11128">
        <ele>389.88</ele>
        <time>2021-01-20T13:42:08Z</time>
      </trkpt>
      <trkpt lat="47.70558" lon="5.11127">
        <ele>389.95</ele>
        <time>2021-01-20T13:42:11Z</time>
      </trkpt>
      <trkpt lat="47.70555" lon="5.11126">
        <ele>390.07</ele>
        <time>2021-01-20T13:42:14Z</time>
      </trkpt>
      <trkpt lat="47.70552" lon="5.11125">
        <ele>390.45</ele>
        <time>2021-01-20T13:42:17Z</time>
      </trkpt>
      <trkpt lat="47.70548" lon="5.11123">
        <ele>390.97</ele>
        <time>2021-01-20T13:42:20Z</time>
      </trkpt>
      <trkpt lat="47.70546" lon="5.11122">
        <ele>391.24</ele>
        <time>2021-01-20T13:42:22Z</time>
      </trkpt>
      <trkpt lat="47.70543" lon="5.11121">
        <ele>391.65</ele>
        <time>2021-01-20T13:42:24Z</time>
      </trkpt>
      <trkpt lat="47.70539" lon="5.11119">
        <ele>392.21</ele>
        <time>2021-01-20T13:42:27Z</time>
      </trkpt>
      <trkpt lat="47.70535" lon="5.11118">
        <ele>392.78</ele>
        <time>2021-01-20T13:42:30Z</time>
      </trkpt>
      <trkpt lat="47.70532" lon="5.11117">
        <ele>393.21</ele>
        <time>2021-01-20T13:42:33Z</time>
      </trkpt>
      <trkpt lat="47.70528" lon="5.11116">
        <ele>393.79</ele>
        <time>2021-01-20T13:42:36Z</time>
      </trkpt>
      <trkpt lat="47.70525" lon="5.11115">
        <ele>393.93</ele>
        <time>2021-01-20T13:42:39Z</time>
      </trkpt>
      <trkpt lat="47.70522" lon="5.11114">
        <ele>394.06</ele>
        <time>2021-01-20T13:42:42Z</time>
      </trkpt>
      <trkpt lat="47.70519" lon="5.11113">
        <ele>394.21</ele>
        <time>2021-01-20T13:42:45Z</time>
      </trkpt>
      <trkpt lat="47.70516" lon="5.11112">
        <ele>394.36</ele>
        <time>2021-01-20T13:42:47Z</time>
      </trkpt>
      <trkpt lat="47.70513" lon="5.11111">
        <ele>394.52</ele>
        <time>2021-01-20T13:42:50Z</time>
      </trkpt>
      <trkpt lat="47.70509" lon="5.1111">
        <ele>394.57</ele>
        <time>2021-01-20T13:42:53Z</time>
      </trkpt>
      <trkpt lat="47.70506" lon="5.11108">
        <ele>394.43</ele>
        <time>2021-01-20T13:42:56Z</time>
      </trkpt>
      <trkpt lat="47.70503" lon="5.11107">
        <ele>394.36</ele>
        <time>2021-01-20T13:42:59Z</time>
      </trkpt>
      <trkpt lat="47.70499" lon="5.11105">
        <ele>394.04</ele>
        <time>2021-01-20T13:43:02Z</time>
      </trkpt>
      <trkpt lat="47.70497" lon="5.11103">
        <ele>393.6</ele>
        <time>2021-01-20T13:43:04Z</time>
      </trkpt>
      <trkpt lat="47.70494" lon="5.11101">
        <ele>393.13</ele>
        <time>2021-01-20T13:43:07Z</time>
      </trkpt>
      <trkpt lat="47.70491" lon="5.111">
        <ele>392.82</ele>
        <time>2021-01-20T13:43:10Z</time>
      </trkpt>
      <trkpt lat="47.70488" lon="5.11098">
        <ele>392.43</ele>
        <time>2021-01-20T13:43:13Z</time>
      </trkpt>
      <trkpt lat="47.70485" lon="5.11097">
        <ele>392.17</ele>
        <time>2021-01-20T13:43:16Z</time>
      </trkpt>
      <trkpt lat="47.70482" lon="5.11096">
        <ele>391.94</ele>
        <time>2021-01-20T13:43:19Z</time>
      </trkpt>
      <trkpt lat="47.70479" lon="5.11094">
        <ele>391.67</ele>
        <time>2021-01-20T13:43:22Z</time>
      </trkpt>
      <trkpt lat="47.70475" lon="5.11092">
        <ele>391.41</ele>
        <time>2021-01-20T13:43:25Z</time>
      </trkpt>
      <trkpt lat="47.70472" lon="5.1109">
        <ele>391.24</ele>
        <time>2021-01-20T13:43:28Z</time>
      </trkpt>
      <trkpt lat="47.70469" lon="5.11088">
        <ele>391.25</ele>
        <time>2021-01-20T13:43:31Z</time>
      </trkpt>
      <trkpt lat="47.70466" lon="5.11086">
        <ele>391.28</ele>
        <time>2021-01-20T13:43:34Z</time>
      </trkpt>
      <trkpt lat="47.70463" lon="5.11084">
        <ele>391.34</ele>
        <time>2021-01-20T13:43:37Z</time>
      </trkpt>
      <trkpt lat="47.7046" lon="5.11082">
        <ele>391.41</ele>
        <time>2021-01-20T13:43:40Z</time>
      </trkpt>
      <trkpt lat="47.70457" lon="5.11082">
        <ele>391.53</ele>
        <time>2021-01-20T13:43:43Z</time>
      </trkpt>
      <trkpt lat="47.70453" lon="5.11081">
        <ele>391.67</ele>
        <time>2021-01-20T13:43:46Z</time>
      </trkpt>
      <trkpt lat="47.70451" lon="5.1108">
        <ele>391.74</ele>
        <time>2021-01-20T13:43:49Z</time>
      </trkpt>
      <trkpt lat="47.70448" lon="5.11079">
        <ele>391.85</ele>
        <time>2021-01-20T13:43:52Z</time>
      </trkpt>
      <trkpt lat="47.70445" lon="5.11076">
        <ele>391.97</ele>
        <time>2021-01-20T13:43:56Z</time>
      </trkpt>
      <trkpt lat="47.70442" lon="5.11075">
        <ele>391.82</ele>
        <time>2021-01-20T13:43:59Z</time>
      </trkpt>
      <trkpt lat="47.70439" lon="5.11074">
        <ele>391.61</ele>
        <time>2021-01-20T13:44:01Z</time>
      </trkpt>
      <trkpt lat="47.70435" lon="5.11073">
        <ele>391.36</ele>
        <time>2021-01-20T13:44:06Z</time>
      </trkpt>
      <trkpt lat="47.70432" lon="5.11071">
        <ele>391.25</ele>
        <time>2021-01-20T13:44:08Z</time>
      </trkpt>
      <trkpt lat="47.7043" lon="5.11071">
        <ele>391.13</ele>
        <time>2021-01-20T13:44:11Z</time>
      </trkpt>
      <trkpt lat="47.70427" lon="5.11071">
        <ele>390.95</ele>
        <time>2021-01-20T13:44:14Z</time>
      </trkpt>
      <trkpt lat="47.70424" lon="5.11071">
        <ele>390.77</ele>
        <time>2021-01-20T13:44:17Z</time>
      </trkpt>
      <trkpt lat="47.70421" lon="5.1107">
        <ele>390.68</ele>
        <time>2021-01-20T13:44:20Z</time>
      </trkpt>
      <trkpt lat="47.70417" lon="5.11069">
        <ele>390.57</ele>
        <time>2021-01-20T13:44:23Z</time>
      </trkpt>
      <trkpt lat="47.70413" lon="5.11068">
        <ele>390.54</ele>
        <time>2021-01-20T13:44:26Z</time>
      </trkpt>
      <trkpt lat="47.7041" lon="5.11067">
        <ele>390.57</ele>
        <time>2021-01-20T13:44:29Z</time>
      </trkpt>
      <trkpt lat="47.70406" lon="5.11066">
        <ele>390.58</ele>
        <time>2021-01-20T13:44:32Z</time>
      </trkpt>
      <trkpt lat="47.70403" lon="5.11065">
        <ele>390.65</ele>
        <time>2021-01-20T13:44:35Z</time>
      </trkpt>
      <trkpt lat="47.704" lon="5.11064">
        <ele>390.72</ele>
        <time>2021-01-20T13:44:37Z</time>
      </trkpt>
      <trkpt lat="47.70397" lon="5.11063">
        <ele>390.82</ele>
        <time>2021-01-20T13:44:39Z</time>
      </trkpt>
      <trkpt lat="47.70394" lon="5.11062">
        <ele>390.93</ele>
        <time>2021-01-20T13:44:41Z</time>
      </trkpt>
      <trkpt lat="47.70391" lon="5.1106">
        <ele>391.22</ele>
        <time>2021-01-20T13:44:44Z</time>
      </trkpt>
      <trkpt lat="47.70388" lon="5.11058">
        <ele>391.37</ele>
        <time>2021-01-20T13:44:47Z</time>
      </trkpt>
      <trkpt lat="47.70385" lon="5.11056">
        <ele>391.08</ele>
        <time>2021-01-20T13:44:51Z</time>
      </trkpt>
      <trkpt lat="47.70381" lon="5.11055">
        <ele>390.33</ele>
        <time>2021-01-20T13:44:54Z</time>
      </trkpt>
      <trkpt lat="47.70377" lon="5.11053">
        <ele>389.6</ele>
        <time>2021-01-20T13:44:57Z</time>
      </trkpt>
      <trkpt lat="47.70374" lon="5.1105">
        <ele>389.2</ele>
        <time>2021-01-20T13:45:00Z</time>
      </trkpt>
      <trkpt lat="47.7037" lon="5.11049">
        <ele>388.48</ele>
        <time>2021-01-20T13:45:03Z</time>
      </trkpt>
      <trkpt lat="47.70368" lon="5.11048">
        <ele>388.17</ele>
        <time>2021-01-20T13:45:06Z</time>
      </trkpt>
      <trkpt lat="47.70365" lon="5.11046">
        <ele>387.78</ele>
        <time>2021-01-20T13:45:09Z</time>
      </trkpt>
      <trkpt lat="47.70361" lon="5.11043">
        <ele>387.33</ele>
        <time>2021-01-20T13:45:12Z</time>
      </trkpt>
      <trkpt lat="47.70358" lon="5.11041">
        <ele>386.96</ele>
        <time>2021-01-20T13:45:15Z</time>
      </trkpt>
      <trkpt lat="47.70354" lon="5.11038">
        <ele>386.59</ele>
        <time>2021-01-20T13:45:18Z</time>
      </trkpt>
      <trkpt lat="47.70352" lon="5.11036">
        <ele>386.51</ele>
        <time>2021-01-20T13:45:20Z</time>
      </trkpt>
      <trkpt lat="47.70349" lon="5.11034">
        <ele>386.29</ele>
        <time>2021-01-20T13:45:22Z</time>
      </trkpt>
      <trkpt lat="47.70346" lon="5.11032">
        <ele>386.12</ele>
        <time>2021-01-20T13:45:24Z</time>
      </trkpt>
      <trkpt lat="47.70343" lon="5.11029">
        <ele>386.17</ele>
        <time>2021-01-20T13:45:27Z</time>
      </trkpt>
      <trkpt lat="47.70341" lon="5.11027">
        <ele>386.31</ele>
        <time>2021-01-20T13:45:30Z</time>
      </trkpt>
      <trkpt lat="47.70338" lon="5.11024">
        <ele>386.71</ele>
        <time>2021-01-20T13:45:33Z</time>
      </trkpt>
      <trkpt lat="47.70335" lon="5.11021">
        <ele>387.16</ele>
        <time>2021-01-20T13:45:36Z</time>
      </trkpt>
      <trkpt lat="47.70332" lon="5.11017">
        <ele>387.99</ele>
        <time>2021-01-20T13:45:39Z</time>
      </trkpt>
      <trkpt lat="47.7033" lon="5.11014">
        <ele>388.67</ele>
        <time>2021-01-20T13:45:42Z</time>
      </trkpt>
      <trkpt lat="47.70327" lon="5.11011">
        <ele>389.24</ele>
        <time>2021-01-20T13:45:45Z</time>
      </trkpt>
      <trkpt lat="47.70324" lon="5.11007">
        <ele>390.06</ele>
        <time>2021-01-20T13:45:48Z</time>
      </trkpt>
      <trkpt lat="47.70322" lon="5.11004">
        <ele>390.68</ele>
        <time>2021-01-20T13:45:50Z</time>
      </trkpt>
      <trkpt lat="47.70319" lon="5.11001">
        <ele>391.18</ele>
        <time>2021-01-20T13:45:52Z</time>
      </trkpt>
      <trkpt lat="47.70317" lon="5.10997">
        <ele>391.62</ele>
        <time>2021-01-20T13:45:54Z</time>
      </trkpt>
      <trkpt lat="47.70315" lon="5.10994">
        <ele>391.81</ele>
        <time>2021-01-20T13:45:56Z</time>
      </trkpt>
      <trkpt lat="47.70312" lon="5.10991">
        <ele>391.92</ele>
        <time>2021-01-20T13:45:58Z</time>
      </trkpt>
      <trkpt lat="47.7031" lon="5.10989">
        <ele>392</ele>
        <time>2021-01-20T13:46:01Z</time>
      </trkpt>
      <trkpt lat="47.70307" lon="5.10987">
        <ele>392</ele>
        <time>2021-01-20T13:46:30Z</time>
      </trkpt>
      <trkpt lat="47.70304" lon="5.10987">
        <ele>391.76</ele>
        <time>2021-01-20T13:46:32Z</time>
      </trkpt>
      <trkpt lat="47.70301" lon="5.10985">
        <ele>391.83</ele>
        <time>2021-01-20T13:46:34Z</time>
      </trkpt>
      <trkpt lat="47.70299" lon="5.10983">
        <ele>391.98</ele>
        <time>2021-01-20T13:46:36Z</time>
      </trkpt>
      <trkpt lat="47.70296" lon="5.1098">
        <ele>392.19</ele>
        <time>2021-01-20T13:46:39Z</time>
      </trkpt>
      <trkpt lat="47.70293" lon="5.10977">
        <ele>392.41</ele>
        <time>2021-01-20T13:46:42Z</time>
      </trkpt>
      <trkpt lat="47.7029" lon="5.10975">
        <ele>392.48</ele>
        <time>2021-01-20T13:46:45Z</time>
      </trkpt>
      <trkpt lat="47.70287" lon="5.10971">
        <ele>392.9</ele>
        <time>2021-01-20T13:46:48Z</time>
      </trkpt>
      <trkpt lat="47.70283" lon="5.10968">
        <ele>393.23</ele>
        <time>2021-01-20T13:46:51Z</time>
      </trkpt>
      <trkpt lat="47.7028" lon="5.10965">
        <ele>393.68</ele>
        <time>2021-01-20T13:46:54Z</time>
      </trkpt>
      <trkpt lat="47.70277" lon="5.10961">
        <ele>394.31</ele>
        <time>2021-01-20T13:46:57Z</time>
      </trkpt>
      <trkpt lat="47.70276" lon="5.10958">
        <ele>394.78</ele>
        <time>2021-01-20T13:46:59Z</time>
      </trkpt>
      <trkpt lat="47.70273" lon="5.10955">
        <ele>394.88</ele>
        <time>2021-01-20T13:47:01Z</time>
      </trkpt>
      <trkpt lat="47.70271" lon="5.10952">
        <ele>395.1</ele>
        <time>2021-01-20T13:47:03Z</time>
      </trkpt>
      <trkpt lat="47.70269" lon="5.10949">
        <ele>395.28</ele>
        <time>2021-01-20T13:47:05Z</time>
      </trkpt>
      <trkpt lat="47.70267" lon="5.10945">
        <ele>395.58</ele>
        <time>2021-01-20T13:47:07Z</time>
      </trkpt>
      <trkpt lat="47.70264" lon="5.10941">
        <ele>395.27</ele>
        <time>2021-01-20T13:47:10Z</time>
      </trkpt>
      <trkpt lat="47.70262" lon="5.10939">
        <ele>395.01</ele>
        <time>2021-01-20T13:47:12Z</time>
      </trkpt>
      <trkpt lat="47.7026" lon="5.10936">
        <ele>394.85</ele>
        <time>2021-01-20T13:47:14Z</time>
      </trkpt>
      <trkpt lat="47.70257" lon="5.10934">
        <ele>394.45</ele>
        <time>2021-01-20T13:47:16Z</time>
      </trkpt>
      <trkpt lat="47.70255" lon="5.10931">
        <ele>394.36</ele>
        <time>2021-01-20T13:47:18Z</time>
      </trkpt>
      <trkpt lat="47.70252" lon="5.10929">
        <ele>394.02</ele>
        <time>2021-01-20T13:47:20Z</time>
      </trkpt>
      <trkpt lat="47.7025" lon="5.10926">
        <ele>393.99</ele>
        <time>2021-01-20T13:47:22Z</time>
      </trkpt>
      <trkpt lat="47.70248" lon="5.10924">
        <ele>394.08</ele>
        <time>2021-01-20T13:47:24Z</time>
      </trkpt>
      <trkpt lat="47.70245" lon="5.10921">
        <ele>394.2</ele>
        <time>2021-01-20T13:47:26Z</time>
      </trkpt>
      <trkpt lat="47.70242" lon="5.10919">
        <ele>394.2</ele>
        <time>2021-01-20T13:47:29Z</time>
      </trkpt>
      <trkpt lat="47.70239" lon="5.10916">
        <ele>394.23</ele>
        <time>2021-01-20T13:47:32Z</time>
      </trkpt>
      <trkpt lat="47.70235" lon="5.10914">
        <ele>394.02</ele>
        <time>2021-01-20T13:47:35Z</time>
      </trkpt>
      <trkpt lat="47.70232" lon="5.10912">
        <ele>393.92</ele>
        <time>2021-01-20T13:47:37Z</time>
      </trkpt>
      <trkpt lat="47.70229" lon="5.1091">
        <ele>393.85</ele>
        <time>2021-01-20T13:47:39Z</time>
      </trkpt>
      <trkpt lat="47.70227" lon="5.10909">
        <ele>393.8</ele>
        <time>2021-01-20T13:47:41Z</time>
      </trkpt>
      <trkpt lat="47.70224" lon="5.10907">
        <ele>393.78</ele>
        <time>2021-01-20T13:47:43Z</time>
      </trkpt>
      <trkpt lat="47.70221" lon="5.10905">
        <ele>393.84</ele>
        <time>2021-01-20T13:47:45Z</time>
      </trkpt>
      <trkpt lat="47.70218" lon="5.10904">
        <ele>393.91</ele>
        <time>2021-01-20T13:47:47Z</time>
      </trkpt>
      <trkpt lat="47.70215" lon="5.10901">
        <ele>394.13</ele>
        <time>2021-01-20T13:47:50Z</time>
      </trkpt>
      <trkpt lat="47.70211" lon="5.109">
        <ele>394.2</ele>
        <time>2021-01-20T13:47:53Z</time>
      </trkpt>
      <trkpt lat="47.70208" lon="5.10898">
        <ele>394.34</ele>
        <time>2021-01-20T13:47:56Z</time>
      </trkpt>
      <trkpt lat="47.70205" lon="5.10895">
        <ele>394.56</ele>
        <time>2021-01-20T13:47:59Z</time>
      </trkpt>
      <trkpt lat="47.70201" lon="5.10894">
        <ele>394.63</ele>
        <time>2021-01-20T13:48:02Z</time>
      </trkpt>
      <trkpt lat="47.70198" lon="5.10892">
        <ele>394.78</ele>
        <time>2021-01-20T13:48:06Z</time>
      </trkpt>
      <trkpt lat="47.70195" lon="5.10889">
        <ele>394.99</ele>
        <time>2021-01-20T13:48:10Z</time>
      </trkpt>
      <trkpt lat="47.70192" lon="5.10886">
        <ele>395.4</ele>
        <time>2021-01-20T13:48:14Z</time>
      </trkpt>
      <trkpt lat="47.70189" lon="5.10884">
        <ele>395.72</ele>
        <time>2021-01-20T13:48:17Z</time>
      </trkpt>
      <trkpt lat="47.70186" lon="5.10882">
        <ele>396.05</ele>
        <time>2021-01-20T13:48:20Z</time>
      </trkpt>
      <trkpt lat="47.70183" lon="5.10879">
        <ele>396.48</ele>
        <time>2021-01-20T13:48:23Z</time>
      </trkpt>
      <trkpt lat="47.70181" lon="5.10876">
        <ele>396.88</ele>
        <time>2021-01-20T13:48:25Z</time>
      </trkpt>
      <trkpt lat="47.70179" lon="5.10873">
        <ele>397.27</ele>
        <time>2021-01-20T13:48:27Z</time>
      </trkpt>
      <trkpt lat="47.70176" lon="5.1087">
        <ele>397.7</ele>
        <time>2021-01-20T13:48:29Z</time>
      </trkpt>
      <trkpt lat="47.70174" lon="5.10867">
        <ele>398.1</ele>
        <time>2021-01-20T13:48:31Z</time>
      </trkpt>
      <trkpt lat="47.70172" lon="5.10864">
        <ele>398.5</ele>
        <time>2021-01-20T13:48:33Z</time>
      </trkpt>
      <trkpt lat="47.7017" lon="5.10861">
        <ele>398.89</ele>
        <time>2021-01-20T13:48:35Z</time>
      </trkpt>
      <trkpt lat="47.70168" lon="5.10859">
        <ele>399.09</ele>
        <time>2021-01-20T13:48:37Z</time>
      </trkpt>
      <trkpt lat="47.70165" lon="5.10855">
        <ele>399.4</ele>
        <time>2021-01-20T13:48:40Z</time>
      </trkpt>
      <trkpt lat="47.70162" lon="5.10852">
        <ele>399.49</ele>
        <time>2021-01-20T13:48:43Z</time>
      </trkpt>
      <trkpt lat="47.7016" lon="5.10849">
        <ele>399.56</ele>
        <time>2021-01-20T13:48:45Z</time>
      </trkpt>
      <trkpt lat="47.70158" lon="5.10846">
        <ele>399.58</ele>
        <time>2021-01-20T13:48:47Z</time>
      </trkpt>
      <trkpt lat="47.70156" lon="5.10842">
        <ele>399.58</ele>
        <time>2021-01-20T13:48:49Z</time>
      </trkpt>
      <trkpt lat="47.70154" lon="5.10839">
        <ele>399.5</ele>
        <time>2021-01-20T13:48:51Z</time>
      </trkpt>
      <trkpt lat="47.70152" lon="5.10836">
        <ele>399.38</ele>
        <time>2021-01-20T13:48:53Z</time>
      </trkpt>
      <trkpt lat="47.7015" lon="5.10831">
        <ele>399.1</ele>
        <time>2021-01-20T13:48:56Z</time>
      </trkpt>
      <trkpt lat="47.70149" lon="5.10826">
        <ele>398.76</ele>
        <time>2021-01-20T13:48:59Z</time>
      </trkpt>
      <trkpt lat="47.70148" lon="5.10821">
        <ele>398.39</ele>
        <time>2021-01-20T13:49:02Z</time>
      </trkpt>
      <trkpt lat="47.70147" lon="5.10817">
        <ele>398.04</ele>
        <time>2021-01-20T13:49:04Z</time>
      </trkpt>
      <trkpt lat="47.70146" lon="5.10812">
        <ele>397.63</ele>
        <time>2021-01-20T13:49:07Z</time>
      </trkpt>
      <trkpt lat="47.70144" lon="5.10808">
        <ele>397.06</ele>
        <time>2021-01-20T13:49:10Z</time>
      </trkpt>
      <trkpt lat="47.70143" lon="5.10803">
        <ele>396.73</ele>
        <time>2021-01-20T13:49:13Z</time>
      </trkpt>
      <trkpt lat="47.70141" lon="5.10799">
        <ele>396.36</ele>
        <time>2021-01-20T13:49:16Z</time>
      </trkpt>
      <trkpt lat="47.70139" lon="5.10794">
        <ele>396.02</ele>
        <time>2021-01-20T13:49:19Z</time>
      </trkpt>
      <trkpt lat="47.70137" lon="5.10789">
        <ele>396.03</ele>
        <time>2021-01-20T13:49:22Z</time>
      </trkpt>
      <trkpt lat="47.70136" lon="5.10784">
        <ele>396.02</ele>
        <time>2021-01-20T13:49:25Z</time>
      </trkpt>
      <trkpt lat="47.70135" lon="5.1078">
        <ele>396.01</ele>
        <time>2021-01-20T13:49:28Z</time>
      </trkpt>
      <trkpt lat="47.70134" lon="5.10776">
        <ele>395.94</ele>
        <time>2021-01-20T13:49:31Z</time>
      </trkpt>
      <trkpt lat="47.70134" lon="5.10771">
        <ele>395.76</ele>
        <time>2021-01-20T13:49:34Z</time>
      </trkpt>
      <trkpt lat="47.70132" lon="5.10766">
        <ele>395.58</ele>
        <time>2021-01-20T13:49:37Z</time>
      </trkpt>
      <trkpt lat="47.70131" lon="5.10761">
        <ele>395.4</ele>
        <time>2021-01-20T13:49:40Z</time>
      </trkpt>
      <trkpt lat="47.7013" lon="5.10757">
        <ele>395.25</ele>
        <time>2021-01-20T13:49:42Z</time>
      </trkpt>
      <trkpt lat="47.70129" lon="5.10752">
        <ele>395.07</ele>
        <time>2021-01-20T13:49:45Z</time>
      </trkpt>
      <trkpt lat="47.70129" lon="5.10747">
        <ele>394.89</ele>
        <time>2021-01-20T13:49:48Z</time>
      </trkpt>
      <trkpt lat="47.70128" lon="5.1074">
        <ele>394.64</ele>
        <time>2021-01-20T13:49:51Z</time>
      </trkpt>
      <trkpt lat="47.70127" lon="5.10736">
        <ele>394.5</ele>
        <time>2021-01-20T13:49:53Z</time>
      </trkpt>
      <trkpt lat="47.70127" lon="5.10732">
        <ele>394.35</ele>
        <time>2021-01-20T13:49:55Z</time>
      </trkpt>
      <trkpt lat="47.70127" lon="5.10726">
        <ele>394.14</ele>
        <time>2021-01-20T13:49:58Z</time>
      </trkpt>
      <trkpt lat="47.70126" lon="5.10721">
        <ele>393.96</ele>
        <time>2021-01-20T13:50:01Z</time>
      </trkpt>
      <trkpt lat="47.70126" lon="5.10715">
        <ele>393.74</ele>
        <time>2021-01-20T13:50:04Z</time>
      </trkpt>
      <trkpt lat="47.70126" lon="5.10711">
        <ele>393.6</ele>
        <time>2021-01-20T13:50:06Z</time>
      </trkpt>
      <trkpt lat="47.70125" lon="5.10707">
        <ele>393.45</ele>
        <time>2021-01-20T13:50:08Z</time>
      </trkpt>
      <trkpt lat="47.70125" lon="5.10702">
        <ele>393.27</ele>
        <time>2021-01-20T13:50:10Z</time>
      </trkpt>
      <trkpt lat="47.70124" lon="5.10698">
        <ele>393.13</ele>
        <time>2021-01-20T13:50:12Z</time>
      </trkpt>
      <trkpt lat="47.70123" lon="5.10694">
        <ele>392.98</ele>
        <time>2021-01-20T13:50:14Z</time>
      </trkpt>
      <trkpt lat="47.70122" lon="5.10688">
        <ele>392.77</ele>
        <time>2021-01-20T13:50:17Z</time>
      </trkpt>
      <trkpt lat="47.70122" lon="5.10683">
        <ele>392.59</ele>
        <time>2021-01-20T13:50:20Z</time>
      </trkpt>
      <trkpt lat="47.70122" lon="5.10679">
        <ele>392.44</ele>
        <time>2021-01-20T13:50:23Z</time>
      </trkpt>
      <trkpt lat="47.70121" lon="5.10674">
        <ele>392.26</ele>
        <time>2021-01-20T13:50:26Z</time>
      </trkpt>
      <trkpt lat="47.70121" lon="5.10668">
        <ele>392.05</ele>
        <time>2021-01-20T13:50:29Z</time>
      </trkpt>
      <trkpt lat="47.70121" lon="5.10663">
        <ele>391.78</ele>
        <time>2021-01-20T13:50:32Z</time>
      </trkpt>
      <trkpt lat="47.70122" lon="5.10658">
        <ele>391.5</ele>
        <time>2021-01-20T13:50:35Z</time>
      </trkpt>
      <trkpt lat="47.70124" lon="5.10653">
        <ele>391.24</ele>
        <time>2021-01-20T13:50:38Z</time>
      </trkpt>
      <trkpt lat="47.70127" lon="5.10649">
        <ele>391.09</ele>
        <time>2021-01-20T13:50:41Z</time>
      </trkpt>
      <trkpt lat="47.70129" lon="5.10645">
        <ele>390.94</ele>
        <time>2021-01-20T13:50:44Z</time>
      </trkpt>
      <trkpt lat="47.70132" lon="5.10641">
        <ele>390.85</ele>
        <time>2021-01-20T13:50:47Z</time>
      </trkpt>
      <trkpt lat="47.70136" lon="5.10638">
        <ele>390.89</ele>
        <time>2021-01-20T13:50:50Z</time>
      </trkpt>
      <trkpt lat="47.70138" lon="5.10636">
        <ele>390.96</ele>
        <time>2021-01-20T13:50:52Z</time>
      </trkpt>
      <trkpt lat="47.70141" lon="5.10633">
        <ele>391.04</ele>
        <time>2021-01-20T13:50:54Z</time>
      </trkpt>
      <trkpt lat="47.70145" lon="5.1063">
        <ele>391.08</ele>
        <time>2021-01-20T13:50:56Z</time>
      </trkpt>
      <trkpt lat="47.70148" lon="5.10627">
        <ele>391.05</ele>
        <time>2021-01-20T13:50:58Z</time>
      </trkpt>
      <trkpt lat="47.70151" lon="5.10624">
        <ele>390.97</ele>
        <time>2021-01-20T13:51:00Z</time>
      </trkpt>
      <trkpt lat="47.70154" lon="5.10621">
        <ele>390.84</ele>
        <time>2021-01-20T13:51:02Z</time>
      </trkpt>
      <trkpt lat="47.70157" lon="5.10618">
        <ele>390.67</ele>
        <time>2021-01-20T13:51:05Z</time>
      </trkpt>
      <trkpt lat="47.7016" lon="5.10615">
        <ele>390.45</ele>
        <time>2021-01-20T13:51:09Z</time>
      </trkpt>
      <trkpt lat="47.70162" lon="5.10611">
        <ele>390.16</ele>
        <time>2021-01-20T13:51:12Z</time>
      </trkpt>
      <trkpt lat="47.70165" lon="5.10608">
        <ele>389.95</ele>
        <time>2021-01-20T13:51:15Z</time>
      </trkpt>
      <trkpt lat="47.70167" lon="5.10604">
        <ele>389.72</ele>
        <time>2021-01-20T13:51:18Z</time>
      </trkpt>
      <trkpt lat="47.7017" lon="5.10601">
        <ele>389.4</ele>
        <time>2021-01-20T13:51:21Z</time>
      </trkpt>
      <trkpt lat="47.70172" lon="5.10597">
        <ele>389.11</ele>
        <time>2021-01-20T13:51:24Z</time>
      </trkpt>
      <trkpt lat="47.70175" lon="5.10594">
        <ele>388.78</ele>
        <time>2021-01-20T13:51:27Z</time>
      </trkpt>
      <trkpt lat="47.70178" lon="5.1059">
        <ele>388.42</ele>
        <time>2021-01-20T13:51:30Z</time>
      </trkpt>
      <trkpt lat="47.70181" lon="5.10587">
        <ele>388.1</ele>
        <time>2021-01-20T13:51:33Z</time>
      </trkpt>
      <trkpt lat="47.70184" lon="5.10583">
        <ele>387.75</ele>
        <time>2021-01-20T13:51:36Z</time>
      </trkpt>
      <trkpt lat="47.70187" lon="5.1058">
        <ele>387.48</ele>
        <time>2021-01-20T13:51:39Z</time>
      </trkpt>
      <trkpt lat="47.7019" lon="5.10576">
        <ele>387.14</ele>
        <time>2021-01-20T13:51:42Z</time>
      </trkpt>
      <trkpt lat="47.70192" lon="5.10573">
        <ele>386.87</ele>
        <time>2021-01-20T13:51:45Z</time>
      </trkpt>
      <trkpt lat="47.70195" lon="5.10569">
        <ele>386.51</ele>
        <time>2021-01-20T13:51:48Z</time>
      </trkpt>
      <trkpt lat="47.70198" lon="5.10565">
        <ele>386.55</ele>
        <time>2021-01-20T13:51:51Z</time>
      </trkpt>
      <trkpt lat="47.702" lon="5.10563">
        <ele>386.61</ele>
        <time>2021-01-20T13:51:53Z</time>
      </trkpt>
      <trkpt lat="47.70203" lon="5.10559">
        <ele>386.7</ele>
        <time>2021-01-20T13:51:56Z</time>
      </trkpt>
      <trkpt lat="47.70206" lon="5.10556">
        <ele>386.84</ele>
        <time>2021-01-20T13:51:59Z</time>
      </trkpt>
      <trkpt lat="47.70208" lon="5.10553">
        <ele>386.93</ele>
        <time>2021-01-20T13:52:01Z</time>
      </trkpt>
      <trkpt lat="47.7021" lon="5.10551">
        <ele>387.01</ele>
        <time>2021-01-20T13:52:03Z</time>
      </trkpt>
      <trkpt lat="47.70212" lon="5.10548">
        <ele>387.02</ele>
        <time>2021-01-20T13:52:05Z</time>
      </trkpt>
      <trkpt lat="47.70215" lon="5.10544">
        <ele>386.97</ele>
        <time>2021-01-20T13:52:08Z</time>
      </trkpt>
      <trkpt lat="47.70217" lon="5.1054">
        <ele>386.82</ele>
        <time>2021-01-20T13:52:11Z</time>
      </trkpt>
      <trkpt lat="47.7022" lon="5.10536">
        <ele>386.6</ele>
        <time>2021-01-20T13:52:14Z</time>
      </trkpt>
      <trkpt lat="47.70222" lon="5.10533">
        <ele>386.38</ele>
        <time>2021-01-20T13:52:16Z</time>
      </trkpt>
      <trkpt lat="47.70225" lon="5.10531">
        <ele>386.51</ele>
        <time>2021-01-20T13:52:18Z</time>
      </trkpt>
      <trkpt lat="47.70228" lon="5.10527">
        <ele>386.71</ele>
        <time>2021-01-20T13:52:21Z</time>
      </trkpt>
      <trkpt lat="47.70231" lon="5.10524">
        <ele>387.36</ele>
        <time>2021-01-20T13:52:24Z</time>
      </trkpt>
      <trkpt lat="47.70234" lon="5.10521">
        <ele>388</ele>
        <time>2021-01-20T13:52:27Z</time>
      </trkpt>
      <trkpt lat="47.70236" lon="5.10517">
        <ele>388.65</ele>
        <time>2021-01-20T13:52:30Z</time>
      </trkpt>
      <trkpt lat="47.70239" lon="5.10514">
        <ele>389.3</ele>
        <time>2021-01-20T13:52:33Z</time>
      </trkpt>
      <trkpt lat="47.70241" lon="5.1051">
        <ele>389.95</ele>
        <time>2021-01-20T13:52:36Z</time>
      </trkpt>
      <trkpt lat="47.70244" lon="5.10506">
        <ele>390.7</ele>
        <time>2021-01-20T13:52:39Z</time>
      </trkpt>
      <trkpt lat="47.70247" lon="5.10502">
        <ele>391.46</ele>
        <time>2021-01-20T13:52:42Z</time>
      </trkpt>
      <trkpt lat="47.70248" lon="5.10499">
        <ele>391.75</ele>
        <time>2021-01-20T13:52:44Z</time>
      </trkpt>
      <trkpt lat="47.7025" lon="5.10496">
        <ele>391.86</ele>
        <time>2021-01-20T13:52:46Z</time>
      </trkpt>
      <trkpt lat="47.70252" lon="5.10493">
        <ele>391.86</ele>
        <time>2021-01-20T13:52:48Z</time>
      </trkpt>
      <trkpt lat="47.70255" lon="5.10489">
        <ele>391.93</ele>
        <time>2021-01-20T13:52:51Z</time>
      </trkpt>
      <trkpt lat="47.70258" lon="5.10487">
        <ele>392.09</ele>
        <time>2021-01-20T13:52:53Z</time>
      </trkpt>
      <trkpt lat="47.7026" lon="5.10484">
        <ele>392.2</ele>
        <time>2021-01-20T13:52:55Z</time>
      </trkpt>
      <trkpt lat="47.70262" lon="5.10482">
        <ele>392.34</ele>
        <time>2021-01-20T13:52:57Z</time>
      </trkpt>
      <trkpt lat="47.70264" lon="5.10479">
        <ele>392.51</ele>
        <time>2021-01-20T13:52:59Z</time>
      </trkpt>
      <trkpt lat="47.70268" lon="5.10477">
        <ele>392.89</ele>
        <time>2021-01-20T13:53:02Z</time>
      </trkpt>
      <trkpt lat="47.70271" lon="5.10474">
        <ele>393.24</ele>
        <time>2021-01-20T13:53:05Z</time>
      </trkpt>
      <trkpt lat="47.70273" lon="5.1047">
        <ele>393.5</ele>
        <time>2021-01-20T13:53:08Z</time>
      </trkpt>
      <trkpt lat="47.70276" lon="5.10466">
        <ele>393.82</ele>
        <time>2021-01-20T13:53:11Z</time>
      </trkpt>
      <trkpt lat="47.70279" lon="5.10462">
        <ele>393.94</ele>
        <time>2021-01-20T13:53:14Z</time>
      </trkpt>
      <trkpt lat="47.70281" lon="5.10459">
        <ele>393.88</ele>
        <time>2021-01-20T13:53:16Z</time>
      </trkpt>
      <trkpt lat="47.70284" lon="5.10456">
        <ele>393.81</ele>
        <time>2021-01-20T13:53:19Z</time>
      </trkpt>
      <trkpt lat="47.70287" lon="5.10453">
        <ele>393.8</ele>
        <time>2021-01-20T13:53:22Z</time>
      </trkpt>
      <trkpt lat="47.7029" lon="5.10449">
        <ele>393.86</ele>
        <time>2021-01-20T13:53:25Z</time>
      </trkpt>
      <trkpt lat="47.70293" lon="5.10445">
        <ele>393.98</ele>
        <time>2021-01-20T13:53:28Z</time>
      </trkpt>
      <trkpt lat="47.70295" lon="5.10442">
        <ele>393.85</ele>
        <time>2021-01-20T13:53:31Z</time>
      </trkpt>
      <trkpt lat="47.70298" lon="5.10438">
        <ele>393.64</ele>
        <time>2021-01-20T13:53:34Z</time>
      </trkpt>
      <trkpt lat="47.703" lon="5.10434">
        <ele>393.47</ele>
        <time>2021-01-20T13:53:37Z</time>
      </trkpt>
      <trkpt lat="47.70302" lon="5.10431">
        <ele>393.39</ele>
        <time>2021-01-20T13:53:40Z</time>
      </trkpt>
      <trkpt lat="47.70304" lon="5.10428">
        <ele>393.34</ele>
        <time>2021-01-20T13:53:42Z</time>
      </trkpt>
      <trkpt lat="47.70307" lon="5.10425">
        <ele>393.38</ele>
        <time>2021-01-20T13:53:44Z</time>
      </trkpt>
      <trkpt lat="47.70309" lon="5.10422">
        <ele>393.36</ele>
        <time>2021-01-20T13:53:46Z</time>
      </trkpt>
      <trkpt lat="47.70312" lon="5.10419">
        <ele>393.35</ele>
        <time>2021-01-20T13:53:49Z</time>
      </trkpt>
      <trkpt lat="47.70314" lon="5.10417">
        <ele>393.32</ele>
        <time>2021-01-20T13:53:52Z</time>
      </trkpt>
      <trkpt lat="47.70317" lon="5.10413">
        <ele>393.02</ele>
        <time>2021-01-20T13:53:55Z</time>
      </trkpt>
      <trkpt lat="47.70318" lon="5.10408">
        <ele>392.51</ele>
        <time>2021-01-20T13:53:58Z</time>
      </trkpt>
      <trkpt lat="47.70319" lon="5.10402">
        <ele>391.9</ele>
        <time>2021-01-20T13:54:01Z</time>
      </trkpt>
      <trkpt lat="47.70319" lon="5.10397">
        <ele>391.36</ele>
        <time>2021-01-20T13:54:04Z</time>
      </trkpt>
      <trkpt lat="47.7032" lon="5.10391">
        <ele>390.75</ele>
        <time>2021-01-20T13:54:07Z</time>
      </trkpt>
      <trkpt lat="47.7032" lon="5.10387">
        <ele>390.52</ele>
        <time>2021-01-20T13:54:09Z</time>
      </trkpt>
      <trkpt lat="47.70321" lon="5.10382">
        <ele>390.56</ele>
        <time>2021-01-20T13:54:12Z</time>
      </trkpt>
      <trkpt lat="47.70321" lon="5.10376">
        <ele>390.56</ele>
        <time>2021-01-20T13:54:15Z</time>
      </trkpt>
      <trkpt lat="47.70321" lon="5.10371">
        <ele>390.56</ele>
        <time>2021-01-20T13:54:18Z</time>
      </trkpt>
      <trkpt lat="47.70321" lon="5.10366">
        <ele>390.56</ele>
        <time>2021-01-20T13:54:21Z</time>
      </trkpt>
      <trkpt lat="47.70322" lon="5.10361">
        <ele>390.59</ele>
        <time>2021-01-20T13:54:24Z</time>
      </trkpt>
      <trkpt lat="47.70322" lon="5.10356">
        <ele>390.7</ele>
        <time>2021-01-20T13:54:27Z</time>
      </trkpt>
      <trkpt lat="47.70323" lon="5.10352">
        <ele>390.83</ele>
        <time>2021-01-20T13:54:30Z</time>
      </trkpt>
      <trkpt lat="47.70323" lon="5.10347">
        <ele>390.95</ele>
        <time>2021-01-20T13:54:33Z</time>
      </trkpt>
      <trkpt lat="47.70323" lon="5.10342">
        <ele>391.06</ele>
        <time>2021-01-20T13:54:36Z</time>
      </trkpt>
      <trkpt lat="47.70323" lon="5.10337">
        <ele>391.17</ele>
        <time>2021-01-20T13:54:39Z</time>
      </trkpt>
      <trkpt lat="47.70323" lon="5.10333">
        <ele>391.24</ele>
        <time>2021-01-20T13:54:42Z</time>
      </trkpt>
      <trkpt lat="47.70323" lon="5.10328">
        <ele>391.04</ele>
        <time>2021-01-20T13:54:45Z</time>
      </trkpt>
      <trkpt lat="47.70323" lon="5.10323">
        <ele>390.84</ele>
        <time>2021-01-20T13:54:48Z</time>
      </trkpt>
      <trkpt lat="47.70323" lon="5.10319">
        <ele>390.68</ele>
        <time>2021-01-20T13:54:51Z</time>
      </trkpt>
      <trkpt lat="47.70324" lon="5.10315">
        <ele>390.66</ele>
        <time>2021-01-20T13:54:54Z</time>
      </trkpt>
      <trkpt lat="47.70326" lon="5.10311">
        <ele>390.84</ele>
        <time>2021-01-20T13:54:57Z</time>
      </trkpt>
      <trkpt lat="47.70328" lon="5.10307">
        <ele>391.07</ele>
        <time>2021-01-20T13:55:00Z</time>
      </trkpt>
      <trkpt lat="47.70331" lon="5.10304">
        <ele>391.47</ele>
        <time>2021-01-20T13:55:03Z</time>
      </trkpt>
      <trkpt lat="47.70333" lon="5.103">
        <ele>391.54</ele>
        <time>2021-01-20T13:55:06Z</time>
      </trkpt>
      <trkpt lat="47.70336" lon="5.10297">
        <ele>391.45</ele>
        <time>2021-01-20T13:55:09Z</time>
      </trkpt>
      <trkpt lat="47.70339" lon="5.10294">
        <ele>391.29</ele>
        <time>2021-01-20T13:55:12Z</time>
      </trkpt>
      <trkpt lat="47.70342" lon="5.10291">
        <ele>391.1</ele>
        <time>2021-01-20T13:55:15Z</time>
      </trkpt>
      <trkpt lat="47.70345" lon="5.10288">
        <ele>390.89</ele>
        <time>2021-01-20T13:55:18Z</time>
      </trkpt>
      <trkpt lat="47.70347" lon="5.10285">
        <ele>390.65</ele>
        <time>2021-01-20T13:55:21Z</time>
      </trkpt>
      <trkpt lat="47.70349" lon="5.10281">
        <ele>390.3</ele>
        <time>2021-01-20T13:55:24Z</time>
      </trkpt>
      <trkpt lat="47.70351" lon="5.10277">
        <ele>389.93</ele>
        <time>2021-01-20T13:55:27Z</time>
      </trkpt>
      <trkpt lat="47.70353" lon="5.10273">
        <ele>389.61</ele>
        <time>2021-01-20T13:55:31Z</time>
      </trkpt>
      <trkpt lat="47.70354" lon="5.1027">
        <ele>389.37</ele>
        <time>2021-01-20T13:55:34Z</time>
      </trkpt>
      <trkpt lat="47.70356" lon="5.10266">
        <ele>389.07</ele>
        <time>2021-01-20T13:55:37Z</time>
      </trkpt>
      <trkpt lat="47.70358" lon="5.10262">
        <ele>388.8</ele>
        <time>2021-01-20T13:55:41Z</time>
      </trkpt>
      <trkpt lat="47.7036" lon="5.10259">
        <ele>388.62</ele>
        <time>2021-01-20T13:55:44Z</time>
      </trkpt>
      <trkpt lat="47.70363" lon="5.10256">
        <ele>388.31</ele>
        <time>2021-01-20T13:55:47Z</time>
      </trkpt>
      <trkpt lat="47.70365" lon="5.10252">
        <ele>387.87</ele>
        <time>2021-01-20T13:55:51Z</time>
      </trkpt>
      <trkpt lat="47.70368" lon="5.1025">
        <ele>387.5</ele>
        <time>2021-01-20T13:55:54Z</time>
      </trkpt>
      <trkpt lat="47.7037" lon="5.10247">
        <ele>387.29</ele>
        <time>2021-01-20T13:55:57Z</time>
      </trkpt>
      <trkpt lat="47.70373" lon="5.10245">
        <ele>387.04</ele>
        <time>2021-01-20T13:56:00Z</time>
      </trkpt>
      <trkpt lat="47.70376" lon="5.10244">
        <ele>386.83</ele>
        <time>2021-01-20T13:56:03Z</time>
      </trkpt>
      <trkpt lat="47.70379" lon="5.10242">
        <ele>386.61</ele>
        <time>2021-01-20T13:56:06Z</time>
      </trkpt>
      <trkpt lat="47.70381" lon="5.10239">
        <ele>386.46</ele>
        <time>2021-01-20T13:56:09Z</time>
      </trkpt>
      <trkpt lat="47.70383" lon="5.10234">
        <ele>386.3</ele>
        <time>2021-01-20T13:56:13Z</time>
      </trkpt>
      <trkpt lat="47.70383" lon="5.1023">
        <ele>386.27</ele>
        <time>2021-01-20T13:56:16Z</time>
      </trkpt>
      <trkpt lat="47.70383" lon="5.10225">
        <ele>386.23</ele>
        <time>2021-01-20T13:56:19Z</time>
      </trkpt>
      <trkpt lat="47.70383" lon="5.10219">
        <ele>386.14</ele>
        <time>2021-01-20T13:56:22Z</time>
      </trkpt>
      <trkpt lat="47.70383" lon="5.10213">
        <ele>386</ele>
        <time>2021-01-20T13:56:25Z</time>
      </trkpt>
      <trkpt lat="47.70383" lon="5.10209">
        <ele>385.91</ele>
        <time>2021-01-20T13:56:27Z</time>
      </trkpt>
      <trkpt lat="47.70383" lon="5.10204">
        <ele>385.79</ele>
        <time>2021-01-20T13:56:30Z</time>
      </trkpt>
      <trkpt lat="47.70383" lon="5.10198">
        <ele>385.66</ele>
        <time>2021-01-20T13:56:33Z</time>
      </trkpt>
      <trkpt lat="47.70384" lon="5.10194">
        <ele>385.65</ele>
        <time>2021-01-20T13:56:35Z</time>
      </trkpt>
      <trkpt lat="47.70384" lon="5.1019">
        <ele>385.65</ele>
        <time>2021-01-20T13:56:37Z</time>
      </trkpt>
      <trkpt lat="47.70385" lon="5.10184">
        <ele>385.72</ele>
        <time>2021-01-20T13:56:40Z</time>
      </trkpt>
      <trkpt lat="47.70386" lon="5.10179">
        <ele>385.79</ele>
        <time>2021-01-20T13:56:43Z</time>
      </trkpt>
      <trkpt lat="47.70387" lon="5.10173">
        <ele>385.86</ele>
        <time>2021-01-20T13:56:46Z</time>
      </trkpt>
      <trkpt lat="47.70387" lon="5.10167">
        <ele>385.86</ele>
        <time>2021-01-20T13:56:49Z</time>
      </trkpt>
      <trkpt lat="47.70387" lon="5.10162">
        <ele>385.86</ele>
        <time>2021-01-20T13:56:52Z</time>
      </trkpt>
      <trkpt lat="47.70387" lon="5.10156">
        <ele>385.86</ele>
        <time>2021-01-20T13:56:55Z</time>
      </trkpt>
      <trkpt lat="47.70387" lon="5.10152">
        <ele>385.86</ele>
        <time>2021-01-20T13:56:59Z</time>
      </trkpt>
      <trkpt lat="47.70387" lon="5.10147">
        <ele>385.86</ele>
        <time>2021-01-20T13:57:02Z</time>
      </trkpt>
      <trkpt lat="47.70387" lon="5.10142">
        <ele>385.86</ele>
        <time>2021-01-20T13:57:06Z</time>
      </trkpt>
      <trkpt lat="47.70387" lon="5.10138">
        <ele>385.93</ele>
        <time>2021-01-20T13:57:09Z</time>
      </trkpt>
      <trkpt lat="47.70388" lon="5.10134">
        <ele>386.29</ele>
        <time>2021-01-20T13:57:12Z</time>
      </trkpt>
      <trkpt lat="47.70389" lon="5.1013">
        <ele>386.65</ele>
        <time>2021-01-20T13:57:16Z</time>
      </trkpt>
      <trkpt lat="47.70391" lon="5.10126">
        <ele>387.13</ele>
        <time>2021-01-20T13:57:19Z</time>
      </trkpt>
      <trkpt lat="47.70393" lon="5.10121">
        <ele>387.59</ele>
        <time>2021-01-20T13:57:22Z</time>
      </trkpt>
      <trkpt lat="47.70395" lon="5.10116">
        <ele>387.98</ele>
        <time>2021-01-20T13:57:25Z</time>
      </trkpt>
      <trkpt lat="47.70397" lon="5.10112">
        <ele>388.26</ele>
        <time>2021-01-20T13:57:28Z</time>
      </trkpt>
      <trkpt lat="47.704" lon="5.10108">
        <ele>388.69</ele>
        <time>2021-01-20T13:57:31Z</time>
      </trkpt>
      <trkpt lat="47.70401" lon="5.10104">
        <ele>389.09</ele>
        <time>2021-01-20T13:57:34Z</time>
      </trkpt>
      <trkpt lat="47.70403" lon="5.10099">
        <ele>389.59</ele>
        <time>2021-01-20T13:57:37Z</time>
      </trkpt>
      <trkpt lat="47.70404" lon="5.10095">
        <ele>389.97</ele>
        <time>2021-01-20T13:57:40Z</time>
      </trkpt>
      <trkpt lat="47.70405" lon="5.1009">
        <ele>390.42</ele>
        <time>2021-01-20T13:57:43Z</time>
      </trkpt>
      <trkpt lat="47.70406" lon="5.10085">
        <ele>390.86</ele>
        <time>2021-01-20T13:57:46Z</time>
      </trkpt>
      <trkpt lat="47.70407" lon="5.1008">
        <ele>391.25</ele>
        <time>2021-01-20T13:57:49Z</time>
      </trkpt>
      <trkpt lat="47.70408" lon="5.10075">
        <ele>391.58</ele>
        <time>2021-01-20T13:57:53Z</time>
      </trkpt>
      <trkpt lat="47.70408" lon="5.10071">
        <ele>391.86</ele>
        <time>2021-01-20T13:57:56Z</time>
      </trkpt>
      <trkpt lat="47.70409" lon="5.10066">
        <ele>392.14</ele>
        <time>2021-01-20T13:57:59Z</time>
      </trkpt>
      <trkpt lat="47.7041" lon="5.10061">
        <ele>392.38</ele>
        <time>2021-01-20T13:58:02Z</time>
      </trkpt>
      <trkpt lat="47.70411" lon="5.10057">
        <ele>392.53</ele>
        <time>2021-01-20T13:58:04Z</time>
      </trkpt>
      <trkpt lat="47.70412" lon="5.10052">
        <ele>392.87</ele>
        <time>2021-01-20T13:58:06Z</time>
      </trkpt>
      <trkpt lat="47.70413" lon="5.10048">
        <ele>393.18</ele>
        <time>2021-01-20T13:58:08Z</time>
      </trkpt>
      <trkpt lat="47.70414" lon="5.10044">
        <ele>393.5</ele>
        <time>2021-01-20T13:58:10Z</time>
      </trkpt>
      <trkpt lat="47.70415" lon="5.10039">
        <ele>393.93</ele>
        <time>2021-01-20T13:58:13Z</time>
      </trkpt>
      <trkpt lat="47.70416" lon="5.10034">
        <ele>394.38</ele>
        <time>2021-01-20T13:58:16Z</time>
      </trkpt>
      <trkpt lat="47.70418" lon="5.10029">
        <ele>394.73</ele>
        <time>2021-01-20T13:58:19Z</time>
      </trkpt>
      <trkpt lat="47.7042" lon="5.10025">
        <ele>394.85</ele>
        <time>2021-01-20T13:58:22Z</time>
      </trkpt>
      <trkpt lat="47.70421" lon="5.1002">
        <ele>395.14</ele>
        <time>2021-01-20T13:58:25Z</time>
      </trkpt>
      <trkpt lat="47.70422" lon="5.10015">
        <ele>395.43</ele>
        <time>2021-01-20T13:58:28Z</time>
      </trkpt>
      <trkpt lat="47.70423" lon="5.10011">
        <ele>395.66</ele>
        <time>2021-01-20T13:58:31Z</time>
      </trkpt>
      <trkpt lat="47.70424" lon="5.10005">
        <ele>396.06</ele>
        <time>2021-01-20T13:58:34Z</time>
      </trkpt>
      <trkpt lat="47.70425" lon="5.1">
        <ele>396.4</ele>
        <time>2021-01-20T13:58:37Z</time>
      </trkpt>
      <trkpt lat="47.70426" lon="5.09994">
        <ele>396.9</ele>
        <time>2021-01-20T13:58:40Z</time>
      </trkpt>
      <trkpt lat="47.70427" lon="5.0999">
        <ele>397.2</ele>
        <time>2021-01-20T13:58:42Z</time>
      </trkpt>
      <trkpt lat="47.70428" lon="5.09985">
        <ele>397.58</ele>
        <time>2021-01-20T13:58:45Z</time>
      </trkpt>
      <trkpt lat="47.70428" lon="5.0998">
        <ele>398.05</ele>
        <time>2021-01-20T13:58:49Z</time>
      </trkpt>
      <trkpt lat="47.70427" lon="5.09976">
        <ele>398.53</ele>
        <time>2021-01-20T13:58:53Z</time>
      </trkpt>
      <trkpt lat="47.70428" lon="5.0997">
        <ele>399.1</ele>
        <time>2021-01-20T13:58:56Z</time>
      </trkpt>
      <trkpt lat="47.70428" lon="5.09966">
        <ele>399.67</ele>
        <time>2021-01-20T13:58:58Z</time>
      </trkpt>
      <trkpt lat="47.70429" lon="5.09961">
        <ele>400.28</ele>
        <time>2021-01-20T13:59:01Z</time>
      </trkpt>
      <trkpt lat="47.7043" lon="5.09956">
        <ele>400.9</ele>
        <time>2021-01-20T13:59:04Z</time>
      </trkpt>
      <trkpt lat="47.70432" lon="5.09951">
        <ele>401.4</ele>
        <time>2021-01-20T13:59:07Z</time>
      </trkpt>
      <trkpt lat="47.70433" lon="5.09947">
        <ele>401.87</ele>
        <time>2021-01-20T13:59:10Z</time>
      </trkpt>
      <trkpt lat="47.70434" lon="5.09942">
        <ele>402.28</ele>
        <time>2021-01-20T13:59:14Z</time>
      </trkpt>
      <trkpt lat="47.70434" lon="5.09936">
        <ele>402.66</ele>
        <time>2021-01-20T13:59:19Z</time>
      </trkpt>
      <trkpt lat="47.70435" lon="5.0993">
        <ele>402.89</ele>
        <time>2021-01-20T13:59:22Z</time>
      </trkpt>
      <trkpt lat="47.70435" lon="5.09925">
        <ele>403.2</ele>
        <time>2021-01-20T13:59:24Z</time>
      </trkpt>
      <trkpt lat="47.70435" lon="5.09921">
        <ele>403.44</ele>
        <time>2021-01-20T13:59:27Z</time>
      </trkpt>
      <trkpt lat="47.70434" lon="5.09916">
        <ele>404.01</ele>
        <time>2021-01-20T13:59:30Z</time>
      </trkpt>
      <trkpt lat="47.70436" lon="5.09909">
        <ele>405.09</ele>
        <time>2021-01-20T13:59:33Z</time>
      </trkpt>
      <trkpt lat="47.70438" lon="5.09904">
        <ele>405.79</ele>
        <time>2021-01-20T13:59:35Z</time>
      </trkpt>
      <trkpt lat="47.7044" lon="5.09899">
        <ele>406.51</ele>
        <time>2021-01-20T13:59:37Z</time>
      </trkpt>
      <trkpt lat="47.70442" lon="5.09894">
        <ele>407.26</ele>
        <time>2021-01-20T13:59:40Z</time>
      </trkpt>
      <trkpt lat="47.70443" lon="5.09891">
        <ele>407.76</ele>
        <time>2021-01-20T13:59:45Z</time>
      </trkpt>
      <trkpt lat="47.70443" lon="5.0988">
        <ele>409.79</ele>
        <time>2021-01-20T14:00:04Z</time>
      </trkpt>
      <trkpt lat="47.70444" lon="5.0987">
        <ele>411.45</ele>
        <time>2021-01-20T14:00:10Z</time>
      </trkpt>
      <trkpt lat="47.70446" lon="5.09861">
        <ele>412.46</ele>
        <time>2021-01-20T14:00:15Z</time>
      </trkpt>
      <trkpt lat="47.70448" lon="5.09853">
        <ele>412.89</ele>
        <time>2021-01-20T14:00:20Z</time>
      </trkpt>
      <trkpt lat="47.7045" lon="5.09844">
        <ele>413.46</ele>
        <time>2021-01-20T14:00:26Z</time>
      </trkpt>
      <trkpt lat="47.7045" lon="5.09836">
        <ele>414.62</ele>
        <time>2021-01-20T14:00:32Z</time>
      </trkpt>
      <trkpt lat="47.70451" lon="5.0983">
        <ele>415.06</ele>
        <time>2021-01-20T14:00:35Z</time>
      </trkpt>
      <trkpt lat="47.70451" lon="5.09825">
        <ele>415.68</ele>
        <time>2021-01-20T14:00:38Z</time>
      </trkpt>
      <trkpt lat="47.70453" lon="5.09822">
        <ele>415.4</ele>
        <time>2021-01-20T14:00:41Z</time>
      </trkpt>
      <trkpt lat="47.70455" lon="5.09818">
        <ele>415.28</ele>
        <time>2021-01-20T14:00:45Z</time>
      </trkpt>
      <trkpt lat="47.70457" lon="5.09816">
        <ele>414.92</ele>
        <time>2021-01-20T14:00:49Z</time>
      </trkpt>
      <trkpt lat="47.70458" lon="5.09811">
        <ele>415.32</ele>
        <time>2021-01-20T14:00:55Z</time>
      </trkpt>
      <trkpt lat="47.70458" lon="5.09807">
        <ele>415.89</ele>
        <time>2021-01-20T14:01:02Z</time>
      </trkpt>
      <trkpt lat="47.70459" lon="5.09803">
        <ele>415.95</ele>
        <time>2021-01-20T14:01:09Z</time>
      </trkpt>
      <trkpt lat="47.70461" lon="5.09799">
        <ele>415.61</ele>
        <time>2021-01-20T14:01:13Z</time>
      </trkpt>
      <trkpt lat="47.70462" lon="5.09794">
        <ele>415.62</ele>
        <time>2021-01-20T14:01:20Z</time>
      </trkpt>
      <trkpt lat="47.70464" lon="5.09791">
        <ele>415.26</ele>
        <time>2021-01-20T14:01:32Z</time>
      </trkpt>
      <trkpt lat="47.70465" lon="5.09787">
        <ele>415.24</ele>
        <time>2021-01-20T14:01:36Z</time>
      </trkpt>
      <trkpt lat="47.70465" lon="5.09783">
        <ele>415.49</ele>
        <time>2021-01-20T14:01:39Z</time>
      </trkpt>
      <trkpt lat="47.70465" lon="5.09779">
        <ele>415.74</ele>
        <time>2021-01-20T14:01:42Z</time>
      </trkpt>
      <trkpt lat="47.70465" lon="5.09774">
        <ele>416.26</ele>
        <time>2021-01-20T14:01:45Z</time>
      </trkpt>
      <trkpt lat="47.70464" lon="5.09769">
        <ele>417.11</ele>
        <time>2021-01-20T14:01:48Z</time>
      </trkpt>
      <trkpt lat="47.70464" lon="5.09764">
        <ele>417.71</ele>
        <time>2021-01-20T14:01:52Z</time>
      </trkpt>
      <trkpt lat="47.70466" lon="5.09759">
        <ele>417.75</ele>
        <time>2021-01-20T14:01:56Z</time>
      </trkpt>
      <trkpt lat="47.70468" lon="5.09754">
        <ele>417.76</ele>
        <time>2021-01-20T14:01:59Z</time>
      </trkpt>
      <trkpt lat="47.70469" lon="5.0975">
        <ele>417.93</ele>
        <time>2021-01-20T14:02:01Z</time>
      </trkpt>
      <trkpt lat="47.70469" lon="5.09744">
        <ele>418.63</ele>
        <time>2021-01-20T14:02:04Z</time>
      </trkpt>
      <trkpt lat="47.7047" lon="5.0974">
        <ele>418.78</ele>
        <time>2021-01-20T14:02:07Z</time>
      </trkpt>
      <trkpt lat="47.7047" lon="5.09735">
        <ele>419.35</ele>
        <time>2021-01-20T14:02:10Z</time>
      </trkpt>
      <trkpt lat="47.70471" lon="5.09731">
        <ele>419.46</ele>
        <time>2021-01-20T14:02:13Z</time>
      </trkpt>
      <trkpt lat="47.70472" lon="5.09727">
        <ele>419.56</ele>
        <time>2021-01-20T14:02:16Z</time>
      </trkpt>
      <trkpt lat="47.70472" lon="5.09722">
        <ele>420.14</ele>
        <time>2021-01-20T14:02:19Z</time>
      </trkpt>
      <trkpt lat="47.70472" lon="5.09717">
        <ele>421.4</ele>
        <time>2021-01-20T14:02:22Z</time>
      </trkpt>
      <trkpt lat="47.70472" lon="5.09711">
        <ele>422.91</ele>
        <time>2021-01-20T14:02:26Z</time>
      </trkpt>
      <trkpt lat="47.70477" lon="5.09694">
        <ele>425.32</ele>
        <time>2021-01-20T14:02:39Z</time>
      </trkpt>
      <trkpt lat="47.70483" lon="5.09678">
        <ele>424.76</ele>
        <time>2021-01-20T14:02:50Z</time>
      </trkpt>
      <trkpt lat="47.70491" lon="5.09664">
        <ele>424.04</ele>
        <time>2021-01-20T14:03:01Z</time>
      </trkpt>
      <trkpt lat="47.70498" lon="5.09649">
        <ele>424.21</ele>
        <time>2021-01-20T14:03:13Z</time>
      </trkpt>
      <trkpt lat="47.70506" lon="5.09635">
        <ele>425.89</ele>
        <time>2021-01-20T14:03:23Z</time>
      </trkpt>
      <trkpt lat="47.70512" lon="5.0962">
        <ele>428.54</ele>
        <time>2021-01-20T14:03:36Z</time>
      </trkpt>
      <trkpt lat="47.70517" lon="5.09603">
        <ele>430.92</ele>
        <time>2021-01-20T14:03:49Z</time>
      </trkpt>
      <trkpt lat="47.7052" lon="5.09586">
        <ele>432.57</ele>
        <time>2021-01-20T14:04:00Z</time>
      </trkpt>
      <trkpt lat="47.70527" lon="5.09571">
        <ele>434.34</ele>
        <time>2021-01-20T14:04:11Z</time>
      </trkpt>
      <trkpt lat="47.70533" lon="5.09556">
        <ele>435.97</ele>
        <time>2021-01-20T14:04:23Z</time>
      </trkpt>
      <trkpt lat="47.70542" lon="5.09543">
        <ele>435.75</ele>
        <time>2021-01-20T14:04:33Z</time>
      </trkpt>
      <trkpt lat="47.70551" lon="5.09533">
        <ele>433.07</ele>
        <time>2021-01-20T14:04:42Z</time>
      </trkpt>
      <trkpt lat="47.7056" lon="5.0952">
        <ele>432.02</ele>
        <time>2021-01-20T14:04:52Z</time>
      </trkpt>
      <trkpt lat="47.70566" lon="5.09505">
        <ele>433.83</ele>
        <time>2021-01-20T14:05:02Z</time>
      </trkpt>
      <trkpt lat="47.70571" lon="5.09489">
        <ele>436.34</ele>
        <time>2021-01-20T14:05:11Z</time>
      </trkpt>
      <trkpt lat="47.70578" lon="5.09475">
        <ele>437.6</ele>
        <time>2021-01-20T14:05:24Z</time>
      </trkpt>
      <trkpt lat="47.70587" lon="5.09463">
        <ele>437.88</ele>
        <time>2021-01-20T14:05:35Z</time>
      </trkpt>
      <trkpt lat="47.70598" lon="5.09455">
        <ele>438.43</ele>
        <time>2021-01-20T14:05:56Z</time>
      </trkpt>
      <trkpt lat="47.706" lon="5.09438">
        <ele>442.22</ele>
        <time>2021-01-20T14:06:20Z</time>
      </trkpt>
      <trkpt lat="47.70601" lon="5.09421">
        <ele>446.36</ele>
        <time>2021-01-20T14:06:38Z</time>
      </trkpt>
      <trkpt lat="47.70595" lon="5.09406">
        <ele>452.06</ele>
        <time>2021-01-20T14:07:07Z</time>
      </trkpt>
      <trkpt lat="47.70595" lon="5.09388">
        <ele>458.06</ele>
        <time>2021-01-20T14:08:06Z</time>
      </trkpt>
      <trkpt lat="47.70596" lon="5.09371">
        <ele>457.99</ele>
        <time>2021-01-20T14:08:53Z</time>
      </trkpt>
      <trkpt lat="47.70594" lon="5.09354">
        <ele>459.96</ele>
        <time>2021-01-20T14:09:16Z</time>
      </trkpt>
      <trkpt lat="47.70587" lon="5.0934">
        <ele>463.5</ele>
        <time>2021-01-20T14:09:46Z</time>
      </trkpt>
      <trkpt lat="47.70581" lon="5.09325">
        <ele>466.71</ele>
        <time>2021-01-20T14:10:15Z</time>
      </trkpt>
      <trkpt lat="47.70577" lon="5.09308">
        <ele>469.81</ele>
        <time>2021-01-20T14:10:50Z</time>
      </trkpt>
      <trkpt lat="47.70572" lon="5.09293">
        <ele>474.1</ele>
        <time>2021-01-20T14:11:19Z</time>
      </trkpt>
      <trkpt lat="47.70569" lon="5.09276">
        <ele>477.64</ele>
        <time>2021-01-20T14:11:43Z</time>
      </trkpt>
      <trkpt lat="47.70563" lon="5.0926">
        <ele>479.3</ele>
        <time>2021-01-20T14:11:57Z</time>
      </trkpt>
      <trkpt lat="47.70556" lon="5.09246">
        <ele>480.64</ele>
        <time>2021-01-20T14:12:11Z</time>
      </trkpt>
      <trkpt lat="47.70548" lon="5.09232">
        <ele>479.78</ele>
        <time>2021-01-20T14:12:26Z</time>
      </trkpt>
      <trkpt lat="47.70544" lon="5.09215">
        <ele>479</ele>
        <time>2021-01-20T14:12:40Z</time>
      </trkpt>
      <trkpt lat="47.7054" lon="5.09199">
        <ele>478.36</ele>
        <time>2021-01-20T14:12:54Z</time>
      </trkpt>
      <trkpt lat="47.70537" lon="5.09182">
        <ele>478.49</ele>
        <time>2021-01-20T14:13:07Z</time>
      </trkpt>
      <trkpt lat="47.70533" lon="5.09165">
        <ele>479.23</ele>
        <time>2021-01-20T14:13:20Z</time>
      </trkpt>
      <trkpt lat="47.70528" lon="5.09148">
        <ele>479.32</ele>
        <time>2021-01-20T14:13:33Z</time>
      </trkpt>
      <trkpt lat="47.70525" lon="5.09131">
        <ele>479.89</ele>
        <time>2021-01-20T14:13:45Z</time>
      </trkpt>
      <trkpt lat="47.70523" lon="5.09114">
        <ele>481.64</ele>
        <time>2021-01-20T14:13:56Z</time>
      </trkpt>
      <trkpt lat="47.70517" lon="5.09097">
        <ele>480.59</ele>
        <time>2021-01-20T14:14:08Z</time>
      </trkpt>
      <trkpt lat="47.70514" lon="5.09081">
        <ele>479.2</ele>
        <time>2021-01-20T14:14:24Z</time>
      </trkpt>
      <trkpt lat="47.70511" lon="5.09064">
        <ele>476.21</ele>
        <time>2021-01-20T14:14:44Z</time>
      </trkpt>
      <trkpt lat="47.70508" lon="5.09047">
        <ele>474.47</ele>
        <time>2021-01-20T14:15:06Z</time>
      </trkpt>
      <trkpt lat="47.70503" lon="5.09037">
        <ele>473.58</ele>
        <time>2021-01-20T14:15:48Z</time>
      </trkpt>
      <trkpt lat="47.70497" lon="5.09022">
        <ele>471.5</ele>
        <time>2021-01-20T14:17:25Z</time>
      </trkpt>
      <trkpt lat="47.70493" lon="5.09005">
        <ele>468.78</ele>
        <time>2021-01-20T14:17:38Z</time>
      </trkpt>
      <trkpt lat="47.7049" lon="5.08988">
        <ele>464.93</ele>
        <time>2021-01-20T14:17:50Z</time>
      </trkpt>
      <trkpt lat="47.70489" lon="5.0897">
        <ele>460.47</ele>
        <time>2021-01-20T14:18:02Z</time>
      </trkpt>
      <trkpt lat="47.70488" lon="5.08961">
        <ele>458.35</ele>
        <time>2021-01-20T14:18:07Z</time>
      </trkpt>
      <trkpt lat="47.70489" lon="5.08952">
        <ele>456.19</ele>
        <time>2021-01-20T14:18:13Z</time>
      </trkpt>
      <trkpt lat="47.70489" lon="5.08942">
        <ele>454.27</ele>
        <time>2021-01-20T14:18:20Z</time>
      </trkpt>
      <trkpt lat="47.70489" lon="5.08932">
        <ele>453.77</ele>
        <time>2021-01-20T14:18:26Z</time>
      </trkpt>
      <trkpt lat="47.70489" lon="5.08923">
        <ele>453.32</ele>
        <time>2021-01-20T14:18:32Z</time>
      </trkpt>
      <trkpt lat="47.70488" lon="5.08915">
        <ele>452.91</ele>
        <time>2021-01-20T14:18:39Z</time>
      </trkpt>
      <trkpt lat="47.70489" lon="5.08906">
        <ele>452.46</ele>
        <time>2021-01-20T14:18:46Z</time>
      </trkpt>
      <trkpt lat="47.70489" lon="5.08896">
        <ele>451.96</ele>
        <time>2021-01-20T14:18:54Z</time>
      </trkpt>
      <trkpt lat="47.70489" lon="5.08887">
        <ele>451.41</ele>
        <time>2021-01-20T14:19:01Z</time>
      </trkpt>
      <trkpt lat="47.70489" lon="5.08877">
        <ele>450.41</ele>
        <time>2021-01-20T14:19:08Z</time>
      </trkpt>
      <trkpt lat="47.70489" lon="5.08868">
        <ele>449.5</ele>
        <time>2021-01-20T14:19:15Z</time>
      </trkpt>
      <trkpt lat="47.70489" lon="5.0886">
        <ele>448.74</ele>
        <time>2021-01-20T14:19:21Z</time>
      </trkpt>
      <trkpt lat="47.70489" lon="5.08854">
        <ele>448.35</ele>
        <time>2021-01-20T14:19:25Z</time>
      </trkpt>
      <trkpt lat="47.70489" lon="5.08849">
        <ele>448.03</ele>
        <time>2021-01-20T14:19:28Z</time>
      </trkpt>
      <trkpt lat="47.70489" lon="5.08843">
        <ele>447.64</ele>
        <time>2021-01-20T14:19:32Z</time>
      </trkpt>
      <trkpt lat="47.70489" lon="5.08838">
        <ele>447.32</ele>
        <time>2021-01-20T14:19:35Z</time>
      </trkpt>
      <trkpt lat="47.70489" lon="5.08834">
        <ele>447.06</ele>
        <time>2021-01-20T14:19:39Z</time>
      </trkpt>
      <trkpt lat="47.70489" lon="5.08829">
        <ele>446.65</ele>
        <time>2021-01-20T14:19:43Z</time>
      </trkpt>
      <trkpt lat="47.70488" lon="5.08825">
        <ele>446.11</ele>
        <time>2021-01-20T14:19:46Z</time>
      </trkpt>
      <trkpt lat="47.70488" lon="5.0882">
        <ele>445.67</ele>
        <time>2021-01-20T14:19:50Z</time>
      </trkpt>
      <trkpt lat="47.70488" lon="5.08814">
        <ele>445.15</ele>
        <time>2021-01-20T14:19:54Z</time>
      </trkpt>
      <trkpt lat="47.70487" lon="5.0881">
        <ele>444.59</ele>
        <time>2021-01-20T14:19:57Z</time>
      </trkpt>
      <trkpt lat="47.70487" lon="5.08805">
        <ele>444.17</ele>
        <time>2021-01-20T14:20:01Z</time>
      </trkpt>
      <trkpt lat="47.70487" lon="5.08801">
        <ele>444.02</ele>
        <time>2021-01-20T14:20:04Z</time>
      </trkpt>
      <trkpt lat="47.70487" lon="5.08796">
        <ele>443.83</ele>
        <time>2021-01-20T14:20:07Z</time>
      </trkpt>
      <trkpt lat="47.70488" lon="5.08791">
        <ele>443.81</ele>
        <time>2021-01-20T14:20:11Z</time>
      </trkpt>
      <trkpt lat="47.70488" lon="5.08786">
        <ele>443.61</ele>
        <time>2021-01-20T14:20:40Z</time>
      </trkpt>
      <trkpt lat="47.7049" lon="5.08782">
        <ele>443.75</ele>
        <time>2021-01-20T14:20:44Z</time>
      </trkpt>
      <trkpt lat="47.70492" lon="5.08778">
        <ele>443.86</ele>
        <time>2021-01-20T14:20:47Z</time>
      </trkpt>
      <trkpt lat="47.70493" lon="5.08774">
        <ele>443.99</ele>
        <time>2021-01-20T14:20:50Z</time>
      </trkpt>
      <trkpt lat="47.70496" lon="5.0877">
        <ele>444.42</ele>
        <time>2021-01-20T14:20:53Z</time>
      </trkpt>
      <trkpt lat="47.70497" lon="5.08765">
        <ele>444.57</ele>
        <time>2021-01-20T14:20:56Z</time>
      </trkpt>
      <trkpt lat="47.70499" lon="5.08761">
        <ele>444.86</ele>
        <time>2021-01-20T14:20:59Z</time>
      </trkpt>
      <trkpt lat="47.70501" lon="5.08756">
        <ele>445.08</ele>
        <time>2021-01-20T14:21:02Z</time>
      </trkpt>
      <trkpt lat="47.70502" lon="5.08752">
        <ele>445.15</ele>
        <time>2021-01-20T14:21:05Z</time>
      </trkpt>
      <trkpt lat="47.70503" lon="5.08748">
        <ele>445.27</ele>
        <time>2021-01-20T14:21:08Z</time>
      </trkpt>
      <trkpt lat="47.70504" lon="5.08743">
        <ele>445.47</ele>
        <time>2021-01-20T14:21:11Z</time>
      </trkpt>
      <trkpt lat="47.70505" lon="5.08739">
        <ele>445.61</ele>
        <time>2021-01-20T14:21:14Z</time>
      </trkpt>
      <trkpt lat="47.70507" lon="5.08735">
        <ele>445.77</ele>
        <time>2021-01-20T14:21:17Z</time>
      </trkpt>
      <trkpt lat="47.70509" lon="5.08732">
        <ele>445.88</ele>
        <time>2021-01-20T14:21:23Z</time>
      </trkpt>
      <trkpt lat="47.70509" lon="5.08728">
        <ele>445.93</ele>
        <time>2021-01-20T14:21:46Z</time>
      </trkpt>
      <trkpt lat="47.70509" lon="5.08724">
        <ele>445.98</ele>
        <time>2021-01-20T14:21:50Z</time>
      </trkpt>
      <trkpt lat="47.7051" lon="5.08719">
        <ele>446</ele>
        <time>2021-01-20T14:21:53Z</time>
      </trkpt>
      <trkpt lat="47.70511" lon="5.08714">
        <ele>446</ele>
        <time>2021-01-20T14:21:56Z</time>
      </trkpt>
      <trkpt lat="47.70512" lon="5.08709">
        <ele>446</ele>
        <time>2021-01-20T14:21:59Z</time>
      </trkpt>
      <trkpt lat="47.70514" lon="5.08705">
        <ele>446</ele>
        <time>2021-01-20T14:22:02Z</time>
      </trkpt>
      <trkpt lat="47.70515" lon="5.087">
        <ele>446</ele>
        <time>2021-01-20T14:22:06Z</time>
      </trkpt>
      <trkpt lat="47.70516" lon="5.08697">
        <ele>446</ele>
        <time>2021-01-20T14:22:09Z</time>
      </trkpt>
      <trkpt lat="47.70517" lon="5.08693">
        <ele>445.95</ele>
        <time>2021-01-20T14:22:12Z</time>
      </trkpt>
      <trkpt lat="47.70519" lon="5.08688">
        <ele>445.77</ele>
        <time>2021-01-20T14:22:15Z</time>
      </trkpt>
      <trkpt lat="47.7052" lon="5.08683">
        <ele>445.59</ele>
        <time>2021-01-20T14:22:18Z</time>
      </trkpt>
      <trkpt lat="47.70521" lon="5.08679">
        <ele>445.44</ele>
        <time>2021-01-20T14:22:21Z</time>
      </trkpt>
      <trkpt lat="47.70521" lon="5.08674">
        <ele>445.26</ele>
        <time>2021-01-20T14:22:24Z</time>
      </trkpt>
      <trkpt lat="47.70522" lon="5.0867">
        <ele>445.12</ele>
        <time>2021-01-20T14:22:28Z</time>
      </trkpt>
      <trkpt lat="47.70523" lon="5.08667">
        <ele>445.01</ele>
        <time>2021-01-20T14:22:46Z</time>
      </trkpt>
      <trkpt lat="47.70525" lon="5.08664">
        <ele>444.9</ele>
        <time>2021-01-20T14:22:51Z</time>
      </trkpt>
      <trkpt lat="47.70527" lon="5.0866">
        <ele>444.76</ele>
        <time>2021-01-20T14:22:54Z</time>
      </trkpt>
      <trkpt lat="47.70528" lon="5.08655">
        <ele>444.61</ele>
        <time>2021-01-20T14:22:57Z</time>
      </trkpt>
      <trkpt lat="47.70529" lon="5.08649">
        <ele>444.53</ele>
        <time>2021-01-20T14:23:00Z</time>
      </trkpt>
      <trkpt lat="47.70529" lon="5.08644">
        <ele>444.33</ele>
        <time>2021-01-20T14:23:03Z</time>
      </trkpt>
      <trkpt lat="47.70531" lon="5.08639">
        <ele>444.35</ele>
        <time>2021-01-20T14:23:06Z</time>
      </trkpt>
      <trkpt lat="47.70532" lon="5.08634">
        <ele>444.7</ele>
        <time>2021-01-20T14:23:09Z</time>
      </trkpt>
      <trkpt lat="47.70534" lon="5.0863">
        <ele>445.03</ele>
        <time>2021-01-20T14:23:12Z</time>
      </trkpt>
      <trkpt lat="47.70535" lon="5.08625">
        <ele>445.26</ele>
        <time>2021-01-20T14:23:15Z</time>
      </trkpt>
      <trkpt lat="47.70536" lon="5.08621">
        <ele>445.41</ele>
        <time>2021-01-20T14:23:18Z</time>
      </trkpt>
      <trkpt lat="47.70537" lon="5.08616">
        <ele>445.55</ele>
        <time>2021-01-20T14:23:21Z</time>
      </trkpt>
      <trkpt lat="47.70538" lon="5.08611">
        <ele>445.64</ele>
        <time>2021-01-20T14:23:24Z</time>
      </trkpt>
      <trkpt lat="47.70538" lon="5.08607">
        <ele>445.83</ele>
        <time>2021-01-20T14:23:27Z</time>
      </trkpt>
      <trkpt lat="47.70538" lon="5.08603">
        <ele>446.03</ele>
        <time>2021-01-20T14:23:30Z</time>
      </trkpt>
      <trkpt lat="47.70539" lon="5.08598">
        <ele>446.26</ele>
        <time>2021-01-20T14:23:33Z</time>
      </trkpt>
      <trkpt lat="47.7054" lon="5.08593">
        <ele>446.5</ele>
        <time>2021-01-20T14:23:36Z</time>
      </trkpt>
      <trkpt lat="47.70541" lon="5.08588">
        <ele>446.75</ele>
        <time>2021-01-20T14:23:39Z</time>
      </trkpt>
      <trkpt lat="47.70543" lon="5.08583">
        <ele>447.01</ele>
        <time>2021-01-20T14:23:42Z</time>
      </trkpt>
      <trkpt lat="47.70544" lon="5.08578">
        <ele>447.11</ele>
        <time>2021-01-20T14:23:45Z</time>
      </trkpt>
      <trkpt lat="47.70545" lon="5.08573">
        <ele>447.23</ele>
        <time>2021-01-20T14:23:48Z</time>
      </trkpt>
      <trkpt lat="47.70546" lon="5.08569">
        <ele>447.34</ele>
        <time>2021-01-20T14:23:51Z</time>
      </trkpt>
      <trkpt lat="47.70547" lon="5.08564">
        <ele>447.48</ele>
        <time>2021-01-20T14:23:54Z</time>
      </trkpt>
      <trkpt lat="47.70547" lon="5.08559">
        <ele>447.61</ele>
        <time>2021-01-20T14:23:57Z</time>
      </trkpt>
      <trkpt lat="47.70548" lon="5.08554">
        <ele>447.71</ele>
        <time>2021-01-20T14:24:00Z</time>
      </trkpt>
      <trkpt lat="47.70548" lon="5.08549">
        <ele>447.66</ele>
        <time>2021-01-20T14:24:03Z</time>
      </trkpt>
      <trkpt lat="47.7055" lon="5.08544">
        <ele>447.72</ele>
        <time>2021-01-20T14:24:06Z</time>
      </trkpt>
      <trkpt lat="47.70551" lon="5.0854">
        <ele>447.74</ele>
        <time>2021-01-20T14:24:09Z</time>
      </trkpt>
      <trkpt lat="47.70553" lon="5.08535">
        <ele>447.84</ele>
        <time>2021-01-20T14:24:12Z</time>
      </trkpt>
      <trkpt lat="47.70554" lon="5.08531">
        <ele>447.89</ele>
        <time>2021-01-20T14:24:15Z</time>
      </trkpt>
      <trkpt lat="47.70556" lon="5.08526">
        <ele>448.06</ele>
        <time>2021-01-20T14:24:18Z</time>
      </trkpt>
      <trkpt lat="47.70557" lon="5.08522">
        <ele>448.21</ele>
        <time>2021-01-20T14:24:21Z</time>
      </trkpt>
      <trkpt lat="47.70559" lon="5.08517">
        <ele>448.5</ele>
        <time>2021-01-20T14:24:24Z</time>
      </trkpt>
      <trkpt lat="47.70561" lon="5.08512">
        <ele>448.78</ele>
        <time>2021-01-20T14:24:27Z</time>
      </trkpt>
      <trkpt lat="47.70562" lon="5.08507">
        <ele>448.93</ele>
        <time>2021-01-20T14:24:30Z</time>
      </trkpt>
      <trkpt lat="47.70563" lon="5.08502">
        <ele>449.07</ele>
        <time>2021-01-20T14:24:33Z</time>
      </trkpt>
      <trkpt lat="47.70564" lon="5.08498">
        <ele>449.24</ele>
        <time>2021-01-20T14:24:36Z</time>
      </trkpt>
      <trkpt lat="47.70564" lon="5.08492">
        <ele>449.33</ele>
        <time>2021-01-20T14:24:39Z</time>
      </trkpt>
      <trkpt lat="47.70565" lon="5.08487">
        <ele>449.51</ele>
        <time>2021-01-20T14:24:42Z</time>
      </trkpt>
      <trkpt lat="47.70566" lon="5.08482">
        <ele>449.66</ele>
        <time>2021-01-20T14:24:45Z</time>
      </trkpt>
      <trkpt lat="47.70567" lon="5.08477">
        <ele>449.79</ele>
        <time>2021-01-20T14:24:48Z</time>
      </trkpt>
      <trkpt lat="47.70568" lon="5.08472">
        <ele>449.91</ele>
        <time>2021-01-20T14:24:51Z</time>
      </trkpt>
      <trkpt lat="47.70569" lon="5.08467">
        <ele>450.25</ele>
        <time>2021-01-20T14:24:54Z</time>
      </trkpt>
      <trkpt lat="47.70571" lon="5.08462">
        <ele>450.68</ele>
        <time>2021-01-20T14:24:57Z</time>
      </trkpt>
      <trkpt lat="47.70572" lon="5.08458">
        <ele>451</ele>
        <time>2021-01-20T14:24:59Z</time>
      </trkpt>
      <trkpt lat="47.70572" lon="5.08454">
        <ele>451.23</ele>
        <time>2021-01-20T14:25:01Z</time>
      </trkpt>
      <trkpt lat="47.70573" lon="5.08449">
        <ele>451.62</ele>
        <time>2021-01-20T14:25:04Z</time>
      </trkpt>
      <trkpt lat="47.70574" lon="5.08444">
        <ele>452.02</ele>
        <time>2021-01-20T14:25:07Z</time>
      </trkpt>
      <trkpt lat="47.70575" lon="5.08439">
        <ele>452.45</ele>
        <time>2021-01-20T14:25:10Z</time>
      </trkpt>
      <trkpt lat="47.70576" lon="5.08435">
        <ele>452.87</ele>
        <time>2021-01-20T14:25:12Z</time>
      </trkpt>
      <trkpt lat="47.70577" lon="5.08431">
        <ele>453.33</ele>
        <time>2021-01-20T14:25:14Z</time>
      </trkpt>
      <trkpt lat="47.70577" lon="5.08427">
        <ele>453.63</ele>
        <time>2021-01-20T14:25:16Z</time>
      </trkpt>
      <trkpt lat="47.70578" lon="5.08422">
        <ele>454.23</ele>
        <time>2021-01-20T14:25:19Z</time>
      </trkpt>
      <trkpt lat="47.70579" lon="5.08417">
        <ele>454.88</ele>
        <time>2021-01-20T14:25:22Z</time>
      </trkpt>
      <trkpt lat="47.70579" lon="5.08412">
        <ele>455</ele>
        <time>2021-01-20T14:25:25Z</time>
      </trkpt>
      <trkpt lat="47.7058" lon="5.08406">
        <ele>455.41</ele>
        <time>2021-01-20T14:25:28Z</time>
      </trkpt>
      <trkpt lat="47.70581" lon="5.08401">
        <ele>455.83</ele>
        <time>2021-01-20T14:25:31Z</time>
      </trkpt>
      <trkpt lat="47.70581" lon="5.08397">
        <ele>455.94</ele>
        <time>2021-01-20T14:25:34Z</time>
      </trkpt>
      <trkpt lat="47.70581" lon="5.08392">
        <ele>456.08</ele>
        <time>2021-01-20T14:25:37Z</time>
      </trkpt>
      <trkpt lat="47.70582" lon="5.08387">
        <ele>456.39</ele>
        <time>2021-01-20T14:25:40Z</time>
      </trkpt>
      <trkpt lat="47.70582" lon="5.08383">
        <ele>456.12</ele>
        <time>2021-01-20T14:25:43Z</time>
      </trkpt>
      <trkpt lat="47.70581" lon="5.08377">
        <ele>455.38</ele>
        <time>2021-01-20T14:25:46Z</time>
      </trkpt>
      <trkpt lat="47.70581" lon="5.08372">
        <ele>455.05</ele>
        <time>2021-01-20T14:25:49Z</time>
      </trkpt>
      <trkpt lat="47.70581" lon="5.08367">
        <ele>454.72</ele>
        <time>2021-01-20T14:25:52Z</time>
      </trkpt>
      <trkpt lat="47.70581" lon="5.08362">
        <ele>454.39</ele>
        <time>2021-01-20T14:25:55Z</time>
      </trkpt>
      <trkpt lat="47.70581" lon="5.08358">
        <ele>454.21</ele>
        <time>2021-01-20T14:25:58Z</time>
      </trkpt>
      <trkpt lat="47.70581" lon="5.08354">
        <ele>454.05</ele>
        <time>2021-01-20T14:26:01Z</time>
      </trkpt>
      <trkpt lat="47.70581" lon="5.08349">
        <ele>453.86</ele>
        <time>2021-01-20T14:26:04Z</time>
      </trkpt>
      <trkpt lat="47.7058" lon="5.08344">
        <ele>453.35</ele>
        <time>2021-01-20T14:26:07Z</time>
      </trkpt>
      <trkpt lat="47.7058" lon="5.08339">
        <ele>453.15</ele>
        <time>2021-01-20T14:26:10Z</time>
      </trkpt>
      <trkpt lat="47.7058" lon="5.08334">
        <ele>452.95</ele>
        <time>2021-01-20T14:26:13Z</time>
      </trkpt>
      <trkpt lat="47.70579" lon="5.08329">
        <ele>452.26</ele>
        <time>2021-01-20T14:26:16Z</time>
      </trkpt>
      <trkpt lat="47.70579" lon="5.08324">
        <ele>451.87</ele>
        <time>2021-01-20T14:26:19Z</time>
      </trkpt>
      <trkpt lat="47.70579" lon="5.0832">
        <ele>451.56</ele>
        <time>2021-01-20T14:26:22Z</time>
      </trkpt>
      <trkpt lat="47.70579" lon="5.08315">
        <ele>451.17</ele>
        <time>2021-01-20T14:26:25Z</time>
      </trkpt>
      <trkpt lat="47.7058" lon="5.0831">
        <ele>451.14</ele>
        <time>2021-01-20T14:26:28Z</time>
      </trkpt>
      <trkpt lat="47.7058" lon="5.08304">
        <ele>450.81</ele>
        <time>2021-01-20T14:26:31Z</time>
      </trkpt>
      <trkpt lat="47.70581" lon="5.083">
        <ele>451.18</ele>
        <time>2021-01-20T14:26:34Z</time>
      </trkpt>
      <trkpt lat="47.70581" lon="5.08296">
        <ele>451.19</ele>
        <time>2021-01-20T14:26:37Z</time>
      </trkpt>
      <trkpt lat="47.7058" lon="5.0829">
        <ele>450.87</ele>
        <time>2021-01-20T14:26:41Z</time>
      </trkpt>
      <trkpt lat="47.70579" lon="5.08285">
        <ele>450.56</ele>
        <time>2021-01-20T14:26:44Z</time>
      </trkpt>
      <trkpt lat="47.70578" lon="5.0828">
        <ele>450.26</ele>
        <time>2021-01-20T14:26:47Z</time>
      </trkpt>
      <trkpt lat="47.70577" lon="5.08275">
        <ele>450.37</ele>
        <time>2021-01-20T14:26:50Z</time>
      </trkpt>
      <trkpt lat="47.70577" lon="5.08271">
        <ele>450.98</ele>
        <time>2021-01-20T14:26:56Z</time>
      </trkpt>
      <trkpt lat="47.70577" lon="5.08266">
        <ele>451.74</ele>
        <time>2021-01-20T14:27:01Z</time>
      </trkpt>
      <trkpt lat="47.70577" lon="5.08262">
        <ele>452.35</ele>
        <time>2021-01-20T14:27:04Z</time>
      </trkpt>
      <trkpt lat="47.70576" lon="5.08257">
        <ele>452.81</ele>
        <time>2021-01-20T14:27:07Z</time>
      </trkpt>
      <trkpt lat="47.70576" lon="5.08253">
        <ele>453.43</ele>
        <time>2021-01-20T14:27:10Z</time>
      </trkpt>
      <trkpt lat="47.70575" lon="5.08249">
        <ele>453.59</ele>
        <time>2021-01-20T14:27:13Z</time>
      </trkpt>
      <trkpt lat="47.70575" lon="5.08245">
        <ele>453.53</ele>
        <time>2021-01-20T14:27:16Z</time>
      </trkpt>
      <trkpt lat="47.70574" lon="5.0824">
        <ele>453.19</ele>
        <time>2021-01-20T14:27:19Z</time>
      </trkpt>
      <trkpt lat="47.70573" lon="5.08235">
        <ele>452.89</ele>
        <time>2021-01-20T14:27:22Z</time>
      </trkpt>
      <trkpt lat="47.70573" lon="5.08229">
        <ele>452.83</ele>
        <time>2021-01-20T14:27:25Z</time>
      </trkpt>
      <trkpt lat="47.70572" lon="5.08224">
        <ele>452.56</ele>
        <time>2021-01-20T14:27:28Z</time>
      </trkpt>
      <trkpt lat="47.70571" lon="5.08219">
        <ele>452.14</ele>
        <time>2021-01-20T14:27:31Z</time>
      </trkpt>
      <trkpt lat="47.70571" lon="5.08216">
        <ele>451.96</ele>
        <time>2021-01-20T14:27:34Z</time>
      </trkpt>
      <trkpt lat="47.7057" lon="5.08211">
        <ele>451.49</ele>
        <time>2021-01-20T14:27:38Z</time>
      </trkpt>
      <trkpt lat="47.70569" lon="5.08206">
        <ele>451.06</ele>
        <time>2021-01-20T14:27:42Z</time>
      </trkpt>
      <trkpt lat="47.70568" lon="5.08201">
        <ele>450.66</ele>
        <time>2021-01-20T14:27:46Z</time>
      </trkpt>
      <trkpt lat="47.70568" lon="5.08196">
        <ele>450.42</ele>
        <time>2021-01-20T14:27:49Z</time>
      </trkpt>
      <trkpt lat="47.70568" lon="5.08192">
        <ele>450.3</ele>
        <time>2021-01-20T14:27:52Z</time>
      </trkpt>
      <trkpt lat="47.70568" lon="5.08187">
        <ele>450.22</ele>
        <time>2021-01-20T14:27:55Z</time>
      </trkpt>
      <trkpt lat="47.70567" lon="5.08182">
        <ele>450.05</ele>
        <time>2021-01-20T14:27:58Z</time>
      </trkpt>
      <trkpt lat="47.70566" lon="5.08178">
        <ele>449.91</ele>
        <time>2021-01-20T14:28:01Z</time>
      </trkpt>
      <trkpt lat="47.70565" lon="5.08173">
        <ele>449.76</ele>
        <time>2021-01-20T14:28:04Z</time>
      </trkpt>
      <trkpt lat="47.70565" lon="5.08168">
        <ele>449.7</ele>
        <time>2021-01-20T14:28:07Z</time>
      </trkpt>
      <trkpt lat="47.70564" lon="5.08163">
        <ele>449.6</ele>
        <time>2021-01-20T14:28:10Z</time>
      </trkpt>
      <trkpt lat="47.70563" lon="5.08158">
        <ele>449.47</ele>
        <time>2021-01-20T14:28:13Z</time>
      </trkpt>
      <trkpt lat="47.70562" lon="5.08153">
        <ele>449.31</ele>
        <time>2021-01-20T14:28:16Z</time>
      </trkpt>
      <trkpt lat="47.70561" lon="5.08148">
        <ele>449.12</ele>
        <time>2021-01-20T14:28:19Z</time>
      </trkpt>
      <trkpt lat="47.7056" lon="5.08143">
        <ele>448.88</ele>
        <time>2021-01-20T14:28:22Z</time>
      </trkpt>
      <trkpt lat="47.70559" lon="5.08139">
        <ele>448.62</ele>
        <time>2021-01-20T14:28:25Z</time>
      </trkpt>
      <trkpt lat="47.70558" lon="5.08134">
        <ele>448.42</ele>
        <time>2021-01-20T14:28:28Z</time>
      </trkpt>
      <trkpt lat="47.70556" lon="5.08129">
        <ele>448.07</ele>
        <time>2021-01-20T14:28:31Z</time>
      </trkpt>
      <trkpt lat="47.70555" lon="5.08124">
        <ele>448</ele>
        <time>2021-01-20T14:28:34Z</time>
      </trkpt>
      <trkpt lat="47.70553" lon="5.0812">
        <ele>448</ele>
        <time>2021-01-20T14:28:37Z</time>
      </trkpt>
      <trkpt lat="47.70551" lon="5.08116">
        <ele>448</ele>
        <time>2021-01-20T14:28:40Z</time>
      </trkpt>
      <trkpt lat="47.7055" lon="5.08111">
        <ele>448.01</ele>
        <time>2021-01-20T14:28:44Z</time>
      </trkpt>
      <trkpt lat="47.70548" lon="5.08107">
        <ele>448.43</ele>
        <time>2021-01-20T14:28:47Z</time>
      </trkpt>
      <trkpt lat="47.70547" lon="5.08102">
        <ele>448.91</ele>
        <time>2021-01-20T14:28:50Z</time>
      </trkpt>
      <trkpt lat="47.70546" lon="5.08097">
        <ele>449.33</ele>
        <time>2021-01-20T14:28:53Z</time>
      </trkpt>
      <trkpt lat="47.70545" lon="5.08092">
        <ele>449.71</ele>
        <time>2021-01-20T14:28:56Z</time>
      </trkpt>
      <trkpt lat="47.70544" lon="5.08087">
        <ele>450.03</ele>
        <time>2021-01-20T14:28:59Z</time>
      </trkpt>
      <trkpt lat="47.70543" lon="5.08083">
        <ele>450.19</ele>
        <time>2021-01-20T14:29:02Z</time>
      </trkpt>
      <trkpt lat="47.70541" lon="5.08079">
        <ele>449.91</ele>
        <time>2021-01-20T14:29:05Z</time>
      </trkpt>
      <trkpt lat="47.7054" lon="5.08075">
        <ele>449.8</ele>
        <time>2021-01-20T14:29:08Z</time>
      </trkpt>
      <trkpt lat="47.70539" lon="5.0807">
        <ele>449.71</ele>
        <time>2021-01-20T14:29:11Z</time>
      </trkpt>
      <trkpt lat="47.70538" lon="5.08065">
        <ele>449.65</ele>
        <time>2021-01-20T14:29:14Z</time>
      </trkpt>
      <trkpt lat="47.70537" lon="5.0806">
        <ele>449.61</ele>
        <time>2021-01-20T14:29:17Z</time>
      </trkpt>
      <trkpt lat="47.70536" lon="5.08055">
        <ele>449.6</ele>
        <time>2021-01-20T14:29:20Z</time>
      </trkpt>
      <trkpt lat="47.70535" lon="5.08051">
        <ele>449.61</ele>
        <time>2021-01-20T14:29:23Z</time>
      </trkpt>
      <trkpt lat="47.70534" lon="5.08047">
        <ele>449.59</ele>
        <time>2021-01-20T14:29:26Z</time>
      </trkpt>
      <trkpt lat="47.70533" lon="5.08042">
        <ele>449.56</ele>
        <time>2021-01-20T14:29:30Z</time>
      </trkpt>
      <trkpt lat="47.70532" lon="5.08037">
        <ele>449.51</ele>
        <time>2021-01-20T14:29:33Z</time>
      </trkpt>
      <trkpt lat="47.70531" lon="5.08032">
        <ele>449.43</ele>
        <time>2021-01-20T14:29:36Z</time>
      </trkpt>
      <trkpt lat="47.70529" lon="5.08028">
        <ele>449.18</ele>
        <time>2021-01-20T14:29:39Z</time>
      </trkpt>
      <trkpt lat="47.70528" lon="5.08023">
        <ele>449.03</ele>
        <time>2021-01-20T14:29:42Z</time>
      </trkpt>
      <trkpt lat="47.70527" lon="5.08019">
        <ele>449</ele>
        <time>2021-01-20T14:29:45Z</time>
      </trkpt>
      <trkpt lat="47.70526" lon="5.08014">
        <ele>449.03</ele>
        <time>2021-01-20T14:29:48Z</time>
      </trkpt>
      <trkpt lat="47.70525" lon="5.08009">
        <ele>449.1</ele>
        <time>2021-01-20T14:29:51Z</time>
      </trkpt>
      <trkpt lat="47.70524" lon="5.08005">
        <ele>449.2</ele>
        <time>2021-01-20T14:29:54Z</time>
      </trkpt>
      <trkpt lat="47.70523" lon="5.08">
        <ele>449.34</ele>
        <time>2021-01-20T14:29:58Z</time>
      </trkpt>
      <trkpt lat="47.70522" lon="5.07995">
        <ele>449.6</ele>
        <time>2021-01-20T14:30:01Z</time>
      </trkpt>
      <trkpt lat="47.70521" lon="5.07989">
        <ele>449.88</ele>
        <time>2021-01-20T14:30:04Z</time>
      </trkpt>
      <trkpt lat="47.7052" lon="5.07985">
        <ele>450.1</ele>
        <time>2021-01-20T14:30:06Z</time>
      </trkpt>
      <trkpt lat="47.7052" lon="5.0798">
        <ele>450.28</ele>
        <time>2021-01-20T14:30:09Z</time>
      </trkpt>
      <trkpt lat="47.70519" lon="5.07975">
        <ele>450.53</ele>
        <time>2021-01-20T14:30:12Z</time>
      </trkpt>
      <trkpt lat="47.70519" lon="5.07971">
        <ele>450.57</ele>
        <time>2021-01-20T14:30:15Z</time>
      </trkpt>
      <trkpt lat="47.70518" lon="5.07967">
        <ele>450.45</ele>
        <time>2021-01-20T14:30:18Z</time>
      </trkpt>
      <trkpt lat="47.70516" lon="5.07963">
        <ele>450.38</ele>
        <time>2021-01-20T14:30:21Z</time>
      </trkpt>
      <trkpt lat="47.70515" lon="5.07959">
        <ele>450.23</ele>
        <time>2021-01-20T14:30:24Z</time>
      </trkpt>
      <trkpt lat="47.70515" lon="5.07953">
        <ele>449.91</ele>
        <time>2021-01-20T14:30:27Z</time>
      </trkpt>
      <trkpt lat="47.70514" lon="5.07949">
        <ele>449.74</ele>
        <time>2021-01-20T14:30:30Z</time>
      </trkpt>
      <trkpt lat="47.70514" lon="5.07943">
        <ele>449.44</ele>
        <time>2021-01-20T14:30:33Z</time>
      </trkpt>
      <trkpt lat="47.70513" lon="5.07938">
        <ele>449.3</ele>
        <time>2021-01-20T14:30:36Z</time>
      </trkpt>
      <trkpt lat="47.70513" lon="5.07934">
        <ele>449.16</ele>
        <time>2021-01-20T14:30:39Z</time>
      </trkpt>
      <trkpt lat="47.70512" lon="5.07929">
        <ele>449.01</ele>
        <time>2021-01-20T14:30:42Z</time>
      </trkpt>
      <trkpt lat="47.70511" lon="5.07925">
        <ele>448.9</ele>
        <time>2021-01-20T14:30:45Z</time>
      </trkpt>
      <trkpt lat="47.70509" lon="5.07922">
        <ele>448.87</ele>
        <time>2021-01-20T14:30:48Z</time>
      </trkpt>
      <trkpt lat="47.70508" lon="5.07918">
        <ele>448.76</ele>
        <time>2021-01-20T14:30:51Z</time>
      </trkpt>
      <trkpt lat="47.70507" lon="5.07913">
        <ele>448.58</ele>
        <time>2021-01-20T14:30:54Z</time>
      </trkpt>
      <trkpt lat="47.70507" lon="5.07908">
        <ele>448.36</ele>
        <time>2021-01-20T14:30:57Z</time>
      </trkpt>
      <trkpt lat="47.70507" lon="5.07903">
        <ele>448.13</ele>
        <time>2021-01-20T14:31:00Z</time>
      </trkpt>
      <trkpt lat="47.70507" lon="5.07898">
        <ele>447.91</ele>
        <time>2021-01-20T14:31:03Z</time>
      </trkpt>
      <trkpt lat="47.70509" lon="5.07893">
        <ele>447.55</ele>
        <time>2021-01-20T14:31:06Z</time>
      </trkpt>
      <trkpt lat="47.70511" lon="5.0789">
        <ele>447.26</ele>
        <time>2021-01-20T14:31:09Z</time>
      </trkpt>
      <trkpt lat="47.70513" lon="5.07887">
        <ele>446.86</ele>
        <time>2021-01-20T14:31:12Z</time>
      </trkpt>
      <trkpt lat="47.70515" lon="5.07884">
        <ele>446.41</ele>
        <time>2021-01-20T14:31:15Z</time>
      </trkpt>
      <trkpt lat="47.70518" lon="5.07882">
        <ele>446.03</ele>
        <time>2021-01-20T14:31:18Z</time>
      </trkpt>
      <trkpt lat="47.70521" lon="5.0788">
        <ele>445.69</ele>
        <time>2021-01-20T14:31:21Z</time>
      </trkpt>
      <trkpt lat="47.70523" lon="5.07878">
        <ele>445.43</ele>
        <time>2021-01-20T14:31:24Z</time>
      </trkpt>
      <trkpt lat="47.70526" lon="5.07877">
        <ele>445.22</ele>
        <time>2021-01-20T14:31:27Z</time>
      </trkpt>
      <trkpt lat="47.7053" lon="5.07876">
        <ele>445.03</ele>
        <time>2021-01-20T14:31:30Z</time>
      </trkpt>
      <trkpt lat="47.70533" lon="5.07875">
        <ele>444.91</ele>
        <time>2021-01-20T14:31:33Z</time>
      </trkpt>
      <trkpt lat="47.70535" lon="5.07873">
        <ele>444.71</ele>
        <time>2021-01-20T14:31:36Z</time>
      </trkpt>
      <trkpt lat="47.70538" lon="5.07872">
        <ele>444.56</ele>
        <time>2021-01-20T14:31:39Z</time>
      </trkpt>
      <trkpt lat="47.70541" lon="5.07871">
        <ele>444.41</ele>
        <time>2021-01-20T14:31:42Z</time>
      </trkpt>
      <trkpt lat="47.70544" lon="5.07869">
        <ele>444.15</ele>
        <time>2021-01-20T14:31:46Z</time>
      </trkpt>
      <trkpt lat="47.70547" lon="5.07867">
        <ele>443.88</ele>
        <time>2021-01-20T14:31:49Z</time>
      </trkpt>
      <trkpt lat="47.70549" lon="5.07864">
        <ele>443.52</ele>
        <time>2021-01-20T14:31:52Z</time>
      </trkpt>
      <trkpt lat="47.70552" lon="5.07862">
        <ele>443.22</ele>
        <time>2021-01-20T14:31:55Z</time>
      </trkpt>
      <trkpt lat="47.70554" lon="5.07859">
        <ele>442.9</ele>
        <time>2021-01-20T14:31:58Z</time>
      </trkpt>
      <trkpt lat="47.70555" lon="5.07854">
        <ele>442.51</ele>
        <time>2021-01-20T14:32:02Z</time>
      </trkpt>
      <trkpt lat="47.70555" lon="5.0785">
        <ele>442.22</ele>
        <time>2021-01-20T14:32:05Z</time>
      </trkpt>
      <trkpt lat="47.70554" lon="5.07844">
        <ele>441.82</ele>
        <time>2021-01-20T14:32:08Z</time>
      </trkpt>
      <trkpt lat="47.70554" lon="5.07839">
        <ele>441.46</ele>
        <time>2021-01-20T14:32:11Z</time>
      </trkpt>
      <trkpt lat="47.70553" lon="5.07834">
        <ele>441.14</ele>
        <time>2021-01-20T14:32:14Z</time>
      </trkpt>
      <trkpt lat="47.70553" lon="5.07829">
        <ele>440.78</ele>
        <time>2021-01-20T14:32:17Z</time>
      </trkpt>
      <trkpt lat="47.70553" lon="5.07824">
        <ele>440.42</ele>
        <time>2021-01-20T14:32:20Z</time>
      </trkpt>
      <trkpt lat="47.70552" lon="5.07819">
        <ele>440.1</ele>
        <time>2021-01-20T14:32:22Z</time>
      </trkpt>
      <trkpt lat="47.70551" lon="5.07814">
        <ele>439.77</ele>
        <time>2021-01-20T14:32:25Z</time>
      </trkpt>
      <trkpt lat="47.7055" lon="5.07809">
        <ele>439.45</ele>
        <time>2021-01-20T14:32:28Z</time>
      </trkpt>
      <trkpt lat="47.70549" lon="5.07804">
        <ele>439.19</ele>
        <time>2021-01-20T14:32:31Z</time>
      </trkpt>
      <trkpt lat="47.70548" lon="5.07799">
        <ele>439.1</ele>
        <time>2021-01-20T14:32:34Z</time>
      </trkpt>
      <trkpt lat="47.70548" lon="5.07795">
        <ele>439</ele>
        <time>2021-01-20T14:32:37Z</time>
      </trkpt>
      <trkpt lat="47.70547" lon="5.0779">
        <ele>438.92</ele>
        <time>2021-01-20T14:32:40Z</time>
      </trkpt>
      <trkpt lat="47.70546" lon="5.07785">
        <ele>438.86</ele>
        <time>2021-01-20T14:32:43Z</time>
      </trkpt>
      <trkpt lat="47.70545" lon="5.0778">
        <ele>438.81</ele>
        <time>2021-01-20T14:32:46Z</time>
      </trkpt>
      <trkpt lat="47.70544" lon="5.07775">
        <ele>438.83</ele>
        <time>2021-01-20T14:32:49Z</time>
      </trkpt>
      <trkpt lat="47.70542" lon="5.07771">
        <ele>438.98</ele>
        <time>2021-01-20T14:32:52Z</time>
      </trkpt>
      <trkpt lat="47.70541" lon="5.07766">
        <ele>439.05</ele>
        <time>2021-01-20T14:32:55Z</time>
      </trkpt>
      <trkpt lat="47.7054" lon="5.07762">
        <ele>439.12</ele>
        <time>2021-01-20T14:33:00Z</time>
      </trkpt>
      <trkpt lat="47.70538" lon="5.07758">
        <ele>439.26</ele>
        <time>2021-01-20T14:33:05Z</time>
      </trkpt>
      <trkpt lat="47.70536" lon="5.07755">
        <ele>439.41</ele>
        <time>2021-01-20T14:33:08Z</time>
      </trkpt>
      <trkpt lat="47.70535" lon="5.0775">
        <ele>439.48</ele>
        <time>2021-01-20T14:33:11Z</time>
      </trkpt>
      <trkpt lat="47.70534" lon="5.07746">
        <ele>439.34</ele>
        <time>2021-01-20T14:33:14Z</time>
      </trkpt>
      <trkpt lat="47.70534" lon="5.07741">
        <ele>439.08</ele>
        <time>2021-01-20T14:33:17Z</time>
      </trkpt>
      <trkpt lat="47.70534" lon="5.07737">
        <ele>438.87</ele>
        <time>2021-01-20T14:33:20Z</time>
      </trkpt>
      <trkpt lat="47.70533" lon="5.07731">
        <ele>438.68</ele>
        <time>2021-01-20T14:33:24Z</time>
      </trkpt>
      <trkpt lat="47.70532" lon="5.07727">
        <ele>438.62</ele>
        <time>2021-01-20T14:33:27Z</time>
      </trkpt>
      <trkpt lat="47.70531" lon="5.07722">
        <ele>438.52</ele>
        <time>2021-01-20T14:33:30Z</time>
      </trkpt>
      <trkpt lat="47.7053" lon="5.07717">
        <ele>438.18</ele>
        <time>2021-01-20T14:33:33Z</time>
      </trkpt>
      <trkpt lat="47.70529" lon="5.07713">
        <ele>437.89</ele>
        <time>2021-01-20T14:33:36Z</time>
      </trkpt>
      <trkpt lat="47.70528" lon="5.07708">
        <ele>437.45</ele>
        <time>2021-01-20T14:33:40Z</time>
      </trkpt>
      <trkpt lat="47.70526" lon="5.07704">
        <ele>437.18</ele>
        <time>2021-01-20T14:33:43Z</time>
      </trkpt>
      <trkpt lat="47.70525" lon="5.077">
        <ele>436.86</ele>
        <time>2021-01-20T14:33:46Z</time>
      </trkpt>
      <trkpt lat="47.70524" lon="5.07696">
        <ele>436.56</ele>
        <time>2021-01-20T14:33:49Z</time>
      </trkpt>
      <trkpt lat="47.70524" lon="5.07692">
        <ele>436.41</ele>
        <time>2021-01-20T14:33:52Z</time>
      </trkpt>
      <trkpt lat="47.70523" lon="5.07687">
        <ele>436.52</ele>
        <time>2021-01-20T14:33:55Z</time>
      </trkpt>
      <trkpt lat="47.70521" lon="5.07683">
        <ele>436.73</ele>
        <time>2021-01-20T14:33:59Z</time>
      </trkpt>
      <trkpt lat="47.70519" lon="5.07679">
        <ele>436.95</ele>
        <time>2021-01-20T14:34:02Z</time>
      </trkpt>
      <trkpt lat="47.70518" lon="5.07674">
        <ele>437.06</ele>
        <time>2021-01-20T14:34:05Z</time>
      </trkpt>
      <trkpt lat="47.70516" lon="5.07671">
        <ele>437.27</ele>
        <time>2021-01-20T14:34:08Z</time>
      </trkpt>
      <trkpt lat="47.70514" lon="5.07668">
        <ele>437.49</ele>
        <time>2021-01-20T14:34:12Z</time>
      </trkpt>
      <trkpt lat="47.70512" lon="5.07664">
        <ele>437.43</ele>
        <time>2021-01-20T14:34:16Z</time>
      </trkpt>
      <trkpt lat="47.7051" lon="5.07661">
        <ele>437.37</ele>
        <time>2021-01-20T14:34:19Z</time>
      </trkpt>
      <trkpt lat="47.70508" lon="5.07657">
        <ele>437.24</ele>
        <time>2021-01-20T14:34:23Z</time>
      </trkpt>
      <trkpt lat="47.70507" lon="5.07653">
        <ele>437.01</ele>
        <time>2021-01-20T14:34:27Z</time>
      </trkpt>
      <trkpt lat="47.70505" lon="5.07648">
        <ele>436.87</ele>
        <time>2021-01-20T14:34:31Z</time>
      </trkpt>
      <trkpt lat="47.70504" lon="5.07644">
        <ele>436.7</ele>
        <time>2021-01-20T14:34:34Z</time>
      </trkpt>
      <trkpt lat="47.70502" lon="5.0764">
        <ele>436.73</ele>
        <time>2021-01-20T14:34:37Z</time>
      </trkpt>
      <trkpt lat="47.70501" lon="5.07635">
        <ele>436.25</ele>
        <time>2021-01-20T14:34:40Z</time>
      </trkpt>
      <trkpt lat="47.70499" lon="5.07631">
        <ele>435.87</ele>
        <time>2021-01-20T14:34:43Z</time>
      </trkpt>
      <trkpt lat="47.70497" lon="5.07627">
        <ele>435.33</ele>
        <time>2021-01-20T14:34:47Z</time>
      </trkpt>
      <trkpt lat="47.70496" lon="5.07624">
        <ele>434.93</ele>
        <time>2021-01-20T14:34:51Z</time>
      </trkpt>
      <trkpt lat="47.70493" lon="5.07621">
        <ele>434.59</ele>
        <time>2021-01-20T14:34:55Z</time>
      </trkpt>
      <trkpt lat="47.70491" lon="5.07617">
        <ele>434.1</ele>
        <time>2021-01-20T14:34:58Z</time>
      </trkpt>
      <trkpt lat="47.70489" lon="5.07614">
        <ele>433.77</ele>
        <time>2021-01-20T14:35:01Z</time>
      </trkpt>
      <trkpt lat="47.70488" lon="5.0761">
        <ele>433.24</ele>
        <time>2021-01-20T14:35:04Z</time>
      </trkpt>
      <trkpt lat="47.70486" lon="5.07606">
        <ele>432.68</ele>
        <time>2021-01-20T14:35:07Z</time>
      </trkpt>
      <trkpt lat="47.70484" lon="5.07602">
        <ele>432.17</ele>
        <time>2021-01-20T14:35:10Z</time>
      </trkpt>
      <trkpt lat="47.70483" lon="5.07599">
        <ele>431.8</ele>
        <time>2021-01-20T14:35:13Z</time>
      </trkpt>
      <trkpt lat="47.7048" lon="5.07597">
        <ele>431.77</ele>
        <time>2021-01-20T14:35:17Z</time>
      </trkpt>
      <trkpt lat="47.70478" lon="5.07594">
        <ele>431.56</ele>
        <time>2021-01-20T14:35:22Z</time>
      </trkpt>
      <trkpt lat="47.70476" lon="5.0759">
        <ele>431.27</ele>
        <time>2021-01-20T14:35:26Z</time>
      </trkpt>
      <trkpt lat="47.70474" lon="5.07586">
        <ele>431.05</ele>
        <time>2021-01-20T14:35:29Z</time>
      </trkpt>
      <trkpt lat="47.70473" lon="5.07583">
        <ele>430.86</ele>
        <time>2021-01-20T14:35:33Z</time>
      </trkpt>
      <trkpt lat="47.70471" lon="5.07579">
        <ele>430.77</ele>
        <time>2021-01-20T14:35:36Z</time>
      </trkpt>
      <trkpt lat="47.7047" lon="5.07574">
        <ele>430.46</ele>
        <time>2021-01-20T14:35:39Z</time>
      </trkpt>
      <trkpt lat="47.70468" lon="5.07571">
        <ele>430.35</ele>
        <time>2021-01-20T14:35:42Z</time>
      </trkpt>
      <trkpt lat="47.70467" lon="5.07567">
        <ele>430.09</ele>
        <time>2021-01-20T14:35:45Z</time>
      </trkpt>
      <trkpt lat="47.70465" lon="5.07562">
        <ele>429.78</ele>
        <time>2021-01-20T14:35:48Z</time>
      </trkpt>
      <trkpt lat="47.70463" lon="5.07558">
        <ele>429.54</ele>
        <time>2021-01-20T14:35:52Z</time>
      </trkpt>
      <trkpt lat="47.70461" lon="5.07555">
        <ele>429.32</ele>
        <time>2021-01-20T14:35:55Z</time>
      </trkpt>
      <trkpt lat="47.7046" lon="5.07552">
        <ele>428.93</ele>
        <time>2021-01-20T14:35:59Z</time>
      </trkpt>
      <trkpt lat="47.70457" lon="5.07547">
        <ele>428.32</ele>
        <time>2021-01-20T14:36:04Z</time>
      </trkpt>
      <trkpt lat="47.70456" lon="5.07543">
        <ele>427.78</ele>
        <time>2021-01-20T14:36:07Z</time>
      </trkpt>
      <trkpt lat="47.70454" lon="5.0754">
        <ele>427.42</ele>
        <time>2021-01-20T14:36:10Z</time>
      </trkpt>
      <trkpt lat="47.70451" lon="5.07537">
        <ele>427.09</ele>
        <time>2021-01-20T14:36:13Z</time>
      </trkpt>
      <trkpt lat="47.70449" lon="5.07533">
        <ele>426.59</ele>
        <time>2021-01-20T14:36:16Z</time>
      </trkpt>
      <trkpt lat="47.70448" lon="5.07528">
        <ele>425.9</ele>
        <time>2021-01-20T14:36:19Z</time>
      </trkpt>
      <trkpt lat="47.70446" lon="5.07524">
        <ele>425.55</ele>
        <time>2021-01-20T14:36:22Z</time>
      </trkpt>
      <trkpt lat="47.70444" lon="5.0752">
        <ele>425.22</ele>
        <time>2021-01-20T14:36:26Z</time>
      </trkpt>
      <trkpt lat="47.70442" lon="5.07517">
        <ele>425.12</ele>
        <time>2021-01-20T14:36:30Z</time>
      </trkpt>
      <trkpt lat="47.7044" lon="5.07513">
        <ele>424.87</ele>
        <time>2021-01-20T14:36:34Z</time>
      </trkpt>
      <trkpt lat="47.70438" lon="5.0751">
        <ele>424.71</ele>
        <time>2021-01-20T14:36:38Z</time>
      </trkpt>
      <trkpt lat="47.70436" lon="5.07507">
        <ele>424.52</ele>
        <time>2021-01-20T14:36:41Z</time>
      </trkpt>
      <trkpt lat="47.70433" lon="5.07504">
        <ele>424.37</ele>
        <time>2021-01-20T14:36:44Z</time>
      </trkpt>
      <trkpt lat="47.7043" lon="5.075">
        <ele>424.04</ele>
        <time>2021-01-20T14:36:47Z</time>
      </trkpt>
      <trkpt lat="47.70428" lon="5.07497">
        <ele>423.95</ele>
        <time>2021-01-20T14:36:50Z</time>
      </trkpt>
      <trkpt lat="47.70427" lon="5.07492">
        <ele>423.61</ele>
        <time>2021-01-20T14:36:54Z</time>
      </trkpt>
      <trkpt lat="47.70427" lon="5.07488">
        <ele>423.28</ele>
        <time>2021-01-20T14:36:58Z</time>
      </trkpt>
      <trkpt lat="47.70427" lon="5.07484">
        <ele>422.96</ele>
        <time>2021-01-20T14:37:03Z</time>
      </trkpt>
      <trkpt lat="47.70428" lon="5.07479">
        <ele>422.53</ele>
        <time>2021-01-20T14:37:09Z</time>
      </trkpt>
      <trkpt lat="47.70428" lon="5.07474">
        <ele>422.14</ele>
        <time>2021-01-20T14:37:15Z</time>
      </trkpt>
      <trkpt lat="47.70429" lon="5.0747">
        <ele>421.72</ele>
        <time>2021-01-20T14:37:19Z</time>
      </trkpt>
      <trkpt lat="47.7043" lon="5.07466">
        <ele>421.21</ele>
        <time>2021-01-20T14:37:23Z</time>
      </trkpt>
      <trkpt lat="47.70432" lon="5.07462">
        <ele>420.73</ele>
        <time>2021-01-20T14:37:28Z</time>
      </trkpt>
      <trkpt lat="47.70433" lon="5.07459">
        <ele>420.38</ele>
        <time>2021-01-20T14:37:33Z</time>
      </trkpt>
      <trkpt lat="47.70434" lon="5.07455">
        <ele>419.91</ele>
        <time>2021-01-20T14:37:38Z</time>
      </trkpt>
      <trkpt lat="47.70436" lon="5.07451">
        <ele>419.48</ele>
        <time>2021-01-20T14:37:45Z</time>
      </trkpt>
      <trkpt lat="47.70437" lon="5.07447">
        <ele>419.03</ele>
        <time>2021-01-20T14:37:52Z</time>
      </trkpt>
      <trkpt lat="47.7044" lon="5.07443">
        <ele>418.63</ele>
        <time>2021-01-20T14:37:58Z</time>
      </trkpt>
      <trkpt lat="47.70441" lon="5.0744">
        <ele>418.24</ele>
        <time>2021-01-20T14:38:06Z</time>
      </trkpt>
      <trkpt lat="47.70441" lon="5.07435">
        <ele>417.52</ele>
        <time>2021-01-20T14:38:12Z</time>
      </trkpt>
      <trkpt lat="47.70442" lon="5.0743">
        <ele>416.83</ele>
        <time>2021-01-20T14:38:16Z</time>
      </trkpt>
      <trkpt lat="47.70444" lon="5.07427">
        <ele>416.47</ele>
        <time>2021-01-20T14:38:21Z</time>
      </trkpt>
      <trkpt lat="47.70445" lon="5.07423">
        <ele>415.91</ele>
        <time>2021-01-20T14:38:28Z</time>
      </trkpt>
      <trkpt lat="47.70448" lon="5.0742">
        <ele>415.46</ele>
        <time>2021-01-20T14:38:32Z</time>
      </trkpt>
      <trkpt lat="47.70451" lon="5.07418">
        <ele>415.18</ele>
        <time>2021-01-20T14:38:36Z</time>
      </trkpt>
      <trkpt lat="47.70452" lon="5.07414">
        <ele>414.71</ele>
        <time>2021-01-20T14:38:40Z</time>
      </trkpt>
      <trkpt lat="47.70453" lon="5.07409">
        <ele>414.17</ele>
        <time>2021-01-20T14:38:44Z</time>
      </trkpt>
      <trkpt lat="47.70454" lon="5.07405">
        <ele>413.74</ele>
        <time>2021-01-20T14:38:48Z</time>
      </trkpt>
      <trkpt lat="47.70454" lon="5.07401">
        <ele>413.31</ele>
        <time>2021-01-20T14:38:54Z</time>
      </trkpt>
      <trkpt lat="47.70454" lon="5.07396">
        <ele>412.77</ele>
        <time>2021-01-20T14:38:59Z</time>
      </trkpt>
      <trkpt lat="47.70452" lon="5.07392">
        <ele>412.34</ele>
        <time>2021-01-20T14:39:03Z</time>
      </trkpt>
      <trkpt lat="47.70452" lon="5.07388">
        <ele>411.92</ele>
        <time>2021-01-20T14:39:07Z</time>
      </trkpt>
      <trkpt lat="47.70452" lon="5.07384">
        <ele>411.55</ele>
        <time>2021-01-20T14:39:10Z</time>
      </trkpt>
      <trkpt lat="47.70452" lon="5.07379">
        <ele>411.09</ele>
        <time>2021-01-20T14:39:14Z</time>
      </trkpt>
      <trkpt lat="47.70451" lon="5.07374">
        <ele>410.68</ele>
        <time>2021-01-20T14:39:18Z</time>
      </trkpt>
      <trkpt lat="47.7045" lon="5.07369">
        <ele>410.28</ele>
        <time>2021-01-20T14:39:22Z</time>
      </trkpt>
      <trkpt lat="47.70449" lon="5.07364">
        <ele>409.91</ele>
        <time>2021-01-20T14:39:26Z</time>
      </trkpt>
      <trkpt lat="47.70448" lon="5.07359">
        <ele>409.44</ele>
        <time>2021-01-20T14:39:30Z</time>
      </trkpt>
      <trkpt lat="47.70447" lon="5.07354">
        <ele>408.79</ele>
        <time>2021-01-20T14:39:34Z</time>
      </trkpt>
      <trkpt lat="47.70446" lon="5.07349">
        <ele>408.14</ele>
        <time>2021-01-20T14:39:38Z</time>
      </trkpt>
      <trkpt lat="47.70446" lon="5.07345">
        <ele>407.57</ele>
        <time>2021-01-20T14:39:41Z</time>
      </trkpt>
      <trkpt lat="47.70445" lon="5.07341">
        <ele>407.06</ele>
        <time>2021-01-20T14:39:44Z</time>
      </trkpt>
      <trkpt lat="47.70444" lon="5.07337">
        <ele>406.54</ele>
        <time>2021-01-20T14:39:47Z</time>
      </trkpt>
      <trkpt lat="47.70443" lon="5.07334">
        <ele>406.15</ele>
        <time>2021-01-20T14:39:50Z</time>
      </trkpt>
      <trkpt lat="47.70441" lon="5.07329">
        <ele>405.46</ele>
        <time>2021-01-20T14:39:54Z</time>
      </trkpt>
      <trkpt lat="47.7044" lon="5.07325">
        <ele>404.86</ele>
        <time>2021-01-20T14:39:58Z</time>
      </trkpt>
      <trkpt lat="47.70438" lon="5.07322">
        <ele>404.41</ele>
        <time>2021-01-20T14:40:01Z</time>
      </trkpt>
      <trkpt lat="47.70437" lon="5.07318">
        <ele>403.76</ele>
        <time>2021-01-20T14:40:04Z</time>
      </trkpt>
      <trkpt lat="47.70436" lon="5.07313">
        <ele>402.93</ele>
        <time>2021-01-20T14:40:07Z</time>
      </trkpt>
      <trkpt lat="47.70434" lon="5.07309">
        <ele>402.21</ele>
        <time>2021-01-20T14:40:10Z</time>
      </trkpt>
      <trkpt lat="47.70432" lon="5.07307">
        <ele>401.81</ele>
        <time>2021-01-20T14:40:15Z</time>
      </trkpt>
      <trkpt lat="47.70429" lon="5.07306">
        <ele>401.53</ele>
        <time>2021-01-20T14:40:19Z</time>
      </trkpt>
      <trkpt lat="47.70426" lon="5.07302">
        <ele>401.08</ele>
        <time>2021-01-20T14:40:23Z</time>
      </trkpt>
      <trkpt lat="47.70424" lon="5.073">
        <ele>400.91</ele>
        <time>2021-01-20T14:40:26Z</time>
      </trkpt>
      <trkpt lat="47.70422" lon="5.07297">
        <ele>400.71</ele>
        <time>2021-01-20T14:40:29Z</time>
      </trkpt>
      <trkpt lat="47.7042" lon="5.07293">
        <ele>400.51</ele>
        <time>2021-01-20T14:40:32Z</time>
      </trkpt>
      <trkpt lat="47.70418" lon="5.07289">
        <ele>400.37</ele>
        <time>2021-01-20T14:40:36Z</time>
      </trkpt>
      <trkpt lat="47.70416" lon="5.07285">
        <ele>400.28</ele>
        <time>2021-01-20T14:40:39Z</time>
      </trkpt>
      <trkpt lat="47.70414" lon="5.07282">
        <ele>400.2</ele>
        <time>2021-01-20T14:40:42Z</time>
      </trkpt>
      <trkpt lat="47.70412" lon="5.07279">
        <ele>400.07</ele>
        <time>2021-01-20T14:40:46Z</time>
      </trkpt>
      <trkpt lat="47.70409" lon="5.07276">
        <ele>399.67</ele>
        <time>2021-01-20T14:40:50Z</time>
      </trkpt>
      <trkpt lat="47.70408" lon="5.07273">
        <ele>399.13</ele>
        <time>2021-01-20T14:40:53Z</time>
      </trkpt>
      <trkpt lat="47.70406" lon="5.07269">
        <ele>398.47</ele>
        <time>2021-01-20T14:40:56Z</time>
      </trkpt>
      <trkpt lat="47.70404" lon="5.07266">
        <ele>398.04</ele>
        <time>2021-01-20T14:40:59Z</time>
      </trkpt>
      <trkpt lat="47.70403" lon="5.07263">
        <ele>397.59</ele>
        <time>2021-01-20T14:41:02Z</time>
      </trkpt>
      <trkpt lat="47.70401" lon="5.07259">
        <ele>397.09</ele>
        <time>2021-01-20T14:41:05Z</time>
      </trkpt>
      <trkpt lat="47.704" lon="5.07254">
        <ele>396.4</ele>
        <time>2021-01-20T14:41:09Z</time>
      </trkpt>
      <trkpt lat="47.70397" lon="5.07251">
        <ele>396.26</ele>
        <time>2021-01-20T14:41:13Z</time>
      </trkpt>
      <trkpt lat="47.70395" lon="5.07249">
        <ele>396.12</ele>
        <time>2021-01-20T14:41:17Z</time>
      </trkpt>
      <trkpt lat="47.70392" lon="5.07249">
        <ele>396.44</ele>
        <time>2021-01-20T14:41:24Z</time>
      </trkpt>
      <trkpt lat="47.70393" lon="5.07253">
        <ele>396.93</ele>
        <time>2021-01-20T14:41:47Z</time>
      </trkpt>
      <trkpt lat="47.7039" lon="5.07253">
        <ele>397.22</ele>
        <time>2021-01-20T14:42:25Z</time>
      </trkpt>
      <trkpt lat="47.70389" lon="5.07249">
        <ele>396.77</ele>
        <time>2021-01-20T14:42:36Z</time>
      </trkpt>
      <trkpt lat="47.70388" lon="5.07244">
        <ele>395.94</ele>
        <time>2021-01-20T14:42:40Z</time>
      </trkpt>
      <trkpt lat="47.70387" lon="5.07239">
        <ele>395.15</ele>
        <time>2021-01-20T14:42:43Z</time>
      </trkpt>
      <trkpt lat="47.70386" lon="5.07235">
        <ele>394.6</ele>
        <time>2021-01-20T14:42:46Z</time>
      </trkpt>
      <trkpt lat="47.70385" lon="5.0723">
        <ele>393.86</ele>
        <time>2021-01-20T14:42:49Z</time>
      </trkpt>
      <trkpt lat="47.70385" lon="5.07225">
        <ele>392.83</ele>
        <time>2021-01-20T14:42:52Z</time>
      </trkpt>
      <trkpt lat="47.70384" lon="5.07221">
        <ele>392.37</ele>
        <time>2021-01-20T14:42:55Z</time>
      </trkpt>
      <trkpt lat="47.70382" lon="5.07217">
        <ele>392.34</ele>
        <time>2021-01-20T14:42:58Z</time>
      </trkpt>
      <trkpt lat="47.7038" lon="5.07215">
        <ele>392.66</ele>
        <time>2021-01-20T14:43:01Z</time>
      </trkpt>
      <trkpt lat="47.70378" lon="5.07212">
        <ele>392.83</ele>
        <time>2021-01-20T14:43:04Z</time>
      </trkpt>
      <trkpt lat="47.70376" lon="5.07209">
        <ele>393.02</ele>
        <time>2021-01-20T14:43:07Z</time>
      </trkpt>
      <trkpt lat="47.70374" lon="5.07206">
        <ele>393.22</ele>
        <time>2021-01-20T14:43:10Z</time>
      </trkpt>
      <trkpt lat="47.70372" lon="5.07202">
        <ele>393.27</ele>
        <time>2021-01-20T14:43:13Z</time>
      </trkpt>
      <trkpt lat="47.7037" lon="5.07199">
        <ele>393.51</ele>
        <time>2021-01-20T14:43:16Z</time>
      </trkpt>
      <trkpt lat="47.70368" lon="5.07195">
        <ele>393.6</ele>
        <time>2021-01-20T14:43:20Z</time>
      </trkpt>
      <trkpt lat="47.70368" lon="5.07191">
        <ele>393.24</ele>
        <time>2021-01-20T14:43:23Z</time>
      </trkpt>
      <trkpt lat="47.70366" lon="5.07187">
        <ele>393.66</ele>
        <time>2021-01-20T14:43:27Z</time>
      </trkpt>
      <trkpt lat="47.70364" lon="5.07184">
        <ele>394.17</ele>
        <time>2021-01-20T14:43:32Z</time>
      </trkpt>
      <trkpt lat="47.70363" lon="5.0718">
        <ele>394.24</ele>
        <time>2021-01-20T14:43:37Z</time>
      </trkpt>
      <trkpt lat="47.70363" lon="5.07176">
        <ele>393.95</ele>
        <time>2021-01-20T14:43:41Z</time>
      </trkpt>
      <trkpt lat="47.70362" lon="5.07171">
        <ele>393.96</ele>
        <time>2021-01-20T14:43:46Z</time>
      </trkpt>
      <trkpt lat="47.7036" lon="5.07167">
        <ele>394.22</ele>
        <time>2021-01-20T14:43:50Z</time>
      </trkpt>
      <trkpt lat="47.70358" lon="5.07163">
        <ele>393.94</ele>
        <time>2021-01-20T14:43:54Z</time>
      </trkpt>
      <trkpt lat="47.70357" lon="5.0716">
        <ele>393.65</ele>
        <time>2021-01-20T14:43:59Z</time>
      </trkpt>
      <trkpt lat="47.70355" lon="5.07156">
        <ele>393.43</ele>
        <time>2021-01-20T14:44:04Z</time>
      </trkpt>
      <trkpt lat="47.70353" lon="5.07152">
        <ele>393.28</ele>
        <time>2021-01-20T14:44:08Z</time>
      </trkpt>
      <trkpt lat="47.70352" lon="5.07148">
        <ele>392.94</ele>
        <time>2021-01-20T14:44:11Z</time>
      </trkpt>
      <trkpt lat="47.7035" lon="5.07144">
        <ele>392.9</ele>
        <time>2021-01-20T14:44:15Z</time>
      </trkpt>
      <trkpt lat="47.70348" lon="5.07141">
        <ele>393.05</ele>
        <time>2021-01-20T14:44:19Z</time>
      </trkpt>
      <trkpt lat="47.70346" lon="5.07138">
        <ele>393.16</ele>
        <time>2021-01-20T14:44:25Z</time>
      </trkpt>
      <trkpt lat="47.70344" lon="5.07134">
        <ele>392.83</ele>
        <time>2021-01-20T14:44:30Z</time>
      </trkpt>
      <trkpt lat="47.70342" lon="5.07131">
        <ele>392.69</ele>
        <time>2021-01-20T14:44:33Z</time>
      </trkpt>
      <trkpt lat="47.70339" lon="5.07128">
        <ele>392.78</ele>
        <time>2021-01-20T14:44:36Z</time>
      </trkpt>
      <trkpt lat="47.70337" lon="5.07125">
        <ele>392.58</ele>
        <time>2021-01-20T14:44:41Z</time>
      </trkpt>
      <trkpt lat="47.70335" lon="5.07121">
        <ele>392.09</ele>
        <time>2021-01-20T14:44:45Z</time>
      </trkpt>
      <trkpt lat="47.70334" lon="5.07117">
        <ele>391.33</ele>
        <time>2021-01-20T14:44:48Z</time>
      </trkpt>
      <trkpt lat="47.70333" lon="5.07112">
        <ele>390.33</ele>
        <time>2021-01-20T14:44:54Z</time>
      </trkpt>
      <trkpt lat="47.70332" lon="5.07108">
        <ele>389.77</ele>
        <time>2021-01-20T14:44:57Z</time>
      </trkpt>
      <trkpt lat="47.70331" lon="5.07103">
        <ele>389.05</ele>
        <time>2021-01-20T14:45:00Z</time>
      </trkpt>
      <trkpt lat="47.70331" lon="5.07099">
        <ele>388.21</ele>
        <time>2021-01-20T14:45:03Z</time>
      </trkpt>
      <trkpt lat="47.70331" lon="5.07095">
        <ele>387.37</ele>
        <time>2021-01-20T14:45:06Z</time>
      </trkpt>
      <trkpt lat="47.70332" lon="5.07087">
        <ele>385.31</ele>
        <time>2021-01-20T14:45:14Z</time>
      </trkpt>
      <trkpt lat="47.70334" lon="5.07078">
        <ele>383.91</ele>
        <time>2021-01-20T14:45:21Z</time>
      </trkpt>
      <trkpt lat="47.70334" lon="5.07069">
        <ele>383.88</ele>
        <time>2021-01-20T14:45:29Z</time>
      </trkpt>
      <trkpt lat="47.7033" lon="5.07063">
        <ele>385.14</ele>
        <time>2021-01-20T14:45:39Z</time>
      </trkpt>
      <trkpt lat="47.7033" lon="5.07045">
        <ele>384.37</ele>
        <time>2021-01-20T14:46:05Z</time>
      </trkpt>
      <trkpt lat="47.70337" lon="5.07032">
        <ele>381.72</ele>
        <time>2021-01-20T14:46:19Z</time>
      </trkpt>
      <trkpt lat="47.70346" lon="5.07019">
        <ele>380.03</ele>
        <time>2021-01-20T14:46:32Z</time>
      </trkpt>
      <trkpt lat="47.70355" lon="5.07007">
        <ele>378.3</ele>
        <time>2021-01-20T14:46:44Z</time>
      </trkpt>
      <trkpt lat="47.70365" lon="5.06997">
        <ele>377.19</ele>
        <time>2021-01-20T14:46:59Z</time>
      </trkpt>
      <trkpt lat="47.70377" lon="5.06996">
        <ele>378.08</ele>
        <time>2021-01-20T14:47:12Z</time>
      </trkpt>
      <trkpt lat="47.70389" lon="5.06993">
        <ele>379.01</ele>
        <time>2021-01-20T14:47:22Z</time>
      </trkpt>
      <trkpt lat="47.70401" lon="5.06987">
        <ele>380.31</ele>
        <time>2021-01-20T14:47:33Z</time>
      </trkpt>
      <trkpt lat="47.7041" lon="5.06977">
        <ele>381.28</ele>
        <time>2021-01-20T14:47:46Z</time>
      </trkpt>
      <trkpt lat="47.70415" lon="5.06961">
        <ele>381.37</ele>
        <time>2021-01-20T14:47:58Z</time>
      </trkpt>
      <trkpt lat="47.70416" lon="5.06943">
        <ele>380.83</ele>
        <time>2021-01-20T14:48:11Z</time>
      </trkpt>
      <trkpt lat="47.70418" lon="5.06925">
        <ele>380.64</ele>
        <time>2021-01-20T14:48:21Z</time>
      </trkpt>
      <trkpt lat="47.70422" lon="5.06908">
        <ele>380.72</ele>
        <time>2021-01-20T14:48:30Z</time>
      </trkpt>
      <trkpt lat="47.70425" lon="5.06891">
        <ele>380.25</ele>
        <time>2021-01-20T14:48:43Z</time>
      </trkpt>
      <trkpt lat="47.70428" lon="5.06874">
        <ele>379.25</ele>
        <time>2021-01-20T14:48:54Z</time>
      </trkpt>
      <trkpt lat="47.70432" lon="5.06858">
        <ele>378.69</ele>
        <time>2021-01-20T14:49:04Z</time>
      </trkpt>
      <trkpt lat="47.70435" lon="5.06841">
        <ele>378.42</ele>
        <time>2021-01-20T14:49:18Z</time>
      </trkpt>
      <trkpt lat="47.70438" lon="5.06823">
        <ele>378.41</ele>
        <time>2021-01-20T14:49:30Z</time>
      </trkpt>
      <trkpt lat="47.70441" lon="5.06806">
        <ele>378.52</ele>
        <time>2021-01-20T14:49:44Z</time>
      </trkpt>
      <trkpt lat="47.7045" lon="5.06795">
        <ele>379.34</ele>
        <time>2021-01-20T14:50:08Z</time>
      </trkpt>
      <trkpt lat="47.7046" lon="5.06804">
        <ele>381.15</ele>
        <time>2021-01-20T14:50:21Z</time>
      </trkpt>
      <trkpt lat="47.70464" lon="5.06814">
        <ele>382.55</ele>
        <time>2021-01-20T14:50:26Z</time>
      </trkpt>
      <trkpt lat="47.70467" lon="5.06822">
        <ele>383.8</ele>
        <time>2021-01-20T14:50:31Z</time>
      </trkpt>
      <trkpt lat="47.7047" lon="5.06829">
        <ele>385.08</ele>
        <time>2021-01-20T14:50:36Z</time>
      </trkpt>
      <trkpt lat="47.70473" lon="5.06837">
        <ele>386.48</ele>
        <time>2021-01-20T14:50:41Z</time>
      </trkpt>
      <trkpt lat="47.70476" lon="5.06846">
        <ele>387.78</ele>
        <time>2021-01-20T14:50:47Z</time>
      </trkpt>
      <trkpt lat="47.70478" lon="5.06855">
        <ele>388.96</ele>
        <time>2021-01-20T14:50:53Z</time>
      </trkpt>
      <trkpt lat="47.70479" lon="5.06864">
        <ele>390.1</ele>
        <time>2021-01-20T14:50:58Z</time>
      </trkpt>
      <trkpt lat="47.70477" lon="5.06873">
        <ele>391.08</ele>
        <time>2021-01-20T14:51:04Z</time>
      </trkpt>
      <trkpt lat="47.70474" lon="5.0688">
        <ele>391.82</ele>
        <time>2021-01-20T14:51:18Z</time>
      </trkpt>
      <trkpt lat="47.70477" lon="5.06889">
        <ele>393.18</ele>
        <time>2021-01-20T14:51:28Z</time>
      </trkpt>
      <trkpt lat="47.70478" lon="5.06898">
        <ele>394.12</ele>
        <time>2021-01-20T14:51:36Z</time>
      </trkpt>
      <trkpt lat="47.70479" lon="5.06907">
        <ele>395.04</ele>
        <time>2021-01-20T14:51:46Z</time>
      </trkpt>
      <trkpt lat="47.70477" lon="5.06916">
        <ele>395.93</ele>
        <time>2021-01-20T14:51:54Z</time>
      </trkpt>
      <trkpt lat="47.70477" lon="5.06925">
        <ele>396.35</ele>
        <time>2021-01-20T14:52:03Z</time>
      </trkpt>
      <trkpt lat="47.70476" lon="5.06934">
        <ele>396.71</ele>
        <time>2021-01-20T14:52:11Z</time>
      </trkpt>
      <trkpt lat="47.70475" lon="5.06941">
        <ele>396.96</ele>
        <time>2021-01-20T14:52:22Z</time>
      </trkpt>
      <trkpt lat="47.70477" lon="5.06944">
        <ele>397.15</ele>
        <time>2021-01-20T14:52:25Z</time>
      </trkpt>
      <trkpt lat="47.70479" lon="5.06947">
        <ele>397.34</ele>
        <time>2021-01-20T14:52:28Z</time>
      </trkpt>
      <trkpt lat="47.70482" lon="5.0695">
        <ele>397.55</ele>
        <time>2021-01-20T14:52:31Z</time>
      </trkpt>
      <trkpt lat="47.70485" lon="5.06951">
        <ele>397.7</ele>
        <time>2021-01-20T14:52:34Z</time>
      </trkpt>
      <trkpt lat="47.70488" lon="5.06952">
        <ele>397.84</ele>
        <time>2021-01-20T14:52:37Z</time>
      </trkpt>
      <trkpt lat="47.70492" lon="5.06953">
        <ele>398.02</ele>
        <time>2021-01-20T14:52:40Z</time>
      </trkpt>
      <trkpt lat="47.70495" lon="5.06955">
        <ele>398.2</ele>
        <time>2021-01-20T14:52:43Z</time>
      </trkpt>
      <trkpt lat="47.70498" lon="5.06958">
        <ele>398.42</ele>
        <time>2021-01-20T14:52:46Z</time>
      </trkpt>
      <trkpt lat="47.70501" lon="5.06959">
        <ele>398.63</ele>
        <time>2021-01-20T14:52:49Z</time>
      </trkpt>
      <trkpt lat="47.70504" lon="5.0696">
        <ele>398.99</ele>
        <time>2021-01-20T14:52:52Z</time>
      </trkpt>
      <trkpt lat="47.70507" lon="5.06961">
        <ele>399.35</ele>
        <time>2021-01-20T14:52:55Z</time>
      </trkpt>
      <trkpt lat="47.70511" lon="5.06963">
        <ele>399.86</ele>
        <time>2021-01-20T14:52:58Z</time>
      </trkpt>
      <trkpt lat="47.70515" lon="5.06965">
        <ele>400.36</ele>
        <time>2021-01-20T14:53:01Z</time>
      </trkpt>
      <trkpt lat="47.70518" lon="5.06966">
        <ele>400.72</ele>
        <time>2021-01-20T14:53:04Z</time>
      </trkpt>
      <trkpt lat="47.70522" lon="5.06968">
        <ele>401.22</ele>
        <time>2021-01-20T14:53:07Z</time>
      </trkpt>
      <trkpt lat="47.70525" lon="5.06971">
        <ele>401.66</ele>
        <time>2021-01-20T14:53:10Z</time>
      </trkpt>
      <trkpt lat="47.70528" lon="5.06974">
        <ele>402.05</ele>
        <time>2021-01-20T14:53:13Z</time>
      </trkpt>
      <trkpt lat="47.70531" lon="5.06977">
        <ele>402.7</ele>
        <time>2021-01-20T14:53:16Z</time>
      </trkpt>
      <trkpt lat="47.70534" lon="5.06979">
        <ele>403.34</ele>
        <time>2021-01-20T14:53:19Z</time>
      </trkpt>
      <trkpt lat="47.70537" lon="5.06981">
        <ele>403.99</ele>
        <time>2021-01-20T14:53:22Z</time>
      </trkpt>
      <trkpt lat="47.7054" lon="5.06983">
        <ele>404.64</ele>
        <time>2021-01-20T14:53:25Z</time>
      </trkpt>
      <trkpt lat="47.70543" lon="5.06985">
        <ele>405.29</ele>
        <time>2021-01-20T14:53:28Z</time>
      </trkpt>
      <trkpt lat="47.70547" lon="5.06986">
        <ele>406.15</ele>
        <time>2021-01-20T14:53:31Z</time>
      </trkpt>
      <trkpt lat="47.7055" lon="5.06988">
        <ele>406.8</ele>
        <time>2021-01-20T14:53:34Z</time>
      </trkpt>
      <trkpt lat="47.70553" lon="5.0699">
        <ele>407.45</ele>
        <time>2021-01-20T14:53:37Z</time>
      </trkpt>
      <trkpt lat="47.70556" lon="5.06991">
        <ele>408.1</ele>
        <time>2021-01-20T14:53:41Z</time>
      </trkpt>
      <trkpt lat="47.7056" lon="5.06993">
        <ele>408.96</ele>
        <time>2021-01-20T14:53:44Z</time>
      </trkpt>
      <trkpt lat="47.70563" lon="5.06996">
        <ele>409.61</ele>
        <time>2021-01-20T14:53:47Z</time>
      </trkpt>
      <trkpt lat="47.70565" lon="5.06998">
        <ele>410.04</ele>
        <time>2021-01-20T14:53:50Z</time>
      </trkpt>
      <trkpt lat="47.70568" lon="5.07001">
        <ele>410.67</ele>
        <time>2021-01-20T14:53:53Z</time>
      </trkpt>
      <trkpt lat="47.70571" lon="5.07004">
        <ele>411.27</ele>
        <time>2021-01-20T14:53:56Z</time>
      </trkpt>
      <trkpt lat="47.70574" lon="5.07007">
        <ele>411.9</ele>
        <time>2021-01-20T14:53:59Z</time>
      </trkpt>
      <trkpt lat="47.70576" lon="5.0701">
        <ele>412.32</ele>
        <time>2021-01-20T14:54:02Z</time>
      </trkpt>
      <trkpt lat="47.70579" lon="5.07013">
        <ele>412.99</ele>
        <time>2021-01-20T14:54:05Z</time>
      </trkpt>
      <trkpt lat="47.70582" lon="5.07016">
        <ele>413.68</ele>
        <time>2021-01-20T14:54:08Z</time>
      </trkpt>
      <trkpt lat="47.70585" lon="5.07018">
        <ele>414.2</ele>
        <time>2021-01-20T14:54:11Z</time>
      </trkpt>
      <trkpt lat="47.70588" lon="5.07021">
        <ele>414.54</ele>
        <time>2021-01-20T14:54:14Z</time>
      </trkpt>
      <trkpt lat="47.70591" lon="5.07023">
        <ele>414.88</ele>
        <time>2021-01-20T14:54:17Z</time>
      </trkpt>
      <trkpt lat="47.70594" lon="5.07024">
        <ele>415.2</ele>
        <time>2021-01-20T14:54:20Z</time>
      </trkpt>
      <trkpt lat="47.70597" lon="5.07027">
        <ele>415.49</ele>
        <time>2021-01-20T14:54:23Z</time>
      </trkpt>
      <trkpt lat="47.706" lon="5.0703">
        <ele>415.77</ele>
        <time>2021-01-20T14:54:26Z</time>
      </trkpt>
      <trkpt lat="47.70603" lon="5.07033">
        <ele>416.07</ele>
        <time>2021-01-20T14:54:29Z</time>
      </trkpt>
      <trkpt lat="47.70606" lon="5.07036">
        <ele>416.39</ele>
        <time>2021-01-20T14:54:32Z</time>
      </trkpt>
      <trkpt lat="47.70608" lon="5.07039">
        <ele>416.62</ele>
        <time>2021-01-20T14:54:35Z</time>
      </trkpt>
      <trkpt lat="47.70611" lon="5.07042">
        <ele>416.99</ele>
        <time>2021-01-20T14:54:38Z</time>
      </trkpt>
      <trkpt lat="47.70613" lon="5.07045">
        <ele>417.1</ele>
        <time>2021-01-20T14:54:41Z</time>
      </trkpt>
      <trkpt lat="47.70616" lon="5.07046">
        <ele>417.24</ele>
        <time>2021-01-20T14:54:44Z</time>
      </trkpt>
      <trkpt lat="47.7062" lon="5.07049">
        <ele>417.3</ele>
        <time>2021-01-20T14:54:47Z</time>
      </trkpt>
      <trkpt lat="47.70623" lon="5.0705">
        <ele>417.34</ele>
        <time>2021-01-20T14:54:50Z</time>
      </trkpt>
      <trkpt lat="47.70627" lon="5.0705">
        <ele>417.46</ele>
        <time>2021-01-20T14:54:53Z</time>
      </trkpt>
      <trkpt lat="47.7063" lon="5.07049">
        <ele>417.64</ele>
        <time>2021-01-20T14:54:55Z</time>
      </trkpt>
      <trkpt lat="47.70633" lon="5.07047">
        <ele>417.97</ele>
        <time>2021-01-20T14:54:58Z</time>
      </trkpt>
      <trkpt lat="47.70635" lon="5.07045">
        <ele>418.31</ele>
        <time>2021-01-20T14:55:01Z</time>
      </trkpt>
      <trkpt lat="47.70637" lon="5.07042">
        <ele>418.82</ele>
        <time>2021-01-20T14:55:04Z</time>
      </trkpt>
      <trkpt lat="47.70639" lon="5.07038">
        <ele>419.52</ele>
        <time>2021-01-20T14:55:07Z</time>
      </trkpt>
      <trkpt lat="47.7064" lon="5.07033">
        <ele>420.18</ele>
        <time>2021-01-20T14:55:10Z</time>
      </trkpt>
      <trkpt lat="47.70642" lon="5.07029">
        <ele>420.61</ele>
        <time>2021-01-20T14:55:13Z</time>
      </trkpt>
      <trkpt lat="47.70644" lon="5.07025">
        <ele>420.61</ele>
        <time>2021-01-20T14:55:16Z</time>
      </trkpt>
      <trkpt lat="47.70645" lon="5.07021">
        <ele>420.51</ele>
        <time>2021-01-20T14:55:19Z</time>
      </trkpt>
      <trkpt lat="47.70646" lon="5.07017">
        <ele>420.39</ele>
        <time>2021-01-20T14:55:22Z</time>
      </trkpt>
      <trkpt lat="47.70647" lon="5.07012">
        <ele>420.25</ele>
        <time>2021-01-20T14:55:25Z</time>
      </trkpt>
      <trkpt lat="47.70647" lon="5.07007">
        <ele>420.2</ele>
        <time>2021-01-20T14:55:28Z</time>
      </trkpt>
      <trkpt lat="47.70648" lon="5.07002">
        <ele>420.04</ele>
        <time>2021-01-20T14:55:31Z</time>
      </trkpt>
      <trkpt lat="47.70649" lon="5.06998">
        <ele>419.79</ele>
        <time>2021-01-20T14:55:34Z</time>
      </trkpt>
      <trkpt lat="47.7065" lon="5.06994">
        <ele>419.45</ele>
        <time>2021-01-20T14:55:37Z</time>
      </trkpt>
      <trkpt lat="47.70651" lon="5.06989">
        <ele>419.07</ele>
        <time>2021-01-20T14:55:41Z</time>
      </trkpt>
      <trkpt lat="47.70652" lon="5.06984">
        <ele>418.7</ele>
        <time>2021-01-20T14:55:45Z</time>
      </trkpt>
      <trkpt lat="47.70654" lon="5.0698">
        <ele>418.32</ele>
        <time>2021-01-20T14:55:49Z</time>
      </trkpt>
      <trkpt lat="47.70655" lon="5.06976">
        <ele>418.03</ele>
        <time>2021-01-20T14:55:52Z</time>
      </trkpt>
      <trkpt lat="47.70658" lon="5.06972">
        <ele>417.63</ele>
        <time>2021-01-20T14:55:55Z</time>
      </trkpt>
      <trkpt lat="47.7066" lon="5.06969">
        <ele>417.54</ele>
        <time>2021-01-20T14:55:58Z</time>
      </trkpt>
      <trkpt lat="47.70662" lon="5.06966">
        <ele>417.48</ele>
        <time>2021-01-20T14:56:01Z</time>
      </trkpt>
      <trkpt lat="47.70664" lon="5.06963">
        <ele>417.46</ele>
        <time>2021-01-20T14:56:04Z</time>
      </trkpt>
      <trkpt lat="47.70667" lon="5.0696">
        <ele>417.45</ele>
        <time>2021-01-20T14:56:07Z</time>
      </trkpt>
      <trkpt lat="47.7067" lon="5.06958">
        <ele>417.63</ele>
        <time>2021-01-20T14:56:10Z</time>
      </trkpt>
      <trkpt lat="47.70673" lon="5.06955">
        <ele>417.79</ele>
        <time>2021-01-20T14:56:13Z</time>
      </trkpt>
      <trkpt lat="47.70675" lon="5.06952">
        <ele>417.89</ele>
        <time>2021-01-20T14:56:16Z</time>
      </trkpt>
      <trkpt lat="47.70677" lon="5.06948">
        <ele>417.97</ele>
        <time>2021-01-20T14:56:19Z</time>
      </trkpt>
      <trkpt lat="47.7068" lon="5.06945">
        <ele>418</ele>
        <time>2021-01-20T14:56:22Z</time>
      </trkpt>
      <trkpt lat="47.70682" lon="5.06941">
        <ele>418</ele>
        <time>2021-01-20T14:56:25Z</time>
      </trkpt>
      <trkpt lat="47.70684" lon="5.06938">
        <ele>418</ele>
        <time>2021-01-20T14:56:27Z</time>
      </trkpt>
      <trkpt lat="47.70686" lon="5.06935">
        <ele>418</ele>
        <time>2021-01-20T14:56:29Z</time>
      </trkpt>
      <trkpt lat="47.70689" lon="5.06932">
        <ele>418</ele>
        <time>2021-01-20T14:56:31Z</time>
      </trkpt>
      <trkpt lat="47.70691" lon="5.0693">
        <ele>418</ele>
        <time>2021-01-20T14:56:33Z</time>
      </trkpt>
      <trkpt lat="47.70694" lon="5.06927">
        <ele>418</ele>
        <time>2021-01-20T14:56:36Z</time>
      </trkpt>
      <trkpt lat="47.70697" lon="5.06924">
        <ele>418.14</ele>
        <time>2021-01-20T14:56:39Z</time>
      </trkpt>
      <trkpt lat="47.707" lon="5.0692">
        <ele>418.25</ele>
        <time>2021-01-20T14:56:42Z</time>
      </trkpt>
      <trkpt lat="47.70703" lon="5.06917">
        <ele>418.32</ele>
        <time>2021-01-20T14:56:45Z</time>
      </trkpt>
      <trkpt lat="47.70706" lon="5.06914">
        <ele>418.43</ele>
        <time>2021-01-20T14:56:48Z</time>
      </trkpt>
      <trkpt lat="47.70709" lon="5.06911">
        <ele>418.51</ele>
        <time>2021-01-20T14:56:51Z</time>
      </trkpt>
      <trkpt lat="47.70711" lon="5.06907">
        <ele>418.53</ele>
        <time>2021-01-20T14:56:54Z</time>
      </trkpt>
      <trkpt lat="47.70714" lon="5.06904">
        <ele>418.52</ele>
        <time>2021-01-20T14:56:57Z</time>
      </trkpt>
      <trkpt lat="47.70717" lon="5.069">
        <ele>418.44</ele>
        <time>2021-01-20T14:57:00Z</time>
      </trkpt>
      <trkpt lat="47.7072" lon="5.06897">
        <ele>418.33</ele>
        <time>2021-01-20T14:57:03Z</time>
      </trkpt>
      <trkpt lat="47.70722" lon="5.06893">
        <ele>418.15</ele>
        <time>2021-01-20T14:57:06Z</time>
      </trkpt>
      <trkpt lat="47.70724" lon="5.06889">
        <ele>418</ele>
        <time>2021-01-20T14:57:09Z</time>
      </trkpt>
      <trkpt lat="47.70726" lon="5.06886">
        <ele>418.01</ele>
        <time>2021-01-20T14:57:12Z</time>
      </trkpt>
      <trkpt lat="47.70729" lon="5.06883">
        <ele>418.05</ele>
        <time>2021-01-20T14:57:15Z</time>
      </trkpt>
      <trkpt lat="47.70731" lon="5.06881">
        <ele>418.09</ele>
        <time>2021-01-20T14:57:17Z</time>
      </trkpt>
      <trkpt lat="47.70733" lon="5.06878">
        <ele>418.15</ele>
        <time>2021-01-20T14:57:19Z</time>
      </trkpt>
      <trkpt lat="47.70736" lon="5.06875">
        <ele>418.25</ele>
        <time>2021-01-20T14:57:22Z</time>
      </trkpt>
      <trkpt lat="47.70739" lon="5.06871">
        <ele>418.39</ele>
        <time>2021-01-20T14:57:25Z</time>
      </trkpt>
      <trkpt lat="47.70742" lon="5.06869">
        <ele>418.51</ele>
        <time>2021-01-20T14:57:28Z</time>
      </trkpt>
      <trkpt lat="47.70745" lon="5.06866">
        <ele>418.68</ele>
        <time>2021-01-20T14:57:31Z</time>
      </trkpt>
      <trkpt lat="47.70748" lon="5.06864">
        <ele>418.83</ele>
        <time>2021-01-20T14:57:34Z</time>
      </trkpt>
      <trkpt lat="47.70751" lon="5.06861">
        <ele>419</ele>
        <time>2021-01-20T14:57:37Z</time>
      </trkpt>
      <trkpt lat="47.70753" lon="5.06859">
        <ele>419</ele>
        <time>2021-01-20T14:57:40Z</time>
      </trkpt>
      <trkpt lat="47.70755" lon="5.06856">
        <ele>419</ele>
        <time>2021-01-20T14:57:43Z</time>
      </trkpt>
      <trkpt lat="47.70757" lon="5.06853">
        <ele>419</ele>
        <time>2021-01-20T14:57:47Z</time>
      </trkpt>
      <trkpt lat="47.7076" lon="5.06849">
        <ele>419</ele>
        <time>2021-01-20T14:57:51Z</time>
      </trkpt>
      <trkpt lat="47.70763" lon="5.06847">
        <ele>419</ele>
        <time>2021-01-20T14:57:54Z</time>
      </trkpt>
      <trkpt lat="47.70765" lon="5.06844">
        <ele>419</ele>
        <time>2021-01-20T14:57:57Z</time>
      </trkpt>
      <trkpt lat="47.70768" lon="5.06842">
        <ele>419</ele>
        <time>2021-01-20T14:58:00Z</time>
      </trkpt>
      <trkpt lat="47.70771" lon="5.0684">
        <ele>419</ele>
        <time>2021-01-20T14:58:03Z</time>
      </trkpt>
      <trkpt lat="47.70774" lon="5.06837">
        <ele>419</ele>
        <time>2021-01-20T14:58:06Z</time>
      </trkpt>
      <trkpt lat="47.70776" lon="5.06835">
        <ele>419</ele>
        <time>2021-01-20T14:58:08Z</time>
      </trkpt>
      <trkpt lat="47.7078" lon="5.06832">
        <ele>418.96</ele>
        <time>2021-01-20T14:58:11Z</time>
      </trkpt>
      <trkpt lat="47.70783" lon="5.06829">
        <ele>418.9</ele>
        <time>2021-01-20T14:58:14Z</time>
      </trkpt>
      <trkpt lat="47.70786" lon="5.06826">
        <ele>418.89</ele>
        <time>2021-01-20T14:58:17Z</time>
      </trkpt>
      <trkpt lat="47.70789" lon="5.06825">
        <ele>418.94</ele>
        <time>2021-01-20T14:58:19Z</time>
      </trkpt>
      <trkpt lat="47.70791" lon="5.06823">
        <ele>418.98</ele>
        <time>2021-01-20T14:58:21Z</time>
      </trkpt>
      <trkpt lat="47.70794" lon="5.06821">
        <ele>419.07</ele>
        <time>2021-01-20T14:58:23Z</time>
      </trkpt>
      <trkpt lat="47.70797" lon="5.06818">
        <ele>419.21</ele>
        <time>2021-01-20T14:58:26Z</time>
      </trkpt>
      <trkpt lat="47.70799" lon="5.06815">
        <ele>419.35</ele>
        <time>2021-01-20T14:58:29Z</time>
      </trkpt>
      <trkpt lat="47.70801" lon="5.06811">
        <ele>419.54</ele>
        <time>2021-01-20T14:58:33Z</time>
      </trkpt>
      <trkpt lat="47.70803" lon="5.06807">
        <ele>419.77</ele>
        <time>2021-01-20T14:58:37Z</time>
      </trkpt>
      <trkpt lat="47.70806" lon="5.06804">
        <ele>419.87</ele>
        <time>2021-01-20T14:58:40Z</time>
      </trkpt>
      <trkpt lat="47.70808" lon="5.06802">
        <ele>419.68</ele>
        <time>2021-01-20T14:58:43Z</time>
      </trkpt>
      <trkpt lat="47.70811" lon="5.06799">
        <ele>419.42</ele>
        <time>2021-01-20T14:58:46Z</time>
      </trkpt>
      <trkpt lat="47.70814" lon="5.06796">
        <ele>419.22</ele>
        <time>2021-01-20T14:58:49Z</time>
      </trkpt>
      <trkpt lat="47.70816" lon="5.06792">
        <ele>419.01</ele>
        <time>2021-01-20T14:58:52Z</time>
      </trkpt>
      <trkpt lat="47.70818" lon="5.06789">
        <ele>418.89</ele>
        <time>2021-01-20T14:58:55Z</time>
      </trkpt>
      <trkpt lat="47.7082" lon="5.06786">
        <ele>418.8</ele>
        <time>2021-01-20T14:58:58Z</time>
      </trkpt>
      <trkpt lat="47.70822" lon="5.06782">
        <ele>418.72</ele>
        <time>2021-01-20T14:59:01Z</time>
      </trkpt>
      <trkpt lat="47.70825" lon="5.06779">
        <ele>418.73</ele>
        <time>2021-01-20T14:59:04Z</time>
      </trkpt>
      <trkpt lat="47.70827" lon="5.06775">
        <ele>418.9</ele>
        <time>2021-01-20T14:59:07Z</time>
      </trkpt>
      <trkpt lat="47.70829" lon="5.06772">
        <ele>419.16</ele>
        <time>2021-01-20T14:59:10Z</time>
      </trkpt>
      <trkpt lat="47.70831" lon="5.06769">
        <ele>419.47</ele>
        <time>2021-01-20T14:59:13Z</time>
      </trkpt>
      <trkpt lat="47.70834" lon="5.06766">
        <ele>419.86</ele>
        <time>2021-01-20T14:59:16Z</time>
      </trkpt>
      <trkpt lat="47.70837" lon="5.06764">
        <ele>419.99</ele>
        <time>2021-01-20T14:59:18Z</time>
      </trkpt>
      <trkpt lat="47.70839" lon="5.06761">
        <ele>420.12</ele>
        <time>2021-01-20T14:59:20Z</time>
      </trkpt>
      <trkpt lat="47.70842" lon="5.06757">
        <ele>420.19</ele>
        <time>2021-01-20T14:59:23Z</time>
      </trkpt>
      <trkpt lat="47.70844" lon="5.06754">
        <ele>420.17</ele>
        <time>2021-01-20T14:59:25Z</time>
      </trkpt>
      <trkpt lat="47.70846" lon="5.06752">
        <ele>420.08</ele>
        <time>2021-01-20T14:59:27Z</time>
      </trkpt>
      <trkpt lat="47.70849" lon="5.06748">
        <ele>419.76</ele>
        <time>2021-01-20T14:59:30Z</time>
      </trkpt>
      <trkpt lat="47.70851" lon="5.06744">
        <ele>419.47</ele>
        <time>2021-01-20T14:59:33Z</time>
      </trkpt>
      <trkpt lat="47.70854" lon="5.06741">
        <ele>419.34</ele>
        <time>2021-01-20T14:59:36Z</time>
      </trkpt>
      <trkpt lat="47.70856" lon="5.06738">
        <ele>419.32</ele>
        <time>2021-01-20T14:59:39Z</time>
      </trkpt>
      <trkpt lat="47.70859" lon="5.06734">
        <ele>419.47</ele>
        <time>2021-01-20T14:59:42Z</time>
      </trkpt>
      <trkpt lat="47.70861" lon="5.06732">
        <ele>419.64</ele>
        <time>2021-01-20T14:59:44Z</time>
      </trkpt>
      <trkpt lat="47.70864" lon="5.06728">
        <ele>419.92</ele>
        <time>2021-01-20T14:59:47Z</time>
      </trkpt>
      <trkpt lat="47.70867" lon="5.06725">
        <ele>420.13</ele>
        <time>2021-01-20T14:59:50Z</time>
      </trkpt>
      <trkpt lat="47.70869" lon="5.06722">
        <ele>420.26</ele>
        <time>2021-01-20T14:59:53Z</time>
      </trkpt>
      <trkpt lat="47.70871" lon="5.06718">
        <ele>420.01</ele>
        <time>2021-01-20T14:59:56Z</time>
      </trkpt>
      <trkpt lat="47.70873" lon="5.06715">
        <ele>419.87</ele>
        <time>2021-01-20T14:59:59Z</time>
      </trkpt>
      <trkpt lat="47.70874" lon="5.06711">
        <ele>419.63</ele>
        <time>2021-01-20T15:00:02Z</time>
      </trkpt>
      <trkpt lat="47.70877" lon="5.06708">
        <ele>419.62</ele>
        <time>2021-01-20T15:00:05Z</time>
      </trkpt>
      <trkpt lat="47.70879" lon="5.06706">
        <ele>419.64</ele>
        <time>2021-01-20T15:00:08Z</time>
      </trkpt>
      <trkpt lat="47.70881" lon="5.06701">
        <ele>419.52</ele>
        <time>2021-01-20T15:00:12Z</time>
      </trkpt>
      <trkpt lat="47.70883" lon="5.06698">
        <ele>419.55</ele>
        <time>2021-01-20T15:00:15Z</time>
      </trkpt>
      <trkpt lat="47.70885" lon="5.06694">
        <ele>419.56</ele>
        <time>2021-01-20T15:00:18Z</time>
      </trkpt>
      <trkpt lat="47.70887" lon="5.0669">
        <ele>419.61</ele>
        <time>2021-01-20T15:00:21Z</time>
      </trkpt>
      <trkpt lat="47.70889" lon="5.06686">
        <ele>419.72</ele>
        <time>2021-01-20T15:00:24Z</time>
      </trkpt>
      <trkpt lat="47.70891" lon="5.06681">
        <ele>419.93</ele>
        <time>2021-01-20T15:00:27Z</time>
      </trkpt>
      <trkpt lat="47.70894" lon="5.06677">
        <ele>420.41</ele>
        <time>2021-01-20T15:00:30Z</time>
      </trkpt>
      <trkpt lat="47.70896" lon="5.06672">
        <ele>420.68</ele>
        <time>2021-01-20T15:00:33Z</time>
      </trkpt>
      <trkpt lat="47.70898" lon="5.06668">
        <ele>421</ele>
        <time>2021-01-20T15:00:36Z</time>
      </trkpt>
      <trkpt lat="47.709" lon="5.06664">
        <ele>421.19</ele>
        <time>2021-01-20T15:00:39Z</time>
      </trkpt>
      <trkpt lat="47.70902" lon="5.06661">
        <ele>421.41</ele>
        <time>2021-01-20T15:00:41Z</time>
      </trkpt>
      <trkpt lat="47.70904" lon="5.06656">
        <ele>421.53</ele>
        <time>2021-01-20T15:00:44Z</time>
      </trkpt>
      <trkpt lat="47.70906" lon="5.06652">
        <ele>421.76</ele>
        <time>2021-01-20T15:00:47Z</time>
      </trkpt>
      <trkpt lat="47.70908" lon="5.06648">
        <ele>422.04</ele>
        <time>2021-01-20T15:00:50Z</time>
      </trkpt>
      <trkpt lat="47.7091" lon="5.06644">
        <ele>422.35</ele>
        <time>2021-01-20T15:00:53Z</time>
      </trkpt>
      <trkpt lat="47.70911" lon="5.06639">
        <ele>422.37</ele>
        <time>2021-01-20T15:00:56Z</time>
      </trkpt>
      <trkpt lat="47.70913" lon="5.06635">
        <ele>422.89</ele>
        <time>2021-01-20T15:00:59Z</time>
      </trkpt>
      <trkpt lat="47.70915" lon="5.06631">
        <ele>423.47</ele>
        <time>2021-01-20T15:01:02Z</time>
      </trkpt>
      <trkpt lat="47.70917" lon="5.06627">
        <ele>424.05</ele>
        <time>2021-01-20T15:01:05Z</time>
      </trkpt>
      <trkpt lat="47.70918" lon="5.06623">
        <ele>424.22</ele>
        <time>2021-01-20T15:01:08Z</time>
      </trkpt>
      <trkpt lat="47.70919" lon="5.06618">
        <ele>424.4</ele>
        <time>2021-01-20T15:01:11Z</time>
      </trkpt>
      <trkpt lat="47.7092" lon="5.06614">
        <ele>424.59</ele>
        <time>2021-01-20T15:01:14Z</time>
      </trkpt>
      <trkpt lat="47.7092" lon="5.06608">
        <ele>424.51</ele>
        <time>2021-01-20T15:01:17Z</time>
      </trkpt>
      <trkpt lat="47.70921" lon="5.06603">
        <ele>424.58</ele>
        <time>2021-01-20T15:01:20Z</time>
      </trkpt>
      <trkpt lat="47.70922" lon="5.06598">
        <ele>424.67</ele>
        <time>2021-01-20T15:01:23Z</time>
      </trkpt>
      <trkpt lat="47.70923" lon="5.06593">
        <ele>424.79</ele>
        <time>2021-01-20T15:01:26Z</time>
      </trkpt>
      <trkpt lat="47.70924" lon="5.06589">
        <ele>424.94</ele>
        <time>2021-01-20T15:01:29Z</time>
      </trkpt>
      <trkpt lat="47.70925" lon="5.06584">
        <ele>425.11</ele>
        <time>2021-01-20T15:01:32Z</time>
      </trkpt>
      <trkpt lat="47.70926" lon="5.06579">
        <ele>425.3</ele>
        <time>2021-01-20T15:01:35Z</time>
      </trkpt>
      <trkpt lat="47.70927" lon="5.06574">
        <ele>425.48</ele>
        <time>2021-01-20T15:01:38Z</time>
      </trkpt>
      <trkpt lat="47.70928" lon="5.06569">
        <ele>425.65</ele>
        <time>2021-01-20T15:01:41Z</time>
      </trkpt>
      <trkpt lat="47.7093" lon="5.06565">
        <ele>426.04</ele>
        <time>2021-01-20T15:01:44Z</time>
      </trkpt>
      <trkpt lat="47.70931" lon="5.0656">
        <ele>426.18</ele>
        <time>2021-01-20T15:01:47Z</time>
      </trkpt>
      <trkpt lat="47.70932" lon="5.06556">
        <ele>426.32</ele>
        <time>2021-01-20T15:01:50Z</time>
      </trkpt>
      <trkpt lat="47.70932" lon="5.06552">
        <ele>426.13</ele>
        <time>2021-01-20T15:01:53Z</time>
      </trkpt>
      <trkpt lat="47.70932" lon="5.06547">
        <ele>425.87</ele>
        <time>2021-01-20T15:01:57Z</time>
      </trkpt>
      <trkpt lat="47.70933" lon="5.06543">
        <ele>425.89</ele>
        <time>2021-01-20T15:02:00Z</time>
      </trkpt>
      <trkpt lat="47.70934" lon="5.06539">
        <ele>425.92</ele>
        <time>2021-01-20T15:02:03Z</time>
      </trkpt>
      <trkpt lat="47.70935" lon="5.06534">
        <ele>425.92</ele>
        <time>2021-01-20T15:02:07Z</time>
      </trkpt>
      <trkpt lat="47.70936" lon="5.06529">
        <ele>425.93</ele>
        <time>2021-01-20T15:02:10Z</time>
      </trkpt>
      <trkpt lat="47.70937" lon="5.06524">
        <ele>426.12</ele>
        <time>2021-01-20T15:02:13Z</time>
      </trkpt>
      <trkpt lat="47.70937" lon="5.0652">
        <ele>426.12</ele>
        <time>2021-01-20T15:02:16Z</time>
      </trkpt>
      <trkpt lat="47.70939" lon="5.06516">
        <ele>426.63</ele>
        <time>2021-01-20T15:02:19Z</time>
      </trkpt>
      <trkpt lat="47.7094" lon="5.06513">
        <ele>426.88</ele>
        <time>2021-01-20T15:02:22Z</time>
      </trkpt>
      <trkpt lat="47.70943" lon="5.0651">
        <ele>427.64</ele>
        <time>2021-01-20T15:02:25Z</time>
      </trkpt>
      <trkpt lat="47.70945" lon="5.06506">
        <ele>428.12</ele>
        <time>2021-01-20T15:02:28Z</time>
      </trkpt>
      <trkpt lat="47.70947" lon="5.06503">
        <ele>428.55</ele>
        <time>2021-01-20T15:02:31Z</time>
      </trkpt>
      <trkpt lat="47.70949" lon="5.06499">
        <ele>429.02</ele>
        <time>2021-01-20T15:02:34Z</time>
      </trkpt>
      <trkpt lat="47.70951" lon="5.06496">
        <ele>429.56</ele>
        <time>2021-01-20T15:02:37Z</time>
      </trkpt>
      <trkpt lat="47.70953" lon="5.06492">
        <ele>430.14</ele>
        <time>2021-01-20T15:02:41Z</time>
      </trkpt>
      <trkpt lat="47.70955" lon="5.06488">
        <ele>430.71</ele>
        <time>2021-01-20T15:02:45Z</time>
      </trkpt>
      <trkpt lat="47.70956" lon="5.06484">
        <ele>431.07</ele>
        <time>2021-01-20T15:02:49Z</time>
      </trkpt>
      <trkpt lat="47.70957" lon="5.0648">
        <ele>431.43</ele>
        <time>2021-01-20T15:02:53Z</time>
      </trkpt>
      <trkpt lat="47.70959" lon="5.06475">
        <ele>432.04</ele>
        <time>2021-01-20T15:02:57Z</time>
      </trkpt>
      <trkpt lat="47.70961" lon="5.06472">
        <ele>432.6</ele>
        <time>2021-01-20T15:03:00Z</time>
      </trkpt>
      <trkpt lat="47.70963" lon="5.06468">
        <ele>433.41</ele>
        <time>2021-01-20T15:03:04Z</time>
      </trkpt>
      <trkpt lat="47.70964" lon="5.06463">
        <ele>434.12</ele>
        <time>2021-01-20T15:03:08Z</time>
      </trkpt>
      <trkpt lat="47.70966" lon="5.06459">
        <ele>434.98</ele>
        <time>2021-01-20T15:03:11Z</time>
      </trkpt>
      <trkpt lat="47.70967" lon="5.06454">
        <ele>435.72</ele>
        <time>2021-01-20T15:03:14Z</time>
      </trkpt>
      <trkpt lat="47.70968" lon="5.0645">
        <ele>436.37</ele>
        <time>2021-01-20T15:03:19Z</time>
      </trkpt>
      <trkpt lat="47.70971" lon="5.06447">
        <ele>437.42</ele>
        <time>2021-01-20T15:03:23Z</time>
      </trkpt>
      <trkpt lat="47.70972" lon="5.06443">
        <ele>437.84</ele>
        <time>2021-01-20T15:03:26Z</time>
      </trkpt>
      <trkpt lat="47.70974" lon="5.0644">
        <ele>438.26</ele>
        <time>2021-01-20T15:03:29Z</time>
      </trkpt>
      <trkpt lat="47.70975" lon="5.06436">
        <ele>438.29</ele>
        <time>2021-01-20T15:03:32Z</time>
      </trkpt>
      <trkpt lat="47.70976" lon="5.06431">
        <ele>438.26</ele>
        <time>2021-01-20T15:03:35Z</time>
      </trkpt>
      <trkpt lat="47.70977" lon="5.06428">
        <ele>438.36</ele>
        <time>2021-01-20T15:03:38Z</time>
      </trkpt>
      <trkpt lat="47.70979" lon="5.06423">
        <ele>438.65</ele>
        <time>2021-01-20T15:03:42Z</time>
      </trkpt>
      <trkpt lat="47.70981" lon="5.06419">
        <ele>439.01</ele>
        <time>2021-01-20T15:03:45Z</time>
      </trkpt>
      <trkpt lat="47.70982" lon="5.06415">
        <ele>439.31</ele>
        <time>2021-01-20T15:03:48Z</time>
      </trkpt>
      <trkpt lat="47.70983" lon="5.06411">
        <ele>439.95</ele>
        <time>2021-01-20T15:03:51Z</time>
      </trkpt>
      <trkpt lat="47.70984" lon="5.06407">
        <ele>440.56</ele>
        <time>2021-01-20T15:03:54Z</time>
      </trkpt>
      <trkpt lat="47.70986" lon="5.06403">
        <ele>441.45</ele>
        <time>2021-01-20T15:03:58Z</time>
      </trkpt>
      <trkpt lat="47.70988" lon="5.064">
        <ele>442.23</ele>
        <time>2021-01-20T15:04:01Z</time>
      </trkpt>
      <trkpt lat="47.7099" lon="5.06396">
        <ele>443.04</ele>
        <time>2021-01-20T15:04:04Z</time>
      </trkpt>
      <trkpt lat="47.70992" lon="5.06393">
        <ele>443.75</ele>
        <time>2021-01-20T15:04:07Z</time>
      </trkpt>
      <trkpt lat="47.70994" lon="5.06389">
        <ele>444.48</ele>
        <time>2021-01-20T15:04:10Z</time>
      </trkpt>
      <trkpt lat="47.70995" lon="5.06385">
        <ele>444.73</ele>
        <time>2021-01-20T15:04:14Z</time>
      </trkpt>
      <trkpt lat="47.70996" lon="5.0638">
        <ele>444.9</ele>
        <time>2021-01-20T15:04:17Z</time>
      </trkpt>
      <trkpt lat="47.70998" lon="5.06376">
        <ele>445.2</ele>
        <time>2021-01-20T15:04:20Z</time>
      </trkpt>
      <trkpt lat="47.71" lon="5.06372">
        <ele>445.39</ele>
        <time>2021-01-20T15:04:23Z</time>
      </trkpt>
      <trkpt lat="47.71002" lon="5.06368">
        <ele>445.5</ele>
        <time>2021-01-20T15:04:26Z</time>
      </trkpt>
      <trkpt lat="47.71003" lon="5.06364">
        <ele>445.51</ele>
        <time>2021-01-20T15:04:29Z</time>
      </trkpt>
      <trkpt lat="47.71005" lon="5.0636">
        <ele>445.91</ele>
        <time>2021-01-20T15:04:32Z</time>
      </trkpt>
      <trkpt lat="47.71006" lon="5.06356">
        <ele>446.7</ele>
        <time>2021-01-20T15:04:35Z</time>
      </trkpt>
      <trkpt lat="47.71008" lon="5.06353">
        <ele>447.44</ele>
        <time>2021-01-20T15:04:38Z</time>
      </trkpt>
      <trkpt lat="47.71009" lon="5.06349">
        <ele>448.19</ele>
        <time>2021-01-20T15:04:41Z</time>
      </trkpt>
      <trkpt lat="47.7101" lon="5.06345">
        <ele>448.92</ele>
        <time>2021-01-20T15:04:44Z</time>
      </trkpt>
      <trkpt lat="47.71011" lon="5.06342">
        <ele>449.48</ele>
        <time>2021-01-20T15:04:47Z</time>
      </trkpt>
      <trkpt lat="47.71013" lon="5.06338">
        <ele>450.25</ele>
        <time>2021-01-20T15:04:50Z</time>
      </trkpt>
      <trkpt lat="47.71015" lon="5.06334">
        <ele>450.99</ele>
        <time>2021-01-20T15:04:53Z</time>
      </trkpt>
      <trkpt lat="47.71017" lon="5.0633">
        <ele>451.7</ele>
        <time>2021-01-20T15:04:56Z</time>
      </trkpt>
      <trkpt lat="47.71019" lon="5.06326">
        <ele>452.42</ele>
        <time>2021-01-20T15:04:59Z</time>
      </trkpt>
      <trkpt lat="47.7102" lon="5.06322">
        <ele>453.07</ele>
        <time>2021-01-20T15:05:02Z</time>
      </trkpt>
      <trkpt lat="47.71022" lon="5.06319">
        <ele>453.65</ele>
        <time>2021-01-20T15:05:05Z</time>
      </trkpt>
      <trkpt lat="47.71024" lon="5.06315">
        <ele>454.37</ele>
        <time>2021-01-20T15:05:09Z</time>
      </trkpt>
      <trkpt lat="47.71026" lon="5.06313">
        <ele>454.8</ele>
        <time>2021-01-20T15:05:15Z</time>
      </trkpt>
      <trkpt lat="47.71029" lon="5.06314">
        <ele>454.98</ele>
        <time>2021-01-20T15:05:20Z</time>
      </trkpt>
      <trkpt lat="47.71031" lon="5.06317">
        <ele>454.94</ele>
        <time>2021-01-20T15:05:28Z</time>
      </trkpt>
      <trkpt lat="47.71031" lon="5.06322">
        <ele>454.32</ele>
        <time>2021-01-20T15:05:31Z</time>
      </trkpt>
      <trkpt lat="47.71032" lon="5.06326">
        <ele>454.07</ele>
        <time>2021-01-20T15:05:34Z</time>
      </trkpt>
      <trkpt lat="47.71032" lon="5.06331">
        <ele>453.49</ele>
        <time>2021-01-20T15:05:37Z</time>
      </trkpt>
      <trkpt lat="47.71033" lon="5.06336">
        <ele>453.23</ele>
        <time>2021-01-20T15:05:40Z</time>
      </trkpt>
      <trkpt lat="47.71034" lon="5.06342">
        <ele>452.93</ele>
        <time>2021-01-20T15:05:43Z</time>
      </trkpt>
      <trkpt lat="47.71041" lon="5.06356">
        <ele>453.75</ele>
        <time>2021-01-20T15:05:59Z</time>
      </trkpt>
      <trkpt lat="47.71046" lon="5.06372">
        <ele>453.74</ele>
        <time>2021-01-20T15:06:16Z</time>
      </trkpt>
      <trkpt lat="47.7105" lon="5.06389">
        <ele>452.8</ele>
        <time>2021-01-20T15:06:31Z</time>
      </trkpt>
      <trkpt lat="47.71051" lon="5.06406">
        <ele>453.12</ele>
        <time>2021-01-20T15:06:48Z</time>
      </trkpt>
      <trkpt lat="47.71046" lon="5.06389">
        <ele>451.94</ele>
        <time>2021-01-20T15:07:33Z</time>
      </trkpt>
      <trkpt lat="47.71041" lon="5.06374">
        <ele>452.16</ele>
        <time>2021-01-20T15:07:43Z</time>
      </trkpt>
      <trkpt lat="47.71037" lon="5.06357">
        <ele>452.38</ele>
        <time>2021-01-20T15:07:54Z</time>
      </trkpt>
      <trkpt lat="47.71034" lon="5.0634">
        <ele>453.13</ele>
        <time>2021-01-20T15:08:06Z</time>
      </trkpt>
      <trkpt lat="47.71031" lon="5.06323">
        <ele>454.2</ele>
        <time>2021-01-20T15:08:22Z</time>
      </trkpt>
      <trkpt lat="47.71026" lon="5.06307">
        <ele>455.66</ele>
        <time>2021-01-20T15:08:32Z</time>
      </trkpt>
      <trkpt lat="47.7102" lon="5.06292">
        <ele>457.41</ele>
        <time>2021-01-20T15:08:48Z</time>
      </trkpt>
      <trkpt lat="47.71018" lon="5.06309">
        <ele>454.8</ele>
        <time>2021-01-20T15:09:08Z</time>
      </trkpt>
      <trkpt lat="47.71025" lon="5.06324">
        <ele>453.14</ele>
        <time>2021-01-20T15:09:39Z</time>
      </trkpt>
      <trkpt lat="47.71026" lon="5.06306">
        <ele>455.81</ele>
        <time>2021-01-20T15:10:30Z</time>
      </trkpt>
      <trkpt lat="47.71023" lon="5.06288">
        <ele>458.69</ele>
        <time>2021-01-20T15:10:42Z</time>
      </trkpt>
      <trkpt lat="47.71021" lon="5.0627">
        <ele>460.64</ele>
        <time>2021-01-20T15:10:54Z</time>
      </trkpt>
      <trkpt lat="47.71019" lon="5.06252">
        <ele>462.18</ele>
        <time>2021-01-20T15:11:07Z</time>
      </trkpt>
      <trkpt lat="47.71016" lon="5.06234">
        <ele>462.7</ele>
        <time>2021-01-20T15:11:18Z</time>
      </trkpt>
      <trkpt lat="47.71014" lon="5.06217">
        <ele>462.92</ele>
        <time>2021-01-20T15:11:28Z</time>
      </trkpt>
      <trkpt lat="47.71016" lon="5.06199">
        <ele>462.82</ele>
        <time>2021-01-20T15:11:39Z</time>
      </trkpt>
      <trkpt lat="47.71026" lon="5.0619">
        <ele>463.49</ele>
        <time>2021-01-20T15:11:53Z</time>
      </trkpt>
      <trkpt lat="47.71038" lon="5.06194">
        <ele>464.7</ele>
        <time>2021-01-20T15:12:03Z</time>
      </trkpt>
      <trkpt lat="47.7105" lon="5.06198">
        <ele>465.93</ele>
        <time>2021-01-20T15:12:13Z</time>
      </trkpt>
      <trkpt lat="47.71062" lon="5.06202">
        <ele>467.09</ele>
        <time>2021-01-20T15:12:24Z</time>
      </trkpt>
      <trkpt lat="47.71075" lon="5.06205">
        <ele>467.74</ele>
        <time>2021-01-20T15:12:35Z</time>
      </trkpt>
      <trkpt lat="47.71087" lon="5.06207">
        <ele>468.41</ele>
        <time>2021-01-20T15:12:44Z</time>
      </trkpt>
      <trkpt lat="47.711" lon="5.06207">
        <ele>469.86</ele>
        <time>2021-01-20T15:12:55Z</time>
      </trkpt>
      <trkpt lat="47.71112" lon="5.06206">
        <ele>471.2</ele>
        <time>2021-01-20T15:13:07Z</time>
      </trkpt>
      <trkpt lat="47.71124" lon="5.06204">
        <ele>471.78</ele>
        <time>2021-01-20T15:13:19Z</time>
      </trkpt>
      <trkpt lat="47.71136" lon="5.06201">
        <ele>472.42</ele>
        <time>2021-01-20T15:13:32Z</time>
      </trkpt>
      <trkpt lat="47.71148" lon="5.06199">
        <ele>472.34</ele>
        <time>2021-01-20T15:13:44Z</time>
      </trkpt>
      <trkpt lat="47.7116" lon="5.06195">
        <ele>472.2</ele>
        <time>2021-01-20T15:13:57Z</time>
      </trkpt>
      <trkpt lat="47.71171" lon="5.06192">
        <ele>472.53</ele>
        <time>2021-01-20T15:14:12Z</time>
      </trkpt>
      <trkpt lat="47.71183" lon="5.06194">
        <ele>473.2</ele>
        <time>2021-01-20T15:14:25Z</time>
      </trkpt>
      <trkpt lat="47.71195" lon="5.06194">
        <ele>474</ele>
        <time>2021-01-20T15:14:37Z</time>
      </trkpt>
      <trkpt lat="47.71207" lon="5.06194">
        <ele>474</ele>
        <time>2021-01-20T15:14:52Z</time>
      </trkpt>
      <trkpt lat="47.71218" lon="5.06186">
        <ele>474</ele>
        <time>2021-01-20T15:15:02Z</time>
      </trkpt>
      <trkpt lat="47.7123" lon="5.06181">
        <ele>474.83</ele>
        <time>2021-01-20T15:15:10Z</time>
      </trkpt>
      <trkpt lat="47.71242" lon="5.06176">
        <ele>476.37</ele>
        <time>2021-01-20T15:15:19Z</time>
      </trkpt>
      <trkpt lat="47.71254" lon="5.06171">
        <ele>477.57</ele>
        <time>2021-01-20T15:15:29Z</time>
      </trkpt>
      <trkpt lat="47.71266" lon="5.06164">
        <ele>477.52</ele>
        <time>2021-01-20T15:15:40Z</time>
      </trkpt>
      <trkpt lat="47.71277" lon="5.06157">
        <ele>477.38</ele>
        <time>2021-01-20T15:15:50Z</time>
      </trkpt>
      <trkpt lat="47.71287" lon="5.0615">
        <ele>476.87</ele>
        <time>2021-01-20T15:16:01Z</time>
      </trkpt>
      <trkpt lat="47.71298" lon="5.06145">
        <ele>475.92</ele>
        <time>2021-01-20T15:16:12Z</time>
      </trkpt>
      <trkpt lat="47.71305" lon="5.06144">
        <ele>475.24</ele>
        <time>2021-01-20T15:16:18Z</time>
      </trkpt>
      <trkpt lat="47.71309" lon="5.06139">
        <ele>475.25</ele>
        <time>2021-01-20T15:16:24Z</time>
      </trkpt>
      <trkpt lat="47.71316" lon="5.06134">
        <ele>475.75</ele>
        <time>2021-01-20T15:16:33Z</time>
      </trkpt>
      <trkpt lat="47.71323" lon="5.06133">
        <ele>476.26</ele>
        <time>2021-01-20T15:16:39Z</time>
      </trkpt>
      <trkpt lat="47.71329" lon="5.06131">
        <ele>476.69</ele>
        <time>2021-01-20T15:16:45Z</time>
      </trkpt>
      <trkpt lat="47.71335" lon="5.06128">
        <ele>477.17</ele>
        <time>2021-01-20T15:16:51Z</time>
      </trkpt>
      <trkpt lat="47.71342" lon="5.06126">
        <ele>477.91</ele>
        <time>2021-01-20T15:16:58Z</time>
      </trkpt>
      <trkpt lat="47.71348" lon="5.06125">
        <ele>478.58</ele>
        <time>2021-01-20T15:17:04Z</time>
      </trkpt>
      <trkpt lat="47.71355" lon="5.06123">
        <ele>479.45</ele>
        <time>2021-01-20T15:17:09Z</time>
      </trkpt>
      <trkpt lat="47.71361" lon="5.06122">
        <ele>480.2</ele>
        <time>2021-01-20T15:17:14Z</time>
      </trkpt>
      <trkpt lat="47.71373" lon="5.06121">
        <ele>481.14</ele>
        <time>2021-01-20T15:17:34Z</time>
      </trkpt>
      <trkpt lat="47.71384" lon="5.06119">
        <ele>482.08</ele>
        <time>2021-01-20T15:17:47Z</time>
      </trkpt>
      <trkpt lat="47.71392" lon="5.06118">
        <ele>482.22</ele>
        <time>2021-01-20T15:17:53Z</time>
      </trkpt>
      <trkpt lat="47.71398" lon="5.06119">
        <ele>481.59</ele>
        <time>2021-01-20T15:17:59Z</time>
      </trkpt>
      <trkpt lat="47.71404" lon="5.06118">
        <ele>481.15</ele>
        <time>2021-01-20T15:18:07Z</time>
      </trkpt>
      <trkpt lat="47.71411" lon="5.0612">
        <ele>480.26</ele>
        <time>2021-01-20T15:18:16Z</time>
      </trkpt>
      <trkpt lat="47.71417" lon="5.06122">
        <ele>479.45</ele>
        <time>2021-01-20T15:18:24Z</time>
      </trkpt>
      <trkpt lat="47.71423" lon="5.06125">
        <ele>479.46</ele>
        <time>2021-01-20T15:18:29Z</time>
      </trkpt>
      <trkpt lat="47.71429" lon="5.06128">
        <ele>479.55</ele>
        <time>2021-01-20T15:18:33Z</time>
      </trkpt>
      <trkpt lat="47.71436" lon="5.06131">
        <ele>479.83</ele>
        <time>2021-01-20T15:18:37Z</time>
      </trkpt>
      <trkpt lat="47.71442" lon="5.06133">
        <ele>480.2</ele>
        <time>2021-01-20T15:18:41Z</time>
      </trkpt>
      <trkpt lat="47.71449" lon="5.06133">
        <ele>480.66</ele>
        <time>2021-01-20T15:18:45Z</time>
      </trkpt>
      <trkpt lat="47.71455" lon="5.06134">
        <ele>480.87</ele>
        <time>2021-01-20T15:18:49Z</time>
      </trkpt>
      <trkpt lat="47.71461" lon="5.06135">
        <ele>481.04</ele>
        <time>2021-01-20T15:18:54Z</time>
      </trkpt>
      <trkpt lat="47.71468" lon="5.06136">
        <ele>481.23</ele>
        <time>2021-01-20T15:19:02Z</time>
      </trkpt>
      <trkpt lat="47.71474" lon="5.06135">
        <ele>481.48</ele>
        <time>2021-01-20T15:19:07Z</time>
      </trkpt>
      <trkpt lat="47.71481" lon="5.06134">
        <ele>481.28</ele>
        <time>2021-01-20T15:19:12Z</time>
      </trkpt>
      <trkpt lat="47.71487" lon="5.06134">
        <ele>480.98</ele>
        <time>2021-01-20T15:19:16Z</time>
      </trkpt>
      <trkpt lat="47.71493" lon="5.06135">
        <ele>480.6</ele>
        <time>2021-01-20T15:19:21Z</time>
      </trkpt>
      <trkpt lat="47.71499" lon="5.06137">
        <ele>480.18</ele>
        <time>2021-01-20T15:19:28Z</time>
      </trkpt>
      <trkpt lat="47.71505" lon="5.06136">
        <ele>479.83</ele>
        <time>2021-01-20T15:19:35Z</time>
      </trkpt>
      <trkpt lat="47.71512" lon="5.06133">
        <ele>479.47</ele>
        <time>2021-01-20T15:19:39Z</time>
      </trkpt>
      <trkpt lat="47.71517" lon="5.06129">
        <ele>479.27</ele>
        <time>2021-01-20T15:19:43Z</time>
      </trkpt>
      <trkpt lat="47.71523" lon="5.06125">
        <ele>478.93</ele>
        <time>2021-01-20T15:19:48Z</time>
      </trkpt>
      <trkpt lat="47.71528" lon="5.06122">
        <ele>478.6</ele>
        <time>2021-01-20T15:19:54Z</time>
      </trkpt>
      <trkpt lat="47.71534" lon="5.06121">
        <ele>478.42</ele>
        <time>2021-01-20T15:20:03Z</time>
      </trkpt>
      <trkpt lat="47.71541" lon="5.06121">
        <ele>478.17</ele>
        <time>2021-01-20T15:20:10Z</time>
      </trkpt>
      <trkpt lat="47.71546" lon="5.06117">
        <ele>478.13</ele>
        <time>2021-01-20T15:20:17Z</time>
      </trkpt>
      <trkpt lat="47.71552" lon="5.06116">
        <ele>477.95</ele>
        <time>2021-01-20T15:20:23Z</time>
      </trkpt>
      <trkpt lat="47.71559" lon="5.06114">
        <ele>477.91</ele>
        <time>2021-01-20T15:20:29Z</time>
      </trkpt>
      <trkpt lat="47.71565" lon="5.06112">
        <ele>477.98</ele>
        <time>2021-01-20T15:20:34Z</time>
      </trkpt>
      <trkpt lat="47.7157" lon="5.0611">
        <ele>478.12</ele>
        <time>2021-01-20T15:20:38Z</time>
      </trkpt>
      <trkpt lat="47.71577" lon="5.06109">
        <ele>478.19</ele>
        <time>2021-01-20T15:20:42Z</time>
      </trkpt>
      <trkpt lat="47.71584" lon="5.06107">
        <ele>478.38</ele>
        <time>2021-01-20T15:20:47Z</time>
      </trkpt>
      <trkpt lat="47.7159" lon="5.06103">
        <ele>479.4</ele>
        <time>2021-01-20T15:20:53Z</time>
      </trkpt>
      <trkpt lat="47.71596" lon="5.061">
        <ele>480.26</ele>
        <time>2021-01-20T15:20:59Z</time>
      </trkpt>
      <trkpt lat="47.71602" lon="5.06099">
        <ele>480.97</ele>
        <time>2021-01-20T15:21:04Z</time>
      </trkpt>
      <trkpt lat="47.71609" lon="5.06099">
        <ele>481.76</ele>
        <time>2021-01-20T15:21:10Z</time>
      </trkpt>
      <trkpt lat="47.71615" lon="5.06102">
        <ele>482.19</ele>
        <time>2021-01-20T15:21:17Z</time>
      </trkpt>
      <trkpt lat="47.71621" lon="5.06105">
        <ele>482.56</ele>
        <time>2021-01-20T15:21:24Z</time>
      </trkpt>
      <trkpt lat="47.71627" lon="5.06106">
        <ele>482.93</ele>
        <time>2021-01-20T15:21:29Z</time>
      </trkpt>
      <trkpt lat="47.71633" lon="5.06107">
        <ele>483.34</ele>
        <time>2021-01-20T15:21:34Z</time>
      </trkpt>
      <trkpt lat="47.71639" lon="5.06107">
        <ele>483.71</ele>
        <time>2021-01-20T15:21:38Z</time>
      </trkpt>
      <trkpt lat="47.71646" lon="5.06108">
        <ele>484.09</ele>
        <time>2021-01-20T15:21:43Z</time>
      </trkpt>
      <trkpt lat="47.71652" lon="5.06111">
        <ele>484.47</ele>
        <time>2021-01-20T15:21:47Z</time>
      </trkpt>
      <trkpt lat="47.71659" lon="5.06113">
        <ele>484.74</ele>
        <time>2021-01-20T15:21:52Z</time>
      </trkpt>
      <trkpt lat="47.71665" lon="5.06114">
        <ele>484.95</ele>
        <time>2021-01-20T15:21:57Z</time>
      </trkpt>
      <trkpt lat="47.71672" lon="5.06115">
        <ele>485.36</ele>
        <time>2021-01-20T15:22:03Z</time>
      </trkpt>
      <trkpt lat="47.71678" lon="5.06116">
        <ele>485.74</ele>
        <time>2021-01-20T15:22:08Z</time>
      </trkpt>
      <trkpt lat="47.71684" lon="5.06119">
        <ele>486.07</ele>
        <time>2021-01-20T15:22:14Z</time>
      </trkpt>
      <trkpt lat="47.71691" lon="5.0612">
        <ele>486.47</ele>
        <time>2021-01-20T15:22:20Z</time>
      </trkpt>
      <trkpt lat="47.71697" lon="5.0612">
        <ele>486.89</ele>
        <time>2021-01-20T15:22:25Z</time>
      </trkpt>
      <trkpt lat="47.71704" lon="5.06122">
        <ele>487.43</ele>
        <time>2021-01-20T15:22:30Z</time>
      </trkpt>
      <trkpt lat="47.71709" lon="5.06126">
        <ele>487.79</ele>
        <time>2021-01-20T15:22:36Z</time>
      </trkpt>
      <trkpt lat="47.71715" lon="5.06129">
        <ele>488.31</ele>
        <time>2021-01-20T15:23:19Z</time>
      </trkpt>
      <trkpt lat="47.71721" lon="5.06128">
        <ele>488.89</ele>
        <time>2021-01-20T15:23:36Z</time>
      </trkpt>
      <trkpt lat="47.71727" lon="5.06129">
        <ele>489.11</ele>
        <time>2021-01-20T15:23:44Z</time>
      </trkpt>
      <trkpt lat="47.71733" lon="5.06128">
        <ele>489.24</ele>
        <time>2021-01-20T15:23:52Z</time>
      </trkpt>
      <trkpt lat="47.7174" lon="5.06128">
        <ele>489.39</ele>
        <time>2021-01-20T15:23:58Z</time>
      </trkpt>
      <trkpt lat="47.71746" lon="5.06126">
        <ele>489.46</ele>
        <time>2021-01-20T15:24:03Z</time>
      </trkpt>
      <trkpt lat="47.71752" lon="5.06127">
        <ele>489.38</ele>
        <time>2021-01-20T15:24:09Z</time>
      </trkpt>
      <trkpt lat="47.71758" lon="5.06127">
        <ele>488.79</ele>
        <time>2021-01-20T15:24:14Z</time>
      </trkpt>
      <trkpt lat="47.71763" lon="5.06129">
        <ele>488.27</ele>
        <time>2021-01-20T15:24:18Z</time>
      </trkpt>
      <trkpt lat="47.71766" lon="5.0613">
        <ele>487.93</ele>
        <time>2021-01-20T15:24:21Z</time>
      </trkpt>
      <trkpt lat="47.71769" lon="5.0613">
        <ele>487.6</ele>
        <time>2021-01-20T15:24:24Z</time>
      </trkpt>
      <trkpt lat="47.71772" lon="5.06129">
        <ele>487.32</ele>
        <time>2021-01-20T15:24:28Z</time>
      </trkpt>
      <trkpt lat="47.71775" lon="5.06129">
        <ele>487.01</ele>
        <time>2021-01-20T15:24:31Z</time>
      </trkpt>
      <trkpt lat="47.71779" lon="5.0613">
        <ele>486.73</ele>
        <time>2021-01-20T15:24:34Z</time>
      </trkpt>
      <trkpt lat="47.71782" lon="5.06129">
        <ele>487.01</ele>
        <time>2021-01-20T15:24:37Z</time>
      </trkpt>
      <trkpt lat="47.71785" lon="5.06129">
        <ele>487.21</ele>
        <time>2021-01-20T15:24:40Z</time>
      </trkpt>
      <trkpt lat="47.71788" lon="5.06129">
        <ele>487.42</ele>
        <time>2021-01-20T15:24:43Z</time>
      </trkpt>
      <trkpt lat="47.71791" lon="5.0613">
        <ele>487.61</ele>
        <time>2021-01-20T15:24:46Z</time>
      </trkpt>
      <trkpt lat="47.71795" lon="5.0613">
        <ele>487.9</ele>
        <time>2021-01-20T15:24:49Z</time>
      </trkpt>
      <trkpt lat="47.71799" lon="5.0613">
        <ele>488.2</ele>
        <time>2021-01-20T15:24:53Z</time>
      </trkpt>
      <trkpt lat="47.71802" lon="5.06132">
        <ele>488.46</ele>
        <time>2021-01-20T15:24:56Z</time>
      </trkpt>
      <trkpt lat="47.71805" lon="5.06133">
        <ele>488.74</ele>
        <time>2021-01-20T15:24:58Z</time>
      </trkpt>
      <trkpt lat="47.71808" lon="5.06133">
        <ele>488.57</ele>
        <time>2021-01-20T15:25:00Z</time>
      </trkpt>
      <trkpt lat="47.71811" lon="5.06132">
        <ele>488.26</ele>
        <time>2021-01-20T15:25:02Z</time>
      </trkpt>
      <trkpt lat="47.71814" lon="5.06132">
        <ele>487.99</ele>
        <time>2021-01-20T15:25:04Z</time>
      </trkpt>
      <trkpt lat="47.71817" lon="5.06131">
        <ele>487.66</ele>
        <time>2021-01-20T15:25:06Z</time>
      </trkpt>
      <trkpt lat="47.7182" lon="5.06131">
        <ele>487.38</ele>
        <time>2021-01-20T15:25:08Z</time>
      </trkpt>
      <trkpt lat="47.71823" lon="5.0613">
        <ele>487.02</ele>
        <time>2021-01-20T15:25:10Z</time>
      </trkpt>
      <trkpt lat="47.71826" lon="5.0613">
        <ele>486.74</ele>
        <time>2021-01-20T15:25:12Z</time>
      </trkpt>
      <trkpt lat="47.71829" lon="5.06129">
        <ele>486.36</ele>
        <time>2021-01-20T15:25:14Z</time>
      </trkpt>
      <trkpt lat="47.71832" lon="5.0613">
        <ele>486.17</ele>
        <time>2021-01-20T15:25:17Z</time>
      </trkpt>
      <trkpt lat="47.71836" lon="5.0613">
        <ele>485.97</ele>
        <time>2021-01-20T15:25:20Z</time>
      </trkpt>
      <trkpt lat="47.71838" lon="5.0613">
        <ele>485.93</ele>
        <time>2021-01-20T15:25:23Z</time>
      </trkpt>
      <trkpt lat="47.71841" lon="5.06129">
        <ele>485.75</ele>
        <time>2021-01-20T15:25:26Z</time>
      </trkpt>
      <trkpt lat="47.71844" lon="5.06128">
        <ele>485.59</ele>
        <time>2021-01-20T15:25:29Z</time>
      </trkpt>
      <trkpt lat="47.71847" lon="5.06128">
        <ele>485.52</ele>
        <time>2021-01-20T15:25:32Z</time>
      </trkpt>
      <trkpt lat="47.7185" lon="5.06129">
        <ele>485.55</ele>
        <time>2021-01-20T15:25:35Z</time>
      </trkpt>
      <trkpt lat="47.71852" lon="5.06128">
        <ele>485.42</ele>
        <time>2021-01-20T15:25:38Z</time>
      </trkpt>
      <trkpt lat="47.71856" lon="5.06126">
        <ele>485.17</ele>
        <time>2021-01-20T15:25:41Z</time>
      </trkpt>
      <trkpt lat="47.7186" lon="5.06126">
        <ele>485.09</ele>
        <time>2021-01-20T15:25:44Z</time>
      </trkpt>
      <trkpt lat="47.71863" lon="5.06125">
        <ele>485.31</ele>
        <time>2021-01-20T15:25:46Z</time>
      </trkpt>
      <trkpt lat="47.71865" lon="5.06125">
        <ele>485.63</ele>
        <time>2021-01-20T15:25:48Z</time>
      </trkpt>
      <trkpt lat="47.71868" lon="5.06125">
        <ele>486.12</ele>
        <time>2021-01-20T15:25:50Z</time>
      </trkpt>
      <trkpt lat="47.71871" lon="5.06124">
        <ele>486.54</ele>
        <time>2021-01-20T15:25:52Z</time>
      </trkpt>
      <trkpt lat="47.71875" lon="5.06124">
        <ele>487.2</ele>
        <time>2021-01-20T15:25:55Z</time>
      </trkpt>
      <trkpt lat="47.71878" lon="5.06124">
        <ele>487.69</ele>
        <time>2021-01-20T15:25:58Z</time>
      </trkpt>
      <trkpt lat="47.71881" lon="5.06125">
        <ele>488.22</ele>
        <time>2021-01-20T15:26:01Z</time>
      </trkpt>
      <trkpt lat="47.71884" lon="5.06125">
        <ele>488.71</ele>
        <time>2021-01-20T15:26:04Z</time>
      </trkpt>
      <trkpt lat="47.71888" lon="5.06125">
        <ele>489.36</ele>
        <time>2021-01-20T15:26:07Z</time>
      </trkpt>
      <trkpt lat="47.7189" lon="5.06126">
        <ele>489.59</ele>
        <time>2021-01-20T15:26:10Z</time>
      </trkpt>
      <trkpt lat="47.71893" lon="5.06128">
        <ele>489.78</ele>
        <time>2021-01-20T15:26:14Z</time>
      </trkpt>
      <trkpt lat="47.71896" lon="5.06129">
        <ele>489.92</ele>
        <time>2021-01-20T15:26:19Z</time>
      </trkpt>
      <trkpt lat="47.71899" lon="5.0613">
        <ele>490.03</ele>
        <time>2021-01-20T15:26:22Z</time>
      </trkpt>
      <trkpt lat="47.71902" lon="5.0613">
        <ele>490.13</ele>
        <time>2021-01-20T15:26:24Z</time>
      </trkpt>
      <trkpt lat="47.71905" lon="5.0613">
        <ele>490.24</ele>
        <time>2021-01-20T15:26:26Z</time>
      </trkpt>
      <trkpt lat="47.71908" lon="5.06129">
        <ele>490.38</ele>
        <time>2021-01-20T15:26:29Z</time>
      </trkpt>
      <trkpt lat="47.71912" lon="5.06129">
        <ele>490.53</ele>
        <time>2021-01-20T15:26:32Z</time>
      </trkpt>
      <trkpt lat="47.71915" lon="5.06129">
        <ele>490.65</ele>
        <time>2021-01-20T15:26:34Z</time>
      </trkpt>
      <trkpt lat="47.71918" lon="5.0613">
        <ele>490.59</ele>
        <time>2021-01-20T15:26:36Z</time>
      </trkpt>
      <trkpt lat="47.71921" lon="5.06131">
        <ele>490.44</ele>
        <time>2021-01-20T15:26:39Z</time>
      </trkpt>
      <trkpt lat="47.71925" lon="5.06131">
        <ele>490.31</ele>
        <time>2021-01-20T15:26:42Z</time>
      </trkpt>
      <trkpt lat="47.71929" lon="5.06132">
        <ele>490.17</ele>
        <time>2021-01-20T15:26:45Z</time>
      </trkpt>
      <trkpt lat="47.71932" lon="5.06132">
        <ele>490.09</ele>
        <time>2021-01-20T15:26:48Z</time>
      </trkpt>
      <trkpt lat="47.71936" lon="5.06132">
        <ele>489.98</ele>
        <time>2021-01-20T15:26:51Z</time>
      </trkpt>
      <trkpt lat="47.71939" lon="5.06134">
        <ele>489.93</ele>
        <time>2021-01-20T15:26:54Z</time>
      </trkpt>
      <trkpt lat="47.71942" lon="5.06134">
        <ele>489.87</ele>
        <time>2021-01-20T15:26:57Z</time>
      </trkpt>
      <trkpt lat="47.71945" lon="5.06134">
        <ele>489.73</ele>
        <time>2021-01-20T15:27:00Z</time>
      </trkpt>
      <trkpt lat="47.71948" lon="5.06134">
        <ele>489.23</ele>
        <time>2021-01-20T15:27:04Z</time>
      </trkpt>
      <trkpt lat="47.71951" lon="5.06134">
        <ele>488.73</ele>
        <time>2021-01-20T15:27:07Z</time>
      </trkpt>
      <trkpt lat="47.71954" lon="5.06135">
        <ele>488.24</ele>
        <time>2021-01-20T15:27:09Z</time>
      </trkpt>
      <trkpt lat="47.71957" lon="5.06135">
        <ele>487.73</ele>
        <time>2021-01-20T15:27:11Z</time>
      </trkpt>
      <trkpt lat="47.71961" lon="5.06134">
        <ele>487.05</ele>
        <time>2021-01-20T15:27:14Z</time>
      </trkpt>
      <trkpt lat="47.71964" lon="5.06133">
        <ele>486.57</ele>
        <time>2021-01-20T15:27:17Z</time>
      </trkpt>
      <trkpt lat="47.71968" lon="5.06133">
        <ele>485.91</ele>
        <time>2021-01-20T15:27:19Z</time>
      </trkpt>
      <trkpt lat="47.71971" lon="5.06132">
        <ele>485.45</ele>
        <time>2021-01-20T15:27:22Z</time>
      </trkpt>
      <trkpt lat="47.71974" lon="5.06133">
        <ele>484.81</ele>
        <time>2021-01-20T15:27:25Z</time>
      </trkpt>
      <trkpt lat="47.71977" lon="5.06132">
        <ele>484.17</ele>
        <time>2021-01-20T15:27:28Z</time>
      </trkpt>
      <trkpt lat="47.7198" lon="5.06131">
        <ele>483.52</ele>
        <time>2021-01-20T15:27:32Z</time>
      </trkpt>
      <trkpt lat="47.71983" lon="5.0613">
        <ele>482.87</ele>
        <time>2021-01-20T15:27:35Z</time>
      </trkpt>
      <trkpt lat="47.71986" lon="5.0613">
        <ele>482.19</ele>
        <time>2021-01-20T15:27:39Z</time>
      </trkpt>
      <trkpt lat="47.71989" lon="5.06128">
        <ele>481.53</ele>
        <time>2021-01-20T15:27:45Z</time>
      </trkpt>
      <trkpt lat="47.71992" lon="5.06128">
        <ele>480.84</ele>
        <time>2021-01-20T15:27:50Z</time>
      </trkpt>
      <trkpt lat="47.71996" lon="5.06129">
        <ele>479.92</ele>
        <time>2021-01-20T15:27:53Z</time>
      </trkpt>
      <trkpt lat="47.72" lon="5.06129">
        <ele>479</ele>
        <time>2021-01-20T15:27:56Z</time>
      </trkpt>
      <trkpt lat="47.72004" lon="5.0613">
        <ele>478.47</ele>
        <time>2021-01-20T15:27:59Z</time>
      </trkpt>
      <trkpt lat="47.72008" lon="5.06131">
        <ele>477.93</ele>
        <time>2021-01-20T15:28:02Z</time>
      </trkpt>
      <trkpt lat="47.72011" lon="5.06131">
        <ele>477.53</ele>
        <time>2021-01-20T15:28:05Z</time>
      </trkpt>
      <trkpt lat="47.72014" lon="5.06133">
        <ele>477.09</ele>
        <time>2021-01-20T15:28:08Z</time>
      </trkpt>
      <trkpt lat="47.72017" lon="5.06134">
        <ele>476.66</ele>
        <time>2021-01-20T15:28:11Z</time>
      </trkpt>
      <trkpt lat="47.7202" lon="5.06135">
        <ele>476.22</ele>
        <time>2021-01-20T15:28:13Z</time>
      </trkpt>
      <trkpt lat="47.72024" lon="5.06136">
        <ele>475.63</ele>
        <time>2021-01-20T15:28:15Z</time>
      </trkpt>
      <trkpt lat="47.72028" lon="5.06137">
        <ele>475.08</ele>
        <time>2021-01-20T15:28:17Z</time>
      </trkpt>
      <trkpt lat="47.72031" lon="5.06138">
        <ele>475.26</ele>
        <time>2021-01-20T15:28:19Z</time>
      </trkpt>
      <trkpt lat="47.72035" lon="5.06139">
        <ele>475.53</ele>
        <time>2021-01-20T15:28:22Z</time>
      </trkpt>
      <trkpt lat="47.72039" lon="5.06139">
        <ele>475.82</ele>
        <time>2021-01-20T15:28:25Z</time>
      </trkpt>
      <trkpt lat="47.72042" lon="5.06138">
        <ele>476.04</ele>
        <time>2021-01-20T15:28:28Z</time>
      </trkpt>
      <trkpt lat="47.72045" lon="5.06137">
        <ele>476.27</ele>
        <time>2021-01-20T15:28:32Z</time>
      </trkpt>
      <trkpt lat="47.72047" lon="5.06133">
        <ele>476.45</ele>
        <time>2021-01-20T15:28:36Z</time>
      </trkpt>
      <trkpt lat="47.7205" lon="5.06133">
        <ele>476.64</ele>
        <time>2021-01-20T15:28:40Z</time>
      </trkpt>
      <trkpt lat="47.72054" lon="5.06133">
        <ele>476.9</ele>
        <time>2021-01-20T15:28:43Z</time>
      </trkpt>
      <trkpt lat="47.72058" lon="5.06133">
        <ele>477.14</ele>
        <time>2021-01-20T15:28:46Z</time>
      </trkpt>
      <trkpt lat="47.72061" lon="5.06133">
        <ele>477.32</ele>
        <time>2021-01-20T15:28:49Z</time>
      </trkpt>
      <trkpt lat="47.72065" lon="5.06133">
        <ele>477.56</ele>
        <time>2021-01-20T15:28:52Z</time>
      </trkpt>
      <trkpt lat="47.72067" lon="5.06134">
        <ele>477.63</ele>
        <time>2021-01-20T15:28:54Z</time>
      </trkpt>
      <trkpt lat="47.7207" lon="5.06135">
        <ele>477.74</ele>
        <time>2021-01-20T15:28:56Z</time>
      </trkpt>
      <trkpt lat="47.72073" lon="5.06135">
        <ele>477.89</ele>
        <time>2021-01-20T15:28:58Z</time>
      </trkpt>
      <trkpt lat="47.72077" lon="5.06135">
        <ele>478.1</ele>
        <time>2021-01-20T15:29:01Z</time>
      </trkpt>
      <trkpt lat="47.7208" lon="5.06135">
        <ele>478.25</ele>
        <time>2021-01-20T15:29:04Z</time>
      </trkpt>
      <trkpt lat="47.72083" lon="5.06136">
        <ele>478.3</ele>
        <time>2021-01-20T15:29:07Z</time>
      </trkpt>
      <trkpt lat="47.72087" lon="5.06137">
        <ele>478.43</ele>
        <time>2021-01-20T15:29:10Z</time>
      </trkpt>
      <trkpt lat="47.72091" lon="5.06136">
        <ele>478.75</ele>
        <time>2021-01-20T15:29:13Z</time>
      </trkpt>
      <trkpt lat="47.72093" lon="5.06133">
        <ele>479.04</ele>
        <time>2021-01-20T15:29:15Z</time>
      </trkpt>
      <trkpt lat="47.72095" lon="5.0613">
        <ele>479.26</ele>
        <time>2021-01-20T15:29:17Z</time>
      </trkpt>
      <trkpt lat="47.72096" lon="5.06125">
        <ele>479.5</ele>
        <time>2021-01-20T15:29:20Z</time>
      </trkpt>
      <trkpt lat="47.72097" lon="5.06121">
        <ele>479.65</ele>
        <time>2021-01-20T15:29:24Z</time>
      </trkpt>
      <trkpt lat="47.72095" lon="5.06102">
        <ele>480.35</ele>
        <time>2021-05-07T12:35:25Z</time>
      </trkpt>
      <trkpt lat="47.72098" lon="5.06104">
        <ele>480.06</ele>
        <time>2021-05-07T12:35:48Z</time>
      </trkpt>
      <trkpt lat="47.72099" lon="5.06108">
        <ele>479.92</ele>
        <time>2021-05-07T12:35:51Z</time>
      </trkpt>
      <trkpt lat="47.72099" lon="5.06112">
        <ele>479.85</ele>
        <time>2021-05-07T12:40:17Z</time>
      </trkpt>
      <trkpt lat="47.721" lon="5.06108">
        <ele>479.84</ele>
        <time>2021-05-07T12:43:15Z</time>
      </trkpt>
      <trkpt lat="47.72101" lon="5.06113">
        <ele>479.7</ele>
        <time>2021-05-07T12:43:21Z</time>
      </trkpt>
      <trkpt lat="47.72101" lon="5.06117">
        <ele>479.63</ele>
        <time>2021-05-07T12:43:25Z</time>
      </trkpt>
      <trkpt lat="47.72099" lon="5.06114">
        <ele>479.79</ele>
        <time>2021-05-07T12:43:29Z</time>
      </trkpt>
      <trkpt lat="47.72098" lon="5.0611">
        <ele>479.96</ele>
        <time>2021-05-07T12:43:32Z</time>
      </trkpt>
      <trkpt lat="47.72101" lon="5.06111">
        <ele>479.73</ele>
        <time>2021-05-07T12:43:43Z</time>
      </trkpt>
      <trkpt lat="47.72103" lon="5.06115">
        <ele>479.56</ele>
        <time>2021-05-07T12:43:45Z</time>
      </trkpt>
      <trkpt lat="47.72104" lon="5.06121">
        <ele>479.5</ele>
        <time>2021-05-07T12:43:47Z</time>
      </trkpt>
      <trkpt lat="47.72106" lon="5.06124">
        <ele>479.49</ele>
        <time>2021-05-07T12:43:50Z</time>
      </trkpt>
      <trkpt lat="47.7211" lon="5.06126">
        <ele>479.53</ele>
        <time>2021-05-07T12:43:53Z</time>
      </trkpt>
      <trkpt lat="47.72112" lon="5.06129">
        <ele>479.63</ele>
        <time>2021-05-07T12:43:55Z</time>
      </trkpt>
      <trkpt lat="47.72115" lon="5.06131">
        <ele>479.68</ele>
        <time>2021-05-07T12:43:57Z</time>
      </trkpt>
      <trkpt lat="47.72117" lon="5.06134">
        <ele>479.79</ele>
        <time>2021-05-07T12:43:59Z</time>
      </trkpt>
      <trkpt lat="47.7212" lon="5.06136">
        <ele>479.86</ele>
        <time>2021-05-07T12:44:01Z</time>
      </trkpt>
      <trkpt lat="47.72122" lon="5.06138">
        <ele>479.96</ele>
        <time>2021-05-07T12:44:03Z</time>
      </trkpt>
      <trkpt lat="47.72124" lon="5.06141">
        <ele>480</ele>
        <time>2021-05-07T12:44:05Z</time>
      </trkpt>
      <trkpt lat="47.72127" lon="5.06143">
        <ele>480</ele>
        <time>2021-05-07T12:44:07Z</time>
      </trkpt>
      <trkpt lat="47.72129" lon="5.06144">
        <ele>480</ele>
        <time>2021-05-07T12:44:09Z</time>
      </trkpt>
      <trkpt lat="47.72132" lon="5.06146">
        <ele>480</ele>
        <time>2021-05-07T12:44:11Z</time>
      </trkpt>
      <trkpt lat="47.72135" lon="5.06148">
        <ele>480</ele>
        <time>2021-05-07T12:44:13Z</time>
      </trkpt>
      <trkpt lat="47.72137" lon="5.06151">
        <ele>480</ele>
        <time>2021-05-07T12:44:15Z</time>
      </trkpt>
      <trkpt lat="47.7214" lon="5.06154">
        <ele>479.88</ele>
        <time>2021-05-07T12:44:18Z</time>
      </trkpt>
      <trkpt lat="47.72144" lon="5.06155">
        <ele>479.48</ele>
        <time>2021-05-07T12:44:21Z</time>
      </trkpt>
      <trkpt lat="47.72147" lon="5.06156">
        <ele>479.19</ele>
        <time>2021-05-07T12:44:23Z</time>
      </trkpt>
      <trkpt lat="47.72149" lon="5.06157">
        <ele>479.02</ele>
        <time>2021-05-07T12:44:25Z</time>
      </trkpt>
      <trkpt lat="47.72152" lon="5.06157">
        <ele>478.73</ele>
        <time>2021-05-07T12:44:27Z</time>
      </trkpt>
      <trkpt lat="47.72156" lon="5.06158">
        <ele>478.38</ele>
        <time>2021-05-07T12:44:30Z</time>
      </trkpt>
      <trkpt lat="47.72159" lon="5.06159">
        <ele>478.15</ele>
        <time>2021-05-07T12:44:32Z</time>
      </trkpt>
      <trkpt lat="47.72162" lon="5.06159">
        <ele>477.88</ele>
        <time>2021-05-07T12:44:34Z</time>
      </trkpt>
      <trkpt lat="47.72165" lon="5.06159">
        <ele>477.6</ele>
        <time>2021-05-07T12:44:36Z</time>
      </trkpt>
      <trkpt lat="47.72168" lon="5.0616">
        <ele>477.62</ele>
        <time>2021-05-07T12:44:38Z</time>
      </trkpt>
      <trkpt lat="47.72171" lon="5.0616">
        <ele>477.83</ele>
        <time>2021-05-07T12:44:40Z</time>
      </trkpt>
      <trkpt lat="47.72174" lon="5.06161">
        <ele>478.12</ele>
        <time>2021-05-07T12:44:42Z</time>
      </trkpt>
      <trkpt lat="47.72177" lon="5.06162">
        <ele>478.41</ele>
        <time>2021-05-07T12:44:44Z</time>
      </trkpt>
      <trkpt lat="47.7218" lon="5.06162">
        <ele>478.62</ele>
        <time>2021-05-07T12:44:46Z</time>
      </trkpt>
      <trkpt lat="47.72183" lon="5.06163">
        <ele>478.91</ele>
        <time>2021-05-07T12:44:48Z</time>
      </trkpt>
      <trkpt lat="47.72186" lon="5.06165">
        <ele>479.27</ele>
        <time>2021-05-07T12:44:51Z</time>
      </trkpt>
      <trkpt lat="47.7219" lon="5.06165">
        <ele>479.56</ele>
        <time>2021-05-07T12:44:54Z</time>
      </trkpt>
      <trkpt lat="47.72194" lon="5.06166">
        <ele>479.92</ele>
        <time>2021-05-07T12:44:57Z</time>
      </trkpt>
      <trkpt lat="47.72197" lon="5.06166">
        <ele>479.77</ele>
        <time>2021-05-07T12:44:59Z</time>
      </trkpt>
      <trkpt lat="47.72199" lon="5.06167">
        <ele>479.66</ele>
        <time>2021-05-07T12:45:01Z</time>
      </trkpt>
      <trkpt lat="47.72202" lon="5.06168">
        <ele>479.43</ele>
        <time>2021-05-07T12:45:03Z</time>
      </trkpt>
      <trkpt lat="47.72206" lon="5.06169">
        <ele>479.15</ele>
        <time>2021-05-07T12:45:06Z</time>
      </trkpt>
      <trkpt lat="47.7221" lon="5.0617">
        <ele>478.89</ele>
        <time>2021-05-07T12:45:09Z</time>
      </trkpt>
      <trkpt lat="47.72214" lon="5.06172">
        <ele>478.67</ele>
        <time>2021-05-07T12:45:12Z</time>
      </trkpt>
      <trkpt lat="47.72217" lon="5.06174">
        <ele>478.54</ele>
        <time>2021-05-07T12:45:15Z</time>
      </trkpt>
      <trkpt lat="47.72221" lon="5.06176">
        <ele>478.39</ele>
        <time>2021-05-07T12:45:18Z</time>
      </trkpt>
      <trkpt lat="47.72225" lon="5.06177">
        <ele>478.47</ele>
        <time>2021-05-07T12:45:21Z</time>
      </trkpt>
      <trkpt lat="47.72228" lon="5.06177">
        <ele>478.58</ele>
        <time>2021-05-07T12:45:23Z</time>
      </trkpt>
      <trkpt lat="47.72231" lon="5.06178">
        <ele>478.72</ele>
        <time>2021-05-07T12:45:25Z</time>
      </trkpt>
      <trkpt lat="47.72233" lon="5.06178">
        <ele>478.8</ele>
        <time>2021-05-07T12:45:27Z</time>
      </trkpt>
      <trkpt lat="47.72236" lon="5.06178">
        <ele>478.9</ele>
        <time>2021-05-07T12:45:29Z</time>
      </trkpt>
      <trkpt lat="47.72239" lon="5.06179">
        <ele>479.05</ele>
        <time>2021-05-07T12:45:31Z</time>
      </trkpt>
      <trkpt lat="47.72242" lon="5.06179">
        <ele>479.16</ele>
        <time>2021-05-07T12:45:33Z</time>
      </trkpt>
      <trkpt lat="47.72245" lon="5.0618">
        <ele>479.3</ele>
        <time>2021-05-07T12:45:35Z</time>
      </trkpt>
      <trkpt lat="47.72247" lon="5.0618">
        <ele>479.37</ele>
        <time>2021-05-07T12:45:37Z</time>
      </trkpt>
      <trkpt lat="47.7225" lon="5.0618">
        <ele>479.48</ele>
        <time>2021-05-07T12:45:39Z</time>
      </trkpt>
      <trkpt lat="47.72253" lon="5.0618">
        <ele>479.15</ele>
        <time>2021-05-07T12:45:41Z</time>
      </trkpt>
      <trkpt lat="47.72256" lon="5.06181">
        <ele>478.87</ele>
        <time>2021-05-07T12:45:43Z</time>
      </trkpt>
      <trkpt lat="47.72259" lon="5.06181">
        <ele>478.55</ele>
        <time>2021-05-07T12:45:45Z</time>
      </trkpt>
      <trkpt lat="47.72262" lon="5.06182">
        <ele>478.3</ele>
        <time>2021-05-07T12:45:47Z</time>
      </trkpt>
      <trkpt lat="47.72264" lon="5.06183">
        <ele>478.16</ele>
        <time>2021-05-07T12:45:49Z</time>
      </trkpt>
      <trkpt lat="47.72268" lon="5.06184">
        <ele>477.84</ele>
        <time>2021-05-07T12:45:52Z</time>
      </trkpt>
      <trkpt lat="47.72271" lon="5.06185">
        <ele>477.63</ele>
        <time>2021-05-07T12:45:54Z</time>
      </trkpt>
      <trkpt lat="47.72274" lon="5.06186">
        <ele>477.44</ele>
        <time>2021-05-07T12:45:56Z</time>
      </trkpt>
      <trkpt lat="47.72277" lon="5.06186">
        <ele>477.16</ele>
        <time>2021-05-07T12:45:58Z</time>
      </trkpt>
      <trkpt lat="47.72279" lon="5.06187">
        <ele>477.09</ele>
        <time>2021-05-07T12:46:00Z</time>
      </trkpt>
      <trkpt lat="47.72282" lon="5.06187">
        <ele>476.82</ele>
        <time>2021-05-07T12:46:02Z</time>
      </trkpt>
      <trkpt lat="47.72285" lon="5.06188">
        <ele>476.64</ele>
        <time>2021-05-07T12:46:04Z</time>
      </trkpt>
      <trkpt lat="47.72288" lon="5.06189">
        <ele>476.45</ele>
        <time>2021-05-07T12:46:06Z</time>
      </trkpt>
      <trkpt lat="47.72291" lon="5.0619">
        <ele>476.24</ele>
        <time>2021-05-07T12:46:08Z</time>
      </trkpt>
      <trkpt lat="47.72294" lon="5.06192">
        <ele>476.09</ele>
        <time>2021-05-07T12:46:10Z</time>
      </trkpt>
      <trkpt lat="47.72297" lon="5.06192">
        <ele>475.78</ele>
        <time>2021-05-07T12:46:12Z</time>
      </trkpt>
      <trkpt lat="47.72299" lon="5.06193">
        <ele>475.63</ele>
        <time>2021-05-07T12:46:14Z</time>
      </trkpt>
      <trkpt lat="47.72303" lon="5.06194">
        <ele>475.26</ele>
        <time>2021-05-07T12:46:17Z</time>
      </trkpt>
      <trkpt lat="47.72307" lon="5.06194">
        <ele>474.93</ele>
        <time>2021-05-07T12:46:20Z</time>
      </trkpt>
      <trkpt lat="47.7231" lon="5.06195">
        <ele>474.92</ele>
        <time>2021-05-07T12:46:22Z</time>
      </trkpt>
      <trkpt lat="47.72314" lon="5.06195">
        <ele>474.77</ele>
        <time>2021-05-07T12:46:24Z</time>
      </trkpt>
      <trkpt lat="47.72317" lon="5.06196">
        <ele>474.79</ele>
        <time>2021-05-07T12:46:26Z</time>
      </trkpt>
      <trkpt lat="47.72319" lon="5.06196">
        <ele>474.71</ele>
        <time>2021-05-07T12:46:28Z</time>
      </trkpt>
      <trkpt lat="47.72322" lon="5.06197">
        <ele>474.72</ele>
        <time>2021-05-07T12:46:30Z</time>
      </trkpt>
      <trkpt lat="47.72325" lon="5.06197">
        <ele>474.6</ele>
        <time>2021-05-07T12:46:32Z</time>
      </trkpt>
      <trkpt lat="47.72328" lon="5.06198">
        <ele>474.6</ele>
        <time>2021-05-07T12:46:34Z</time>
      </trkpt>
      <trkpt lat="47.72331" lon="5.06199">
        <ele>474.59</ele>
        <time>2021-05-07T12:46:36Z</time>
      </trkpt>
      <trkpt lat="47.72334" lon="5.06199">
        <ele>474.54</ele>
        <time>2021-05-07T12:46:38Z</time>
      </trkpt>
      <trkpt lat="47.72337" lon="5.062">
        <ele>474.84</ele>
        <time>2021-05-07T12:46:40Z</time>
      </trkpt>
      <trkpt lat="47.72341" lon="5.06201">
        <ele>475.19</ele>
        <time>2021-05-07T12:46:43Z</time>
      </trkpt>
      <trkpt lat="47.72343" lon="5.06201">
        <ele>475.32</ele>
        <time>2021-05-07T12:46:45Z</time>
      </trkpt>
      <trkpt lat="47.72346" lon="5.06201">
        <ele>475.51</ele>
        <time>2021-05-07T12:46:47Z</time>
      </trkpt>
      <trkpt lat="47.72349" lon="5.06202">
        <ele>475.79</ele>
        <time>2021-05-07T12:46:49Z</time>
      </trkpt>
      <trkpt lat="47.72352" lon="5.06202">
        <ele>475.98</ele>
        <time>2021-05-07T12:46:51Z</time>
      </trkpt>
      <trkpt lat="47.72355" lon="5.06202">
        <ele>476.16</ele>
        <time>2021-05-07T12:46:53Z</time>
      </trkpt>
      <trkpt lat="47.72358" lon="5.06202">
        <ele>476.35</ele>
        <time>2021-05-07T12:46:55Z</time>
      </trkpt>
      <trkpt lat="47.7236" lon="5.06202">
        <ele>476.47</ele>
        <time>2021-05-07T12:46:57Z</time>
      </trkpt>
      <trkpt lat="47.72363" lon="5.06202">
        <ele>476.54</ele>
        <time>2021-05-07T12:46:59Z</time>
      </trkpt>
      <trkpt lat="47.72367" lon="5.06201">
        <ele>476.47</ele>
        <time>2021-05-07T12:47:02Z</time>
      </trkpt>
      <trkpt lat="47.7237" lon="5.06201">
        <ele>476.47</ele>
        <time>2021-05-07T12:47:04Z</time>
      </trkpt>
      <trkpt lat="47.72373" lon="5.062">
        <ele>476.4</ele>
        <time>2021-05-07T12:47:06Z</time>
      </trkpt>
      <trkpt lat="47.72376" lon="5.062">
        <ele>476.4</ele>
        <time>2021-05-07T12:47:08Z</time>
      </trkpt>
      <trkpt lat="47.72379" lon="5.06199">
        <ele>476.33</ele>
        <time>2021-05-07T12:47:10Z</time>
      </trkpt>
      <trkpt lat="47.72382" lon="5.06198">
        <ele>476.26</ele>
        <time>2021-05-07T12:47:12Z</time>
      </trkpt>
      <trkpt lat="47.72384" lon="5.06197">
        <ele>476.18</ele>
        <time>2021-05-07T12:47:14Z</time>
      </trkpt>
      <trkpt lat="47.72387" lon="5.06196">
        <ele>476.11</ele>
        <time>2021-05-07T12:47:16Z</time>
      </trkpt>
      <trkpt lat="47.7239" lon="5.06195">
        <ele>476.2</ele>
        <time>2021-05-07T12:47:18Z</time>
      </trkpt>
      <trkpt lat="47.72393" lon="5.06193">
        <ele>476.61</ele>
        <time>2021-05-07T12:47:21Z</time>
      </trkpt>
      <trkpt lat="47.72397" lon="5.06192">
        <ele>477.15</ele>
        <time>2021-05-07T12:47:24Z</time>
      </trkpt>
      <trkpt lat="47.724" lon="5.0619">
        <ele>477.5</ele>
        <time>2021-05-07T12:47:26Z</time>
      </trkpt>
      <trkpt lat="47.72403" lon="5.06189">
        <ele>477.83</ele>
        <time>2021-05-07T12:47:28Z</time>
      </trkpt>
      <trkpt lat="47.72406" lon="5.06188">
        <ele>478.12</ele>
        <time>2021-05-07T12:47:30Z</time>
      </trkpt>
      <trkpt lat="47.72408" lon="5.06187">
        <ele>478.28</ele>
        <time>2021-05-07T12:47:32Z</time>
      </trkpt>
      <trkpt lat="47.72411" lon="5.06186">
        <ele>478.52</ele>
        <time>2021-05-07T12:47:34Z</time>
      </trkpt>
      <trkpt lat="47.72414" lon="5.06185">
        <ele>478.73</ele>
        <time>2021-05-07T12:47:36Z</time>
      </trkpt>
      <trkpt lat="47.72417" lon="5.06185">
        <ele>479</ele>
        <time>2021-05-07T12:47:38Z</time>
      </trkpt>
      <trkpt lat="47.72421" lon="5.06187">
        <ele>479.41</ele>
        <time>2021-05-07T12:47:41Z</time>
      </trkpt>
      <trkpt lat="47.72422" lon="5.06192">
        <ele>479.82</ele>
        <time>2021-05-07T12:47:44Z</time>
      </trkpt>
      <trkpt lat="47.72421" lon="5.06196">
        <ele>480.07</ele>
        <time>2021-05-07T12:47:46Z</time>
      </trkpt>
      <trkpt lat="47.72421" lon="5.06201">
        <ele>480.31</ele>
        <time>2021-05-07T12:47:48Z</time>
      </trkpt>
      <trkpt lat="47.7242" lon="5.06206">
        <ele>480.52</ele>
        <time>2021-05-07T12:47:50Z</time>
      </trkpt>
      <trkpt lat="47.72419" lon="5.06211">
        <ele>480.7</ele>
        <time>2021-05-07T12:47:52Z</time>
      </trkpt>
      <trkpt lat="47.72419" lon="5.06215">
        <ele>480.86</ele>
        <time>2021-05-07T12:47:54Z</time>
      </trkpt>
      <trkpt lat="47.72418" lon="5.0622">
        <ele>481.01</ele>
        <time>2021-05-07T12:47:56Z</time>
      </trkpt>
      <trkpt lat="47.72418" lon="5.06224">
        <ele>481.15</ele>
        <time>2021-05-07T12:47:58Z</time>
      </trkpt>
      <trkpt lat="47.72417" lon="5.06228">
        <ele>481.23</ele>
        <time>2021-05-07T12:48:00Z</time>
      </trkpt>
      <trkpt lat="47.72416" lon="5.06234">
        <ele>481.36</ele>
        <time>2021-05-07T12:48:03Z</time>
      </trkpt>
      <trkpt lat="47.72416" lon="5.0624">
        <ele>481.58</ele>
        <time>2021-05-07T12:48:06Z</time>
      </trkpt>
      <trkpt lat="47.72416" lon="5.06245">
        <ele>481.77</ele>
        <time>2021-05-07T12:48:09Z</time>
      </trkpt>
      <trkpt lat="47.72415" lon="5.06251">
        <ele>481.88</ele>
        <time>2021-05-07T12:48:12Z</time>
      </trkpt>
      <trkpt lat="47.72415" lon="5.06256">
        <ele>481.87</ele>
        <time>2021-05-07T12:48:14Z</time>
      </trkpt>
      <trkpt lat="47.72415" lon="5.0626">
        <ele>481.86</ele>
        <time>2021-05-07T12:48:16Z</time>
      </trkpt>
      <trkpt lat="47.72415" lon="5.06264">
        <ele>481.85</ele>
        <time>2021-05-07T12:48:18Z</time>
      </trkpt>
      <trkpt lat="47.72415" lon="5.06269">
        <ele>481.84</ele>
        <time>2021-05-07T12:48:21Z</time>
      </trkpt>
      <trkpt lat="47.72415" lon="5.06274">
        <ele>481.83</ele>
        <time>2021-05-07T12:48:24Z</time>
      </trkpt>
      <trkpt lat="47.72415" lon="5.0628">
        <ele>481.82</ele>
        <time>2021-05-07T12:48:27Z</time>
      </trkpt>
      <trkpt lat="47.72415" lon="5.06286">
        <ele>481.84</ele>
        <time>2021-05-07T12:48:30Z</time>
      </trkpt>
      <trkpt lat="47.72414" lon="5.06292">
        <ele>481.76</ele>
        <time>2021-05-07T12:48:33Z</time>
      </trkpt>
      <trkpt lat="47.72414" lon="5.06296">
        <ele>481.77</ele>
        <time>2021-05-07T12:48:35Z</time>
      </trkpt>
      <trkpt lat="47.72413" lon="5.06302">
        <ele>481.72</ele>
        <time>2021-05-07T12:48:38Z</time>
      </trkpt>
      <trkpt lat="47.72413" lon="5.06307">
        <ele>481.69</ele>
        <time>2021-05-07T12:48:41Z</time>
      </trkpt>
      <trkpt lat="47.72412" lon="5.06313">
        <ele>481.44</ele>
        <time>2021-05-07T12:48:44Z</time>
      </trkpt>
      <trkpt lat="47.72412" lon="5.06318">
        <ele>481.29</ele>
        <time>2021-05-07T12:48:46Z</time>
      </trkpt>
      <trkpt lat="47.72411" lon="5.06322">
        <ele>481.12</ele>
        <time>2021-05-07T12:48:48Z</time>
      </trkpt>
      <trkpt lat="47.72411" lon="5.06327">
        <ele>480.98</ele>
        <time>2021-05-07T12:48:50Z</time>
      </trkpt>
      <trkpt lat="47.7241" lon="5.06333">
        <ele>480.77</ele>
        <time>2021-05-07T12:48:53Z</time>
      </trkpt>
      <trkpt lat="47.7241" lon="5.06339">
        <ele>480.25</ele>
        <time>2021-05-07T12:48:56Z</time>
      </trkpt>
      <trkpt lat="47.7241" lon="5.06345">
        <ele>479.7</ele>
        <time>2021-05-07T12:48:59Z</time>
      </trkpt>
      <trkpt lat="47.7241" lon="5.06351">
        <ele>479.16</ele>
        <time>2021-05-07T12:49:02Z</time>
      </trkpt>
      <trkpt lat="47.7241" lon="5.06356">
        <ele>478.7</ele>
        <time>2021-05-07T12:49:05Z</time>
      </trkpt>
      <trkpt lat="47.72409" lon="5.06362">
        <ele>478.2</ele>
        <time>2021-05-07T12:49:08Z</time>
      </trkpt>
      <trkpt lat="47.72408" lon="5.06367">
        <ele>477.81</ele>
        <time>2021-05-07T12:49:10Z</time>
      </trkpt>
      <trkpt lat="47.72408" lon="5.06371">
        <ele>477.47</ele>
        <time>2021-05-07T12:49:12Z</time>
      </trkpt>
      <trkpt lat="47.72407" lon="5.06377">
        <ele>477.03</ele>
        <time>2021-05-07T12:49:15Z</time>
      </trkpt>
      <trkpt lat="47.72407" lon="5.06381">
        <ele>476.7</ele>
        <time>2021-05-07T12:49:17Z</time>
      </trkpt>
      <trkpt lat="47.72406" lon="5.06385">
        <ele>476.46</ele>
        <time>2021-05-07T12:49:19Z</time>
      </trkpt>
      <trkpt lat="47.72406" lon="5.06389">
        <ele>476.14</ele>
        <time>2021-05-07T12:49:21Z</time>
      </trkpt>
      <trkpt lat="47.72406" lon="5.06395">
        <ele>475.63</ele>
        <time>2021-05-07T12:49:24Z</time>
      </trkpt>
      <trkpt lat="47.72405" lon="5.06401">
        <ele>475.2</ele>
        <time>2021-05-07T12:49:27Z</time>
      </trkpt>
      <trkpt lat="47.72405" lon="5.06405">
        <ele>474.86</ele>
        <time>2021-05-07T12:49:29Z</time>
      </trkpt>
      <trkpt lat="47.72404" lon="5.06409">
        <ele>474.59</ele>
        <time>2021-05-07T12:49:31Z</time>
      </trkpt>
      <trkpt lat="47.72403" lon="5.06413">
        <ele>474.31</ele>
        <time>2021-05-07T12:49:33Z</time>
      </trkpt>
      <trkpt lat="47.72403" lon="5.06417">
        <ele>473.98</ele>
        <time>2021-05-07T12:49:35Z</time>
      </trkpt>
      <trkpt lat="47.72402" lon="5.06422">
        <ele>473.95</ele>
        <time>2021-05-07T12:49:37Z</time>
      </trkpt>
      <trkpt lat="47.72402" lon="5.06426">
        <ele>473.88</ele>
        <time>2021-05-07T12:49:39Z</time>
      </trkpt>
      <trkpt lat="47.72401" lon="5.06431">
        <ele>473.84</ele>
        <time>2021-05-07T12:49:41Z</time>
      </trkpt>
      <trkpt lat="47.72401" lon="5.06435">
        <ele>473.76</ele>
        <time>2021-05-07T12:49:43Z</time>
      </trkpt>
      <trkpt lat="47.72401" lon="5.0644">
        <ele>473.65</ele>
        <time>2021-05-07T12:49:46Z</time>
      </trkpt>
      <trkpt lat="47.72401" lon="5.06444">
        <ele>473.57</ele>
        <time>2021-05-07T12:49:48Z</time>
      </trkpt>
      <trkpt lat="47.72401" lon="5.06449">
        <ele>473.54</ele>
        <time>2021-05-07T12:49:50Z</time>
      </trkpt>
      <trkpt lat="47.724" lon="5.06453">
        <ele>473.54</ele>
        <time>2021-05-07T12:49:52Z</time>
      </trkpt>
      <trkpt lat="47.72399" lon="5.06458">
        <ele>473.5</ele>
        <time>2021-05-07T12:49:55Z</time>
      </trkpt>
      <trkpt lat="47.72399" lon="5.06464">
        <ele>473.44</ele>
        <time>2021-05-07T12:49:58Z</time>
      </trkpt>
      <trkpt lat="47.72398" lon="5.06469">
        <ele>473.37</ele>
        <time>2021-05-07T12:50:00Z</time>
      </trkpt>
      <trkpt lat="47.72398" lon="5.06473">
        <ele>473.32</ele>
        <time>2021-05-07T12:50:02Z</time>
      </trkpt>
      <trkpt lat="47.72397" lon="5.06477">
        <ele>473.22</ele>
        <time>2021-05-07T12:50:04Z</time>
      </trkpt>
      <trkpt lat="47.72397" lon="5.06482">
        <ele>473.15</ele>
        <time>2021-05-07T12:50:06Z</time>
      </trkpt>
      <trkpt lat="47.72396" lon="5.06486">
        <ele>473.01</ele>
        <time>2021-05-07T12:50:08Z</time>
      </trkpt>
      <trkpt lat="47.72396" lon="5.0649">
        <ele>472.94</ele>
        <time>2021-05-07T12:50:10Z</time>
      </trkpt>
      <trkpt lat="47.72396" lon="5.06495">
        <ele>472.86</ele>
        <time>2021-05-07T12:50:12Z</time>
      </trkpt>
      <trkpt lat="47.72395" lon="5.06499">
        <ele>472.68</ele>
        <time>2021-05-07T12:50:14Z</time>
      </trkpt>
      <trkpt lat="47.72395" lon="5.06503">
        <ele>472.72</ele>
        <time>2021-05-07T12:50:16Z</time>
      </trkpt>
      <trkpt lat="47.72394" lon="5.06507">
        <ele>472.71</ele>
        <time>2021-05-07T12:50:18Z</time>
      </trkpt>
      <trkpt lat="47.72394" lon="5.06511">
        <ele>472.8</ele>
        <time>2021-05-07T12:50:20Z</time>
      </trkpt>
      <trkpt lat="47.72393" lon="5.06516">
        <ele>472.85</ele>
        <time>2021-05-07T12:50:22Z</time>
      </trkpt>
      <trkpt lat="47.72393" lon="5.0652">
        <ele>472.95</ele>
        <time>2021-05-07T12:50:24Z</time>
      </trkpt>
      <trkpt lat="47.72392" lon="5.06524">
        <ele>473.01</ele>
        <time>2021-05-07T12:50:26Z</time>
      </trkpt>
      <trkpt lat="47.72392" lon="5.06529">
        <ele>473.15</ele>
        <time>2021-05-07T12:50:29Z</time>
      </trkpt>
      <trkpt lat="47.72391" lon="5.06535">
        <ele>473.32</ele>
        <time>2021-05-07T12:50:32Z</time>
      </trkpt>
      <trkpt lat="47.72391" lon="5.06541">
        <ele>473.52</ele>
        <time>2021-05-07T12:50:35Z</time>
      </trkpt>
      <trkpt lat="47.72391" lon="5.06547">
        <ele>473.72</ele>
        <time>2021-05-07T12:50:38Z</time>
      </trkpt>
      <trkpt lat="47.72391" lon="5.06551">
        <ele>473.85</ele>
        <time>2021-05-07T12:50:40Z</time>
      </trkpt>
      <trkpt lat="47.72391" lon="5.06555">
        <ele>473.98</ele>
        <time>2021-05-07T12:50:42Z</time>
      </trkpt>
      <trkpt lat="47.7239" lon="5.06559">
        <ele>474.01</ele>
        <time>2021-05-07T12:50:44Z</time>
      </trkpt>
      <trkpt lat="47.72389" lon="5.06564">
        <ele>474</ele>
        <time>2021-05-07T12:50:46Z</time>
      </trkpt>
      <trkpt lat="47.72389" lon="5.06568">
        <ele>474</ele>
        <time>2021-05-07T12:50:48Z</time>
      </trkpt>
      <trkpt lat="47.72389" lon="5.06574">
        <ele>474.01</ele>
        <time>2021-05-07T12:50:51Z</time>
      </trkpt>
      <trkpt lat="47.72389" lon="5.06579">
        <ele>474.01</ele>
        <time>2021-05-07T12:50:54Z</time>
      </trkpt>
      <trkpt lat="47.72389" lon="5.06585">
        <ele>474.07</ele>
        <time>2021-05-07T12:50:57Z</time>
      </trkpt>
      <trkpt lat="47.72388" lon="5.06591">
        <ele>474.39</ele>
        <time>2021-05-07T12:51:00Z</time>
      </trkpt>
      <trkpt lat="47.72388" lon="5.06595">
        <ele>474.52</ele>
        <time>2021-05-07T12:51:02Z</time>
      </trkpt>
      <trkpt lat="47.72387" lon="5.06599">
        <ele>474.76</ele>
        <time>2021-05-07T12:51:04Z</time>
      </trkpt>
      <trkpt lat="47.72387" lon="5.06605">
        <ele>474.95</ele>
        <time>2021-05-07T12:51:07Z</time>
      </trkpt>
      <trkpt lat="47.72387" lon="5.06609">
        <ele>475.07</ele>
        <time>2021-05-07T12:51:09Z</time>
      </trkpt>
      <trkpt lat="47.72387" lon="5.06613">
        <ele>475.14</ele>
        <time>2021-05-07T12:51:11Z</time>
      </trkpt>
      <trkpt lat="47.72386" lon="5.06618">
        <ele>475.21</ele>
        <time>2021-05-07T12:51:13Z</time>
      </trkpt>
      <trkpt lat="47.72386" lon="5.06622">
        <ele>475.21</ele>
        <time>2021-05-07T12:51:15Z</time>
      </trkpt>
      <trkpt lat="47.72386" lon="5.06626">
        <ele>475.21</ele>
        <time>2021-05-07T12:51:17Z</time>
      </trkpt>
      <trkpt lat="47.72385" lon="5.06632">
        <ele>475.28</ele>
        <time>2021-05-07T12:51:20Z</time>
      </trkpt>
      <trkpt lat="47.72384" lon="5.06636">
        <ele>475.35</ele>
        <time>2021-05-07T12:51:22Z</time>
      </trkpt>
      <trkpt lat="47.72384" lon="5.0664">
        <ele>475.34</ele>
        <time>2021-05-07T12:51:24Z</time>
      </trkpt>
      <trkpt lat="47.72383" lon="5.06645">
        <ele>475.38</ele>
        <time>2021-05-07T12:51:26Z</time>
      </trkpt>
      <trkpt lat="47.72382" lon="5.0665">
        <ele>475.4</ele>
        <time>2021-05-07T12:51:29Z</time>
      </trkpt>
      <trkpt lat="47.72382" lon="5.06654">
        <ele>475.36</ele>
        <time>2021-05-07T12:51:31Z</time>
      </trkpt>
      <trkpt lat="47.72382" lon="5.06659">
        <ele>475.32</ele>
        <time>2021-05-07T12:51:33Z</time>
      </trkpt>
      <trkpt lat="47.72381" lon="5.06663">
        <ele>475.32</ele>
        <time>2021-05-07T12:51:35Z</time>
      </trkpt>
      <trkpt lat="47.72381" lon="5.06667">
        <ele>475.28</ele>
        <time>2021-05-07T12:51:37Z</time>
      </trkpt>
      <trkpt lat="47.72381" lon="5.06671">
        <ele>475.24</ele>
        <time>2021-05-07T12:51:39Z</time>
      </trkpt>
      <trkpt lat="47.7238" lon="5.06677">
        <ele>475.2</ele>
        <time>2021-05-07T12:51:42Z</time>
      </trkpt>
      <trkpt lat="47.7238" lon="5.06683">
        <ele>475.13</ele>
        <time>2021-05-07T12:51:45Z</time>
      </trkpt>
      <trkpt lat="47.72379" lon="5.06689">
        <ele>475.07</ele>
        <time>2021-05-07T12:51:48Z</time>
      </trkpt>
      <trkpt lat="47.72379" lon="5.06693">
        <ele>475.02</ele>
        <time>2021-05-07T12:51:50Z</time>
      </trkpt>
      <trkpt lat="47.72379" lon="5.06697">
        <ele>475</ele>
        <time>2021-05-07T12:51:52Z</time>
      </trkpt>
      <trkpt lat="47.72379" lon="5.06702">
        <ele>475</ele>
        <time>2021-05-07T12:51:54Z</time>
      </trkpt>
      <trkpt lat="47.72378" lon="5.06706">
        <ele>475</ele>
        <time>2021-05-07T12:51:56Z</time>
      </trkpt>
      <trkpt lat="47.72378" lon="5.06711">
        <ele>475</ele>
        <time>2021-05-07T12:51:58Z</time>
      </trkpt>
      <trkpt lat="47.72378" lon="5.06715">
        <ele>475</ele>
        <time>2021-05-07T12:52:00Z</time>
      </trkpt>
      <trkpt lat="47.72377" lon="5.06719">
        <ele>475</ele>
        <time>2021-05-07T12:52:02Z</time>
      </trkpt>
      <trkpt lat="47.72377" lon="5.06723">
        <ele>475.03</ele>
        <time>2021-05-07T12:52:04Z</time>
      </trkpt>
      <trkpt lat="47.72377" lon="5.06729">
        <ele>475.24</ele>
        <time>2021-05-07T12:52:07Z</time>
      </trkpt>
      <trkpt lat="47.72376" lon="5.06735">
        <ele>475.46</ele>
        <time>2021-05-07T12:52:10Z</time>
      </trkpt>
      <trkpt lat="47.72376" lon="5.06741">
        <ele>475.68</ele>
        <time>2021-05-07T12:52:13Z</time>
      </trkpt>
      <trkpt lat="47.72376" lon="5.06745">
        <ele>475.82</ele>
        <time>2021-05-07T12:52:15Z</time>
      </trkpt>
      <trkpt lat="47.72375" lon="5.06749">
        <ele>475.96</ele>
        <time>2021-05-07T12:52:17Z</time>
      </trkpt>
      <trkpt lat="47.72374" lon="5.06754">
        <ele>476.15</ele>
        <time>2021-05-07T12:52:19Z</time>
      </trkpt>
      <trkpt lat="47.72374" lon="5.06758">
        <ele>476.31</ele>
        <time>2021-05-07T12:52:21Z</time>
      </trkpt>
      <trkpt lat="47.72373" lon="5.06762">
        <ele>476.49</ele>
        <time>2021-05-07T12:52:23Z</time>
      </trkpt>
      <trkpt lat="47.72373" lon="5.06767">
        <ele>476.7</ele>
        <time>2021-05-07T12:52:26Z</time>
      </trkpt>
      <trkpt lat="47.72372" lon="5.06771">
        <ele>476.92</ele>
        <time>2021-05-07T12:52:28Z</time>
      </trkpt>
      <trkpt lat="47.72372" lon="5.06776">
        <ele>477.14</ele>
        <time>2021-05-07T12:52:30Z</time>
      </trkpt>
      <trkpt lat="47.72372" lon="5.06781">
        <ele>477.47</ele>
        <time>2021-05-07T12:52:32Z</time>
      </trkpt>
      <trkpt lat="47.72372" lon="5.06786">
        <ele>477.87</ele>
        <time>2021-05-07T12:52:34Z</time>
      </trkpt>
      <trkpt lat="47.72372" lon="5.0679">
        <ele>478.19</ele>
        <time>2021-05-07T12:52:36Z</time>
      </trkpt>
      <trkpt lat="47.72372" lon="5.06794">
        <ele>478.51</ele>
        <time>2021-05-07T12:52:38Z</time>
      </trkpt>
      <trkpt lat="47.72372" lon="5.06799">
        <ele>478.91</ele>
        <time>2021-05-07T12:52:40Z</time>
      </trkpt>
      <trkpt lat="47.72372" lon="5.06803">
        <ele>479.23</ele>
        <time>2021-05-07T12:52:42Z</time>
      </trkpt>
      <trkpt lat="47.72373" lon="5.06807">
        <ele>479.46</ele>
        <time>2021-05-07T12:52:44Z</time>
      </trkpt>
      <trkpt lat="47.72374" lon="5.06812">
        <ele>479.87</ele>
        <time>2021-05-07T12:52:47Z</time>
      </trkpt>
      <trkpt lat="47.72376" lon="5.06817">
        <ele>480.03</ele>
        <time>2021-05-07T12:52:50Z</time>
      </trkpt>
      <trkpt lat="47.72378" lon="5.06821">
        <ele>480</ele>
        <time>2021-05-07T12:52:52Z</time>
      </trkpt>
      <trkpt lat="47.7238" lon="5.06825">
        <ele>479.88</ele>
        <time>2021-05-07T12:52:54Z</time>
      </trkpt>
      <trkpt lat="47.72382" lon="5.06828">
        <ele>479.6</ele>
        <time>2021-05-07T12:52:56Z</time>
      </trkpt>
      <trkpt lat="47.72383" lon="5.06831">
        <ele>479.54</ele>
        <time>2021-05-07T12:52:58Z</time>
      </trkpt>
      <trkpt lat="47.72386" lon="5.06834">
        <ele>479</ele>
        <time>2021-05-07T12:53:00Z</time>
      </trkpt>
      <trkpt lat="47.72389" lon="5.06837">
        <ele>478.91</ele>
        <time>2021-05-07T12:53:02Z</time>
      </trkpt>
      <trkpt lat="47.72392" lon="5.06839">
        <ele>478.91</ele>
        <time>2021-05-07T12:53:04Z</time>
      </trkpt>
      <trkpt lat="47.72395" lon="5.06841">
        <ele>478.87</ele>
        <time>2021-05-07T12:53:06Z</time>
      </trkpt>
      <trkpt lat="47.72397" lon="5.06844">
        <ele>479.18</ele>
        <time>2021-05-07T12:53:08Z</time>
      </trkpt>
      <trkpt lat="47.72399" lon="5.06846">
        <ele>479.24</ele>
        <time>2021-05-07T12:53:10Z</time>
      </trkpt>
      <trkpt lat="47.72402" lon="5.06851">
        <ele>479.66</ele>
        <time>2021-05-07T12:53:13Z</time>
      </trkpt>
      <trkpt lat="47.72403" lon="5.06855">
        <ele>480.24</ele>
        <time>2021-05-07T12:53:16Z</time>
      </trkpt>
      <trkpt lat="47.72403" lon="5.0686">
        <ele>481.22</ele>
        <time>2021-05-07T12:53:19Z</time>
      </trkpt>
      <trkpt lat="47.72404" lon="5.06865">
        <ele>481.82</ele>
        <time>2021-05-07T12:53:21Z</time>
      </trkpt>
      <trkpt lat="47.72406" lon="5.0687">
        <ele>482.09</ele>
        <time>2021-05-07T12:53:24Z</time>
      </trkpt>
      <trkpt lat="47.72408" lon="5.06873">
        <ele>482.03</ele>
        <time>2021-05-07T12:53:26Z</time>
      </trkpt>
      <trkpt lat="47.7241" lon="5.06876">
        <ele>481.95</ele>
        <time>2021-05-07T12:53:28Z</time>
      </trkpt>
      <trkpt lat="47.72412" lon="5.06878">
        <ele>481.71</ele>
        <time>2021-05-07T12:53:30Z</time>
      </trkpt>
      <trkpt lat="47.72415" lon="5.06882">
        <ele>481.47</ele>
        <time>2021-05-07T12:53:33Z</time>
      </trkpt>
      <trkpt lat="47.72417" lon="5.06886">
        <ele>481.56</ele>
        <time>2021-05-07T12:53:35Z</time>
      </trkpt>
      <trkpt lat="47.72418" lon="5.06889">
        <ele>481.93</ele>
        <time>2021-05-07T12:53:37Z</time>
      </trkpt>
      <trkpt lat="47.72421" lon="5.06894">
        <ele>482.65</ele>
        <time>2021-05-07T12:53:40Z</time>
      </trkpt>
      <trkpt lat="47.72424" lon="5.06899">
        <ele>483.18</ele>
        <time>2021-05-07T12:53:43Z</time>
      </trkpt>
      <trkpt lat="47.72426" lon="5.06903">
        <ele>483.52</ele>
        <time>2021-05-07T12:53:45Z</time>
      </trkpt>
      <trkpt lat="47.72435" lon="5.06915">
        <ele>483.22</ele>
        <time>2021-05-07T12:53:56Z</time>
      </trkpt>
      <trkpt lat="47.72445" lon="5.06926">
        <ele>481.64</ele>
        <time>2021-05-07T12:54:07Z</time>
      </trkpt>
      <trkpt lat="47.72454" lon="5.06938">
        <ele>481.66</ele>
        <time>2021-05-07T12:54:18Z</time>
      </trkpt>
      <trkpt lat="47.7246" lon="5.06945">
        <ele>481.4</ele>
        <time>2021-05-07T12:54:25Z</time>
      </trkpt>
      <trkpt lat="47.72464" lon="5.06953">
        <ele>482.25</ele>
        <time>2021-05-07T12:54:32Z</time>
      </trkpt>
      <trkpt lat="47.72469" lon="5.06959">
        <ele>482.85</ele>
        <time>2021-05-07T12:54:39Z</time>
      </trkpt>
      <trkpt lat="47.72475" lon="5.06962">
        <ele>483.63</ele>
        <time>2021-05-07T12:54:46Z</time>
      </trkpt>
      <trkpt lat="47.72486" lon="5.06967">
        <ele>486.23</ele>
        <time>2021-05-07T12:55:07Z</time>
      </trkpt>
      <trkpt lat="47.72497" lon="5.06975">
        <ele>488.8</ele>
        <time>2021-05-07T12:55:22Z</time>
      </trkpt>
      <trkpt lat="47.72502" lon="5.06991">
        <ele>490.59</ele>
        <time>2021-05-07T12:55:39Z</time>
      </trkpt>
      <trkpt lat="47.72504" lon="5.07008">
        <ele>491.68</ele>
        <time>2021-05-07T12:55:52Z</time>
      </trkpt>
      <trkpt lat="47.7251" lon="5.07025">
        <ele>492.66</ele>
        <time>2021-05-07T12:56:03Z</time>
      </trkpt>
      <trkpt lat="47.72518" lon="5.07037">
        <ele>493.2</ele>
        <time>2021-05-07T12:56:13Z</time>
      </trkpt>
      <trkpt lat="47.72526" lon="5.07051">
        <ele>493.14</ele>
        <time>2021-05-07T12:56:25Z</time>
      </trkpt>
      <trkpt lat="47.72533" lon="5.07064">
        <ele>492.81</ele>
        <time>2021-05-07T12:56:36Z</time>
      </trkpt>
      <trkpt lat="47.7254" lon="5.07079">
        <ele>492.56</ele>
        <time>2021-05-07T12:56:46Z</time>
      </trkpt>
      <trkpt lat="47.72547" lon="5.07094">
        <ele>491.54</ele>
        <time>2021-05-07T12:56:57Z</time>
      </trkpt>
      <trkpt lat="47.72553" lon="5.0711">
        <ele>490.17</ele>
        <time>2021-05-07T12:57:07Z</time>
      </trkpt>
      <trkpt lat="47.72559" lon="5.07125">
        <ele>487.75</ele>
        <time>2021-05-07T12:57:16Z</time>
      </trkpt>
      <trkpt lat="47.72565" lon="5.0714">
        <ele>485.55</ele>
        <time>2021-05-07T12:57:27Z</time>
      </trkpt>
      <trkpt lat="47.72574" lon="5.07152">
        <ele>484.23</ele>
        <time>2021-05-07T12:57:38Z</time>
      </trkpt>
      <trkpt lat="47.72584" lon="5.07161">
        <ele>483.38</ele>
        <time>2021-05-07T12:57:50Z</time>
      </trkpt>
      <trkpt lat="47.72595" lon="5.0717">
        <ele>482.7</ele>
        <time>2021-05-07T12:58:05Z</time>
      </trkpt>
      <trkpt lat="47.72605" lon="5.0718">
        <ele>482.7</ele>
        <time>2021-05-07T12:58:16Z</time>
      </trkpt>
      <trkpt lat="47.72615" lon="5.0719">
        <ele>482.37</ele>
        <time>2021-05-07T12:58:26Z</time>
      </trkpt>
      <trkpt lat="47.72625" lon="5.072">
        <ele>480.8</ele>
        <time>2021-05-07T12:58:36Z</time>
      </trkpt>
      <trkpt lat="47.72636" lon="5.07209">
        <ele>478.89</ele>
        <time>2021-05-07T12:58:47Z</time>
      </trkpt>
      <trkpt lat="47.72646" lon="5.07218">
        <ele>476.77</ele>
        <time>2021-05-07T12:58:57Z</time>
      </trkpt>
      <trkpt lat="47.72657" lon="5.07227">
        <ele>473.74</ele>
        <time>2021-05-07T12:59:06Z</time>
      </trkpt>
      <trkpt lat="47.72668" lon="5.07237">
        <ele>471.35</ele>
        <time>2021-05-07T12:59:16Z</time>
      </trkpt>
      <trkpt lat="47.72679" lon="5.07246">
        <ele>470.19</ele>
        <time>2021-05-07T12:59:24Z</time>
      </trkpt>
      <trkpt lat="47.7269" lon="5.07255">
        <ele>468.72</ele>
        <time>2021-05-07T12:59:31Z</time>
      </trkpt>
      <trkpt lat="47.72702" lon="5.07262">
        <ele>467.31</ele>
        <time>2021-05-07T12:59:39Z</time>
      </trkpt>
      <trkpt lat="47.72714" lon="5.0727">
        <ele>465.63</ele>
        <time>2021-05-07T12:59:49Z</time>
      </trkpt>
      <trkpt lat="47.72725" lon="5.07276">
        <ele>464.36</ele>
        <time>2021-05-07T12:59:56Z</time>
      </trkpt>
      <trkpt lat="47.72737" lon="5.07283">
        <ele>464.26</ele>
        <time>2021-05-07T13:00:04Z</time>
      </trkpt>
      <trkpt lat="47.72748" lon="5.07284">
        <ele>464.69</ele>
        <time>2021-05-07T13:00:15Z</time>
      </trkpt>
      <trkpt lat="47.7276" lon="5.07289">
        <ele>465.82</ele>
        <time>2021-05-07T13:00:54Z</time>
      </trkpt>
      <trkpt lat="47.72771" lon="5.07291">
        <ele>467.15</ele>
        <time>2021-05-07T13:01:34Z</time>
      </trkpt>
      <trkpt lat="47.72782" lon="5.07282">
        <ele>468.02</ele>
        <time>2021-05-07T13:01:48Z</time>
      </trkpt>
      <trkpt lat="47.72792" lon="5.07273">
        <ele>468.17</ele>
        <time>2021-05-07T13:01:59Z</time>
      </trkpt>
      <trkpt lat="47.72803" lon="5.07264">
        <ele>468.09</ele>
        <time>2021-05-07T13:02:08Z</time>
      </trkpt>
      <trkpt lat="47.72814" lon="5.07255">
        <ele>467.95</ele>
        <time>2021-05-07T13:02:17Z</time>
      </trkpt>
      <trkpt lat="47.72825" lon="5.07247">
        <ele>467.99</ele>
        <time>2021-05-07T13:02:26Z</time>
      </trkpt>
      <trkpt lat="47.72837" lon="5.07242">
        <ele>467.32</ele>
        <time>2021-05-07T13:02:37Z</time>
      </trkpt>
      <trkpt lat="47.72849" lon="5.07241">
        <ele>465.98</ele>
        <time>2021-05-07T13:02:45Z</time>
      </trkpt>
      <trkpt lat="47.72861" lon="5.0724">
        <ele>464.65</ele>
        <time>2021-05-07T13:02:52Z</time>
      </trkpt>
      <trkpt lat="47.72873" lon="5.07239">
        <ele>464.27</ele>
        <time>2021-05-07T13:02:59Z</time>
      </trkpt>
      <trkpt lat="47.72886" lon="5.07237">
        <ele>463.69</ele>
        <time>2021-05-07T13:03:07Z</time>
      </trkpt>
      <trkpt lat="47.72898" lon="5.07234">
        <ele>463.27</ele>
        <time>2021-05-07T13:03:15Z</time>
      </trkpt>
      <trkpt lat="47.72911" lon="5.07231">
        <ele>462.95</ele>
        <time>2021-05-07T13:03:24Z</time>
      </trkpt>
      <trkpt lat="47.72923" lon="5.07227">
        <ele>463.92</ele>
        <time>2021-05-07T13:03:33Z</time>
      </trkpt>
      <trkpt lat="47.72934" lon="5.07222">
        <ele>466.36</ele>
        <time>2021-05-07T13:03:42Z</time>
      </trkpt>
      <trkpt lat="47.72946" lon="5.07217">
        <ele>468.2</ele>
        <time>2021-05-07T13:03:52Z</time>
      </trkpt>
      <trkpt lat="47.72958" lon="5.07211">
        <ele>466.14</ele>
        <time>2021-05-07T13:04:04Z</time>
      </trkpt>
      <trkpt lat="47.72966" lon="5.07199">
        <ele>465.21</ele>
        <time>2021-05-07T13:04:15Z</time>
      </trkpt>
      <trkpt lat="47.72968" lon="5.07182">
        <ele>467.5</ele>
        <time>2021-05-07T13:04:28Z</time>
      </trkpt>
      <trkpt lat="47.7296" lon="5.07168">
        <ele>469.06</ele>
        <time>2021-05-07T13:04:45Z</time>
      </trkpt>
      <trkpt lat="47.72954" lon="5.07153">
        <ele>470.16</ele>
        <time>2021-05-07T13:04:55Z</time>
      </trkpt>
      <trkpt lat="47.72949" lon="5.07136">
        <ele>472</ele>
        <time>2021-05-07T13:05:04Z</time>
      </trkpt>
      <trkpt lat="47.72947" lon="5.07118">
        <ele>472</ele>
        <time>2021-05-07T13:05:15Z</time>
      </trkpt>
      <trkpt lat="47.72948" lon="5.071">
        <ele>472.35</ele>
        <time>2021-05-07T13:05:26Z</time>
      </trkpt>
      <trkpt lat="47.72952" lon="5.07084">
        <ele>472.71</ele>
        <time>2021-05-07T13:05:41Z</time>
      </trkpt>
      <trkpt lat="47.72948" lon="5.07089">
        <ele>472.69</ele>
        <time>2021-05-07T13:12:11Z</time>
      </trkpt>
      <trkpt lat="47.72953" lon="5.07092">
        <ele>472.48</ele>
        <time>2021-05-07T13:14:09Z</time>
      </trkpt>
      <trkpt lat="47.72952" lon="5.071">
        <ele>472.29</ele>
        <time>2021-05-07T13:14:15Z</time>
      </trkpt>
      <trkpt lat="47.72949" lon="5.07109">
        <ele>472.06</ele>
        <time>2021-05-07T13:14:23Z</time>
      </trkpt>
      <trkpt lat="47.72944" lon="5.07114">
        <ele>471.98</ele>
        <time>2021-05-07T13:14:30Z</time>
      </trkpt>
      <trkpt lat="47.72938" lon="5.07129">
        <ele>471.32</ele>
        <time>2021-05-07T13:14:50Z</time>
      </trkpt>
      <trkpt lat="47.72937" lon="5.07147">
        <ele>469.62</ele>
        <time>2021-05-07T13:15:00Z</time>
      </trkpt>
      <trkpt lat="47.72944" lon="5.07163">
        <ele>467.62</ele>
        <time>2021-05-07T13:15:12Z</time>
      </trkpt>
      <trkpt lat="47.72952" lon="5.07175">
        <ele>467.38</ele>
        <time>2021-05-07T13:15:24Z</time>
      </trkpt>
      <trkpt lat="47.72957" lon="5.07191">
        <ele>465.95</ele>
        <time>2021-05-07T13:15:36Z</time>
      </trkpt>
      <trkpt lat="47.72955" lon="5.07209">
        <ele>466.4</ele>
        <time>2021-05-07T13:15:49Z</time>
      </trkpt>
      <trkpt lat="47.72945" lon="5.07218">
        <ele>468.46</ele>
        <time>2021-05-07T13:16:00Z</time>
      </trkpt>
      <trkpt lat="47.72934" lon="5.07225">
        <ele>466.36</ele>
        <time>2021-05-07T13:16:11Z</time>
      </trkpt>
      <trkpt lat="47.72921" lon="5.07228">
        <ele>463.55</ele>
        <time>2021-05-07T13:16:22Z</time>
      </trkpt>
      <trkpt lat="47.72909" lon="5.07229">
        <ele>462.73</ele>
        <time>2021-05-07T13:16:31Z</time>
      </trkpt>
      <trkpt lat="47.72897" lon="5.07231">
        <ele>462.95</ele>
        <time>2021-05-07T13:16:40Z</time>
      </trkpt>
      <trkpt lat="47.72885" lon="5.07234">
        <ele>463.43</ele>
        <time>2021-05-07T13:16:50Z</time>
      </trkpt>
      <trkpt lat="47.72873" lon="5.07238">
        <ele>464.2</ele>
        <time>2021-05-07T13:16:59Z</time>
      </trkpt>
      <trkpt lat="47.72861" lon="5.07239">
        <ele>464.62</ele>
        <time>2021-05-07T13:17:09Z</time>
      </trkpt>
      <trkpt lat="47.7285" lon="5.07238">
        <ele>465.77</ele>
        <time>2021-05-07T13:17:19Z</time>
      </trkpt>
      <trkpt lat="47.72838" lon="5.07239">
        <ele>467.1</ele>
        <time>2021-05-07T13:17:28Z</time>
      </trkpt>
      <trkpt lat="47.72826" lon="5.07244">
        <ele>467.96</ele>
        <time>2021-05-07T13:17:37Z</time>
      </trkpt>
      <trkpt lat="47.72815" lon="5.07251">
        <ele>467.99</ele>
        <time>2021-05-07T13:17:45Z</time>
      </trkpt>
      <trkpt lat="47.72804" lon="5.07261">
        <ele>468.07</ele>
        <time>2021-05-07T13:17:54Z</time>
      </trkpt>
      <trkpt lat="47.72795" lon="5.07271">
        <ele>468.19</ele>
        <time>2021-05-07T13:18:04Z</time>
      </trkpt>
      <trkpt lat="47.72786" lon="5.07283">
        <ele>468.06</ele>
        <time>2021-05-07T13:18:15Z</time>
      </trkpt>
      <trkpt lat="47.72776" lon="5.07295">
        <ele>467.77</ele>
        <time>2021-05-07T13:18:26Z</time>
      </trkpt>
      <trkpt lat="47.72767" lon="5.07306">
        <ele>466.47</ele>
        <time>2021-05-07T13:18:37Z</time>
      </trkpt>
      <trkpt lat="47.72755" lon="5.07304">
        <ele>464.77</ele>
        <time>2021-05-07T13:18:51Z</time>
      </trkpt>
      <trkpt lat="47.72742" lon="5.07299">
        <ele>463.73</ele>
        <time>2021-05-07T13:19:02Z</time>
      </trkpt>
      <trkpt lat="47.7273" lon="5.07296">
        <ele>463.15</ele>
        <time>2021-05-07T13:19:11Z</time>
      </trkpt>
      <trkpt lat="47.72718" lon="5.07294">
        <ele>462.78</ele>
        <time>2021-05-07T13:19:19Z</time>
      </trkpt>
      <trkpt lat="47.72706" lon="5.07293">
        <ele>462.79</ele>
        <time>2021-05-07T13:19:27Z</time>
      </trkpt>
      <trkpt lat="47.72693" lon="5.07293">
        <ele>462.77</ele>
        <time>2021-05-07T13:19:35Z</time>
      </trkpt>
      <trkpt lat="47.72681" lon="5.07296">
        <ele>462.7</ele>
        <time>2021-05-07T13:19:43Z</time>
      </trkpt>
      <trkpt lat="47.7267" lon="5.07302">
        <ele>462.3</ele>
        <time>2021-05-07T13:19:50Z</time>
      </trkpt>
      <trkpt lat="47.72659" lon="5.07309">
        <ele>464.59</ele>
        <time>2021-05-07T13:19:57Z</time>
      </trkpt>
      <trkpt lat="47.72649" lon="5.07318">
        <ele>466.94</ele>
        <time>2021-05-07T13:20:05Z</time>
      </trkpt>
      <trkpt lat="47.72639" lon="5.07329">
        <ele>467.76</ele>
        <time>2021-05-07T13:20:15Z</time>
      </trkpt>
      <trkpt lat="47.72629" lon="5.07339">
        <ele>466.44</ele>
        <time>2021-05-07T13:20:25Z</time>
      </trkpt>
      <trkpt lat="47.72621" lon="5.07348">
        <ele>465.83</ele>
        <time>2021-05-07T13:20:33Z</time>
      </trkpt>
      <trkpt lat="47.72615" lon="5.07353">
        <ele>465.43</ele>
        <time>2021-05-07T13:20:39Z</time>
      </trkpt>
      <trkpt lat="47.72609" lon="5.07356">
        <ele>464.86</ele>
        <time>2021-05-07T13:20:47Z</time>
      </trkpt>
      <trkpt lat="47.72603" lon="5.07355">
        <ele>464.02</ele>
        <time>2021-05-07T13:20:57Z</time>
      </trkpt>
      <trkpt lat="47.72596" lon="5.07355">
        <ele>462.98</ele>
        <time>2021-05-07T13:21:02Z</time>
      </trkpt>
      <trkpt lat="47.7259" lon="5.07355">
        <ele>462.09</ele>
        <time>2021-05-07T13:21:07Z</time>
      </trkpt>
      <trkpt lat="47.72584" lon="5.07354">
        <ele>461.38</ele>
        <time>2021-05-07T13:21:12Z</time>
      </trkpt>
      <trkpt lat="47.72578" lon="5.07353">
        <ele>461.87</ele>
        <time>2021-05-07T13:21:17Z</time>
      </trkpt>
      <trkpt lat="47.72571" lon="5.07351">
        <ele>462.67</ele>
        <time>2021-05-07T13:21:22Z</time>
      </trkpt>
      <trkpt lat="47.72565" lon="5.0735">
        <ele>463.19</ele>
        <time>2021-05-07T13:21:27Z</time>
      </trkpt>
      <trkpt lat="47.72559" lon="5.0735">
        <ele>463.58</ele>
        <time>2021-05-07T13:21:32Z</time>
      </trkpt>
      <trkpt lat="47.72552" lon="5.0735">
        <ele>464.18</ele>
        <time>2021-05-07T13:21:38Z</time>
      </trkpt>
      <trkpt lat="47.72546" lon="5.07351">
        <ele>464.76</ele>
        <time>2021-05-07T13:21:44Z</time>
      </trkpt>
      <trkpt lat="47.7254" lon="5.07352">
        <ele>465.34</ele>
        <time>2021-05-07T13:21:50Z</time>
      </trkpt>
      <trkpt lat="47.72534" lon="5.0735">
        <ele>466.13</ele>
        <time>2021-05-07T13:21:56Z</time>
      </trkpt>
      <trkpt lat="47.72527" lon="5.07348">
        <ele>467.07</ele>
        <time>2021-05-07T13:22:01Z</time>
      </trkpt>
      <trkpt lat="47.72521" lon="5.07347">
        <ele>468.12</ele>
        <time>2021-05-07T13:22:05Z</time>
      </trkpt>
      <trkpt lat="47.72514" lon="5.07344">
        <ele>469.52</ele>
        <time>2021-05-07T13:22:09Z</time>
      </trkpt>
      <trkpt lat="47.72509" lon="5.07341">
        <ele>470.64</ele>
        <time>2021-05-07T13:22:14Z</time>
      </trkpt>
      <trkpt lat="47.72503" lon="5.07338">
        <ele>471.97</ele>
        <time>2021-05-07T13:22:19Z</time>
      </trkpt>
      <trkpt lat="47.72498" lon="5.07334">
        <ele>472.93</ele>
        <time>2021-05-07T13:22:24Z</time>
      </trkpt>
      <trkpt lat="47.72492" lon="5.07331">
        <ele>473.6</ele>
        <time>2021-05-07T13:22:29Z</time>
      </trkpt>
      <trkpt lat="47.72487" lon="5.07327">
        <ele>474.79</ele>
        <time>2021-05-07T13:22:35Z</time>
      </trkpt>
      <trkpt lat="47.7248" lon="5.07326">
        <ele>475.34</ele>
        <time>2021-05-07T13:22:41Z</time>
      </trkpt>
      <trkpt lat="47.72473" lon="5.07327">
        <ele>475.25</ele>
        <time>2021-05-07T13:22:46Z</time>
      </trkpt>
      <trkpt lat="47.72466" lon="5.07329">
        <ele>475.42</ele>
        <time>2021-05-07T13:22:50Z</time>
      </trkpt>
      <trkpt lat="47.7246" lon="5.07332">
        <ele>475.22</ele>
        <time>2021-05-07T13:22:53Z</time>
      </trkpt>
      <trkpt lat="47.72453" lon="5.07336">
        <ele>475.55</ele>
        <time>2021-05-07T13:22:57Z</time>
      </trkpt>
      <trkpt lat="47.72448" lon="5.0734">
        <ele>475.98</ele>
        <time>2021-05-07T13:23:01Z</time>
      </trkpt>
      <trkpt lat="47.72442" lon="5.07344">
        <ele>476.76</ele>
        <time>2021-05-07T13:23:05Z</time>
      </trkpt>
      <trkpt lat="47.72437" lon="5.07347">
        <ele>477.62</ele>
        <time>2021-05-07T13:23:09Z</time>
      </trkpt>
      <trkpt lat="47.72431" lon="5.0735">
        <ele>478.7</ele>
        <time>2021-05-07T13:23:14Z</time>
      </trkpt>
      <trkpt lat="47.72425" lon="5.07352">
        <ele>479.86</ele>
        <time>2021-05-07T13:23:20Z</time>
      </trkpt>
      <trkpt lat="47.72418" lon="5.07353">
        <ele>481.3</ele>
        <time>2021-05-07T13:23:27Z</time>
      </trkpt>
      <trkpt lat="47.72412" lon="5.0735">
        <ele>481.93</ele>
        <time>2021-05-07T13:23:32Z</time>
      </trkpt>
      <trkpt lat="47.72406" lon="5.07346">
        <ele>482.51</ele>
        <time>2021-05-07T13:23:37Z</time>
      </trkpt>
      <trkpt lat="47.72399" lon="5.07344">
        <ele>483.02</ele>
        <time>2021-05-07T13:23:42Z</time>
      </trkpt>
      <trkpt lat="47.72393" lon="5.07341">
        <ele>483.68</ele>
        <time>2021-05-07T13:23:48Z</time>
      </trkpt>
      <trkpt lat="47.72387" lon="5.07339">
        <ele>484.1</ele>
        <time>2021-05-07T13:23:53Z</time>
      </trkpt>
      <trkpt lat="47.7238" lon="5.07337">
        <ele>484.11</ele>
        <time>2021-05-07T13:23:59Z</time>
      </trkpt>
      <trkpt lat="47.7237" lon="5.07329">
        <ele>485.05</ele>
        <time>2021-05-07T13:24:12Z</time>
      </trkpt>
      <trkpt lat="47.7236" lon="5.07318">
        <ele>486.65</ele>
        <time>2021-05-07T13:24:22Z</time>
      </trkpt>
      <trkpt lat="47.72351" lon="5.07305">
        <ele>487.27</ele>
        <time>2021-05-07T13:24:31Z</time>
      </trkpt>
      <trkpt lat="47.72342" lon="5.07291">
        <ele>487.26</ele>
        <time>2021-05-07T13:24:40Z</time>
      </trkpt>
      <trkpt lat="47.72334" lon="5.07279">
        <ele>486.12</ele>
        <time>2021-05-07T13:24:49Z</time>
      </trkpt>
      <trkpt lat="47.72325" lon="5.07266">
        <ele>486.59</ele>
        <time>2021-05-07T13:24:58Z</time>
      </trkpt>
      <trkpt lat="47.72317" lon="5.07252">
        <ele>486.76</ele>
        <time>2021-05-07T13:25:08Z</time>
      </trkpt>
      <trkpt lat="47.72311" lon="5.07238">
        <ele>487.34</ele>
        <time>2021-05-07T13:25:18Z</time>
      </trkpt>
      <trkpt lat="47.72304" lon="5.07222">
        <ele>487.91</ele>
        <time>2021-05-07T13:25:29Z</time>
      </trkpt>
      <trkpt lat="47.72295" lon="5.0721">
        <ele>488.56</ele>
        <time>2021-05-07T13:25:38Z</time>
      </trkpt>
      <trkpt lat="47.72286" lon="5.07198">
        <ele>489.21</ele>
        <time>2021-05-07T13:25:46Z</time>
      </trkpt>
      <trkpt lat="47.72276" lon="5.07187">
        <ele>489.17</ele>
        <time>2021-05-07T13:25:56Z</time>
      </trkpt>
      <trkpt lat="47.72266" lon="5.07176">
        <ele>488.68</ele>
        <time>2021-05-07T13:26:05Z</time>
      </trkpt>
      <trkpt lat="47.72257" lon="5.07165">
        <ele>487.83</ele>
        <time>2021-05-07T13:26:15Z</time>
      </trkpt>
      <trkpt lat="47.72249" lon="5.07153">
        <ele>487.88</ele>
        <time>2021-05-07T13:26:24Z</time>
      </trkpt>
      <trkpt lat="47.72241" lon="5.07138">
        <ele>487.37</ele>
        <time>2021-05-07T13:26:33Z</time>
      </trkpt>
      <trkpt lat="47.72234" lon="5.07122">
        <ele>485.77</ele>
        <time>2021-05-07T13:26:43Z</time>
      </trkpt>
      <trkpt lat="47.72228" lon="5.07108">
        <ele>484.34</ele>
        <time>2021-05-07T13:26:52Z</time>
      </trkpt>
      <trkpt lat="47.72221" lon="5.07094">
        <ele>483.39</ele>
        <time>2021-05-07T13:27:02Z</time>
      </trkpt>
      <trkpt lat="47.72214" lon="5.07079">
        <ele>482.43</ele>
        <time>2021-05-07T13:27:11Z</time>
      </trkpt>
      <trkpt lat="47.72206" lon="5.07065">
        <ele>481.54</ele>
        <time>2021-05-07T13:27:20Z</time>
      </trkpt>
      <trkpt lat="47.72198" lon="5.07051">
        <ele>480.68</ele>
        <time>2021-05-07T13:27:29Z</time>
      </trkpt>
      <trkpt lat="47.72189" lon="5.07039">
        <ele>479.41</ele>
        <time>2021-05-07T13:27:37Z</time>
      </trkpt>
      <trkpt lat="47.72179" lon="5.0703">
        <ele>478.33</ele>
        <time>2021-05-07T13:27:45Z</time>
      </trkpt>
      <trkpt lat="47.72169" lon="5.07022">
        <ele>477.62</ele>
        <time>2021-05-07T13:27:54Z</time>
      </trkpt>
      <trkpt lat="47.72157" lon="5.07015">
        <ele>477.38</ele>
        <time>2021-05-07T13:28:04Z</time>
      </trkpt>
      <trkpt lat="47.72146" lon="5.07008">
        <ele>477.47</ele>
        <time>2021-05-07T13:28:13Z</time>
      </trkpt>
      <trkpt lat="47.72135" lon="5.07">
        <ele>477.3</ele>
        <time>2021-05-07T13:28:21Z</time>
      </trkpt>
      <trkpt lat="47.72125" lon="5.06991">
        <ele>476.47</ele>
        <time>2021-05-07T13:28:30Z</time>
      </trkpt>
      <trkpt lat="47.72114" lon="5.06985">
        <ele>475.14</ele>
        <time>2021-05-07T13:28:43Z</time>
      </trkpt>
      <trkpt lat="47.72101" lon="5.06982">
        <ele>473.62</ele>
        <time>2021-05-07T13:28:54Z</time>
      </trkpt>
      <trkpt lat="47.72089" lon="5.06982">
        <ele>472.04</ele>
        <time>2021-05-07T13:29:02Z</time>
      </trkpt>
      <trkpt lat="47.72077" lon="5.06984">
        <ele>471.74</ele>
        <time>2021-05-07T13:29:09Z</time>
      </trkpt>
      <trkpt lat="47.72065" lon="5.0699">
        <ele>472.28</ele>
        <time>2021-05-07T13:29:17Z</time>
      </trkpt>
      <trkpt lat="47.72056" lon="5.07">
        <ele>471.97</ele>
        <time>2021-05-07T13:29:25Z</time>
      </trkpt>
      <trkpt lat="47.72049" lon="5.07015">
        <ele>471.22</ele>
        <time>2021-05-07T13:29:33Z</time>
      </trkpt>
      <trkpt lat="47.72042" lon="5.07031">
        <ele>470.66</ele>
        <time>2021-05-07T13:29:42Z</time>
      </trkpt>
      <trkpt lat="47.72036" lon="5.07046">
        <ele>470.04</ele>
        <time>2021-05-07T13:29:50Z</time>
      </trkpt>
      <trkpt lat="47.7203" lon="5.07061">
        <ele>468.84</ele>
        <time>2021-05-07T13:29:58Z</time>
      </trkpt>
      <trkpt lat="47.72024" lon="5.07076">
        <ele>467.06</ele>
        <time>2021-05-07T13:30:07Z</time>
      </trkpt>
      <trkpt lat="47.72016" lon="5.07091">
        <ele>467.31</ele>
        <time>2021-05-07T13:30:17Z</time>
      </trkpt>
      <trkpt lat="47.7201" lon="5.07105">
        <ele>467.84</ele>
        <time>2021-05-07T13:30:26Z</time>
      </trkpt>
      <trkpt lat="47.72004" lon="5.07119">
        <ele>468.18</ele>
        <time>2021-05-07T13:30:35Z</time>
      </trkpt>
      <trkpt lat="47.71997" lon="5.07134">
        <ele>468.63</ele>
        <time>2021-05-07T13:30:44Z</time>
      </trkpt>
      <trkpt lat="47.71991" lon="5.07148">
        <ele>468.2</ele>
        <time>2021-05-07T13:30:52Z</time>
      </trkpt>
      <trkpt lat="47.71985" lon="5.07165">
        <ele>467.42</ele>
        <time>2021-05-07T13:31:01Z</time>
      </trkpt>
      <trkpt lat="47.7198" lon="5.07181">
        <ele>469.41</ele>
        <time>2021-05-07T13:31:10Z</time>
      </trkpt>
      <trkpt lat="47.71973" lon="5.07198">
        <ele>471.08</ele>
        <time>2021-05-07T13:31:19Z</time>
      </trkpt>
      <trkpt lat="47.71969" lon="5.07215">
        <ele>472.41</ele>
        <time>2021-05-07T13:31:27Z</time>
      </trkpt>
      <trkpt lat="47.71967" lon="5.07228">
        <ele>473.35</ele>
        <time>2021-05-07T13:31:33Z</time>
      </trkpt>
      <trkpt lat="47.71964" lon="5.07238">
        <ele>474.07</ele>
        <time>2021-05-07T13:31:38Z</time>
      </trkpt>
      <trkpt lat="47.71961" lon="5.07246">
        <ele>474.41</ele>
        <time>2021-05-07T13:31:43Z</time>
      </trkpt>
      <trkpt lat="47.71958" lon="5.07255">
        <ele>474.15</ele>
        <time>2021-05-07T13:31:48Z</time>
      </trkpt>
      <trkpt lat="47.71956" lon="5.07264">
        <ele>473.58</ele>
        <time>2021-05-07T13:31:53Z</time>
      </trkpt>
      <trkpt lat="47.71954" lon="5.07273">
        <ele>473</ele>
        <time>2021-05-07T13:31:58Z</time>
      </trkpt>
      <trkpt lat="47.71954" lon="5.07282">
        <ele>472.51</ele>
        <time>2021-05-07T13:32:03Z</time>
      </trkpt>
      <trkpt lat="47.71952" lon="5.07292">
        <ele>472.12</ele>
        <time>2021-05-07T13:32:08Z</time>
      </trkpt>
      <trkpt lat="47.7195" lon="5.07301">
        <ele>471.63</ele>
        <time>2021-05-07T13:32:13Z</time>
      </trkpt>
      <trkpt lat="47.71948" lon="5.07311">
        <ele>470.86</ele>
        <time>2021-05-07T13:32:19Z</time>
      </trkpt>
      <trkpt lat="47.71947" lon="5.0732">
        <ele>470.14</ele>
        <time>2021-05-07T13:32:24Z</time>
      </trkpt>
      <trkpt lat="47.71947" lon="5.07329">
        <ele>469.5</ele>
        <time>2021-05-07T13:32:28Z</time>
      </trkpt>
      <trkpt lat="47.71946" lon="5.07337">
        <ele>468.86</ele>
        <time>2021-05-07T13:32:32Z</time>
      </trkpt>
      <trkpt lat="47.71945" lon="5.07348">
        <ele>467.99</ele>
        <time>2021-05-07T13:32:37Z</time>
      </trkpt>
      <trkpt lat="47.71944" lon="5.07357">
        <ele>467.41</ele>
        <time>2021-05-07T13:32:41Z</time>
      </trkpt>
      <trkpt lat="47.71943" lon="5.07366">
        <ele>467.18</ele>
        <time>2021-05-07T13:32:45Z</time>
      </trkpt>
      <trkpt lat="47.71942" lon="5.07376">
        <ele>467.03</ele>
        <time>2021-05-07T13:32:50Z</time>
      </trkpt>
      <trkpt lat="47.7194" lon="5.07385">
        <ele>467.12</ele>
        <time>2021-05-07T13:32:55Z</time>
      </trkpt>
      <trkpt lat="47.71939" lon="5.07395">
        <ele>467</ele>
        <time>2021-05-07T13:33:01Z</time>
      </trkpt>
      <trkpt lat="47.71943" lon="5.07402">
        <ele>465.86</ele>
        <time>2021-05-07T13:33:12Z</time>
      </trkpt>
      <trkpt lat="47.71948" lon="5.07409">
        <ele>465.79</ele>
        <time>2021-05-07T13:33:54Z</time>
      </trkpt>
      <trkpt lat="47.71948" lon="5.07419">
        <ele>465.44</ele>
        <time>2021-05-07T13:34:50Z</time>
      </trkpt>
      <trkpt lat="47.71946" lon="5.07428">
        <ele>464.84</ele>
        <time>2021-05-07T13:34:56Z</time>
      </trkpt>
      <trkpt lat="47.71944" lon="5.07436">
        <ele>464.42</ele>
        <time>2021-05-07T13:35:02Z</time>
      </trkpt>
      <trkpt lat="47.71941" lon="5.07444">
        <ele>464.88</ele>
        <time>2021-05-07T13:35:07Z</time>
      </trkpt>
      <trkpt lat="47.71938" lon="5.07453">
        <ele>465.55</ele>
        <time>2021-05-07T13:35:12Z</time>
      </trkpt>
      <trkpt lat="47.71936" lon="5.07462">
        <ele>465.94</ele>
        <time>2021-05-07T13:35:18Z</time>
      </trkpt>
      <trkpt lat="47.71934" lon="5.07471">
        <ele>466.27</ele>
        <time>2021-05-07T13:35:23Z</time>
      </trkpt>
      <trkpt lat="47.71933" lon="5.07481">
        <ele>466.34</ele>
        <time>2021-05-07T13:35:29Z</time>
      </trkpt>
      <trkpt lat="47.71933" lon="5.0749">
        <ele>466.21</ele>
        <time>2021-05-07T13:35:34Z</time>
      </trkpt>
      <trkpt lat="47.71932" lon="5.075">
        <ele>466.24</ele>
        <time>2021-05-07T13:35:39Z</time>
      </trkpt>
      <trkpt lat="47.71931" lon="5.0751">
        <ele>466.43</ele>
        <time>2021-05-07T13:35:44Z</time>
      </trkpt>
      <trkpt lat="47.71931" lon="5.0752">
        <ele>466.44</ele>
        <time>2021-05-07T13:35:49Z</time>
      </trkpt>
      <trkpt lat="47.71931" lon="5.07531">
        <ele>466.4</ele>
        <time>2021-05-07T13:35:54Z</time>
      </trkpt>
      <trkpt lat="47.71931" lon="5.07541">
        <ele>466.22</ele>
        <time>2021-05-07T13:35:58Z</time>
      </trkpt>
      <trkpt lat="47.7193" lon="5.07551">
        <ele>466.13</ele>
        <time>2021-05-07T13:36:03Z</time>
      </trkpt>
      <trkpt lat="47.71929" lon="5.0756">
        <ele>465.95</ele>
        <time>2021-05-07T13:36:09Z</time>
      </trkpt>
      <trkpt lat="47.71928" lon="5.07569">
        <ele>465.7</ele>
        <time>2021-05-07T13:36:16Z</time>
      </trkpt>
      <trkpt lat="47.71927" lon="5.0758">
        <ele>465.38</ele>
        <time>2021-05-07T13:36:22Z</time>
      </trkpt>
      <trkpt lat="47.71929" lon="5.07589">
        <ele>464.82</ele>
        <time>2021-05-07T13:36:28Z</time>
      </trkpt>
      <trkpt lat="47.71932" lon="5.07599">
        <ele>464.02</ele>
        <time>2021-05-07T13:36:33Z</time>
      </trkpt>
      <trkpt lat="47.71934" lon="5.07607">
        <ele>463.37</ele>
        <time>2021-05-07T13:36:37Z</time>
      </trkpt>
      <trkpt lat="47.71935" lon="5.07616">
        <ele>463.02</ele>
        <time>2021-05-07T13:36:42Z</time>
      </trkpt>
      <trkpt lat="47.71935" lon="5.07625">
        <ele>463.02</ele>
        <time>2021-05-07T13:36:46Z</time>
      </trkpt>
      <trkpt lat="47.71935" lon="5.07634">
        <ele>463.02</ele>
        <time>2021-05-07T13:36:51Z</time>
      </trkpt>
      <trkpt lat="47.71934" lon="5.07645">
        <ele>463.05</ele>
        <time>2021-05-07T13:36:57Z</time>
      </trkpt>
      <trkpt lat="47.71934" lon="5.07653">
        <ele>462.94</ele>
        <time>2021-05-07T13:37:01Z</time>
      </trkpt>
      <trkpt lat="47.71934" lon="5.07664">
        <ele>462.79</ele>
        <time>2021-05-07T13:37:06Z</time>
      </trkpt>
      <trkpt lat="47.71935" lon="5.07673">
        <ele>462.6</ele>
        <time>2021-05-07T13:37:10Z</time>
      </trkpt>
      <trkpt lat="47.71937" lon="5.07683">
        <ele>462.38</ele>
        <time>2021-05-07T13:37:15Z</time>
      </trkpt>
      <trkpt lat="47.71938" lon="5.07693">
        <ele>462.24</ele>
        <time>2021-05-07T13:37:20Z</time>
      </trkpt>
      <trkpt lat="47.71938" lon="5.07702">
        <ele>461.88</ele>
        <time>2021-05-07T13:37:25Z</time>
      </trkpt>
      <trkpt lat="47.71938" lon="5.07713">
        <ele>461.36</ele>
        <time>2021-05-07T13:37:31Z</time>
      </trkpt>
      <trkpt lat="47.71939" lon="5.07731">
        <ele>460.85</ele>
        <time>2021-05-07T13:37:43Z</time>
      </trkpt>
      <trkpt lat="47.7194" lon="5.07749">
        <ele>460.79</ele>
        <time>2021-05-07T13:37:52Z</time>
      </trkpt>
      <trkpt lat="47.71942" lon="5.07767">
        <ele>460.44</ele>
        <time>2021-05-07T13:38:02Z</time>
      </trkpt>
      <trkpt lat="47.71945" lon="5.07785">
        <ele>460.34</ele>
        <time>2021-05-07T13:38:11Z</time>
      </trkpt>
      <trkpt lat="47.71949" lon="5.07802">
        <ele>461.26</ele>
        <time>2021-05-07T13:38:19Z</time>
      </trkpt>
      <trkpt lat="47.71952" lon="5.07821">
        <ele>462.5</ele>
        <time>2021-05-07T13:38:28Z</time>
      </trkpt>
      <trkpt lat="47.71955" lon="5.07837">
        <ele>463.49</ele>
        <time>2021-05-07T13:38:36Z</time>
      </trkpt>
      <trkpt lat="47.71959" lon="5.07854">
        <ele>463.84</ele>
        <time>2021-05-07T13:38:45Z</time>
      </trkpt>
      <trkpt lat="47.71963" lon="5.0787">
        <ele>463.45</ele>
        <time>2021-05-07T13:38:57Z</time>
      </trkpt>
      <trkpt lat="47.71967" lon="5.07889">
        <ele>462.57</ele>
        <time>2021-05-07T13:39:06Z</time>
      </trkpt>
      <trkpt lat="47.71971" lon="5.07907">
        <ele>462.87</ele>
        <time>2021-05-07T13:39:14Z</time>
      </trkpt>
      <trkpt lat="47.71976" lon="5.07924">
        <ele>464.02</ele>
        <time>2021-05-07T13:39:22Z</time>
      </trkpt>
      <trkpt lat="47.71981" lon="5.07941">
        <ele>465.19</ele>
        <time>2021-05-07T13:39:31Z</time>
      </trkpt>
      <trkpt lat="47.71986" lon="5.07959">
        <ele>464.48</ele>
        <time>2021-05-07T13:39:40Z</time>
      </trkpt>
      <trkpt lat="47.7199" lon="5.07975">
        <ele>463.72</ele>
        <time>2021-05-07T13:39:48Z</time>
      </trkpt>
      <trkpt lat="47.71995" lon="5.07992">
        <ele>463.36</ele>
        <time>2021-05-07T13:39:57Z</time>
      </trkpt>
      <trkpt lat="47.72" lon="5.08009">
        <ele>463.32</ele>
        <time>2021-05-07T13:40:07Z</time>
      </trkpt>
      <trkpt lat="47.72005" lon="5.08025">
        <ele>464.85</ele>
        <time>2021-05-07T13:40:16Z</time>
      </trkpt>
      <trkpt lat="47.7201" lon="5.08041">
        <ele>465.02</ele>
        <time>2021-05-07T13:40:25Z</time>
      </trkpt>
      <trkpt lat="47.72017" lon="5.08057">
        <ele>465.69</ele>
        <time>2021-05-07T13:40:34Z</time>
      </trkpt>
      <trkpt lat="47.72022" lon="5.08071">
        <ele>466.87</ele>
        <time>2021-05-07T13:40:41Z</time>
      </trkpt>
      <trkpt lat="47.72026" lon="5.08081">
        <ele>467.67</ele>
        <time>2021-05-07T13:40:45Z</time>
      </trkpt>
      <trkpt lat="47.72029" lon="5.08088">
        <ele>468</ele>
        <time>2021-05-07T13:40:49Z</time>
      </trkpt>
      <trkpt lat="47.72032" lon="5.08096">
        <ele>468.08</ele>
        <time>2021-05-07T13:40:54Z</time>
      </trkpt>
      <trkpt lat="47.72037" lon="5.08103">
        <ele>468.38</ele>
        <time>2021-05-07T13:41:00Z</time>
      </trkpt>
      <trkpt lat="47.72041" lon="5.08111">
        <ele>468.43</ele>
        <time>2021-05-07T13:41:06Z</time>
      </trkpt>
      <trkpt lat="47.72045" lon="5.08118">
        <ele>468.12</ele>
        <time>2021-05-07T13:41:11Z</time>
      </trkpt>
      <trkpt lat="47.72048" lon="5.08126">
        <ele>467.58</ele>
        <time>2021-05-07T13:41:16Z</time>
      </trkpt>
      <trkpt lat="47.72052" lon="5.08133">
        <ele>467.25</ele>
        <time>2021-05-07T13:41:21Z</time>
      </trkpt>
      <trkpt lat="47.72056" lon="5.08141">
        <ele>467.08</ele>
        <time>2021-05-07T13:41:26Z</time>
      </trkpt>
      <trkpt lat="47.7206" lon="5.08148">
        <ele>467.7</ele>
        <time>2021-05-07T13:41:31Z</time>
      </trkpt>
      <trkpt lat="47.72064" lon="5.08156">
        <ele>468.15</ele>
        <time>2021-05-07T13:41:36Z</time>
      </trkpt>
      <trkpt lat="47.72068" lon="5.08162">
        <ele>468.49</ele>
        <time>2021-05-07T13:41:40Z</time>
      </trkpt>
      <trkpt lat="47.72072" lon="5.0817">
        <ele>468.42</ele>
        <time>2021-05-07T13:41:45Z</time>
      </trkpt>
      <trkpt lat="47.72076" lon="5.08178">
        <ele>467.98</ele>
        <time>2021-05-07T13:41:50Z</time>
      </trkpt>
      <trkpt lat="47.7208" lon="5.08186">
        <ele>467.55</ele>
        <time>2021-05-07T13:41:55Z</time>
      </trkpt>
      <trkpt lat="47.72084" lon="5.08194">
        <ele>467.12</ele>
        <time>2021-05-07T13:42:00Z</time>
      </trkpt>
      <trkpt lat="47.72091" lon="5.08209">
        <ele>466.26</ele>
        <time>2021-05-07T13:42:11Z</time>
      </trkpt>
      <trkpt lat="47.72096" lon="5.08219">
        <ele>465.72</ele>
        <time>2021-05-07T13:42:16Z</time>
      </trkpt>
      <trkpt lat="47.72106" lon="5.08232">
        <ele>466.16</ele>
        <time>2021-05-07T13:42:26Z</time>
      </trkpt>
      <trkpt lat="47.72114" lon="5.08244">
        <ele>466.61</ele>
        <time>2021-05-07T13:42:35Z</time>
      </trkpt>
      <trkpt lat="47.72123" lon="5.08257">
        <ele>467.39</ele>
        <time>2021-05-07T13:42:44Z</time>
      </trkpt>
      <trkpt lat="47.72131" lon="5.0827">
        <ele>467.32</ele>
        <time>2021-05-07T13:42:54Z</time>
      </trkpt>
      <trkpt lat="47.72132" lon="5.08279">
        <ele>466.73</ele>
        <time>2021-05-07T13:44:52Z</time>
      </trkpt>
      <trkpt lat="47.72132" lon="5.08297">
        <ele>466.4</ele>
        <time>2021-05-07T13:45:55Z</time>
      </trkpt>
      <trkpt lat="47.72138" lon="5.08304">
        <ele>466.08</ele>
        <time>2021-05-07T13:46:26Z</time>
      </trkpt>
      <trkpt lat="47.72142" lon="5.0831">
        <ele>466.39</ele>
        <time>2021-05-07T13:46:31Z</time>
      </trkpt>
      <trkpt lat="47.72147" lon="5.08318">
        <ele>466.78</ele>
        <time>2021-05-07T13:46:36Z</time>
      </trkpt>
      <trkpt lat="47.72151" lon="5.08325">
        <ele>466.83</ele>
        <time>2021-05-07T13:46:43Z</time>
      </trkpt>
      <trkpt lat="47.72155" lon="5.08332">
        <ele>466.66</ele>
        <time>2021-05-07T13:46:47Z</time>
      </trkpt>
      <trkpt lat="47.72159" lon="5.08341">
        <ele>466.6</ele>
        <time>2021-05-07T13:46:52Z</time>
      </trkpt>
      <trkpt lat="47.72166" lon="5.08354">
        <ele>466.27</ele>
        <time>2021-05-07T13:47:01Z</time>
      </trkpt>
      <trkpt lat="47.72171" lon="5.08366">
        <ele>465.96</ele>
        <time>2021-05-07T13:47:05Z</time>
      </trkpt>
      <trkpt lat="47.72175" lon="5.08375">
        <ele>465.6</ele>
        <time>2021-05-07T13:47:09Z</time>
      </trkpt>
      <trkpt lat="47.72178" lon="5.08382">
        <ele>465.31</ele>
        <time>2021-05-07T13:47:13Z</time>
      </trkpt>
      <trkpt lat="47.72182" lon="5.08391">
        <ele>464.99</ele>
        <time>2021-05-07T13:47:18Z</time>
      </trkpt>
      <trkpt lat="47.72185" lon="5.08399">
        <ele>464.72</ele>
        <time>2021-05-07T13:47:23Z</time>
      </trkpt>
      <trkpt lat="47.72188" lon="5.08407">
        <ele>464.38</ele>
        <time>2021-05-07T13:47:28Z</time>
      </trkpt>
      <trkpt lat="47.7219" lon="5.08415">
        <ele>463.95</ele>
        <time>2021-05-07T13:47:33Z</time>
      </trkpt>
      <trkpt lat="47.72193" lon="5.08423">
        <ele>463.52</ele>
        <time>2021-05-07T13:47:38Z</time>
      </trkpt>
      <trkpt lat="47.72196" lon="5.08431">
        <ele>463.11</ele>
        <time>2021-05-07T13:47:43Z</time>
      </trkpt>
      <trkpt lat="47.72199" lon="5.08439">
        <ele>462.85</ele>
        <time>2021-05-07T13:47:48Z</time>
      </trkpt>
      <trkpt lat="47.72203" lon="5.08447">
        <ele>462.86</ele>
        <time>2021-05-07T13:47:53Z</time>
      </trkpt>
      <trkpt lat="47.72206" lon="5.08456">
        <ele>463.01</ele>
        <time>2021-05-07T13:47:58Z</time>
      </trkpt>
      <trkpt lat="47.72208" lon="5.08465">
        <ele>463.09</ele>
        <time>2021-05-07T13:48:03Z</time>
      </trkpt>
      <trkpt lat="47.7221" lon="5.08474">
        <ele>463.23</ele>
        <time>2021-05-07T13:48:08Z</time>
      </trkpt>
      <trkpt lat="47.72212" lon="5.08483">
        <ele>463.43</ele>
        <time>2021-05-07T13:48:13Z</time>
      </trkpt>
      <trkpt lat="47.72214" lon="5.08491">
        <ele>463.54</ele>
        <time>2021-05-07T13:48:18Z</time>
      </trkpt>
      <trkpt lat="47.72217" lon="5.085">
        <ele>463.62</ele>
        <time>2021-05-07T13:48:24Z</time>
      </trkpt>
      <trkpt lat="47.72218" lon="5.08511">
        <ele>463.08</ele>
        <time>2021-05-07T13:48:30Z</time>
      </trkpt>
      <trkpt lat="47.72219" lon="5.08521">
        <ele>462.52</ele>
        <time>2021-05-07T13:48:35Z</time>
      </trkpt>
      <trkpt lat="47.7222" lon="5.08529">
        <ele>462.05</ele>
        <time>2021-05-07T13:48:40Z</time>
      </trkpt>
      <trkpt lat="47.72221" lon="5.08538">
        <ele>461.72</ele>
        <time>2021-05-07T13:48:45Z</time>
      </trkpt>
      <trkpt lat="47.72224" lon="5.08546">
        <ele>461.73</ele>
        <time>2021-05-07T13:48:50Z</time>
      </trkpt>
      <trkpt lat="47.72226" lon="5.08556">
        <ele>461.67</ele>
        <time>2021-05-07T13:48:55Z</time>
      </trkpt>
      <trkpt lat="47.72228" lon="5.08566">
        <ele>461.65</ele>
        <time>2021-05-07T13:49:00Z</time>
      </trkpt>
      <trkpt lat="47.72229" lon="5.08575">
        <ele>461.37</ele>
        <time>2021-05-07T13:49:05Z</time>
      </trkpt>
      <trkpt lat="47.72232" lon="5.08592">
        <ele>461.2</ele>
        <time>2021-05-07T13:49:17Z</time>
      </trkpt>
      <trkpt lat="47.72235" lon="5.0861">
        <ele>461.52</ele>
        <time>2021-05-07T13:49:25Z</time>
      </trkpt>
      <trkpt lat="47.72237" lon="5.08628">
        <ele>465.4</ele>
        <time>2021-05-07T13:49:34Z</time>
      </trkpt>
      <trkpt lat="47.72239" lon="5.08646">
        <ele>468.41</ele>
        <time>2021-05-07T13:49:42Z</time>
      </trkpt>
      <trkpt lat="47.72241" lon="5.08665">
        <ele>469.83</ele>
        <time>2021-05-07T13:49:50Z</time>
      </trkpt>
      <trkpt lat="47.72244" lon="5.08683">
        <ele>470.7</ele>
        <time>2021-05-07T13:49:59Z</time>
      </trkpt>
      <trkpt lat="47.72246" lon="5.087">
        <ele>471.43</ele>
        <time>2021-05-07T13:50:08Z</time>
      </trkpt>
      <trkpt lat="47.72246" lon="5.08719">
        <ele>471.92</ele>
        <time>2021-05-07T13:50:18Z</time>
      </trkpt>
      <trkpt lat="47.72245" lon="5.08736">
        <ele>471.19</ele>
        <time>2021-05-07T13:50:28Z</time>
      </trkpt>
      <trkpt lat="47.72244" lon="5.08753">
        <ele>469.84</ele>
        <time>2021-05-07T13:50:39Z</time>
      </trkpt>
      <trkpt lat="47.72244" lon="5.08772">
        <ele>466.09</ele>
        <time>2021-05-07T13:50:49Z</time>
      </trkpt>
      <trkpt lat="47.72244" lon="5.0879">
        <ele>465.5</ele>
        <time>2021-05-07T13:50:59Z</time>
      </trkpt>
      <trkpt lat="47.72244" lon="5.08808">
        <ele>466.17</ele>
        <time>2021-05-07T13:51:09Z</time>
      </trkpt>
      <trkpt lat="47.72243" lon="5.08826">
        <ele>465.89</ele>
        <time>2021-05-07T13:51:19Z</time>
      </trkpt>
      <trkpt lat="47.72242" lon="5.08844">
        <ele>464.87</ele>
        <time>2021-05-07T13:51:28Z</time>
      </trkpt>
      <trkpt lat="47.7224" lon="5.08861">
        <ele>463.37</ele>
        <time>2021-05-07T13:51:37Z</time>
      </trkpt>
      <trkpt lat="47.72238" lon="5.08879">
        <ele>462.42</ele>
        <time>2021-05-07T13:51:48Z</time>
      </trkpt>
      <trkpt lat="47.72236" lon="5.08897">
        <ele>463.9</ele>
        <time>2021-05-07T13:51:56Z</time>
      </trkpt>
      <trkpt lat="47.72233" lon="5.08914">
        <ele>467.8</ele>
        <time>2021-05-07T13:52:05Z</time>
      </trkpt>
      <trkpt lat="47.7223" lon="5.08931">
        <ele>467.91</ele>
        <time>2021-05-07T13:52:14Z</time>
      </trkpt>
      <trkpt lat="47.72228" lon="5.08948">
        <ele>467.72</ele>
        <time>2021-05-07T13:52:23Z</time>
      </trkpt>
      <trkpt lat="47.72226" lon="5.08962">
        <ele>468.91</ele>
        <time>2021-05-07T13:52:28Z</time>
      </trkpt>
      <trkpt lat="47.72224" lon="5.08972">
        <ele>469.91</ele>
        <time>2021-05-07T13:52:32Z</time>
      </trkpt>
      <trkpt lat="47.72223" lon="5.08981">
        <ele>470.6</ele>
        <time>2021-05-07T13:52:36Z</time>
      </trkpt>
      <trkpt lat="47.72221" lon="5.08991">
        <ele>471.32</ele>
        <time>2021-05-07T13:52:41Z</time>
      </trkpt>
      <trkpt lat="47.7222" lon="5.09001">
        <ele>471.88</ele>
        <time>2021-05-07T13:52:46Z</time>
      </trkpt>
      <trkpt lat="47.72219" lon="5.09011">
        <ele>471.49</ele>
        <time>2021-05-07T13:52:51Z</time>
      </trkpt>
      <trkpt lat="47.72217" lon="5.09021">
        <ele>471.06</ele>
        <time>2021-05-07T13:52:57Z</time>
      </trkpt>
      <trkpt lat="47.72216" lon="5.0903">
        <ele>470.6</ele>
        <time>2021-05-07T13:53:02Z</time>
      </trkpt>
      <trkpt lat="47.72214" lon="5.0904">
        <ele>469.69</ele>
        <time>2021-05-07T13:53:07Z</time>
      </trkpt>
      <trkpt lat="47.72212" lon="5.0905">
        <ele>468.74</ele>
        <time>2021-05-07T13:53:12Z</time>
      </trkpt>
      <trkpt lat="47.7221" lon="5.0906">
        <ele>468.05</ele>
        <time>2021-05-07T13:53:17Z</time>
      </trkpt>
      <trkpt lat="47.72207" lon="5.09068">
        <ele>467.66</ele>
        <time>2021-05-07T13:53:22Z</time>
      </trkpt>
      <trkpt lat="47.72204" lon="5.09077">
        <ele>467.18</ele>
        <time>2021-05-07T13:53:27Z</time>
      </trkpt>
      <trkpt lat="47.72201" lon="5.09087">
        <ele>466.71</ele>
        <time>2021-05-07T13:53:32Z</time>
      </trkpt>
      <trkpt lat="47.72199" lon="5.09095">
        <ele>466.49</ele>
        <time>2021-05-07T13:53:36Z</time>
      </trkpt>
      <trkpt lat="47.72197" lon="5.09104">
        <ele>466.28</ele>
        <time>2021-05-07T13:53:41Z</time>
      </trkpt>
      <trkpt lat="47.72194" lon="5.09114">
        <ele>465.97</ele>
        <time>2021-05-07T13:53:46Z</time>
      </trkpt>
      <trkpt lat="47.72191" lon="5.09123">
        <ele>465.75</ele>
        <time>2021-05-07T13:53:51Z</time>
      </trkpt>
      <trkpt lat="47.7219" lon="5.09132">
        <ele>465.68</ele>
        <time>2021-05-07T13:53:55Z</time>
      </trkpt>
      <trkpt lat="47.72189" lon="5.09142">
        <ele>465.72</ele>
        <time>2021-05-07T13:54:00Z</time>
      </trkpt>
      <trkpt lat="47.72187" lon="5.09151">
        <ele>465.9</ele>
        <time>2021-05-07T13:54:05Z</time>
      </trkpt>
      <trkpt lat="47.72183" lon="5.09159">
        <ele>465.9</ele>
        <time>2021-05-07T13:54:10Z</time>
      </trkpt>
      <trkpt lat="47.7218" lon="5.09167">
        <ele>465.97</ele>
        <time>2021-05-07T13:54:15Z</time>
      </trkpt>
      <trkpt lat="47.72177" lon="5.09176">
        <ele>466.08</ele>
        <time>2021-05-07T13:54:20Z</time>
      </trkpt>
      <trkpt lat="47.72174" lon="5.09184">
        <ele>466.15</ele>
        <time>2021-05-07T13:54:25Z</time>
      </trkpt>
      <trkpt lat="47.72172" lon="5.09193">
        <ele>466.33</ele>
        <time>2021-05-07T13:54:30Z</time>
      </trkpt>
      <trkpt lat="47.72169" lon="5.09202">
        <ele>466.69</ele>
        <time>2021-05-07T13:54:35Z</time>
      </trkpt>
      <trkpt lat="47.72166" lon="5.0921">
        <ele>467.07</ele>
        <time>2021-05-07T13:54:41Z</time>
      </trkpt>
      <trkpt lat="47.72163" lon="5.09218">
        <ele>467.34</ele>
        <time>2021-05-07T13:54:44Z</time>
      </trkpt>
      <trkpt lat="47.72159" lon="5.09226">
        <ele>467.31</ele>
        <time>2021-05-07T13:54:49Z</time>
      </trkpt>
      <trkpt lat="47.72154" lon="5.09233">
        <ele>467.02</ele>
        <time>2021-05-07T13:54:54Z</time>
      </trkpt>
      <trkpt lat="47.72149" lon="5.0924">
        <ele>466.73</ele>
        <time>2021-05-07T13:54:59Z</time>
      </trkpt>
      <trkpt lat="47.72145" lon="5.09248">
        <ele>466.59</ele>
        <time>2021-05-07T13:55:04Z</time>
      </trkpt>
      <trkpt lat="47.7214" lon="5.09256">
        <ele>466.33</ele>
        <time>2021-05-07T13:55:09Z</time>
      </trkpt>
      <trkpt lat="47.72136" lon="5.09264">
        <ele>466.19</ele>
        <time>2021-05-07T13:55:14Z</time>
      </trkpt>
      <trkpt lat="47.72133" lon="5.09271">
        <ele>466.12</ele>
        <time>2021-05-07T13:55:19Z</time>
      </trkpt>
      <trkpt lat="47.72128" lon="5.09278">
        <ele>465.83</ele>
        <time>2021-05-07T13:55:24Z</time>
      </trkpt>
      <trkpt lat="47.72124" lon="5.09283">
        <ele>465.58</ele>
        <time>2021-05-07T13:55:31Z</time>
      </trkpt>
      <trkpt lat="47.72117" lon="5.09298">
        <ele>465.36</ele>
        <time>2021-05-07T13:57:28Z</time>
      </trkpt>
      <trkpt lat="47.7211" lon="5.09314">
        <ele>465.52</ele>
        <time>2021-05-07T13:57:37Z</time>
      </trkpt>
      <trkpt lat="47.72105" lon="5.09324">
        <ele>465.74</ele>
        <time>2021-05-07T13:57:42Z</time>
      </trkpt>
      <trkpt lat="47.72101" lon="5.09331">
        <ele>465.77</ele>
        <time>2021-05-07T13:57:47Z</time>
      </trkpt>
      <trkpt lat="47.72097" lon="5.09338">
        <ele>465.73</ele>
        <time>2021-05-07T13:57:53Z</time>
      </trkpt>
      <trkpt lat="47.72092" lon="5.09344">
        <ele>465.73</ele>
        <time>2021-05-07T13:57:59Z</time>
      </trkpt>
      <trkpt lat="47.72088" lon="5.09351">
        <ele>466.09</ele>
        <time>2021-05-07T13:58:06Z</time>
      </trkpt>
      <trkpt lat="47.72083" lon="5.09358">
        <ele>466.62</ele>
        <time>2021-05-07T13:58:10Z</time>
      </trkpt>
      <trkpt lat="47.72079" lon="5.09366">
        <ele>466.43</ele>
        <time>2021-05-07T13:58:15Z</time>
      </trkpt>
      <trkpt lat="47.72075" lon="5.09373">
        <ele>466.06</ele>
        <time>2021-05-07T13:58:20Z</time>
      </trkpt>
      <trkpt lat="47.72071" lon="5.0938">
        <ele>465.83</ele>
        <time>2021-05-07T13:58:25Z</time>
      </trkpt>
      <trkpt lat="47.72068" lon="5.09386">
        <ele>465.78</ele>
        <time>2021-05-07T13:58:29Z</time>
      </trkpt>
      <trkpt lat="47.72064" lon="5.09394">
        <ele>466.1</ele>
        <time>2021-05-07T13:58:32Z</time>
      </trkpt>
      <trkpt lat="47.72062" lon="5.09398">
        <ele>466.37</ele>
        <time>2021-05-07T13:58:34Z</time>
      </trkpt>
      <trkpt lat="47.7206" lon="5.09401">
        <ele>466.56</ele>
        <time>2021-05-07T13:58:36Z</time>
      </trkpt>
      <trkpt lat="47.72058" lon="5.09404">
        <ele>466.76</ele>
        <time>2021-05-07T13:58:38Z</time>
      </trkpt>
      <trkpt lat="47.72055" lon="5.09408">
        <ele>467</ele>
        <time>2021-05-07T13:58:41Z</time>
      </trkpt>
      <trkpt lat="47.72054" lon="5.09411">
        <ele>467.22</ele>
        <time>2021-05-07T13:58:43Z</time>
      </trkpt>
      <trkpt lat="47.72052" lon="5.09415">
        <ele>467.44</ele>
        <time>2021-05-07T13:58:45Z</time>
      </trkpt>
      <trkpt lat="47.7205" lon="5.09419">
        <ele>467.58</ele>
        <time>2021-05-07T13:58:47Z</time>
      </trkpt>
      <trkpt lat="47.72049" lon="5.09422">
        <ele>467.72</ele>
        <time>2021-05-07T13:58:49Z</time>
      </trkpt>
      <trkpt lat="47.72046" lon="5.09426">
        <ele>467.76</ele>
        <time>2021-05-07T13:58:52Z</time>
      </trkpt>
      <trkpt lat="47.72044" lon="5.09429">
        <ele>467.82</ele>
        <time>2021-05-07T13:58:54Z</time>
      </trkpt>
      <trkpt lat="47.72042" lon="5.09432">
        <ele>467.91</ele>
        <time>2021-05-07T13:58:56Z</time>
      </trkpt>
      <trkpt lat="47.7204" lon="5.09436">
        <ele>468.1</ele>
        <time>2021-05-07T13:58:59Z</time>
      </trkpt>
      <trkpt lat="47.72037" lon="5.09438">
        <ele>468.05</ele>
        <time>2021-05-07T13:59:28Z</time>
      </trkpt>
      <trkpt lat="47.72036" lon="5.09441">
        <ele>468.26</ele>
        <time>2021-05-07T13:59:32Z</time>
      </trkpt>
      <trkpt lat="47.72034" lon="5.09446">
        <ele>468.55</ele>
        <time>2021-05-07T13:59:35Z</time>
      </trkpt>
      <trkpt lat="47.72032" lon="5.0945">
        <ele>468.67</ele>
        <time>2021-05-07T13:59:37Z</time>
      </trkpt>
      <trkpt lat="47.72029" lon="5.09453">
        <ele>468.69</ele>
        <time>2021-05-07T13:59:39Z</time>
      </trkpt>
      <trkpt lat="47.72026" lon="5.09457">
        <ele>468.88</ele>
        <time>2021-05-07T13:59:42Z</time>
      </trkpt>
      <trkpt lat="47.72024" lon="5.09461">
        <ele>469.11</ele>
        <time>2021-05-07T13:59:45Z</time>
      </trkpt>
      <trkpt lat="47.72022" lon="5.09465">
        <ele>469.33</ele>
        <time>2021-05-07T13:59:48Z</time>
      </trkpt>
      <trkpt lat="47.7202" lon="5.09469">
        <ele>469.52</ele>
        <time>2021-05-07T13:59:51Z</time>
      </trkpt>
      <trkpt lat="47.72018" lon="5.09474">
        <ele>469.82</ele>
        <time>2021-05-07T13:59:54Z</time>
      </trkpt>
      <trkpt lat="47.72016" lon="5.09477">
        <ele>470.02</ele>
        <time>2021-05-07T13:59:56Z</time>
      </trkpt>
      <trkpt lat="47.72013" lon="5.0948">
        <ele>470.16</ele>
        <time>2021-05-07T13:59:58Z</time>
      </trkpt>
      <trkpt lat="47.72011" lon="5.09482">
        <ele>470.24</ele>
        <time>2021-05-07T14:00:00Z</time>
      </trkpt>
      <trkpt lat="47.72008" lon="5.09485">
        <ele>470.34</ele>
        <time>2021-05-07T14:00:03Z</time>
      </trkpt>
      <trkpt lat="47.72005" lon="5.09488">
        <ele>470.42</ele>
        <time>2021-05-07T14:00:06Z</time>
      </trkpt>
      <trkpt lat="47.72002" lon="5.09492">
        <ele>470.55</ele>
        <time>2021-05-07T14:00:09Z</time>
      </trkpt>
      <trkpt lat="47.72" lon="5.09495">
        <ele>470.64</ele>
        <time>2021-05-07T14:00:11Z</time>
      </trkpt>
      <trkpt lat="47.71997" lon="5.09499">
        <ele>470.82</ele>
        <time>2021-05-07T14:00:14Z</time>
      </trkpt>
      <trkpt lat="47.71995" lon="5.09503">
        <ele>470.94</ele>
        <time>2021-05-07T14:00:17Z</time>
      </trkpt>
      <trkpt lat="47.71993" lon="5.09507">
        <ele>470.93</ele>
        <time>2021-05-07T14:00:20Z</time>
      </trkpt>
      <trkpt lat="47.71991" lon="5.09512">
        <ele>470.84</ele>
        <time>2021-05-07T14:00:23Z</time>
      </trkpt>
      <trkpt lat="47.71988" lon="5.09517">
        <ele>470.47</ele>
        <time>2021-05-07T14:00:26Z</time>
      </trkpt>
      <trkpt lat="47.71986" lon="5.09521">
        <ele>470.1</ele>
        <time>2021-05-07T14:00:29Z</time>
      </trkpt>
      <trkpt lat="47.71984" lon="5.09525">
        <ele>469.63</ele>
        <time>2021-05-07T14:00:32Z</time>
      </trkpt>
      <trkpt lat="47.71982" lon="5.0953">
        <ele>469.22</ele>
        <time>2021-05-07T14:00:35Z</time>
      </trkpt>
      <trkpt lat="47.7198" lon="5.09535">
        <ele>469.05</ele>
        <time>2021-05-07T14:00:38Z</time>
      </trkpt>
      <trkpt lat="47.71978" lon="5.09539">
        <ele>468.89</ele>
        <time>2021-05-07T14:00:41Z</time>
      </trkpt>
      <trkpt lat="47.71977" lon="5.09544">
        <ele>469</ele>
        <time>2021-05-07T14:00:44Z</time>
      </trkpt>
      <trkpt lat="47.71974" lon="5.09548">
        <ele>468.75</ele>
        <time>2021-05-07T14:00:47Z</time>
      </trkpt>
      <trkpt lat="47.71972" lon="5.0955">
        <ele>468.58</ele>
        <time>2021-05-07T14:00:49Z</time>
      </trkpt>
      <trkpt lat="47.7197" lon="5.09554">
        <ele>468.67</ele>
        <time>2021-05-07T14:00:51Z</time>
      </trkpt>
      <trkpt lat="47.71968" lon="5.09558">
        <ele>468.63</ele>
        <time>2021-05-07T14:00:53Z</time>
      </trkpt>
      <trkpt lat="47.71966" lon="5.09562">
        <ele>468.56</ele>
        <time>2021-05-07T14:00:55Z</time>
      </trkpt>
      <trkpt lat="47.71963" lon="5.09565">
        <ele>468.34</ele>
        <time>2021-05-07T14:00:57Z</time>
      </trkpt>
      <trkpt lat="47.71961" lon="5.09569">
        <ele>468.27</ele>
        <time>2021-05-07T14:01:00Z</time>
      </trkpt>
      <trkpt lat="47.71959" lon="5.09573">
        <ele>468.2</ele>
        <time>2021-05-07T14:01:03Z</time>
      </trkpt>
      <trkpt lat="47.71957" lon="5.09577">
        <ele>468.13</ele>
        <time>2021-05-07T14:01:05Z</time>
      </trkpt>
      <trkpt lat="47.71955" lon="5.0958">
        <ele>468.02</ele>
        <time>2021-05-07T14:01:07Z</time>
      </trkpt>
      <trkpt lat="47.71953" lon="5.09583">
        <ele>467.91</ele>
        <time>2021-05-07T14:01:10Z</time>
      </trkpt>
      <trkpt lat="47.71951" lon="5.09586">
        <ele>467.97</ele>
        <time>2021-05-07T14:01:13Z</time>
      </trkpt>
      <trkpt lat="47.71948" lon="5.0959">
        <ele>468.07</ele>
        <time>2021-05-07T14:01:16Z</time>
      </trkpt>
      <trkpt lat="47.71946" lon="5.09593">
        <ele>468.19</ele>
        <time>2021-05-07T14:01:18Z</time>
      </trkpt>
      <trkpt lat="47.71944" lon="5.09596">
        <ele>468.35</ele>
        <time>2021-05-07T14:01:20Z</time>
      </trkpt>
      <trkpt lat="47.71942" lon="5.09599">
        <ele>468.59</ele>
        <time>2021-05-07T14:01:22Z</time>
      </trkpt>
      <trkpt lat="47.71939" lon="5.09603">
        <ele>468.85</ele>
        <time>2021-05-07T14:01:25Z</time>
      </trkpt>
      <trkpt lat="47.71937" lon="5.09608">
        <ele>469.19</ele>
        <time>2021-05-07T14:01:28Z</time>
      </trkpt>
      <trkpt lat="47.71935" lon="5.09613">
        <ele>469.34</ele>
        <time>2021-05-07T14:01:31Z</time>
      </trkpt>
      <trkpt lat="47.71934" lon="5.09617">
        <ele>469.33</ele>
        <time>2021-05-07T14:01:33Z</time>
      </trkpt>
      <trkpt lat="47.71932" lon="5.09621">
        <ele>469.26</ele>
        <time>2021-05-07T14:01:36Z</time>
      </trkpt>
      <trkpt lat="47.71929" lon="5.09624">
        <ele>469.15</ele>
        <time>2021-05-07T14:01:39Z</time>
      </trkpt>
      <trkpt lat="47.71927" lon="5.09627">
        <ele>469.1</ele>
        <time>2021-05-07T14:01:41Z</time>
      </trkpt>
      <trkpt lat="47.71924" lon="5.09629">
        <ele>469</ele>
        <time>2021-05-07T14:01:43Z</time>
      </trkpt>
      <trkpt lat="47.71922" lon="5.09632">
        <ele>468.99</ele>
        <time>2021-05-07T14:01:45Z</time>
      </trkpt>
      <trkpt lat="47.7192" lon="5.09636">
        <ele>469.03</ele>
        <time>2021-05-07T14:01:47Z</time>
      </trkpt>
      <trkpt lat="47.71918" lon="5.09641">
        <ele>469.19</ele>
        <time>2021-05-07T14:01:51Z</time>
      </trkpt>
      <trkpt lat="47.71917" lon="5.09645">
        <ele>469.45</ele>
        <time>2021-05-07T14:01:52Z</time>
      </trkpt>
      <trkpt lat="47.71915" lon="5.0965">
        <ele>469.87</ele>
        <time>2021-05-07T14:01:55Z</time>
      </trkpt>
      <trkpt lat="47.71912" lon="5.09654">
        <ele>470.24</ele>
        <time>2021-05-07T14:01:58Z</time>
      </trkpt>
      <trkpt lat="47.71911" lon="5.09657">
        <ele>470.45</ele>
        <time>2021-05-07T14:02:00Z</time>
      </trkpt>
      <trkpt lat="47.71909" lon="5.09661">
        <ele>470.7</ele>
        <time>2021-05-07T14:02:02Z</time>
      </trkpt>
      <trkpt lat="47.71907" lon="5.09663">
        <ele>470.83</ele>
        <time>2021-05-07T14:02:04Z</time>
      </trkpt>
      <trkpt lat="47.71904" lon="5.09667">
        <ele>471</ele>
        <time>2021-05-07T14:02:07Z</time>
      </trkpt>
      <trkpt lat="47.71901" lon="5.09671">
        <ele>470.89</ele>
        <time>2021-05-07T14:02:10Z</time>
      </trkpt>
      <trkpt lat="47.71899" lon="5.09674">
        <ele>470.76</ele>
        <time>2021-05-07T14:02:12Z</time>
      </trkpt>
      <trkpt lat="47.71897" lon="5.09677">
        <ele>470.58</ele>
        <time>2021-05-07T14:02:14Z</time>
      </trkpt>
      <trkpt lat="47.71894" lon="5.09681">
        <ele>470.25</ele>
        <time>2021-05-07T14:02:17Z</time>
      </trkpt>
      <trkpt lat="47.71892" lon="5.09685">
        <ele>469.9</ele>
        <time>2021-05-07T14:02:20Z</time>
      </trkpt>
      <trkpt lat="47.7189" lon="5.09689">
        <ele>469.49</ele>
        <time>2021-05-07T14:02:22Z</time>
      </trkpt>
      <trkpt lat="47.71888" lon="5.09693">
        <ele>469.19</ele>
        <time>2021-05-07T14:02:25Z</time>
      </trkpt>
      <trkpt lat="47.71886" lon="5.09698">
        <ele>469.43</ele>
        <time>2021-05-07T14:02:28Z</time>
      </trkpt>
      <trkpt lat="47.71883" lon="5.097">
        <ele>469.79</ele>
        <time>2021-05-07T14:02:30Z</time>
      </trkpt>
      <trkpt lat="47.71881" lon="5.09703">
        <ele>470.07</ele>
        <time>2021-05-07T14:02:32Z</time>
      </trkpt>
      <trkpt lat="47.71879" lon="5.09706">
        <ele>470.34</ele>
        <time>2021-05-07T14:02:34Z</time>
      </trkpt>
      <trkpt lat="47.71877" lon="5.09708">
        <ele>470.56</ele>
        <time>2021-05-07T14:02:36Z</time>
      </trkpt>
      <trkpt lat="47.71875" lon="5.09711">
        <ele>470.8</ele>
        <time>2021-05-07T14:02:38Z</time>
      </trkpt>
      <trkpt lat="47.71873" lon="5.09715">
        <ele>471.03</ele>
        <time>2021-05-07T14:02:40Z</time>
      </trkpt>
      <trkpt lat="47.71871" lon="5.09719">
        <ele>471.25</ele>
        <time>2021-05-07T14:02:42Z</time>
      </trkpt>
      <trkpt lat="47.71869" lon="5.09722">
        <ele>471.43</ele>
        <time>2021-05-07T14:02:44Z</time>
      </trkpt>
      <trkpt lat="47.71866" lon="5.09725">
        <ele>471.58</ele>
        <time>2021-05-07T14:02:47Z</time>
      </trkpt>
      <trkpt lat="47.71863" lon="5.0973">
        <ele>471.62</ele>
        <time>2021-05-07T14:02:51Z</time>
      </trkpt>
      <trkpt lat="47.71861" lon="5.09734">
        <ele>471.58</ele>
        <time>2021-05-07T14:02:54Z</time>
      </trkpt>
      <trkpt lat="47.71859" lon="5.09738">
        <ele>471.46</ele>
        <time>2021-05-07T14:02:57Z</time>
      </trkpt>
      <trkpt lat="47.71856" lon="5.09741">
        <ele>471.38</ele>
        <time>2021-05-07T14:03:00Z</time>
      </trkpt>
      <trkpt lat="47.71853" lon="5.09746">
        <ele>471.19</ele>
        <time>2021-05-07T14:03:03Z</time>
      </trkpt>
      <trkpt lat="47.71851" lon="5.0975">
        <ele>471</ele>
        <time>2021-05-07T14:03:06Z</time>
      </trkpt>
      <trkpt lat="47.71849" lon="5.09754">
        <ele>470.92</ele>
        <time>2021-05-07T14:03:08Z</time>
      </trkpt>
      <trkpt lat="47.71847" lon="5.09757">
        <ele>470.88</ele>
        <time>2021-05-07T14:03:10Z</time>
      </trkpt>
      <trkpt lat="47.71845" lon="5.0976">
        <ele>470.85</ele>
        <time>2021-05-07T14:03:12Z</time>
      </trkpt>
      <trkpt lat="47.71843" lon="5.09764">
        <ele>470.82</ele>
        <time>2021-05-07T14:03:15Z</time>
      </trkpt>
      <trkpt lat="47.7184" lon="5.09768">
        <ele>470.84</ele>
        <time>2021-05-07T14:03:18Z</time>
      </trkpt>
      <trkpt lat="47.71838" lon="5.09772">
        <ele>470.87</ele>
        <time>2021-05-07T14:03:21Z</time>
      </trkpt>
      <trkpt lat="47.71836" lon="5.09777">
        <ele>470.91</ele>
        <time>2021-05-07T14:03:24Z</time>
      </trkpt>
      <trkpt lat="47.71834" lon="5.0978">
        <ele>470.82</ele>
        <time>2021-05-07T14:03:26Z</time>
      </trkpt>
      <trkpt lat="47.71832" lon="5.09783">
        <ele>470.51</ele>
        <time>2021-05-07T14:03:28Z</time>
      </trkpt>
      <trkpt lat="47.7183" lon="5.09786">
        <ele>470.15</ele>
        <time>2021-05-07T14:03:30Z</time>
      </trkpt>
      <trkpt lat="47.71828" lon="5.0979">
        <ele>469.8</ele>
        <time>2021-05-07T14:03:32Z</time>
      </trkpt>
      <trkpt lat="47.71826" lon="5.09794">
        <ele>469.5</ele>
        <time>2021-05-07T14:03:34Z</time>
      </trkpt>
      <trkpt lat="47.71824" lon="5.09797">
        <ele>469.31</ele>
        <time>2021-05-07T14:03:36Z</time>
      </trkpt>
      <trkpt lat="47.71821" lon="5.09802">
        <ele>469.09</ele>
        <time>2021-05-07T14:03:39Z</time>
      </trkpt>
      <trkpt lat="47.71819" lon="5.09806">
        <ele>469.02</ele>
        <time>2021-05-07T14:03:42Z</time>
      </trkpt>
      <trkpt lat="47.71817" lon="5.09809">
        <ele>469.2</ele>
        <time>2021-05-07T14:03:44Z</time>
      </trkpt>
      <trkpt lat="47.71815" lon="5.09813">
        <ele>469.44</ele>
        <time>2021-05-07T14:03:46Z</time>
      </trkpt>
      <trkpt lat="47.71813" lon="5.09818">
        <ele>469.78</ele>
        <time>2021-05-07T14:03:49Z</time>
      </trkpt>
      <trkpt lat="47.71811" lon="5.09822">
        <ele>470.07</ele>
        <time>2021-05-07T14:03:52Z</time>
      </trkpt>
      <trkpt lat="47.71808" lon="5.09825">
        <ele>470.34</ele>
        <time>2021-05-07T14:03:55Z</time>
      </trkpt>
      <trkpt lat="47.71805" lon="5.09829">
        <ele>470.6</ele>
        <time>2021-05-07T14:03:58Z</time>
      </trkpt>
      <trkpt lat="47.71802" lon="5.09833">
        <ele>470.34</ele>
        <time>2021-05-07T14:04:01Z</time>
      </trkpt>
      <trkpt lat="47.71799" lon="5.09837">
        <ele>469.62</ele>
        <time>2021-05-07T14:04:04Z</time>
      </trkpt>
      <trkpt lat="47.71797" lon="5.09841">
        <ele>469.08</ele>
        <time>2021-05-07T14:04:07Z</time>
      </trkpt>
      <trkpt lat="47.71794" lon="5.09846">
        <ele>468.39</ele>
        <time>2021-05-07T14:04:10Z</time>
      </trkpt>
      <trkpt lat="47.71792" lon="5.0985">
        <ele>467.95</ele>
        <time>2021-05-07T14:04:12Z</time>
      </trkpt>
      <trkpt lat="47.71791" lon="5.09854">
        <ele>467.67</ele>
        <time>2021-05-07T14:04:14Z</time>
      </trkpt>
      <trkpt lat="47.71789" lon="5.09858">
        <ele>467.3</ele>
        <time>2021-05-07T14:04:16Z</time>
      </trkpt>
      <trkpt lat="47.71787" lon="5.09862">
        <ele>467</ele>
        <time>2021-05-07T14:04:18Z</time>
      </trkpt>
      <trkpt lat="47.71785" lon="5.09867">
        <ele>466.78</ele>
        <time>2021-05-07T14:04:21Z</time>
      </trkpt>
      <trkpt lat="47.71783" lon="5.09871">
        <ele>466.56</ele>
        <time>2021-05-07T14:04:24Z</time>
      </trkpt>
      <trkpt lat="47.7178" lon="5.09875">
        <ele>466.24</ele>
        <time>2021-05-07T14:04:27Z</time>
      </trkpt>
      <trkpt lat="47.71777" lon="5.09878">
        <ele>466.11</ele>
        <time>2021-05-07T14:04:30Z</time>
      </trkpt>
      <trkpt lat="47.71775" lon="5.09882">
        <ele>466.4</ele>
        <time>2021-05-07T14:04:33Z</time>
      </trkpt>
      <trkpt lat="47.71772" lon="5.09886">
        <ele>466.83</ele>
        <time>2021-05-07T14:04:36Z</time>
      </trkpt>
      <trkpt lat="47.7177" lon="5.0989">
        <ele>467.15</ele>
        <time>2021-05-07T14:04:39Z</time>
      </trkpt>
      <trkpt lat="47.71767" lon="5.09893">
        <ele>467.64</ele>
        <time>2021-05-07T14:04:42Z</time>
      </trkpt>
      <trkpt lat="47.71765" lon="5.09897">
        <ele>468</ele>
        <time>2021-05-07T14:04:44Z</time>
      </trkpt>
      <trkpt lat="47.71763" lon="5.09901">
        <ele>468.33</ele>
        <time>2021-05-07T14:04:46Z</time>
      </trkpt>
      <trkpt lat="47.71761" lon="5.09905">
        <ele>468.65</ele>
        <time>2021-05-07T14:04:48Z</time>
      </trkpt>
      <trkpt lat="47.71759" lon="5.09909">
        <ele>468.94</ele>
        <time>2021-05-07T14:04:50Z</time>
      </trkpt>
      <trkpt lat="47.71757" lon="5.09913">
        <ele>469.21</ele>
        <time>2021-05-07T14:04:52Z</time>
      </trkpt>
      <trkpt lat="47.71755" lon="5.09918">
        <ele>469.45</ele>
        <time>2021-05-07T14:04:55Z</time>
      </trkpt>
      <trkpt lat="47.71754" lon="5.09922">
        <ele>469.49</ele>
        <time>2021-05-07T14:04:58Z</time>
      </trkpt>
      <trkpt lat="47.71752" lon="5.09927">
        <ele>469.52</ele>
        <time>2021-05-07T14:05:01Z</time>
      </trkpt>
      <trkpt lat="47.71749" lon="5.09931">
        <ele>469.55</ele>
        <time>2021-05-07T14:05:04Z</time>
      </trkpt>
      <trkpt lat="47.71747" lon="5.09935">
        <ele>469.52</ele>
        <time>2021-05-07T14:05:07Z</time>
      </trkpt>
      <trkpt lat="47.71744" lon="5.0994">
        <ele>469.45</ele>
        <time>2021-05-07T14:05:10Z</time>
      </trkpt>
      <trkpt lat="47.71742" lon="5.09942">
        <ele>469.43</ele>
        <time>2021-05-07T14:05:12Z</time>
      </trkpt>
      <trkpt lat="47.71739" lon="5.09945">
        <ele>469.39</ele>
        <time>2021-05-07T14:05:14Z</time>
      </trkpt>
      <trkpt lat="47.71737" lon="5.09948">
        <ele>469.41</ele>
        <time>2021-05-07T14:05:16Z</time>
      </trkpt>
      <trkpt lat="47.71735" lon="5.09951">
        <ele>469.41</ele>
        <time>2021-05-07T14:05:18Z</time>
      </trkpt>
      <trkpt lat="47.71732" lon="5.09955">
        <ele>469.4</ele>
        <time>2021-05-07T14:05:21Z</time>
      </trkpt>
      <trkpt lat="47.7173" lon="5.09958">
        <ele>469.37</ele>
        <time>2021-05-07T14:05:24Z</time>
      </trkpt>
      <trkpt lat="47.71727" lon="5.09963">
        <ele>469.27</ele>
        <time>2021-05-07T14:05:27Z</time>
      </trkpt>
      <trkpt lat="47.71726" lon="5.09966">
        <ele>469.19</ele>
        <time>2021-05-07T14:05:29Z</time>
      </trkpt>
      <trkpt lat="47.71724" lon="5.0997">
        <ele>469.07</ele>
        <time>2021-05-07T14:05:31Z</time>
      </trkpt>
      <trkpt lat="47.71722" lon="5.09973">
        <ele>469.02</ele>
        <time>2021-05-07T14:05:33Z</time>
      </trkpt>
      <trkpt lat="47.7172" lon="5.09977">
        <ele>469.24</ele>
        <time>2021-05-07T14:05:36Z</time>
      </trkpt>
      <trkpt lat="47.71717" lon="5.09982">
        <ele>469.56</ele>
        <time>2021-05-07T14:05:39Z</time>
      </trkpt>
      <trkpt lat="47.71715" lon="5.09986">
        <ele>469.78</ele>
        <time>2021-05-07T14:05:42Z</time>
      </trkpt>
      <trkpt lat="47.71712" lon="5.0999">
        <ele>470.1</ele>
        <time>2021-05-07T14:05:45Z</time>
      </trkpt>
      <trkpt lat="47.7171" lon="5.09993">
        <ele>470.32</ele>
        <time>2021-05-07T14:05:47Z</time>
      </trkpt>
      <trkpt lat="47.71708" lon="5.09996">
        <ele>470.54</ele>
        <time>2021-05-07T14:05:49Z</time>
      </trkpt>
      <trkpt lat="47.71705" lon="5.10001">
        <ele>470.97</ele>
        <time>2021-05-07T14:05:52Z</time>
      </trkpt>
      <trkpt lat="47.71704" lon="5.10006">
        <ele>471.62</ele>
        <time>2021-05-07T14:05:54Z</time>
      </trkpt>
      <trkpt lat="47.71702" lon="5.10011">
        <ele>472.37</ele>
        <time>2021-05-07T14:05:56Z</time>
      </trkpt>
      <trkpt lat="47.717" lon="5.10015">
        <ele>473.02</ele>
        <time>2021-05-07T14:05:58Z</time>
      </trkpt>
      <trkpt lat="47.71698" lon="5.10019">
        <ele>473.67</ele>
        <time>2021-05-07T14:06:00Z</time>
      </trkpt>
      <trkpt lat="47.71696" lon="5.10023">
        <ele>474.32</ele>
        <time>2021-05-07T14:06:02Z</time>
      </trkpt>
      <trkpt lat="47.71695" lon="5.10026">
        <ele>474.75</ele>
        <time>2021-05-07T14:06:04Z</time>
      </trkpt>
      <trkpt lat="47.71694" lon="5.10029">
        <ele>475.07</ele>
        <time>2021-05-07T14:06:06Z</time>
      </trkpt>
      <trkpt lat="47.71691" lon="5.10034">
        <ele>475.56</ele>
        <time>2021-05-07T14:06:09Z</time>
      </trkpt>
      <trkpt lat="47.71689" lon="5.10037">
        <ele>475.84</ele>
        <time>2021-05-07T14:06:11Z</time>
      </trkpt>
      <trkpt lat="47.71687" lon="5.10039">
        <ele>476.15</ele>
        <time>2021-05-07T14:06:13Z</time>
      </trkpt>
      <trkpt lat="47.71685" lon="5.10042">
        <ele>476.35</ele>
        <time>2021-05-07T14:06:15Z</time>
      </trkpt>
      <trkpt lat="47.71683" lon="5.10045">
        <ele>476.5</ele>
        <time>2021-05-07T14:06:17Z</time>
      </trkpt>
      <trkpt lat="47.71681" lon="5.10048">
        <ele>476.6</ele>
        <time>2021-05-07T14:06:19Z</time>
      </trkpt>
      <trkpt lat="47.71678" lon="5.10052">
        <ele>476.72</ele>
        <time>2021-05-07T14:06:22Z</time>
      </trkpt>
      <trkpt lat="47.71675" lon="5.10056">
        <ele>476.73</ele>
        <time>2021-05-07T14:06:25Z</time>
      </trkpt>
      <trkpt lat="47.71673" lon="5.10059">
        <ele>476.49</ele>
        <time>2021-05-07T14:06:28Z</time>
      </trkpt>
      <trkpt lat="47.71671" lon="5.10062">
        <ele>476.16</ele>
        <time>2021-05-07T14:06:31Z</time>
      </trkpt>
      <trkpt lat="47.71669" lon="5.10065">
        <ele>475.77</ele>
        <time>2021-05-07T14:06:33Z</time>
      </trkpt>
      <trkpt lat="47.71666" lon="5.10068">
        <ele>475.27</ele>
        <time>2021-05-07T14:06:35Z</time>
      </trkpt>
      <trkpt lat="47.71663" lon="5.10071">
        <ele>474.49</ele>
        <time>2021-05-07T14:06:38Z</time>
      </trkpt>
      <trkpt lat="47.7166" lon="5.10075">
        <ele>473.58</ele>
        <time>2021-05-07T14:06:41Z</time>
      </trkpt>
      <trkpt lat="47.71658" lon="5.10077">
        <ele>473.15</ele>
        <time>2021-05-07T14:06:43Z</time>
      </trkpt>
      <trkpt lat="47.71656" lon="5.1008">
        <ele>472.58</ele>
        <time>2021-05-07T14:06:45Z</time>
      </trkpt>
      <trkpt lat="47.71654" lon="5.10083">
        <ele>472.06</ele>
        <time>2021-05-07T14:06:47Z</time>
      </trkpt>
      <trkpt lat="47.71651" lon="5.10087">
        <ele>471.87</ele>
        <time>2021-05-07T14:06:50Z</time>
      </trkpt>
      <trkpt lat="47.71649" lon="5.1009">
        <ele>471.76</ele>
        <time>2021-05-07T14:06:52Z</time>
      </trkpt>
      <trkpt lat="47.71647" lon="5.10094">
        <ele>471.62</ele>
        <time>2021-05-07T14:06:54Z</time>
      </trkpt>
      <trkpt lat="47.71646" lon="5.10097">
        <ele>471.51</ele>
        <time>2021-05-07T14:06:56Z</time>
      </trkpt>
      <trkpt lat="47.71644" lon="5.101">
        <ele>471.4</ele>
        <time>2021-05-07T14:06:58Z</time>
      </trkpt>
      <trkpt lat="47.71642" lon="5.10103">
        <ele>471.29</ele>
        <time>2021-05-07T14:07:00Z</time>
      </trkpt>
      <trkpt lat="47.7164" lon="5.10106">
        <ele>471.18</ele>
        <time>2021-05-07T14:07:02Z</time>
      </trkpt>
      <trkpt lat="47.71637" lon="5.10111">
        <ele>471</ele>
        <time>2021-05-07T14:07:05Z</time>
      </trkpt>
      <trkpt lat="47.71636" lon="5.10116">
        <ele>470.28</ele>
        <time>2021-05-07T14:07:08Z</time>
      </trkpt>
      <trkpt lat="47.71634" lon="5.10121">
        <ele>469.51</ele>
        <time>2021-05-07T14:07:11Z</time>
      </trkpt>
      <trkpt lat="47.71632" lon="5.10126">
        <ele>468.72</ele>
        <time>2021-05-07T14:07:14Z</time>
      </trkpt>
      <trkpt lat="47.7163" lon="5.10131">
        <ele>467.91</ele>
        <time>2021-05-07T14:07:17Z</time>
      </trkpt>
      <trkpt lat="47.71628" lon="5.10136">
        <ele>467.06</ele>
        <time>2021-05-07T14:07:20Z</time>
      </trkpt>
      <trkpt lat="47.71626" lon="5.1014">
        <ele>466.55</ele>
        <time>2021-05-07T14:07:23Z</time>
      </trkpt>
      <trkpt lat="47.71624" lon="5.10144">
        <ele>466.56</ele>
        <time>2021-05-07T14:07:26Z</time>
      </trkpt>
      <trkpt lat="47.71621" lon="5.10149">
        <ele>466.59</ele>
        <time>2021-05-07T14:07:29Z</time>
      </trkpt>
      <trkpt lat="47.71619" lon="5.10153">
        <ele>466.65</ele>
        <time>2021-05-07T14:07:32Z</time>
      </trkpt>
      <trkpt lat="47.71616" lon="5.10157">
        <ele>466.71</ele>
        <time>2021-05-07T14:07:35Z</time>
      </trkpt>
      <trkpt lat="47.71615" lon="5.10161">
        <ele>466.82</ele>
        <time>2021-05-07T14:07:37Z</time>
      </trkpt>
      <trkpt lat="47.71613" lon="5.10165">
        <ele>466.94</ele>
        <time>2021-05-07T14:07:39Z</time>
      </trkpt>
      <trkpt lat="47.71611" lon="5.10169">
        <ele>467.08</ele>
        <time>2021-05-07T14:07:41Z</time>
      </trkpt>
      <trkpt lat="47.71609" lon="5.10172">
        <ele>467.18</ele>
        <time>2021-05-07T14:07:43Z</time>
      </trkpt>
      <trkpt lat="47.71607" lon="5.10176">
        <ele>467.29</ele>
        <time>2021-05-07T14:07:45Z</time>
      </trkpt>
      <trkpt lat="47.71605" lon="5.10178">
        <ele>467.32</ele>
        <time>2021-05-07T14:07:47Z</time>
      </trkpt>
      <trkpt lat="47.71603" lon="5.10183">
        <ele>467.42</ele>
        <time>2021-05-07T14:07:50Z</time>
      </trkpt>
      <trkpt lat="47.71601" lon="5.10188">
        <ele>467.49</ele>
        <time>2021-05-07T14:07:53Z</time>
      </trkpt>
      <trkpt lat="47.71599" lon="5.10193">
        <ele>467.53</ele>
        <time>2021-05-07T14:07:56Z</time>
      </trkpt>
      <trkpt lat="47.71598" lon="5.10197">
        <ele>467.71</ele>
        <time>2021-05-07T14:07:58Z</time>
      </trkpt>
      <trkpt lat="47.71596" lon="5.102">
        <ele>467.87</ele>
        <time>2021-05-07T14:08:00Z</time>
      </trkpt>
      <trkpt lat="47.71594" lon="5.10203">
        <ele>468.07</ele>
        <time>2021-05-07T14:08:02Z</time>
      </trkpt>
      <trkpt lat="47.71592" lon="5.10206">
        <ele>468.3</ele>
        <time>2021-05-07T14:08:04Z</time>
      </trkpt>
      <trkpt lat="47.7159" lon="5.1021">
        <ele>468.65</ele>
        <time>2021-05-07T14:08:07Z</time>
      </trkpt>
      <trkpt lat="47.71588" lon="5.10214">
        <ele>469.04</ele>
        <time>2021-05-07T14:08:10Z</time>
      </trkpt>
      <trkpt lat="47.71586" lon="5.10218">
        <ele>469.48</ele>
        <time>2021-05-07T14:08:13Z</time>
      </trkpt>
      <trkpt lat="47.71584" lon="5.10222">
        <ele>469.95</ele>
        <time>2021-05-07T14:08:16Z</time>
      </trkpt>
      <trkpt lat="47.71581" lon="5.10226">
        <ele>470.24</ele>
        <time>2021-05-07T14:08:19Z</time>
      </trkpt>
      <trkpt lat="47.71579" lon="5.10231">
        <ele>470.48</ele>
        <time>2021-05-07T14:08:22Z</time>
      </trkpt>
      <trkpt lat="47.71577" lon="5.10234">
        <ele>470.56</ele>
        <time>2021-05-07T14:08:24Z</time>
      </trkpt>
      <trkpt lat="47.71576" lon="5.10238">
        <ele>470.69</ele>
        <time>2021-05-07T14:08:26Z</time>
      </trkpt>
      <trkpt lat="47.71574" lon="5.10243">
        <ele>470.74</ele>
        <time>2021-05-07T14:08:28Z</time>
      </trkpt>
      <trkpt lat="47.71572" lon="5.10247">
        <ele>470.69</ele>
        <time>2021-05-07T14:08:30Z</time>
      </trkpt>
      <trkpt lat="47.7157" lon="5.1025">
        <ele>470.56</ele>
        <time>2021-05-07T14:08:32Z</time>
      </trkpt>
      <trkpt lat="47.71568" lon="5.10255">
        <ele>470.18</ele>
        <time>2021-05-07T14:08:35Z</time>
      </trkpt>
      <trkpt lat="47.71566" lon="5.10259">
        <ele>469.88</ele>
        <time>2021-05-07T14:08:38Z</time>
      </trkpt>
      <trkpt lat="47.71565" lon="5.10264">
        <ele>469.68</ele>
        <time>2021-05-07T14:08:41Z</time>
      </trkpt>
      <trkpt lat="47.71563" lon="5.1027">
        <ele>469.42</ele>
        <time>2021-05-07T14:08:44Z</time>
      </trkpt>
      <trkpt lat="47.71562" lon="5.10274">
        <ele>469.3</ele>
        <time>2021-05-07T14:08:46Z</time>
      </trkpt>
      <trkpt lat="47.71561" lon="5.10278">
        <ele>469.2</ele>
        <time>2021-05-07T14:08:48Z</time>
      </trkpt>
      <trkpt lat="47.71559" lon="5.10281">
        <ele>469.12</ele>
        <time>2021-05-07T14:08:50Z</time>
      </trkpt>
      <trkpt lat="47.71557" lon="5.10286">
        <ele>469.05</ele>
        <time>2021-05-07T14:08:53Z</time>
      </trkpt>
      <trkpt lat="47.71555" lon="5.10291">
        <ele>469.02</ele>
        <time>2021-05-07T14:08:56Z</time>
      </trkpt>
      <trkpt lat="47.71553" lon="5.10294">
        <ele>469.11</ele>
        <time>2021-05-07T14:08:58Z</time>
      </trkpt>
      <trkpt lat="47.71552" lon="5.10297">
        <ele>469.18</ele>
        <time>2021-05-07T14:09:00Z</time>
      </trkpt>
      <trkpt lat="47.7155" lon="5.10301">
        <ele>469.33</ele>
        <time>2021-05-07T14:09:02Z</time>
      </trkpt>
      <trkpt lat="47.71548" lon="5.10305">
        <ele>469.53</ele>
        <time>2021-05-07T14:09:05Z</time>
      </trkpt>
      <trkpt lat="47.71547" lon="5.1031">
        <ele>469.62</ele>
        <time>2021-05-07T14:09:08Z</time>
      </trkpt>
      <trkpt lat="47.71546" lon="5.10314">
        <ele>469.69</ele>
        <time>2021-05-07T14:09:11Z</time>
      </trkpt>
      <trkpt lat="47.71545" lon="5.10319">
        <ele>469.76</ele>
        <time>2021-05-07T14:09:14Z</time>
      </trkpt>
      <trkpt lat="47.71543" lon="5.10323">
        <ele>469.9</ele>
        <time>2021-05-07T14:09:17Z</time>
      </trkpt>
      <trkpt lat="47.71542" lon="5.10328">
        <ele>469.98</ele>
        <time>2021-05-07T14:09:20Z</time>
      </trkpt>
      <trkpt lat="47.7154" lon="5.10333">
        <ele>470.12</ele>
        <time>2021-05-07T14:09:23Z</time>
      </trkpt>
      <trkpt lat="47.71539" lon="5.10338">
        <ele>470.4</ele>
        <time>2021-05-07T14:09:26Z</time>
      </trkpt>
      <trkpt lat="47.71537" lon="5.10343">
        <ele>470.68</ele>
        <time>2021-05-07T14:09:29Z</time>
      </trkpt>
      <trkpt lat="47.71536" lon="5.10347">
        <ele>470.84</ele>
        <time>2021-05-07T14:09:31Z</time>
      </trkpt>
      <trkpt lat="47.71535" lon="5.10351">
        <ele>470.98</ele>
        <time>2021-05-07T14:09:33Z</time>
      </trkpt>
      <trkpt lat="47.71534" lon="5.10355">
        <ele>471.08</ele>
        <time>2021-05-07T14:09:35Z</time>
      </trkpt>
      <trkpt lat="47.71533" lon="5.1036">
        <ele>471.17</ele>
        <time>2021-05-07T14:09:38Z</time>
      </trkpt>
      <trkpt lat="47.71532" lon="5.10365">
        <ele>471.45</ele>
        <time>2021-05-07T14:09:41Z</time>
      </trkpt>
      <trkpt lat="47.7153" lon="5.1037">
        <ele>471.75</ele>
        <time>2021-05-07T14:09:44Z</time>
      </trkpt>
      <trkpt lat="47.71529" lon="5.10374">
        <ele>471.99</ele>
        <time>2021-05-07T14:09:46Z</time>
      </trkpt>
      <trkpt lat="47.71528" lon="5.10378">
        <ele>472.23</ele>
        <time>2021-05-07T14:09:48Z</time>
      </trkpt>
      <trkpt lat="47.71527" lon="5.10384">
        <ele>472.6</ele>
        <time>2021-05-07T14:09:51Z</time>
      </trkpt>
      <trkpt lat="47.71526" lon="5.10389">
        <ele>472.88</ele>
        <time>2021-05-07T14:09:54Z</time>
      </trkpt>
      <trkpt lat="47.71525" lon="5.10395">
        <ele>473.02</ele>
        <time>2021-05-07T14:09:57Z</time>
      </trkpt>
      <trkpt lat="47.71524" lon="5.10399">
        <ele>473.09</ele>
        <time>2021-05-07T14:09:59Z</time>
      </trkpt>
      <trkpt lat="47.71523" lon="5.10403">
        <ele>473.16</ele>
        <time>2021-05-07T14:10:01Z</time>
      </trkpt>
      <trkpt lat="47.71522" lon="5.10408">
        <ele>473.27</ele>
        <time>2021-05-07T14:10:04Z</time>
      </trkpt>
      <trkpt lat="47.71521" lon="5.10414">
        <ele>473.42</ele>
        <time>2021-05-07T14:10:07Z</time>
      </trkpt>
      <trkpt lat="47.7152" lon="5.10419">
        <ele>473.58</ele>
        <time>2021-05-07T14:10:10Z</time>
      </trkpt>
      <trkpt lat="47.71518" lon="5.10424">
        <ele>473.73</ele>
        <time>2021-05-07T14:10:13Z</time>
      </trkpt>
      <trkpt lat="47.71516" lon="5.10427">
        <ele>473.74</ele>
        <time>2021-05-07T14:10:15Z</time>
      </trkpt>
      <trkpt lat="47.71513" lon="5.1043">
        <ele>473.64</ele>
        <time>2021-05-07T14:10:18Z</time>
      </trkpt>
      <trkpt lat="47.7151" lon="5.10431">
        <ele>473.42</ele>
        <time>2021-05-07T14:10:20Z</time>
      </trkpt>
      <trkpt lat="47.71507" lon="5.10431">
        <ele>473.15</ele>
        <time>2021-05-07T14:10:22Z</time>
      </trkpt>
      <trkpt lat="47.71503" lon="5.10433">
        <ele>472.87</ele>
        <time>2021-05-07T14:10:25Z</time>
      </trkpt>
      <trkpt lat="47.715" lon="5.10434">
        <ele>472.62</ele>
        <time>2021-05-07T14:10:28Z</time>
      </trkpt>
      <trkpt lat="47.71497" lon="5.10435">
        <ele>472.19</ele>
        <time>2021-05-07T14:10:31Z</time>
      </trkpt>
      <trkpt lat="47.71494" lon="5.10436">
        <ele>471.75</ele>
        <time>2021-05-07T14:10:35Z</time>
      </trkpt>
      <trkpt lat="47.71492" lon="5.10433">
        <ele>471.39</ele>
        <time>2021-05-07T14:10:59Z</time>
      </trkpt>
      <trkpt lat="47.71491" lon="5.10429">
        <ele>471.18</ele>
        <time>2021-05-07T14:11:05Z</time>
      </trkpt>
      <trkpt lat="47.71492" lon="5.10433">
        <ele>471.39</ele>
        <time>2021-05-07T14:11:20Z</time>
      </trkpt>
      <trkpt lat="47.7149" lon="5.10435">
        <ele>471.1</ele>
        <time>2021-05-07T14:12:29Z</time>
      </trkpt>
      <trkpt lat="47.71487" lon="5.10436">
        <ele>470.64</ele>
        <time>2021-05-07T14:12:42Z</time>
      </trkpt>
      <trkpt lat="47.71484" lon="5.10438">
        <ele>470.16</ele>
        <time>2021-05-07T14:12:45Z</time>
      </trkpt>
      <trkpt lat="47.7148" lon="5.10438">
        <ele>469.5</ele>
        <time>2021-05-07T14:12:48Z</time>
      </trkpt>
      <trkpt lat="47.71478" lon="5.10438">
        <ele>469.18</ele>
        <time>2021-05-07T14:12:52Z</time>
      </trkpt>
      <trkpt lat="47.7148" lon="5.10437">
        <ele>469.52</ele>
        <time>2021-05-07T14:14:53Z</time>
      </trkpt>
      <trkpt lat="47.71483" lon="5.10439">
        <ele>469.98</ele>
        <time>2021-05-07T14:14:57Z</time>
      </trkpt>
      <trkpt lat="47.71486" lon="5.10438">
        <ele>470.48</ele>
        <time>2021-05-07T14:15:01Z</time>
      </trkpt>
      <trkpt lat="47.71489" lon="5.10436">
        <ele>470.96</ele>
        <time>2021-05-07T14:15:04Z</time>
      </trkpt>
      <trkpt lat="47.71492" lon="5.10435">
        <ele>471.42</ele>
        <time>2021-05-07T14:15:06Z</time>
      </trkpt>
      <trkpt lat="47.71489" lon="5.10436">
        <ele>470.96</ele>
        <time>2021-05-07T14:15:16Z</time>
      </trkpt>
      <trkpt lat="47.71487" lon="5.10439">
        <ele>470.65</ele>
        <time>2021-05-07T14:15:18Z</time>
      </trkpt>
      <trkpt lat="47.71485" lon="5.10442">
        <ele>470.31</ele>
        <time>2021-05-07T14:15:20Z</time>
      </trkpt>
      <trkpt lat="47.71482" lon="5.10445">
        <ele>469.77</ele>
        <time>2021-05-07T14:15:23Z</time>
      </trkpt>
      <trkpt lat="47.7148" lon="5.10448">
        <ele>469.42</ele>
        <time>2021-05-07T14:15:26Z</time>
      </trkpt>
      <trkpt lat="47.71478" lon="5.10452">
        <ele>468.99</ele>
        <time>2021-05-07T14:15:29Z</time>
      </trkpt>
      <trkpt lat="47.71475" lon="5.10456">
        <ele>468.25</ele>
        <time>2021-05-07T14:15:32Z</time>
      </trkpt>
      <trkpt lat="47.71472" lon="5.10459">
        <ele>467.45</ele>
        <time>2021-05-07T14:15:35Z</time>
      </trkpt>
      <trkpt lat="47.71469" lon="5.10461">
        <ele>467.01</ele>
        <time>2021-05-07T14:15:38Z</time>
      </trkpt>
      <trkpt lat="47.71465" lon="5.10463">
        <ele>466.47</ele>
        <time>2021-05-07T14:15:41Z</time>
      </trkpt>
      <trkpt lat="47.71462" lon="5.10464">
        <ele>466.08</ele>
        <time>2021-05-07T14:15:44Z</time>
      </trkpt>
      <trkpt lat="47.71459" lon="5.10466">
        <ele>465.69</ele>
        <time>2021-05-07T14:15:47Z</time>
      </trkpt>
      <trkpt lat="47.71456" lon="5.10468">
        <ele>465.31</ele>
        <time>2021-05-07T14:15:50Z</time>
      </trkpt>
      <trkpt lat="47.71453" lon="5.10471">
        <ele>464.94</ele>
        <time>2021-05-07T14:15:53Z</time>
      </trkpt>
      <trkpt lat="47.71451" lon="5.10473">
        <ele>464.74</ele>
        <time>2021-05-07T14:15:56Z</time>
      </trkpt>
      <trkpt lat="47.71448" lon="5.10475">
        <ele>464.48</ele>
        <time>2021-05-07T14:15:59Z</time>
      </trkpt>
      <trkpt lat="47.71445" lon="5.10478">
        <ele>464.27</ele>
        <time>2021-05-07T14:16:03Z</time>
      </trkpt>
      <trkpt lat="47.71443" lon="5.10479">
        <ele>463.98</ele>
        <time>2021-05-07T14:16:06Z</time>
      </trkpt>
      <trkpt lat="47.7144" lon="5.10481">
        <ele>463.52</ele>
        <time>2021-05-07T14:16:09Z</time>
      </trkpt>
      <trkpt lat="47.71437" lon="5.10483">
        <ele>463.05</ele>
        <time>2021-05-07T14:16:12Z</time>
      </trkpt>
      <trkpt lat="47.71435" lon="5.10485">
        <ele>462.76</ele>
        <time>2021-05-07T14:16:15Z</time>
      </trkpt>
      <trkpt lat="47.71432" lon="5.10487">
        <ele>462.29</ele>
        <time>2021-05-07T14:16:18Z</time>
      </trkpt>
      <trkpt lat="47.7143" lon="5.1049">
        <ele>462.04</ele>
        <time>2021-05-07T14:16:21Z</time>
      </trkpt>
      <trkpt lat="47.71427" lon="5.10492">
        <ele>461.57</ele>
        <time>2021-05-07T14:16:24Z</time>
      </trkpt>
      <trkpt lat="47.71423" lon="5.10494">
        <ele>460.92</ele>
        <time>2021-05-07T14:16:27Z</time>
      </trkpt>
      <trkpt lat="47.71421" lon="5.10495">
        <ele>460.6</ele>
        <time>2021-05-07T14:16:29Z</time>
      </trkpt>
      <trkpt lat="47.71418" lon="5.10496">
        <ele>460.1</ele>
        <time>2021-05-07T14:16:31Z</time>
      </trkpt>
      <trkpt lat="47.71414" lon="5.10497">
        <ele>459.72</ele>
        <time>2021-05-07T14:16:34Z</time>
      </trkpt>
      <trkpt lat="47.71411" lon="5.10498">
        <ele>459.55</ele>
        <time>2021-05-07T14:16:37Z</time>
      </trkpt>
      <trkpt lat="47.71408" lon="5.10499">
        <ele>459.36</ele>
        <time>2021-05-07T14:16:39Z</time>
      </trkpt>
      <trkpt lat="47.71405" lon="5.105">
        <ele>459.16</ele>
        <time>2021-05-07T14:16:41Z</time>
      </trkpt>
      <trkpt lat="47.71402" lon="5.105">
        <ele>458.94</ele>
        <time>2021-05-07T14:16:43Z</time>
      </trkpt>
      <trkpt lat="47.71398" lon="5.10502">
        <ele>458.73</ele>
        <time>2021-05-07T14:16:46Z</time>
      </trkpt>
      <trkpt lat="47.71396" lon="5.10504">
        <ele>458.66</ele>
        <time>2021-05-07T14:16:49Z</time>
      </trkpt>
      <trkpt lat="47.71393" lon="5.10506">
        <ele>458.51</ele>
        <time>2021-05-07T14:16:52Z</time>
      </trkpt>
      <trkpt lat="47.7139" lon="5.10508">
        <ele>458.37</ele>
        <time>2021-05-07T14:16:55Z</time>
      </trkpt>
      <trkpt lat="47.71387" lon="5.10511">
        <ele>458.14</ele>
        <time>2021-05-07T14:16:58Z</time>
      </trkpt>
      <trkpt lat="47.71385" lon="5.10513">
        <ele>457.92</ele>
        <time>2021-05-07T14:17:01Z</time>
      </trkpt>
      <trkpt lat="47.71381" lon="5.10514">
        <ele>457.37</ele>
        <time>2021-05-07T14:17:04Z</time>
      </trkpt>
      <trkpt lat="47.71378" lon="5.10517">
        <ele>456.96</ele>
        <time>2021-05-07T14:17:07Z</time>
      </trkpt>
      <trkpt lat="47.71375" lon="5.10518">
        <ele>456.5</ele>
        <time>2021-05-07T14:17:10Z</time>
      </trkpt>
      <trkpt lat="47.71371" lon="5.1052">
        <ele>455.86</ele>
        <time>2021-05-07T14:17:13Z</time>
      </trkpt>
      <trkpt lat="47.71368" lon="5.10522">
        <ele>455.34</ele>
        <time>2021-05-07T14:17:17Z</time>
      </trkpt>
      <trkpt lat="47.71365" lon="5.10525">
        <ele>454.77</ele>
        <time>2021-05-07T14:17:21Z</time>
      </trkpt>
      <trkpt lat="47.71362" lon="5.10526">
        <ele>454.22</ele>
        <time>2021-05-07T14:17:24Z</time>
      </trkpt>
      <trkpt lat="47.71359" lon="5.10527">
        <ele>454.41</ele>
        <time>2021-05-07T14:17:27Z</time>
      </trkpt>
      <trkpt lat="47.71357" lon="5.10529">
        <ele>454.76</ele>
        <time>2021-05-07T14:17:31Z</time>
      </trkpt>
      <trkpt lat="47.71353" lon="5.10532">
        <ele>455.48</ele>
        <time>2021-05-07T14:17:35Z</time>
      </trkpt>
      <trkpt lat="47.71351" lon="5.10533">
        <ele>455.8</ele>
        <time>2021-05-07T14:17:38Z</time>
      </trkpt>
      <trkpt lat="47.71348" lon="5.10536">
        <ele>456.24</ele>
        <time>2021-05-07T14:17:42Z</time>
      </trkpt>
      <trkpt lat="47.71345" lon="5.10538">
        <ele>456.63</ele>
        <time>2021-05-07T14:17:45Z</time>
      </trkpt>
      <trkpt lat="47.71341" lon="5.1054">
        <ele>457.1</ele>
        <time>2021-05-07T14:17:48Z</time>
      </trkpt>
      <trkpt lat="47.71337" lon="5.10541">
        <ele>457.58</ele>
        <time>2021-05-07T14:17:51Z</time>
      </trkpt>
      <trkpt lat="47.71334" lon="5.10541">
        <ele>457.96</ele>
        <time>2021-05-07T14:17:53Z</time>
      </trkpt>
      <trkpt lat="47.71331" lon="5.10542">
        <ele>457.43</ele>
        <time>2021-05-07T14:17:55Z</time>
      </trkpt>
      <trkpt lat="47.71329" lon="5.10543">
        <ele>456.9</ele>
        <time>2021-05-07T14:17:57Z</time>
      </trkpt>
      <trkpt lat="47.71325" lon="5.10546">
        <ele>455.78</ele>
        <time>2021-05-07T14:18:00Z</time>
      </trkpt>
      <trkpt lat="47.71322" lon="5.10548">
        <ele>454.99</ele>
        <time>2021-05-07T14:18:03Z</time>
      </trkpt>
      <trkpt lat="47.71318" lon="5.1055">
        <ele>453.98</ele>
        <time>2021-05-07T14:18:06Z</time>
      </trkpt>
      <trkpt lat="47.71315" lon="5.10552">
        <ele>453.21</ele>
        <time>2021-05-07T14:18:09Z</time>
      </trkpt>
      <trkpt lat="47.71312" lon="5.10554">
        <ele>452.46</ele>
        <time>2021-05-07T14:18:12Z</time>
      </trkpt>
      <trkpt lat="47.71309" lon="5.10556">
        <ele>451.74</ele>
        <time>2021-05-07T14:18:17Z</time>
      </trkpt>
      <trkpt lat="47.71306" lon="5.10558">
        <ele>451.09</ele>
        <time>2021-05-07T14:18:21Z</time>
      </trkpt>
      <trkpt lat="47.71304" lon="5.10561">
        <ele>450.71</ele>
        <time>2021-05-07T14:18:24Z</time>
      </trkpt>
      <trkpt lat="47.71301" lon="5.10563">
        <ele>450.14</ele>
        <time>2021-05-07T14:18:27Z</time>
      </trkpt>
      <trkpt lat="47.71298" lon="5.10565">
        <ele>449.55</ele>
        <time>2021-05-07T14:18:30Z</time>
      </trkpt>
      <trkpt lat="47.71295" lon="5.10566">
        <ele>448.96</ele>
        <time>2021-05-07T14:18:33Z</time>
      </trkpt>
      <trkpt lat="47.71292" lon="5.10567">
        <ele>448.36</ele>
        <time>2021-05-07T14:18:36Z</time>
      </trkpt>
      <trkpt lat="47.71289" lon="5.10569">
        <ele>447.73</ele>
        <time>2021-05-07T14:18:40Z</time>
      </trkpt>
      <trkpt lat="47.71287" lon="5.10572">
        <ele>447.26</ele>
        <time>2021-05-07T14:18:43Z</time>
      </trkpt>
      <trkpt lat="47.71284" lon="5.10574">
        <ele>446.6</ele>
        <time>2021-05-07T14:18:46Z</time>
      </trkpt>
      <trkpt lat="47.71281" lon="5.10577">
        <ele>445.9</ele>
        <time>2021-05-07T14:18:50Z</time>
      </trkpt>
      <trkpt lat="47.71279" lon="5.1058">
        <ele>445.38</ele>
        <time>2021-05-07T14:18:55Z</time>
      </trkpt>
      <trkpt lat="47.71277" lon="5.10583">
        <ele>444.84</ele>
        <time>2021-05-07T14:18:58Z</time>
      </trkpt>
      <trkpt lat="47.71274" lon="5.10586">
        <ele>444.18</ele>
        <time>2021-05-07T14:19:01Z</time>
      </trkpt>
      <trkpt lat="47.71272" lon="5.10589">
        <ele>443.75</ele>
        <time>2021-05-07T14:19:04Z</time>
      </trkpt>
      <trkpt lat="47.71269" lon="5.10591">
        <ele>443.1</ele>
        <time>2021-05-07T14:19:07Z</time>
      </trkpt>
      <trkpt lat="47.71267" lon="5.10593">
        <ele>442.67</ele>
        <time>2021-05-07T14:19:10Z</time>
      </trkpt>
      <trkpt lat="47.71264" lon="5.10595">
        <ele>442.02</ele>
        <time>2021-05-07T14:19:13Z</time>
      </trkpt>
      <trkpt lat="47.71261" lon="5.10597">
        <ele>441.38</ele>
        <time>2021-05-07T14:19:16Z</time>
      </trkpt>
      <trkpt lat="47.71258" lon="5.106">
        <ele>440.73</ele>
        <time>2021-05-07T14:19:19Z</time>
      </trkpt>
      <trkpt lat="47.71256" lon="5.10602">
        <ele>440.3</ele>
        <time>2021-05-07T14:19:22Z</time>
      </trkpt>
      <trkpt lat="47.71253" lon="5.10605">
        <ele>439.65</ele>
        <time>2021-05-07T14:19:25Z</time>
      </trkpt>
      <trkpt lat="47.71251" lon="5.10608">
        <ele>439.22</ele>
        <time>2021-05-07T14:19:28Z</time>
      </trkpt>
      <trkpt lat="47.71248" lon="5.10611">
        <ele>438.93</ele>
        <time>2021-05-07T14:19:31Z</time>
      </trkpt>
      <trkpt lat="47.71245" lon="5.10613">
        <ele>438.86</ele>
        <time>2021-05-07T14:19:34Z</time>
      </trkpt>
      <trkpt lat="47.71243" lon="5.10617">
        <ele>438.85</ele>
        <time>2021-05-07T14:19:37Z</time>
      </trkpt>
      <trkpt lat="47.7124" lon="5.10622">
        <ele>438.75</ele>
        <time>2021-05-07T14:19:40Z</time>
      </trkpt>
      <trkpt lat="47.71239" lon="5.10625">
        <ele>438.71</ele>
        <time>2021-05-07T14:19:42Z</time>
      </trkpt>
      <trkpt lat="47.71237" lon="5.1063">
        <ele>438.58</ele>
        <time>2021-05-07T14:19:45Z</time>
      </trkpt>
      <trkpt lat="47.71235" lon="5.10635">
        <ele>438.39</ele>
        <time>2021-05-07T14:19:48Z</time>
      </trkpt>
      <trkpt lat="47.71233" lon="5.10638">
        <ele>438.17</ele>
        <time>2021-05-07T14:19:51Z</time>
      </trkpt>
      <trkpt lat="47.71231" lon="5.10642">
        <ele>438.1</ele>
        <time>2021-05-07T14:19:54Z</time>
      </trkpt>
      <trkpt lat="47.71228" lon="5.10644">
        <ele>437.85</ele>
        <time>2021-05-07T14:19:57Z</time>
      </trkpt>
      <trkpt lat="47.71224" lon="5.10647">
        <ele>437.5</ele>
        <time>2021-05-07T14:20:00Z</time>
      </trkpt>
      <trkpt lat="47.71221" lon="5.10649">
        <ele>437.16</ele>
        <time>2021-05-07T14:20:03Z</time>
      </trkpt>
      <trkpt lat="47.71218" lon="5.10652">
        <ele>436.78</ele>
        <time>2021-05-07T14:20:06Z</time>
      </trkpt>
      <trkpt lat="47.71216" lon="5.10656">
        <ele>436.63</ele>
        <time>2021-05-07T14:20:09Z</time>
      </trkpt>
      <trkpt lat="47.71213" lon="5.1066">
        <ele>436.35</ele>
        <time>2021-05-07T14:20:12Z</time>
      </trkpt>
      <trkpt lat="47.71211" lon="5.10663">
        <ele>436.2</ele>
        <time>2021-05-07T14:20:15Z</time>
      </trkpt>
      <trkpt lat="47.71208" lon="5.10665">
        <ele>435.86</ele>
        <time>2021-05-07T14:20:18Z</time>
      </trkpt>
      <trkpt lat="47.71204" lon="5.10667">
        <ele>435.39</ele>
        <time>2021-05-07T14:20:21Z</time>
      </trkpt>
      <trkpt lat="47.71201" lon="5.10669">
        <ele>435.07</ele>
        <time>2021-05-07T14:20:23Z</time>
      </trkpt>
      <trkpt lat="47.71198" lon="5.10671">
        <ele>434.78</ele>
        <time>2021-05-07T14:20:26Z</time>
      </trkpt>
      <trkpt lat="47.71195" lon="5.10673">
        <ele>434.53</ele>
        <time>2021-05-07T14:20:28Z</time>
      </trkpt>
      <trkpt lat="47.71193" lon="5.10675">
        <ele>434.65</ele>
        <time>2021-05-07T14:20:30Z</time>
      </trkpt>
      <trkpt lat="47.7119" lon="5.10677">
        <ele>434.9</ele>
        <time>2021-05-07T14:20:32Z</time>
      </trkpt>
      <trkpt lat="47.71188" lon="5.10679">
        <ele>435.12</ele>
        <time>2021-05-07T14:20:34Z</time>
      </trkpt>
      <trkpt lat="47.71184" lon="5.10681">
        <ele>435.41</ele>
        <time>2021-05-07T14:20:37Z</time>
      </trkpt>
      <trkpt lat="47.71182" lon="5.10684">
        <ele>435.7</ele>
        <time>2021-05-07T14:20:40Z</time>
      </trkpt>
      <trkpt lat="47.71179" lon="5.10686">
        <ele>435.95</ele>
        <time>2021-05-07T14:20:43Z</time>
      </trkpt>
      <trkpt lat="47.71176" lon="5.10688">
        <ele>436.2</ele>
        <time>2021-05-07T14:20:46Z</time>
      </trkpt>
      <trkpt lat="47.71173" lon="5.10689">
        <ele>436.38</ele>
        <time>2021-05-07T14:20:49Z</time>
      </trkpt>
      <trkpt lat="47.71169" lon="5.10691">
        <ele>436.67</ele>
        <time>2021-05-07T14:20:52Z</time>
      </trkpt>
      <trkpt lat="47.71165" lon="5.10693">
        <ele>436.67</ele>
        <time>2021-05-07T14:20:55Z</time>
      </trkpt>
      <trkpt lat="47.71162" lon="5.10696">
        <ele>436.37</ele>
        <time>2021-05-07T14:20:58Z</time>
      </trkpt>
      <trkpt lat="47.7116" lon="5.10698">
        <ele>436.14</ele>
        <time>2021-05-07T14:21:01Z</time>
      </trkpt>
      <trkpt lat="47.71157" lon="5.107">
        <ele>435.74</ele>
        <time>2021-05-07T14:21:04Z</time>
      </trkpt>
      <trkpt lat="47.71153" lon="5.10702">
        <ele>435.17</ele>
        <time>2021-05-07T14:21:07Z</time>
      </trkpt>
      <trkpt lat="47.7115" lon="5.10704">
        <ele>434.74</ele>
        <time>2021-05-07T14:21:10Z</time>
      </trkpt>
      <trkpt lat="47.71147" lon="5.10707">
        <ele>434.3</ele>
        <time>2021-05-07T14:21:13Z</time>
      </trkpt>
      <trkpt lat="47.71143" lon="5.10708">
        <ele>433.66</ele>
        <time>2021-05-07T14:21:16Z</time>
      </trkpt>
      <trkpt lat="47.7114" lon="5.1071">
        <ele>433.18</ele>
        <time>2021-05-07T14:21:19Z</time>
      </trkpt>
      <trkpt lat="47.71136" lon="5.10711">
        <ele>433.12</ele>
        <time>2021-05-07T14:21:22Z</time>
      </trkpt>
      <trkpt lat="47.71132" lon="5.10712">
        <ele>433.31</ele>
        <time>2021-05-07T14:21:25Z</time>
      </trkpt>
      <trkpt lat="47.71128" lon="5.10714">
        <ele>433.55</ele>
        <time>2021-05-07T14:21:28Z</time>
      </trkpt>
      <trkpt lat="47.71125" lon="5.10716">
        <ele>433.78</ele>
        <time>2021-05-07T14:21:31Z</time>
      </trkpt>
      <trkpt lat="47.71121" lon="5.10718">
        <ele>434.09</ele>
        <time>2021-05-07T14:21:34Z</time>
      </trkpt>
      <trkpt lat="47.71118" lon="5.10721">
        <ele>434.44</ele>
        <time>2021-05-07T14:21:37Z</time>
      </trkpt>
      <trkpt lat="47.71115" lon="5.10724">
        <ele>434.91</ele>
        <time>2021-05-07T14:21:40Z</time>
      </trkpt>
      <trkpt lat="47.71112" lon="5.10727">
        <ele>435.45</ele>
        <time>2021-05-07T14:21:43Z</time>
      </trkpt>
      <trkpt lat="47.71109" lon="5.10731">
        <ele>435.67</ele>
        <time>2021-05-07T14:21:46Z</time>
      </trkpt>
      <trkpt lat="47.71106" lon="5.10735">
        <ele>435.73</ele>
        <time>2021-05-07T14:21:49Z</time>
      </trkpt>
      <trkpt lat="47.71103" lon="5.10737">
        <ele>435.58</ele>
        <time>2021-05-07T14:21:51Z</time>
      </trkpt>
      <trkpt lat="47.71101" lon="5.10739">
        <ele>435.58</ele>
        <time>2021-05-07T14:21:53Z</time>
      </trkpt>
      <trkpt lat="47.71098" lon="5.10741">
        <ele>435.46</ele>
        <time>2021-05-07T14:21:55Z</time>
      </trkpt>
      <trkpt lat="47.71095" lon="5.10744">
        <ele>435.49</ele>
        <time>2021-05-07T14:21:58Z</time>
      </trkpt>
      <trkpt lat="47.71092" lon="5.10747">
        <ele>435.54</ele>
        <time>2021-05-07T14:22:01Z</time>
      </trkpt>
      <trkpt lat="47.71089" lon="5.1075">
        <ele>435.61</ele>
        <time>2021-05-07T14:22:04Z</time>
      </trkpt>
      <trkpt lat="47.71086" lon="5.10754">
        <ele>435.84</ele>
        <time>2021-05-07T14:22:07Z</time>
      </trkpt>
      <trkpt lat="47.71084" lon="5.10757">
        <ele>436.07</ele>
        <time>2021-05-07T14:22:10Z</time>
      </trkpt>
      <trkpt lat="47.71082" lon="5.10761">
        <ele>436.22</ele>
        <time>2021-05-07T14:22:13Z</time>
      </trkpt>
      <trkpt lat="47.7108" lon="5.10765">
        <ele>436.18</ele>
        <time>2021-05-07T14:22:16Z</time>
      </trkpt>
      <trkpt lat="47.71078" lon="5.10768">
        <ele>435.94</ele>
        <time>2021-05-07T14:22:19Z</time>
      </trkpt>
      <trkpt lat="47.71076" lon="5.10773">
        <ele>435.85</ele>
        <time>2021-05-07T14:22:22Z</time>
      </trkpt>
      <trkpt lat="47.71073" lon="5.10776">
        <ele>435.12</ele>
        <time>2021-05-07T14:22:25Z</time>
      </trkpt>
      <trkpt lat="47.71071" lon="5.1078">
        <ele>434.68</ele>
        <time>2021-05-07T14:22:28Z</time>
      </trkpt>
      <trkpt lat="47.71069" lon="5.10783">
        <ele>434.12</ele>
        <time>2021-05-07T14:22:31Z</time>
      </trkpt>
      <trkpt lat="47.71067" lon="5.10786">
        <ele>433.54</ele>
        <time>2021-05-07T14:22:34Z</time>
      </trkpt>
      <trkpt lat="47.71065" lon="5.10789">
        <ele>432.94</ele>
        <time>2021-05-07T14:22:37Z</time>
      </trkpt>
      <trkpt lat="47.71063" lon="5.10792">
        <ele>432.33</ele>
        <time>2021-05-07T14:22:40Z</time>
      </trkpt>
      <trkpt lat="47.71061" lon="5.10795">
        <ele>431.7</ele>
        <time>2021-05-07T14:22:44Z</time>
      </trkpt>
      <trkpt lat="47.71059" lon="5.10799">
        <ele>431.1</ele>
        <time>2021-05-07T14:22:48Z</time>
      </trkpt>
      <trkpt lat="47.71057" lon="5.10803">
        <ele>430.48</ele>
        <time>2021-05-07T14:22:51Z</time>
      </trkpt>
      <trkpt lat="47.71055" lon="5.10806">
        <ele>429.9</ele>
        <time>2021-05-07T14:22:55Z</time>
      </trkpt>
      <trkpt lat="47.71053" lon="5.10809">
        <ele>429.53</ele>
        <time>2021-05-07T14:23:00Z</time>
      </trkpt>
      <trkpt lat="47.71054" lon="5.10813">
        <ele>429.7</ele>
        <time>2021-05-07T14:23:04Z</time>
      </trkpt>
      <trkpt lat="47.71057" lon="5.10814">
        <ele>430.54</ele>
        <time>2021-05-07T14:23:09Z</time>
      </trkpt>
      <trkpt lat="47.7106" lon="5.10811">
        <ele>431.7</ele>
        <time>2021-05-07T14:23:17Z</time>
      </trkpt>
      <trkpt lat="47.71062" lon="5.10809">
        <ele>432.49</ele>
        <time>2021-05-07T14:23:24Z</time>
      </trkpt>
      <trkpt lat="47.71059" lon="5.10811">
        <ele>431.32</ele>
        <time>2021-05-07T14:24:15Z</time>
      </trkpt>
      <trkpt lat="47.71062" lon="5.10811">
        <ele>432.46</ele>
        <time>2021-05-07T14:24:54Z</time>
      </trkpt>
      <trkpt lat="47.71059" lon="5.10807">
        <ele>431.35</ele>
        <time>2021-05-07T14:25:48Z</time>
      </trkpt>
      <trkpt lat="47.71056" lon="5.10807">
        <ele>430.17</ele>
        <time>2021-05-07T14:25:51Z</time>
      </trkpt>
      <trkpt lat="47.71052" lon="5.10807">
        <ele>429.35</ele>
        <time>2021-05-07T14:25:54Z</time>
      </trkpt>
      <trkpt lat="47.71049" lon="5.10808">
        <ele>428.8</ele>
        <time>2021-05-07T14:25:57Z</time>
      </trkpt>
      <trkpt lat="47.71046" lon="5.10808">
        <ele>428.25</ele>
        <time>2021-05-07T14:26:00Z</time>
      </trkpt>
      <trkpt lat="47.71043" lon="5.10809">
        <ele>427.68</ele>
        <time>2021-05-07T14:26:03Z</time>
      </trkpt>
      <trkpt lat="47.7104" lon="5.1081">
        <ele>427.11</ele>
        <time>2021-05-07T14:26:05Z</time>
      </trkpt>
      <trkpt lat="47.71037" lon="5.10812">
        <ele>426.51</ele>
        <time>2021-05-07T14:26:07Z</time>
      </trkpt>
      <trkpt lat="47.71034" lon="5.10813">
        <ele>425.91</ele>
        <time>2021-05-07T14:26:09Z</time>
      </trkpt>
      <trkpt lat="47.71031" lon="5.10813">
        <ele>425.34</ele>
        <time>2021-05-07T14:26:11Z</time>
      </trkpt>
      <trkpt lat="47.71028" lon="5.10813">
        <ele>424.77</ele>
        <time>2021-05-07T14:26:13Z</time>
      </trkpt>
      <trkpt lat="47.71024" lon="5.10814">
        <ele>424.29</ele>
        <time>2021-05-07T14:26:16Z</time>
      </trkpt>
      <trkpt lat="47.71021" lon="5.10814">
        <ele>423.96</ele>
        <time>2021-05-07T14:26:19Z</time>
      </trkpt>
      <trkpt lat="47.71017" lon="5.10815">
        <ele>423.5</ele>
        <time>2021-05-07T14:26:22Z</time>
      </trkpt>
      <trkpt lat="47.71014" lon="5.10817">
        <ele>423.1</ele>
        <time>2021-05-07T14:26:25Z</time>
      </trkpt>
      <trkpt lat="47.7101" lon="5.10819">
        <ele>422.6</ele>
        <time>2021-05-07T14:26:28Z</time>
      </trkpt>
      <trkpt lat="47.71007" lon="5.1082">
        <ele>422.24</ele>
        <time>2021-05-07T14:26:31Z</time>
      </trkpt>
      <trkpt lat="47.71004" lon="5.10822">
        <ele>421.84</ele>
        <time>2021-05-07T14:26:35Z</time>
      </trkpt>
      <trkpt lat="47.71001" lon="5.10824">
        <ele>421.44</ele>
        <time>2021-05-07T14:26:38Z</time>
      </trkpt>
      <trkpt lat="47.70999" lon="5.10825">
        <ele>421.33</ele>
        <time>2021-05-07T14:26:40Z</time>
      </trkpt>
      <trkpt lat="47.70995" lon="5.10827">
        <ele>421.35</ele>
        <time>2021-05-07T14:26:42Z</time>
      </trkpt>
      <trkpt lat="47.70992" lon="5.10829">
        <ele>421.29</ele>
        <time>2021-05-07T14:26:44Z</time>
      </trkpt>
      <trkpt lat="47.7099" lon="5.1083">
        <ele>421.25</ele>
        <time>2021-05-07T14:26:46Z</time>
      </trkpt>
      <trkpt lat="47.70987" lon="5.10833">
        <ele>421.03</ele>
        <time>2021-05-07T14:26:48Z</time>
      </trkpt>
      <trkpt lat="47.70985" lon="5.10834">
        <ele>420.95</ele>
        <time>2021-05-07T14:26:50Z</time>
      </trkpt>
      <trkpt lat="47.70982" lon="5.10836">
        <ele>420.81</ele>
        <time>2021-05-07T14:26:53Z</time>
      </trkpt>
      <trkpt lat="47.70979" lon="5.10838">
        <ele>420.66</ele>
        <time>2021-05-07T14:26:56Z</time>
      </trkpt>
      <trkpt lat="47.70976" lon="5.10841">
        <ele>420.45</ele>
        <time>2021-05-07T14:26:59Z</time>
      </trkpt>
      <trkpt lat="47.70974" lon="5.10843">
        <ele>420.3</ele>
        <time>2021-05-07T14:27:01Z</time>
      </trkpt>
      <trkpt lat="47.70971" lon="5.10846">
        <ele>420</ele>
        <time>2021-05-07T14:27:04Z</time>
      </trkpt>
      <trkpt lat="47.70968" lon="5.10849">
        <ele>419.57</ele>
        <time>2021-05-07T14:27:07Z</time>
      </trkpt>
      <trkpt lat="47.70965" lon="5.10852">
        <ele>419.14</ele>
        <time>2021-05-07T14:27:10Z</time>
      </trkpt>
      <trkpt lat="47.70963" lon="5.10854">
        <ele>418.85</ele>
        <time>2021-05-07T14:27:12Z</time>
      </trkpt>
      <trkpt lat="47.70959" lon="5.10857">
        <ele>418.34</ele>
        <time>2021-05-07T14:27:15Z</time>
      </trkpt>
      <trkpt lat="47.70957" lon="5.10859">
        <ele>418.06</ele>
        <time>2021-05-07T14:27:17Z</time>
      </trkpt>
      <trkpt lat="47.70955" lon="5.10862">
        <ele>417.69</ele>
        <time>2021-05-07T14:27:19Z</time>
      </trkpt>
      <trkpt lat="47.70952" lon="5.10866">
        <ele>417.22</ele>
        <time>2021-05-07T14:27:22Z</time>
      </trkpt>
      <trkpt lat="47.7095" lon="5.10868">
        <ele>417</ele>
        <time>2021-05-07T14:27:25Z</time>
      </trkpt>
      <trkpt lat="47.70947" lon="5.10871">
        <ele>416.73</ele>
        <time>2021-05-07T14:27:28Z</time>
      </trkpt>
      <trkpt lat="47.70945" lon="5.10874">
        <ele>416.55</ele>
        <time>2021-05-07T14:27:31Z</time>
      </trkpt>
      <trkpt lat="47.70942" lon="5.10877">
        <ele>416.39</ele>
        <time>2021-05-07T14:27:34Z</time>
      </trkpt>
      <trkpt lat="47.7094" lon="5.1088">
        <ele>416.27</ele>
        <time>2021-05-07T14:27:36Z</time>
      </trkpt>
      <trkpt lat="47.70937" lon="5.10883">
        <ele>416.16</ele>
        <time>2021-05-07T14:27:38Z</time>
      </trkpt>
      <trkpt lat="47.70935" lon="5.10886">
        <ele>416.07</ele>
        <time>2021-05-07T14:27:40Z</time>
      </trkpt>
      <trkpt lat="47.70933" lon="5.1089">
        <ele>415.96</ele>
        <time>2021-05-07T14:27:43Z</time>
      </trkpt>
      <trkpt lat="47.70931" lon="5.10894">
        <ele>415.82</ele>
        <time>2021-05-07T14:27:46Z</time>
      </trkpt>
      <trkpt lat="47.70928" lon="5.10898">
        <ele>415.67</ele>
        <time>2021-05-07T14:27:49Z</time>
      </trkpt>
      <trkpt lat="47.70926" lon="5.10901">
        <ele>415.56</ele>
        <time>2021-05-07T14:27:52Z</time>
      </trkpt>
      <trkpt lat="47.70923" lon="5.10904">
        <ele>415.46</ele>
        <time>2021-05-07T14:27:56Z</time>
      </trkpt>
      <trkpt lat="47.7092" lon="5.10907">
        <ele>415.35</ele>
        <time>2021-05-07T14:28:00Z</time>
      </trkpt>
      <trkpt lat="47.70918" lon="5.10911">
        <ele>415.2</ele>
        <time>2021-05-07T14:28:03Z</time>
      </trkpt>
      <trkpt lat="47.70916" lon="5.10915">
        <ele>415.01</ele>
        <time>2021-05-07T14:28:06Z</time>
      </trkpt>
      <trkpt lat="47.70913" lon="5.10919">
        <ele>414.66</ele>
        <time>2021-05-07T14:28:09Z</time>
      </trkpt>
      <trkpt lat="47.70911" lon="5.10923">
        <ele>414.41</ele>
        <time>2021-05-07T14:28:12Z</time>
      </trkpt>
      <trkpt lat="47.7091" lon="5.10927">
        <ele>414.24</ele>
        <time>2021-05-07T14:28:14Z</time>
      </trkpt>
      <trkpt lat="47.70909" lon="5.10933">
        <ele>414.02</ele>
        <time>2021-05-07T14:28:17Z</time>
      </trkpt>
      <trkpt lat="47.70908" lon="5.10938">
        <ele>413.85</ele>
        <time>2021-05-07T14:28:20Z</time>
      </trkpt>
      <trkpt lat="47.70907" lon="5.10942">
        <ele>413.71</ele>
        <time>2021-05-07T14:28:22Z</time>
      </trkpt>
      <trkpt lat="47.70906" lon="5.10947">
        <ele>413.58</ele>
        <time>2021-05-07T14:28:25Z</time>
      </trkpt>
      <trkpt lat="47.70905" lon="5.10951">
        <ele>413.48</ele>
        <time>2021-05-07T14:28:28Z</time>
      </trkpt>
      <trkpt lat="47.70905" lon="5.10956">
        <ele>413.41</ele>
        <time>2021-05-07T14:28:31Z</time>
      </trkpt>
      <trkpt lat="47.70905" lon="5.10961">
        <ele>413.33</ele>
        <time>2021-05-07T14:28:34Z</time>
      </trkpt>
      <trkpt lat="47.70904" lon="5.10967">
        <ele>413.17</ele>
        <time>2021-05-07T14:28:37Z</time>
      </trkpt>
      <trkpt lat="47.70903" lon="5.10973">
        <ele>412.99</ele>
        <time>2021-05-07T14:28:40Z</time>
      </trkpt>
      <trkpt lat="47.70903" lon="5.10977">
        <ele>412.84</ele>
        <time>2021-05-07T14:28:43Z</time>
      </trkpt>
      <trkpt lat="47.70902" lon="5.10982">
        <ele>412.61</ele>
        <time>2021-05-07T14:28:46Z</time>
      </trkpt>
      <trkpt lat="47.70902" lon="5.10987">
        <ele>412.44</ele>
        <time>2021-05-07T14:28:49Z</time>
      </trkpt>
      <trkpt lat="47.70902" lon="5.10991">
        <ele>412.31</ele>
        <time>2021-05-07T14:28:51Z</time>
      </trkpt>
      <trkpt lat="47.70901" lon="5.10996">
        <ele>412.13</ele>
        <time>2021-05-07T14:28:53Z</time>
      </trkpt>
      <trkpt lat="47.70901" lon="5.11002">
        <ele>411.82</ele>
        <time>2021-05-07T14:28:55Z</time>
      </trkpt>
      <trkpt lat="47.70901" lon="5.11006">
        <ele>411.47</ele>
        <time>2021-05-07T14:28:57Z</time>
      </trkpt>
      <trkpt lat="47.709" lon="5.11012">
        <ele>410.96</ele>
        <time>2021-05-07T14:29:00Z</time>
      </trkpt>
      <trkpt lat="47.70899" lon="5.11016">
        <ele>410.64</ele>
        <time>2021-05-07T14:29:02Z</time>
      </trkpt>
      <trkpt lat="47.70898" lon="5.1102">
        <ele>410.32</ele>
        <time>2021-05-07T14:29:04Z</time>
      </trkpt>
      <trkpt lat="47.70896" lon="5.11025">
        <ele>409.97</ele>
        <time>2021-05-07T14:29:07Z</time>
      </trkpt>
      <trkpt lat="47.70895" lon="5.1103">
        <ele>409.5</ele>
        <time>2021-05-07T14:29:10Z</time>
      </trkpt>
      <trkpt lat="47.70893" lon="5.11034">
        <ele>409.02</ele>
        <time>2021-05-07T14:29:13Z</time>
      </trkpt>
      <trkpt lat="47.7089" lon="5.11037">
        <ele>408.66</ele>
        <time>2021-05-07T14:29:16Z</time>
      </trkpt>
      <trkpt lat="47.70887" lon="5.1104">
        <ele>408.18</ele>
        <time>2021-05-07T14:29:18Z</time>
      </trkpt>
      <trkpt lat="47.70885" lon="5.11042">
        <ele>407.81</ele>
        <time>2021-05-07T14:29:20Z</time>
      </trkpt>
      <trkpt lat="47.70883" lon="5.11045">
        <ele>407.26</ele>
        <time>2021-05-07T14:29:22Z</time>
      </trkpt>
      <trkpt lat="47.70881" lon="5.11048">
        <ele>406.67</ele>
        <time>2021-05-07T14:29:24Z</time>
      </trkpt>
      <trkpt lat="47.70879" lon="5.11052">
        <ele>405.89</ele>
        <time>2021-05-07T14:29:27Z</time>
      </trkpt>
      <trkpt lat="47.70877" lon="5.11056">
        <ele>405.12</ele>
        <time>2021-05-07T14:29:30Z</time>
      </trkpt>
      <trkpt lat="47.70875" lon="5.1106">
        <ele>404.76</ele>
        <time>2021-05-07T14:29:33Z</time>
      </trkpt>
      <trkpt lat="47.70875" lon="5.11064">
        <ele>404.54</ele>
        <time>2021-05-07T14:29:36Z</time>
      </trkpt>
      <trkpt lat="47.70875" lon="5.11068">
        <ele>404.33</ele>
        <time>2021-05-07T14:30:37Z</time>
      </trkpt>
      <trkpt lat="47.70877" lon="5.1107">
        <ele>404.33</ele>
        <time>2021-05-07T14:34:22Z</time>
      </trkpt>
      <trkpt lat="47.70875" lon="5.11073">
        <ele>404.06</ele>
        <time>2021-05-07T14:37:22Z</time>
      </trkpt>
      <trkpt lat="47.70876" lon="5.11069">
        <ele>404.33</ele>
        <time>2021-05-07T14:48:35Z</time>
      </trkpt>
      <trkpt lat="47.70876" lon="5.11073">
        <ele>404.11</ele>
        <time>2021-05-07T14:54:04Z</time>
      </trkpt>
      <trkpt lat="47.70876" lon="5.11077">
        <ele>403.89</ele>
        <time>2021-05-07T14:54:43Z</time>
      </trkpt>
      <trkpt lat="47.70877" lon="5.11081">
        <ele>403.7</ele>
        <time>2021-05-07T14:57:16Z</time>
      </trkpt>
      <trkpt lat="47.70878" lon="5.11085">
        <ele>403.55</ele>
        <time>2021-05-07T14:57:40Z</time>
      </trkpt>
      <trkpt lat="47.70877" lon="5.11081">
        <ele>403.7</ele>
        <time>2021-05-07T14:58:37Z</time>
      </trkpt>
      <trkpt lat="47.70877" lon="5.11077">
        <ele>403.93</ele>
        <time>2021-05-07T14:59:27Z</time>
      </trkpt>
      <trkpt lat="47.70877" lon="5.11073">
        <ele>404.16</ele>
        <time>2021-05-07T15:00:47Z</time>
      </trkpt>
      <trkpt lat="47.70878" lon="5.11069">
        <ele>404.44</ele>
        <time>2021-05-07T15:01:23Z</time>
      </trkpt>
      <trkpt lat="47.70876" lon="5.11072">
        <ele>404.16</ele>
        <time>2021-05-07T15:03:39Z</time>
      </trkpt>
      <trkpt lat="47.70877" lon="5.11075">
        <ele>404.04</ele>
        <time>2021-05-07T15:04:05Z</time>
      </trkpt>
      <trkpt lat="47.70877" lon="5.1108">
        <ele>403.76</ele>
        <time>2021-05-07T15:04:36Z</time>
      </trkpt>
      <trkpt lat="47.70878" lon="5.11076">
        <ele>404.03</ele>
        <time>2021-05-07T15:05:55Z</time>
      </trkpt>
      <trkpt lat="47.70877" lon="5.11071">
        <ele>404.27</ele>
        <time>2021-05-07T15:06:09Z</time>
      </trkpt>
      <trkpt lat="47.70874" lon="5.11072">
        <ele>404.06</ele>
        <time>2021-05-07T15:08:23Z</time>
      </trkpt>
      <trkpt lat="47.70875" lon="5.11076">
        <ele>403.9</ele>
        <time>2021-05-07T15:09:51Z</time>
      </trkpt>
      <trkpt lat="47.70876" lon="5.11072">
        <ele>404.16</ele>
        <time>2021-05-07T15:11:26Z</time>
      </trkpt>
      <trkpt lat="47.70865" lon="5.1108">
        <ele>403.28</ele>
        <time>2021-05-07T15:13:58Z</time>
      </trkpt>
      <trkpt lat="47.70856" lon="5.11092">
        <ele>402.83</ele>
        <time>2021-05-07T15:14:09Z</time>
      </trkpt>
      <trkpt lat="47.70847" lon="5.11106">
        <ele>401.54</ele>
        <time>2021-05-07T15:14:22Z</time>
      </trkpt>
      <trkpt lat="47.70839" lon="5.11119">
        <ele>399.9</ele>
        <time>2021-05-07T15:14:32Z</time>
      </trkpt>
      <trkpt lat="47.70832" lon="5.11133">
        <ele>398.43</ele>
        <time>2021-05-07T15:14:43Z</time>
      </trkpt>
      <trkpt lat="47.70824" lon="5.11147">
        <ele>397.57</ele>
        <time>2021-05-07T15:14:54Z</time>
      </trkpt>
      <trkpt lat="47.70815" lon="5.11158">
        <ele>396.89</ele>
        <time>2021-05-07T15:15:04Z</time>
      </trkpt>
      <trkpt lat="47.70806" lon="5.1117">
        <ele>395.91</ele>
        <time>2021-05-07T15:15:15Z</time>
      </trkpt>
      <trkpt lat="47.70796" lon="5.11179">
        <ele>395.59</ele>
        <time>2021-05-07T15:15:25Z</time>
      </trkpt>
      <trkpt lat="47.7079" lon="5.11186">
        <ele>395.08</ele>
        <time>2021-05-07T15:15:31Z</time>
      </trkpt>
      <trkpt lat="47.70784" lon="5.11186">
        <ele>395</ele>
        <time>2021-05-07T15:15:38Z</time>
      </trkpt>
      <trkpt lat="47.70778" lon="5.11189">
        <ele>394.59</ele>
        <time>2021-05-07T15:16:03Z</time>
      </trkpt>
      <trkpt lat="47.7078" lon="5.11197">
        <ele>394</ele>
        <time>2021-05-07T15:16:16Z</time>
      </trkpt>
      <trkpt lat="47.70787" lon="5.11195">
        <ele>394.32</ele>
        <time>2021-05-07T15:16:45Z</time>
      </trkpt>
      <trkpt lat="47.70794" lon="5.11199">
        <ele>394.52</ele>
        <time>2021-05-07T15:17:16Z</time>
      </trkpt>
      <trkpt lat="47.70801" lon="5.11205">
        <ele>394.77</ele>
        <time>2021-05-07T15:17:40Z</time>
      </trkpt>
      <trkpt lat="47.70792" lon="5.11197">
        <ele>394.47</ele>
        <time>2021-05-07T15:18:11Z</time>
      </trkpt>
    </trkseg>
  </trk>
</gpx>